<?xml version="1.0" encoding="UTF-8" standalone="no" ?>
<gpx xmlns="http://www.topografix.com/GPX/1/1" xmlns:xsi="http://www.w3.org/2001/XMLSchema-instance" xsi:schemaLocation="http://www.topografix.com/GPX/1/1 http://www.topografix.com/GPX/1/1/gpx.xsd" version="1.1" creator="VisuGPX - https://www.visugpx.com">
  <metadata>
    <name>2018-04-08 Bike ride-Ambérieux Saône O 32k</name>
    <desc><![CDATA[2018-04-08 Bike ride-Ambérieux Saône O 32k]]></desc>
  </metadata>
  <wpt lat="45.92456" lon="4.73714">
    <ele>174</ele>
    <name><![CDATA[2018-04-08 10:45 (Start)]]></name>
  </wpt>
  <wpt lat="45.92462" lon="4.73709">
    <ele>174</ele>
    <name><![CDATA[2018-04-08 10:45 (End)]]></name>
  </wpt>
  <trk>
    <name><![CDATA[2018-04-08 10:45]]></name>
    <trkseg>
      <trkpt lat="45.92456" lon="4.73714">
        <ele>174</ele>
        <time>2018-04-08T08:45:33.449Z</time>
      </trkpt>
      <trkpt lat="45.9246" lon="4.73704">
        <ele>174</ele>
        <time>2018-04-08T08:45:56Z</time>
      </trkpt>
      <trkpt lat="45.92462" lon="4.73702">
        <ele>174</ele>
        <time>2018-04-08T08:45:57Z</time>
      </trkpt>
      <trkpt lat="45.92465" lon="4.73694">
        <ele>174</ele>
        <time>2018-04-08T08:46:00Z</time>
      </trkpt>
      <trkpt lat="45.92467" lon="4.7369">
        <ele>174</ele>
        <time>2018-04-08T08:46:01Z</time>
      </trkpt>
      <trkpt lat="45.92469" lon="4.73679">
        <ele>174</ele>
        <time>2018-04-08T08:46:04Z</time>
      </trkpt>
      <trkpt lat="45.9247" lon="4.73675">
        <ele>174</ele>
        <time>2018-04-08T08:46:05Z</time>
      </trkpt>
      <trkpt lat="45.92471" lon="4.73666">
        <ele>174</ele>
        <time>2018-04-08T08:46:07Z</time>
      </trkpt>
      <trkpt lat="45.92471" lon="4.73661">
        <ele>174</ele>
        <time>2018-04-08T08:46:08Z</time>
      </trkpt>
      <trkpt lat="45.92473" lon="4.73647">
        <ele>174</ele>
        <time>2018-04-08T08:46:09Z</time>
      </trkpt>
      <trkpt lat="45.92474" lon="4.73636">
        <ele>174</ele>
        <time>2018-04-08T08:46:11Z</time>
      </trkpt>
      <trkpt lat="45.92474" lon="4.7363">
        <ele>174</ele>
        <time>2018-04-08T08:46:12Z</time>
      </trkpt>
      <trkpt lat="45.92473" lon="4.73617">
        <ele>174</ele>
        <time>2018-04-08T08:46:14Z</time>
      </trkpt>
      <trkpt lat="45.92472" lon="4.73609">
        <ele>174</ele>
        <time>2018-04-08T08:46:15Z</time>
      </trkpt>
      <trkpt lat="45.92471" lon="4.73597">
        <ele>174</ele>
        <time>2018-04-08T08:46:17Z</time>
      </trkpt>
      <trkpt lat="45.92471" lon="4.7359">
        <ele>174</ele>
        <time>2018-04-08T08:46:18Z</time>
      </trkpt>
      <trkpt lat="45.92471" lon="4.73583">
        <ele>173</ele>
        <time>2018-04-08T08:46:19Z</time>
      </trkpt>
      <trkpt lat="45.92471" lon="4.73576">
        <ele>173</ele>
        <time>2018-04-08T08:46:20Z</time>
      </trkpt>
      <trkpt lat="45.92471" lon="4.73564">
        <ele>173</ele>
        <time>2018-04-08T08:46:22Z</time>
      </trkpt>
      <trkpt lat="45.9247" lon="4.73558">
        <ele>173</ele>
        <time>2018-04-08T08:46:23Z</time>
      </trkpt>
      <trkpt lat="45.92469" lon="4.7355">
        <ele>173</ele>
        <time>2018-04-08T08:46:26Z</time>
      </trkpt>
      <trkpt lat="45.92463" lon="4.73543">
        <ele>173</ele>
        <time>2018-04-08T08:46:27Z</time>
      </trkpt>
      <trkpt lat="45.92455" lon="4.73544">
        <ele>174</ele>
        <time>2018-04-08T08:46:29Z</time>
      </trkpt>
      <trkpt lat="45.92451" lon="4.73547">
        <ele>174</ele>
        <time>2018-04-08T08:46:30Z</time>
      </trkpt>
      <trkpt lat="45.92447" lon="4.73549">
        <ele>174</ele>
        <time>2018-04-08T08:46:31Z</time>
      </trkpt>
      <trkpt lat="45.92443" lon="4.73552">
        <ele>174</ele>
        <time>2018-04-08T08:46:32Z</time>
      </trkpt>
      <trkpt lat="45.92439" lon="4.73554">
        <ele>174</ele>
        <time>2018-04-08T08:46:33Z</time>
      </trkpt>
      <trkpt lat="45.92434" lon="4.73558">
        <ele>174</ele>
        <time>2018-04-08T08:46:34Z</time>
      </trkpt>
      <trkpt lat="45.92429" lon="4.73561">
        <ele>174</ele>
        <time>2018-04-08T08:46:35Z</time>
      </trkpt>
      <trkpt lat="45.92425" lon="4.73563">
        <ele>174</ele>
        <time>2018-04-08T08:46:36Z</time>
      </trkpt>
      <trkpt lat="45.92419" lon="4.73565">
        <ele>174</ele>
        <time>2018-04-08T08:46:37Z</time>
      </trkpt>
      <trkpt lat="45.92413" lon="4.73566">
        <ele>173</ele>
        <time>2018-04-08T08:46:38Z</time>
      </trkpt>
      <trkpt lat="45.92409" lon="4.73569">
        <ele>173</ele>
        <time>2018-04-08T08:46:39Z</time>
      </trkpt>
      <trkpt lat="45.92403" lon="4.73572">
        <ele>173</ele>
        <time>2018-04-08T08:46:40Z</time>
      </trkpt>
      <trkpt lat="45.92398" lon="4.73575">
        <ele>173</ele>
        <time>2018-04-08T08:46:41Z</time>
      </trkpt>
      <trkpt lat="45.92393" lon="4.73577">
        <ele>173</ele>
        <time>2018-04-08T08:46:42Z</time>
      </trkpt>
      <trkpt lat="45.92387" lon="4.7358">
        <ele>173</ele>
        <time>2018-04-08T08:46:43Z</time>
      </trkpt>
      <trkpt lat="45.92381" lon="4.73582">
        <ele>173</ele>
        <time>2018-04-08T08:46:44Z</time>
      </trkpt>
      <trkpt lat="45.92376" lon="4.73585">
        <ele>173</ele>
        <time>2018-04-08T08:46:45Z</time>
      </trkpt>
      <trkpt lat="45.92371" lon="4.73588">
        <ele>173</ele>
        <time>2018-04-08T08:46:46Z</time>
      </trkpt>
      <trkpt lat="45.92365" lon="4.73589">
        <ele>173</ele>
        <time>2018-04-08T08:46:47Z</time>
      </trkpt>
      <trkpt lat="45.9236" lon="4.73592">
        <ele>173</ele>
        <time>2018-04-08T08:46:48Z</time>
      </trkpt>
      <trkpt lat="45.92354" lon="4.73594">
        <ele>173</ele>
        <time>2018-04-08T08:46:49Z</time>
      </trkpt>
      <trkpt lat="45.92349" lon="4.73597">
        <ele>173</ele>
        <time>2018-04-08T08:46:50Z</time>
      </trkpt>
      <trkpt lat="45.92344" lon="4.736">
        <ele>173</ele>
        <time>2018-04-08T08:46:51Z</time>
      </trkpt>
      <trkpt lat="45.92339" lon="4.73603">
        <ele>173</ele>
        <time>2018-04-08T08:46:52Z</time>
      </trkpt>
      <trkpt lat="45.92333" lon="4.73606">
        <ele>172</ele>
        <time>2018-04-08T08:46:53Z</time>
      </trkpt>
      <trkpt lat="45.92328" lon="4.73609">
        <ele>172</ele>
        <time>2018-04-08T08:46:54Z</time>
      </trkpt>
      <trkpt lat="45.92323" lon="4.73612">
        <ele>172</ele>
        <time>2018-04-08T08:46:55Z</time>
      </trkpt>
      <trkpt lat="45.92318" lon="4.73615">
        <ele>172</ele>
        <time>2018-04-08T08:46:56Z</time>
      </trkpt>
      <trkpt lat="45.92312" lon="4.73619">
        <ele>172</ele>
        <time>2018-04-08T08:46:57Z</time>
      </trkpt>
      <trkpt lat="45.92307" lon="4.73621">
        <ele>172</ele>
        <time>2018-04-08T08:46:58Z</time>
      </trkpt>
      <trkpt lat="45.92301" lon="4.73624">
        <ele>172</ele>
        <time>2018-04-08T08:46:59Z</time>
      </trkpt>
      <trkpt lat="45.92296" lon="4.73627">
        <ele>172</ele>
        <time>2018-04-08T08:47:00Z</time>
      </trkpt>
      <trkpt lat="45.92291" lon="4.7363">
        <ele>172</ele>
        <time>2018-04-08T08:47:01Z</time>
      </trkpt>
      <trkpt lat="45.92285" lon="4.73633">
        <ele>172</ele>
        <time>2018-04-08T08:47:02Z</time>
      </trkpt>
      <trkpt lat="45.9228" lon="4.73636">
        <ele>172</ele>
        <time>2018-04-08T08:47:03Z</time>
      </trkpt>
      <trkpt lat="45.92274" lon="4.73639">
        <ele>172</ele>
        <time>2018-04-08T08:47:04Z</time>
      </trkpt>
      <trkpt lat="45.92269" lon="4.73642">
        <ele>172</ele>
        <time>2018-04-08T08:47:05Z</time>
      </trkpt>
      <trkpt lat="45.92263" lon="4.73645">
        <ele>172</ele>
        <time>2018-04-08T08:47:06Z</time>
      </trkpt>
      <trkpt lat="45.92258" lon="4.73648">
        <ele>171</ele>
        <time>2018-04-08T08:47:07Z</time>
      </trkpt>
      <trkpt lat="45.92252" lon="4.7365">
        <ele>171</ele>
        <time>2018-04-08T08:47:08Z</time>
      </trkpt>
      <trkpt lat="45.92246" lon="4.73653">
        <ele>171</ele>
        <time>2018-04-08T08:47:09Z</time>
      </trkpt>
      <trkpt lat="45.92241" lon="4.73657">
        <ele>171</ele>
        <time>2018-04-08T08:47:10Z</time>
      </trkpt>
      <trkpt lat="45.92235" lon="4.7366">
        <ele>171</ele>
        <time>2018-04-08T08:47:11Z</time>
      </trkpt>
      <trkpt lat="45.9223" lon="4.73665">
        <ele>171</ele>
        <time>2018-04-08T08:47:12Z</time>
      </trkpt>
      <trkpt lat="45.92224" lon="4.73668">
        <ele>171</ele>
        <time>2018-04-08T08:47:13Z</time>
      </trkpt>
      <trkpt lat="45.92219" lon="4.73672">
        <ele>171</ele>
        <time>2018-04-08T08:47:14Z</time>
      </trkpt>
      <trkpt lat="45.92213" lon="4.73676">
        <ele>171</ele>
        <time>2018-04-08T08:47:15Z</time>
      </trkpt>
      <trkpt lat="45.92207" lon="4.73678">
        <ele>171</ele>
        <time>2018-04-08T08:47:16Z</time>
      </trkpt>
      <trkpt lat="45.92201" lon="4.73682">
        <ele>171</ele>
        <time>2018-04-08T08:47:17Z</time>
      </trkpt>
      <trkpt lat="45.92195" lon="4.73684">
        <ele>171</ele>
        <time>2018-04-08T08:47:18Z</time>
      </trkpt>
      <trkpt lat="45.9219" lon="4.73687">
        <ele>171</ele>
        <time>2018-04-08T08:47:19Z</time>
      </trkpt>
      <trkpt lat="45.92184" lon="4.7369">
        <ele>171</ele>
        <time>2018-04-08T08:47:20Z</time>
      </trkpt>
      <trkpt lat="45.92179" lon="4.73693">
        <ele>171</ele>
        <time>2018-04-08T08:47:21Z</time>
      </trkpt>
      <trkpt lat="45.92174" lon="4.73695">
        <ele>171</ele>
        <time>2018-04-08T08:47:22Z</time>
      </trkpt>
      <trkpt lat="45.92169" lon="4.73699">
        <ele>171</ele>
        <time>2018-04-08T08:47:23Z</time>
      </trkpt>
      <trkpt lat="45.92163" lon="4.73702">
        <ele>171</ele>
        <time>2018-04-08T08:47:24Z</time>
      </trkpt>
      <trkpt lat="45.92158" lon="4.73704">
        <ele>171</ele>
        <time>2018-04-08T08:47:25Z</time>
      </trkpt>
      <trkpt lat="45.92152" lon="4.73706">
        <ele>171</ele>
        <time>2018-04-08T08:47:26Z</time>
      </trkpt>
      <trkpt lat="45.92146" lon="4.73709">
        <ele>171</ele>
        <time>2018-04-08T08:47:27Z</time>
      </trkpt>
      <trkpt lat="45.9214" lon="4.73711">
        <ele>171</ele>
        <time>2018-04-08T08:47:28Z</time>
      </trkpt>
      <trkpt lat="45.92134" lon="4.73713">
        <ele>171</ele>
        <time>2018-04-08T08:47:29Z</time>
      </trkpt>
      <trkpt lat="45.92129" lon="4.73715">
        <ele>171</ele>
        <time>2018-04-08T08:47:30Z</time>
      </trkpt>
      <trkpt lat="45.92122" lon="4.73717">
        <ele>171</ele>
        <time>2018-04-08T08:47:31Z</time>
      </trkpt>
      <trkpt lat="45.92116" lon="4.73718">
        <ele>171</ele>
        <time>2018-04-08T08:47:32Z</time>
      </trkpt>
      <trkpt lat="45.9211" lon="4.7372">
        <ele>171</ele>
        <time>2018-04-08T08:47:33Z</time>
      </trkpt>
      <trkpt lat="45.92104" lon="4.73722">
        <ele>171</ele>
        <time>2018-04-08T08:47:34Z</time>
      </trkpt>
      <trkpt lat="45.92098" lon="4.73723">
        <ele>171</ele>
        <time>2018-04-08T08:47:35Z</time>
      </trkpt>
      <trkpt lat="45.92091" lon="4.73724">
        <ele>171</ele>
        <time>2018-04-08T08:47:36Z</time>
      </trkpt>
      <trkpt lat="45.92085" lon="4.73726">
        <ele>171</ele>
        <time>2018-04-08T08:47:37Z</time>
      </trkpt>
      <trkpt lat="45.92078" lon="4.73727">
        <ele>171</ele>
        <time>2018-04-08T08:47:38Z</time>
      </trkpt>
      <trkpt lat="45.92071" lon="4.73728">
        <ele>171</ele>
        <time>2018-04-08T08:47:39Z</time>
      </trkpt>
      <trkpt lat="45.92064" lon="4.73729">
        <ele>171</ele>
        <time>2018-04-08T08:47:40Z</time>
      </trkpt>
      <trkpt lat="45.92058" lon="4.73729">
        <ele>171</ele>
        <time>2018-04-08T08:47:41Z</time>
      </trkpt>
      <trkpt lat="45.92052" lon="4.7373">
        <ele>171</ele>
        <time>2018-04-08T08:47:42Z</time>
      </trkpt>
      <trkpt lat="45.92045" lon="4.7373">
        <ele>171</ele>
        <time>2018-04-08T08:47:43Z</time>
      </trkpt>
      <trkpt lat="45.92039" lon="4.7373">
        <ele>171</ele>
        <time>2018-04-08T08:47:44Z</time>
      </trkpt>
      <trkpt lat="45.92033" lon="4.73731">
        <ele>171</ele>
        <time>2018-04-08T08:47:45Z</time>
      </trkpt>
      <trkpt lat="45.92027" lon="4.73731">
        <ele>171</ele>
        <time>2018-04-08T08:47:46Z</time>
      </trkpt>
      <trkpt lat="45.9202" lon="4.73731">
        <ele>171</ele>
        <time>2018-04-08T08:47:47Z</time>
      </trkpt>
      <trkpt lat="45.92014" lon="4.73731">
        <ele>171</ele>
        <time>2018-04-08T08:47:48Z</time>
      </trkpt>
      <trkpt lat="45.92008" lon="4.7373">
        <ele>171</ele>
        <time>2018-04-08T08:47:49Z</time>
      </trkpt>
      <trkpt lat="45.92002" lon="4.7373">
        <ele>171</ele>
        <time>2018-04-08T08:47:50Z</time>
      </trkpt>
      <trkpt lat="45.91996" lon="4.73731">
        <ele>171</ele>
        <time>2018-04-08T08:47:51Z</time>
      </trkpt>
      <trkpt lat="45.9199" lon="4.73731">
        <ele>171</ele>
        <time>2018-04-08T08:47:52Z</time>
      </trkpt>
      <trkpt lat="45.91984" lon="4.73731">
        <ele>171</ele>
        <time>2018-04-08T08:47:53Z</time>
      </trkpt>
      <trkpt lat="45.91977" lon="4.7373">
        <ele>171</ele>
        <time>2018-04-08T08:47:54Z</time>
      </trkpt>
      <trkpt lat="45.91971" lon="4.7373">
        <ele>171</ele>
        <time>2018-04-08T08:47:55Z</time>
      </trkpt>
      <trkpt lat="45.91964" lon="4.73729">
        <ele>171</ele>
        <time>2018-04-08T08:47:56Z</time>
      </trkpt>
      <trkpt lat="45.91958" lon="4.73729">
        <ele>170</ele>
        <time>2018-04-08T08:47:57Z</time>
      </trkpt>
      <trkpt lat="45.91951" lon="4.73729">
        <ele>170</ele>
        <time>2018-04-08T08:47:58Z</time>
      </trkpt>
      <trkpt lat="45.91945" lon="4.73729">
        <ele>170</ele>
        <time>2018-04-08T08:47:59Z</time>
      </trkpt>
      <trkpt lat="45.91939" lon="4.73729">
        <ele>170</ele>
        <time>2018-04-08T08:48:00Z</time>
      </trkpt>
      <trkpt lat="45.91932" lon="4.73729">
        <ele>170</ele>
        <time>2018-04-08T08:48:01Z</time>
      </trkpt>
      <trkpt lat="45.91926" lon="4.73729">
        <ele>170</ele>
        <time>2018-04-08T08:48:02Z</time>
      </trkpt>
      <trkpt lat="45.9192" lon="4.73729">
        <ele>170</ele>
        <time>2018-04-08T08:48:03Z</time>
      </trkpt>
      <trkpt lat="45.91914" lon="4.73728">
        <ele>171</ele>
        <time>2018-04-08T08:48:04Z</time>
      </trkpt>
      <trkpt lat="45.91907" lon="4.73728">
        <ele>171</ele>
        <time>2018-04-08T08:48:05Z</time>
      </trkpt>
      <trkpt lat="45.91901" lon="4.73729">
        <ele>171</ele>
        <time>2018-04-08T08:48:06Z</time>
      </trkpt>
      <trkpt lat="45.91895" lon="4.73729">
        <ele>171</ele>
        <time>2018-04-08T08:48:07Z</time>
      </trkpt>
      <trkpt lat="45.91889" lon="4.73729">
        <ele>171</ele>
        <time>2018-04-08T08:48:08Z</time>
      </trkpt>
      <trkpt lat="45.91883" lon="4.73729">
        <ele>171</ele>
        <time>2018-04-08T08:48:09Z</time>
      </trkpt>
      <trkpt lat="45.91878" lon="4.7373">
        <ele>171</ele>
        <time>2018-04-08T08:48:10Z</time>
      </trkpt>
      <trkpt lat="45.91872" lon="4.73729">
        <ele>171</ele>
        <time>2018-04-08T08:48:11Z</time>
      </trkpt>
      <trkpt lat="45.91867" lon="4.7373">
        <ele>171</ele>
        <time>2018-04-08T08:48:12Z</time>
      </trkpt>
      <trkpt lat="45.91861" lon="4.73731">
        <ele>171</ele>
        <time>2018-04-08T08:48:13Z</time>
      </trkpt>
      <trkpt lat="45.91855" lon="4.73731">
        <ele>171</ele>
        <time>2018-04-08T08:48:14Z</time>
      </trkpt>
      <trkpt lat="45.9185" lon="4.73731">
        <ele>172</ele>
        <time>2018-04-08T08:48:15Z</time>
      </trkpt>
      <trkpt lat="45.91844" lon="4.73731">
        <ele>172</ele>
        <time>2018-04-08T08:48:16Z</time>
      </trkpt>
      <trkpt lat="45.91837" lon="4.73731">
        <ele>172</ele>
        <time>2018-04-08T08:48:17Z</time>
      </trkpt>
      <trkpt lat="45.91832" lon="4.7373">
        <ele>172</ele>
        <time>2018-04-08T08:48:18Z</time>
      </trkpt>
      <trkpt lat="45.91826" lon="4.73729">
        <ele>172</ele>
        <time>2018-04-08T08:48:19Z</time>
      </trkpt>
      <trkpt lat="45.9182" lon="4.7373">
        <ele>172</ele>
        <time>2018-04-08T08:48:20Z</time>
      </trkpt>
      <trkpt lat="45.91815" lon="4.7373">
        <ele>172</ele>
        <time>2018-04-08T08:48:21Z</time>
      </trkpt>
      <trkpt lat="45.91809" lon="4.7373">
        <ele>172</ele>
        <time>2018-04-08T08:48:22Z</time>
      </trkpt>
      <trkpt lat="45.91802" lon="4.73731">
        <ele>172</ele>
        <time>2018-04-08T08:48:23Z</time>
      </trkpt>
      <trkpt lat="45.91797" lon="4.73732">
        <ele>172</ele>
        <time>2018-04-08T08:48:24Z</time>
      </trkpt>
      <trkpt lat="45.91791" lon="4.73732">
        <ele>173</ele>
        <time>2018-04-08T08:48:25Z</time>
      </trkpt>
      <trkpt lat="45.91786" lon="4.73732">
        <ele>173</ele>
        <time>2018-04-08T08:48:26Z</time>
      </trkpt>
      <trkpt lat="45.9178" lon="4.73732">
        <ele>173</ele>
        <time>2018-04-08T08:48:27Z</time>
      </trkpt>
      <trkpt lat="45.91775" lon="4.73732">
        <ele>173</ele>
        <time>2018-04-08T08:48:28Z</time>
      </trkpt>
      <trkpt lat="45.9177" lon="4.73732">
        <ele>173</ele>
        <time>2018-04-08T08:48:29Z</time>
      </trkpt>
      <trkpt lat="45.91764" lon="4.73732">
        <ele>173</ele>
        <time>2018-04-08T08:48:30Z</time>
      </trkpt>
      <trkpt lat="45.91759" lon="4.73731">
        <ele>173</ele>
        <time>2018-04-08T08:48:31Z</time>
      </trkpt>
      <trkpt lat="45.91753" lon="4.73732">
        <ele>173</ele>
        <time>2018-04-08T08:48:32Z</time>
      </trkpt>
      <trkpt lat="45.91748" lon="4.73732">
        <ele>173</ele>
        <time>2018-04-08T08:48:33Z</time>
      </trkpt>
      <trkpt lat="45.91741" lon="4.73732">
        <ele>173</ele>
        <time>2018-04-08T08:48:34Z</time>
      </trkpt>
      <trkpt lat="45.91736" lon="4.73733">
        <ele>173</ele>
        <time>2018-04-08T08:48:35Z</time>
      </trkpt>
      <trkpt lat="45.9173" lon="4.73733">
        <ele>173</ele>
        <time>2018-04-08T08:48:36Z</time>
      </trkpt>
      <trkpt lat="45.91724" lon="4.73734">
        <ele>173</ele>
        <time>2018-04-08T08:48:37Z</time>
      </trkpt>
      <trkpt lat="45.91717" lon="4.73735">
        <ele>173</ele>
        <time>2018-04-08T08:48:38Z</time>
      </trkpt>
      <trkpt lat="45.91711" lon="4.73735">
        <ele>173</ele>
        <time>2018-04-08T08:48:39Z</time>
      </trkpt>
      <trkpt lat="45.91705" lon="4.73734">
        <ele>172</ele>
        <time>2018-04-08T08:48:40Z</time>
      </trkpt>
      <trkpt lat="45.91698" lon="4.73734">
        <ele>172</ele>
        <time>2018-04-08T08:48:41Z</time>
      </trkpt>
      <trkpt lat="45.91692" lon="4.73735">
        <ele>172</ele>
        <time>2018-04-08T08:48:42Z</time>
      </trkpt>
      <trkpt lat="45.91686" lon="4.73735">
        <ele>172</ele>
        <time>2018-04-08T08:48:43Z</time>
      </trkpt>
      <trkpt lat="45.9168" lon="4.73734">
        <ele>172</ele>
        <time>2018-04-08T08:48:44Z</time>
      </trkpt>
      <trkpt lat="45.91674" lon="4.73735">
        <ele>172</ele>
        <time>2018-04-08T08:48:45Z</time>
      </trkpt>
      <trkpt lat="45.91668" lon="4.73736">
        <ele>172</ele>
        <time>2018-04-08T08:48:46Z</time>
      </trkpt>
      <trkpt lat="45.91662" lon="4.73736">
        <ele>172</ele>
        <time>2018-04-08T08:48:47Z</time>
      </trkpt>
      <trkpt lat="45.91656" lon="4.73735">
        <ele>172</ele>
        <time>2018-04-08T08:48:48Z</time>
      </trkpt>
      <trkpt lat="45.91651" lon="4.73736">
        <ele>172</ele>
        <time>2018-04-08T08:48:49Z</time>
      </trkpt>
      <trkpt lat="45.91645" lon="4.73737">
        <ele>172</ele>
        <time>2018-04-08T08:48:50Z</time>
      </trkpt>
      <trkpt lat="45.91639" lon="4.73737">
        <ele>172</ele>
        <time>2018-04-08T08:48:51Z</time>
      </trkpt>
      <trkpt lat="45.91634" lon="4.73738">
        <ele>172</ele>
        <time>2018-04-08T08:48:52Z</time>
      </trkpt>
      <trkpt lat="45.91628" lon="4.73738">
        <ele>172</ele>
        <time>2018-04-08T08:48:53Z</time>
      </trkpt>
      <trkpt lat="45.91622" lon="4.73738">
        <ele>173</ele>
        <time>2018-04-08T08:48:54Z</time>
      </trkpt>
      <trkpt lat="45.91616" lon="4.73737">
        <ele>173</ele>
        <time>2018-04-08T08:48:55Z</time>
      </trkpt>
      <trkpt lat="45.9161" lon="4.73737">
        <ele>173</ele>
        <time>2018-04-08T08:48:56Z</time>
      </trkpt>
      <trkpt lat="45.91605" lon="4.73736">
        <ele>173</ele>
        <time>2018-04-08T08:48:57Z</time>
      </trkpt>
      <trkpt lat="45.916" lon="4.73737">
        <ele>173</ele>
        <time>2018-04-08T08:48:58Z</time>
      </trkpt>
      <trkpt lat="45.91594" lon="4.73736">
        <ele>173</ele>
        <time>2018-04-08T08:48:59Z</time>
      </trkpt>
      <trkpt lat="45.91589" lon="4.73736">
        <ele>173</ele>
        <time>2018-04-08T08:49:00Z</time>
      </trkpt>
      <trkpt lat="45.91583" lon="4.73736">
        <ele>173</ele>
        <time>2018-04-08T08:49:01Z</time>
      </trkpt>
      <trkpt lat="45.91578" lon="4.73736">
        <ele>173</ele>
        <time>2018-04-08T08:49:02Z</time>
      </trkpt>
      <trkpt lat="45.91572" lon="4.73736">
        <ele>173</ele>
        <time>2018-04-08T08:49:03Z</time>
      </trkpt>
      <trkpt lat="45.91566" lon="4.73736">
        <ele>173</ele>
        <time>2018-04-08T08:49:04Z</time>
      </trkpt>
      <trkpt lat="45.9156" lon="4.73736">
        <ele>173</ele>
        <time>2018-04-08T08:49:05Z</time>
      </trkpt>
      <trkpt lat="45.91554" lon="4.73736">
        <ele>174</ele>
        <time>2018-04-08T08:49:06Z</time>
      </trkpt>
      <trkpt lat="45.91548" lon="4.73735">
        <ele>174</ele>
        <time>2018-04-08T08:49:07Z</time>
      </trkpt>
      <trkpt lat="45.91542" lon="4.73735">
        <ele>174</ele>
        <time>2018-04-08T08:49:08Z</time>
      </trkpt>
      <trkpt lat="45.91536" lon="4.73735">
        <ele>174</ele>
        <time>2018-04-08T08:49:09Z</time>
      </trkpt>
      <trkpt lat="45.91531" lon="4.73735">
        <ele>174</ele>
        <time>2018-04-08T08:49:10Z</time>
      </trkpt>
      <trkpt lat="45.91524" lon="4.73735">
        <ele>174</ele>
        <time>2018-04-08T08:49:11Z</time>
      </trkpt>
      <trkpt lat="45.91518" lon="4.73735">
        <ele>174</ele>
        <time>2018-04-08T08:49:12Z</time>
      </trkpt>
      <trkpt lat="45.91511" lon="4.73735">
        <ele>174</ele>
        <time>2018-04-08T08:49:13Z</time>
      </trkpt>
      <trkpt lat="45.91505" lon="4.73734">
        <ele>174</ele>
        <time>2018-04-08T08:49:14Z</time>
      </trkpt>
      <trkpt lat="45.91499" lon="4.73734">
        <ele>174</ele>
        <time>2018-04-08T08:49:15Z</time>
      </trkpt>
      <trkpt lat="45.91494" lon="4.73734">
        <ele>174</ele>
        <time>2018-04-08T08:49:16Z</time>
      </trkpt>
      <trkpt lat="45.91487" lon="4.73734">
        <ele>174</ele>
        <time>2018-04-08T08:49:17Z</time>
      </trkpt>
      <trkpt lat="45.91481" lon="4.73734">
        <ele>174</ele>
        <time>2018-04-08T08:49:18Z</time>
      </trkpt>
      <trkpt lat="45.91476" lon="4.73734">
        <ele>174</ele>
        <time>2018-04-08T08:49:19Z</time>
      </trkpt>
      <trkpt lat="45.9147" lon="4.73734">
        <ele>174</ele>
        <time>2018-04-08T08:49:20Z</time>
      </trkpt>
      <trkpt lat="45.91465" lon="4.73734">
        <ele>174</ele>
        <time>2018-04-08T08:49:21Z</time>
      </trkpt>
      <trkpt lat="45.9146" lon="4.73735">
        <ele>174</ele>
        <time>2018-04-08T08:49:22Z</time>
      </trkpt>
      <trkpt lat="45.91454" lon="4.73735">
        <ele>173</ele>
        <time>2018-04-08T08:49:23Z</time>
      </trkpt>
      <trkpt lat="45.91448" lon="4.73735">
        <ele>173</ele>
        <time>2018-04-08T08:49:24Z</time>
      </trkpt>
      <trkpt lat="45.91442" lon="4.73735">
        <ele>173</ele>
        <time>2018-04-08T08:49:25Z</time>
      </trkpt>
      <trkpt lat="45.91437" lon="4.73736">
        <ele>173</ele>
        <time>2018-04-08T08:49:26Z</time>
      </trkpt>
      <trkpt lat="45.91431" lon="4.73736">
        <ele>173</ele>
        <time>2018-04-08T08:49:27Z</time>
      </trkpt>
      <trkpt lat="45.91425" lon="4.73736">
        <ele>173</ele>
        <time>2018-04-08T08:49:28Z</time>
      </trkpt>
      <trkpt lat="45.91418" lon="4.73736">
        <ele>173</ele>
        <time>2018-04-08T08:49:29Z</time>
      </trkpt>
      <trkpt lat="45.91412" lon="4.73736">
        <ele>173</ele>
        <time>2018-04-08T08:49:30Z</time>
      </trkpt>
      <trkpt lat="45.91406" lon="4.73736">
        <ele>173</ele>
        <time>2018-04-08T08:49:31Z</time>
      </trkpt>
      <trkpt lat="45.914" lon="4.73736">
        <ele>173</ele>
        <time>2018-04-08T08:49:32Z</time>
      </trkpt>
      <trkpt lat="45.91394" lon="4.73736">
        <ele>173</ele>
        <time>2018-04-08T08:49:33Z</time>
      </trkpt>
      <trkpt lat="45.91388" lon="4.73737">
        <ele>173</ele>
        <time>2018-04-08T08:49:34Z</time>
      </trkpt>
      <trkpt lat="45.91382" lon="4.73737">
        <ele>173</ele>
        <time>2018-04-08T08:49:35Z</time>
      </trkpt>
      <trkpt lat="45.91376" lon="4.73737">
        <ele>173</ele>
        <time>2018-04-08T08:49:36Z</time>
      </trkpt>
      <trkpt lat="45.9137" lon="4.73737">
        <ele>173</ele>
        <time>2018-04-08T08:49:37Z</time>
      </trkpt>
      <trkpt lat="45.91364" lon="4.73737">
        <ele>173</ele>
        <time>2018-04-08T08:49:38Z</time>
      </trkpt>
      <trkpt lat="45.91358" lon="4.73737">
        <ele>173</ele>
        <time>2018-04-08T08:49:39Z</time>
      </trkpt>
      <trkpt lat="45.91351" lon="4.73737">
        <ele>173</ele>
        <time>2018-04-08T08:49:40Z</time>
      </trkpt>
      <trkpt lat="45.91345" lon="4.73737">
        <ele>173</ele>
        <time>2018-04-08T08:49:41Z</time>
      </trkpt>
      <trkpt lat="45.91339" lon="4.73738">
        <ele>173</ele>
        <time>2018-04-08T08:49:42Z</time>
      </trkpt>
      <trkpt lat="45.91333" lon="4.73738">
        <ele>173</ele>
        <time>2018-04-08T08:49:43Z</time>
      </trkpt>
      <trkpt lat="45.91326" lon="4.73738">
        <ele>173</ele>
        <time>2018-04-08T08:49:44Z</time>
      </trkpt>
      <trkpt lat="45.9132" lon="4.73737">
        <ele>174</ele>
        <time>2018-04-08T08:49:45Z</time>
      </trkpt>
      <trkpt lat="45.91314" lon="4.73737">
        <ele>174</ele>
        <time>2018-04-08T08:49:46Z</time>
      </trkpt>
      <trkpt lat="45.91308" lon="4.73738">
        <ele>174</ele>
        <time>2018-04-08T08:49:47Z</time>
      </trkpt>
      <trkpt lat="45.91303" lon="4.73738">
        <ele>174</ele>
        <time>2018-04-08T08:49:48Z</time>
      </trkpt>
      <trkpt lat="45.91297" lon="4.73738">
        <ele>174</ele>
        <time>2018-04-08T08:49:49Z</time>
      </trkpt>
      <trkpt lat="45.91291" lon="4.73738">
        <ele>174</ele>
        <time>2018-04-08T08:49:50Z</time>
      </trkpt>
      <trkpt lat="45.91285" lon="4.73738">
        <ele>174</ele>
        <time>2018-04-08T08:49:51Z</time>
      </trkpt>
      <trkpt lat="45.91279" lon="4.73739">
        <ele>174</ele>
        <time>2018-04-08T08:49:52Z</time>
      </trkpt>
      <trkpt lat="45.91273" lon="4.73738">
        <ele>174</ele>
        <time>2018-04-08T08:49:53Z</time>
      </trkpt>
      <trkpt lat="45.91267" lon="4.73738">
        <ele>174</ele>
        <time>2018-04-08T08:49:54Z</time>
      </trkpt>
      <trkpt lat="45.91261" lon="4.73738">
        <ele>174</ele>
        <time>2018-04-08T08:49:55Z</time>
      </trkpt>
      <trkpt lat="45.91255" lon="4.73739">
        <ele>175</ele>
        <time>2018-04-08T08:49:56Z</time>
      </trkpt>
      <trkpt lat="45.9125" lon="4.73738">
        <ele>175</ele>
        <time>2018-04-08T08:49:57Z</time>
      </trkpt>
      <trkpt lat="45.91245" lon="4.7374">
        <ele>175</ele>
        <time>2018-04-08T08:49:58Z</time>
      </trkpt>
      <trkpt lat="45.9124" lon="4.7374">
        <ele>175</ele>
        <time>2018-04-08T08:49:59Z</time>
      </trkpt>
      <trkpt lat="45.91235" lon="4.7374">
        <ele>175</ele>
        <time>2018-04-08T08:50:00Z</time>
      </trkpt>
      <trkpt lat="45.91229" lon="4.73739">
        <ele>175</ele>
        <time>2018-04-08T08:50:01Z</time>
      </trkpt>
      <trkpt lat="45.91223" lon="4.73739">
        <ele>175</ele>
        <time>2018-04-08T08:50:02Z</time>
      </trkpt>
      <trkpt lat="45.91217" lon="4.73739">
        <ele>175</ele>
        <time>2018-04-08T08:50:03Z</time>
      </trkpt>
      <trkpt lat="45.91211" lon="4.73739">
        <ele>175</ele>
        <time>2018-04-08T08:50:04Z</time>
      </trkpt>
      <trkpt lat="45.91206" lon="4.73739">
        <ele>175</ele>
        <time>2018-04-08T08:50:05Z</time>
      </trkpt>
      <trkpt lat="45.91201" lon="4.73738">
        <ele>175</ele>
        <time>2018-04-08T08:50:06Z</time>
      </trkpt>
      <trkpt lat="45.91195" lon="4.73737">
        <ele>175</ele>
        <time>2018-04-08T08:50:07Z</time>
      </trkpt>
      <trkpt lat="45.9119" lon="4.73735">
        <ele>175</ele>
        <time>2018-04-08T08:50:08Z</time>
      </trkpt>
      <trkpt lat="45.91185" lon="4.73734">
        <ele>175</ele>
        <time>2018-04-08T08:50:09Z</time>
      </trkpt>
      <trkpt lat="45.9118" lon="4.73733">
        <ele>175</ele>
        <time>2018-04-08T08:50:10Z</time>
      </trkpt>
      <trkpt lat="45.91174" lon="4.7373">
        <ele>175</ele>
        <time>2018-04-08T08:50:11Z</time>
      </trkpt>
      <trkpt lat="45.91169" lon="4.73728">
        <ele>175</ele>
        <time>2018-04-08T08:50:12Z</time>
      </trkpt>
      <trkpt lat="45.91164" lon="4.73729">
        <ele>175</ele>
        <time>2018-04-08T08:50:13Z</time>
      </trkpt>
      <trkpt lat="45.9116" lon="4.73731">
        <ele>175</ele>
        <time>2018-04-08T08:50:14Z</time>
      </trkpt>
      <trkpt lat="45.91154" lon="4.73741">
        <ele>175</ele>
        <time>2018-04-08T08:50:16Z</time>
      </trkpt>
      <trkpt lat="45.91155" lon="4.73747">
        <ele>175</ele>
        <time>2018-04-08T08:50:17Z</time>
      </trkpt>
      <trkpt lat="45.91157" lon="4.73754">
        <ele>175</ele>
        <time>2018-04-08T08:50:18Z</time>
      </trkpt>
      <trkpt lat="45.91159" lon="4.7376">
        <ele>175</ele>
        <time>2018-04-08T08:50:19Z</time>
      </trkpt>
      <trkpt lat="45.91162" lon="4.73765">
        <ele>175</ele>
        <time>2018-04-08T08:50:20Z</time>
      </trkpt>
      <trkpt lat="45.91165" lon="4.73771">
        <ele>175</ele>
        <time>2018-04-08T08:50:21Z</time>
      </trkpt>
      <trkpt lat="45.91168" lon="4.73776">
        <ele>175</ele>
        <time>2018-04-08T08:50:22Z</time>
      </trkpt>
      <trkpt lat="45.91171" lon="4.73782">
        <ele>175</ele>
        <time>2018-04-08T08:50:23Z</time>
      </trkpt>
      <trkpt lat="45.91174" lon="4.73789">
        <ele>175</ele>
        <time>2018-04-08T08:50:24Z</time>
      </trkpt>
      <trkpt lat="45.91177" lon="4.73795">
        <ele>175</ele>
        <time>2018-04-08T08:50:25Z</time>
      </trkpt>
      <trkpt lat="45.91179" lon="4.73801">
        <ele>175</ele>
        <time>2018-04-08T08:50:26Z</time>
      </trkpt>
      <trkpt lat="45.91182" lon="4.73806">
        <ele>175</ele>
        <time>2018-04-08T08:50:27Z</time>
      </trkpt>
      <trkpt lat="45.91185" lon="4.73811">
        <ele>175</ele>
        <time>2018-04-08T08:50:28Z</time>
      </trkpt>
      <trkpt lat="45.91187" lon="4.73817">
        <ele>175</ele>
        <time>2018-04-08T08:50:29Z</time>
      </trkpt>
      <trkpt lat="45.91192" lon="4.73827">
        <ele>175</ele>
        <time>2018-04-08T08:50:31Z</time>
      </trkpt>
      <trkpt lat="45.91194" lon="4.73832">
        <ele>175</ele>
        <time>2018-04-08T08:50:32Z</time>
      </trkpt>
      <trkpt lat="45.91197" lon="4.73838">
        <ele>174</ele>
        <time>2018-04-08T08:50:33Z</time>
      </trkpt>
      <trkpt lat="45.91199" lon="4.73844">
        <ele>174</ele>
        <time>2018-04-08T08:50:34Z</time>
      </trkpt>
      <trkpt lat="45.91203" lon="4.73854">
        <ele>174</ele>
        <time>2018-04-08T08:50:36Z</time>
      </trkpt>
      <trkpt lat="45.91206" lon="4.73859">
        <ele>174</ele>
        <time>2018-04-08T08:50:37Z</time>
      </trkpt>
      <trkpt lat="45.9121" lon="4.7387">
        <ele>174</ele>
        <time>2018-04-08T08:50:39Z</time>
      </trkpt>
      <trkpt lat="45.91211" lon="4.73876">
        <ele>174</ele>
        <time>2018-04-08T08:50:40Z</time>
      </trkpt>
      <trkpt lat="45.91213" lon="4.73882">
        <ele>174</ele>
        <time>2018-04-08T08:50:41Z</time>
      </trkpt>
      <trkpt lat="45.91215" lon="4.73889">
        <ele>174</ele>
        <time>2018-04-08T08:50:42Z</time>
      </trkpt>
      <trkpt lat="45.91216" lon="4.73896">
        <ele>174</ele>
        <time>2018-04-08T08:50:43Z</time>
      </trkpt>
      <trkpt lat="45.91217" lon="4.73902">
        <ele>174</ele>
        <time>2018-04-08T08:50:44Z</time>
      </trkpt>
      <trkpt lat="45.91218" lon="4.7391">
        <ele>174</ele>
        <time>2018-04-08T08:50:45Z</time>
      </trkpt>
      <trkpt lat="45.91219" lon="4.73916">
        <ele>174</ele>
        <time>2018-04-08T08:50:46Z</time>
      </trkpt>
      <trkpt lat="45.9122" lon="4.73923">
        <ele>173</ele>
        <time>2018-04-08T08:50:47Z</time>
      </trkpt>
      <trkpt lat="45.91221" lon="4.73929">
        <ele>173</ele>
        <time>2018-04-08T08:50:48Z</time>
      </trkpt>
      <trkpt lat="45.91222" lon="4.73941">
        <ele>173</ele>
        <time>2018-04-08T08:50:50Z</time>
      </trkpt>
      <trkpt lat="45.91223" lon="4.73947">
        <ele>173</ele>
        <time>2018-04-08T08:50:51Z</time>
      </trkpt>
      <trkpt lat="45.91223" lon="4.73959">
        <ele>173</ele>
        <time>2018-04-08T08:50:53Z</time>
      </trkpt>
      <trkpt lat="45.91223" lon="4.73965">
        <ele>173</ele>
        <time>2018-04-08T08:50:54Z</time>
      </trkpt>
      <trkpt lat="45.91222" lon="4.73976">
        <ele>173</ele>
        <time>2018-04-08T08:50:56Z</time>
      </trkpt>
      <trkpt lat="45.91221" lon="4.73982">
        <ele>173</ele>
        <time>2018-04-08T08:50:57Z</time>
      </trkpt>
      <trkpt lat="45.9122" lon="4.73993">
        <ele>173</ele>
        <time>2018-04-08T08:50:59Z</time>
      </trkpt>
      <trkpt lat="45.91219" lon="4.73999">
        <ele>173</ele>
        <time>2018-04-08T08:51:00Z</time>
      </trkpt>
      <trkpt lat="45.91217" lon="4.7401">
        <ele>173</ele>
        <time>2018-04-08T08:51:02Z</time>
      </trkpt>
      <trkpt lat="45.91216" lon="4.74016">
        <ele>173</ele>
        <time>2018-04-08T08:51:03Z</time>
      </trkpt>
      <trkpt lat="45.91214" lon="4.74027">
        <ele>173</ele>
        <time>2018-04-08T08:51:05Z</time>
      </trkpt>
      <trkpt lat="45.91213" lon="4.74032">
        <ele>173</ele>
        <time>2018-04-08T08:51:06Z</time>
      </trkpt>
      <trkpt lat="45.9121" lon="4.74044">
        <ele>173</ele>
        <time>2018-04-08T08:51:08Z</time>
      </trkpt>
      <trkpt lat="45.91209" lon="4.7405">
        <ele>173</ele>
        <time>2018-04-08T08:51:09Z</time>
      </trkpt>
      <trkpt lat="45.91206" lon="4.74062">
        <ele>173</ele>
        <time>2018-04-08T08:51:11Z</time>
      </trkpt>
      <trkpt lat="45.91205" lon="4.74067">
        <ele>173</ele>
        <time>2018-04-08T08:51:12Z</time>
      </trkpt>
      <trkpt lat="45.91202" lon="4.74079">
        <ele>173</ele>
        <time>2018-04-08T08:51:14Z</time>
      </trkpt>
      <trkpt lat="45.912" lon="4.74085">
        <ele>173</ele>
        <time>2018-04-08T08:51:15Z</time>
      </trkpt>
      <trkpt lat="45.91198" lon="4.74092">
        <ele>173</ele>
        <time>2018-04-08T08:51:16Z</time>
      </trkpt>
      <trkpt lat="45.91197" lon="4.74098">
        <ele>174</ele>
        <time>2018-04-08T08:51:17Z</time>
      </trkpt>
      <trkpt lat="45.91195" lon="4.74105">
        <ele>174</ele>
        <time>2018-04-08T08:51:18Z</time>
      </trkpt>
      <trkpt lat="45.91193" lon="4.74112">
        <ele>174</ele>
        <time>2018-04-08T08:51:19Z</time>
      </trkpt>
      <trkpt lat="45.91191" lon="4.74118">
        <ele>174</ele>
        <time>2018-04-08T08:51:20Z</time>
      </trkpt>
      <trkpt lat="45.91189" lon="4.74124">
        <ele>174</ele>
        <time>2018-04-08T08:51:21Z</time>
      </trkpt>
      <trkpt lat="45.91188" lon="4.7413">
        <ele>174</ele>
        <time>2018-04-08T08:51:22Z</time>
      </trkpt>
      <trkpt lat="45.91186" lon="4.74137">
        <ele>174</ele>
        <time>2018-04-08T08:51:23Z</time>
      </trkpt>
      <trkpt lat="45.91185" lon="4.74145">
        <ele>174</ele>
        <time>2018-04-08T08:51:24Z</time>
      </trkpt>
      <trkpt lat="45.91184" lon="4.74151">
        <ele>174</ele>
        <time>2018-04-08T08:51:25Z</time>
      </trkpt>
      <trkpt lat="45.91183" lon="4.74159">
        <ele>174</ele>
        <time>2018-04-08T08:51:26Z</time>
      </trkpt>
      <trkpt lat="45.91182" lon="4.74166">
        <ele>174</ele>
        <time>2018-04-08T08:51:27Z</time>
      </trkpt>
      <trkpt lat="45.91182" lon="4.74175">
        <ele>174</ele>
        <time>2018-04-08T08:51:28Z</time>
      </trkpt>
      <trkpt lat="45.91181" lon="4.74184">
        <ele>174</ele>
        <time>2018-04-08T08:51:29Z</time>
      </trkpt>
      <trkpt lat="45.9118" lon="4.74192">
        <ele>175</ele>
        <time>2018-04-08T08:51:30Z</time>
      </trkpt>
      <trkpt lat="45.9118" lon="4.74201">
        <ele>175</ele>
        <time>2018-04-08T08:51:31Z</time>
      </trkpt>
      <trkpt lat="45.9118" lon="4.7421">
        <ele>175</ele>
        <time>2018-04-08T08:51:32Z</time>
      </trkpt>
      <trkpt lat="45.91181" lon="4.74219">
        <ele>175</ele>
        <time>2018-04-08T08:51:33Z</time>
      </trkpt>
      <trkpt lat="45.91181" lon="4.7423">
        <ele>175</ele>
        <time>2018-04-08T08:51:34Z</time>
      </trkpt>
      <trkpt lat="45.91182" lon="4.74239">
        <ele>175</ele>
        <time>2018-04-08T08:51:35Z</time>
      </trkpt>
      <trkpt lat="45.91184" lon="4.74248">
        <ele>175</ele>
        <time>2018-04-08T08:51:36Z</time>
      </trkpt>
      <trkpt lat="45.91186" lon="4.74258">
        <ele>175</ele>
        <time>2018-04-08T08:51:37Z</time>
      </trkpt>
      <trkpt lat="45.91188" lon="4.74268">
        <ele>175</ele>
        <time>2018-04-08T08:51:38Z</time>
      </trkpt>
      <trkpt lat="45.9119" lon="4.74278">
        <ele>175</ele>
        <time>2018-04-08T08:51:39Z</time>
      </trkpt>
      <trkpt lat="45.91193" lon="4.74289">
        <ele>175</ele>
        <time>2018-04-08T08:51:40Z</time>
      </trkpt>
      <trkpt lat="45.91196" lon="4.74299">
        <ele>175</ele>
        <time>2018-04-08T08:51:41Z</time>
      </trkpt>
      <trkpt lat="45.91199" lon="4.74309">
        <ele>175</ele>
        <time>2018-04-08T08:51:42Z</time>
      </trkpt>
      <trkpt lat="45.91201" lon="4.74321">
        <ele>175</ele>
        <time>2018-04-08T08:51:43Z</time>
      </trkpt>
      <trkpt lat="45.91204" lon="4.74332">
        <ele>175</ele>
        <time>2018-04-08T08:51:44Z</time>
      </trkpt>
      <trkpt lat="45.91207" lon="4.74343">
        <ele>175</ele>
        <time>2018-04-08T08:51:45Z</time>
      </trkpt>
      <trkpt lat="45.91209" lon="4.74355">
        <ele>175</ele>
        <time>2018-04-08T08:51:46Z</time>
      </trkpt>
      <trkpt lat="45.91212" lon="4.74366">
        <ele>175</ele>
        <time>2018-04-08T08:51:47Z</time>
      </trkpt>
      <trkpt lat="45.91216" lon="4.74377">
        <ele>174</ele>
        <time>2018-04-08T08:51:48Z</time>
      </trkpt>
      <trkpt lat="45.91219" lon="4.74387">
        <ele>174</ele>
        <time>2018-04-08T08:51:49Z</time>
      </trkpt>
      <trkpt lat="45.91221" lon="4.74399">
        <ele>174</ele>
        <time>2018-04-08T08:51:50Z</time>
      </trkpt>
      <trkpt lat="45.91224" lon="4.74409">
        <ele>174</ele>
        <time>2018-04-08T08:51:51Z</time>
      </trkpt>
      <trkpt lat="45.91227" lon="4.74419">
        <ele>174</ele>
        <time>2018-04-08T08:51:52Z</time>
      </trkpt>
      <trkpt lat="45.9123" lon="4.7443">
        <ele>174</ele>
        <time>2018-04-08T08:51:53Z</time>
      </trkpt>
      <trkpt lat="45.91232" lon="4.74439">
        <ele>174</ele>
        <time>2018-04-08T08:51:54Z</time>
      </trkpt>
      <trkpt lat="45.91235" lon="4.74448">
        <ele>174</ele>
        <time>2018-04-08T08:51:55Z</time>
      </trkpt>
      <trkpt lat="45.91237" lon="4.74456">
        <ele>174</ele>
        <time>2018-04-08T08:51:56Z</time>
      </trkpt>
      <trkpt lat="45.9124" lon="4.74467">
        <ele>174</ele>
        <time>2018-04-08T08:51:57Z</time>
      </trkpt>
      <trkpt lat="45.91242" lon="4.74476">
        <ele>174</ele>
        <time>2018-04-08T08:51:58Z</time>
      </trkpt>
      <trkpt lat="45.91244" lon="4.74485">
        <ele>174</ele>
        <time>2018-04-08T08:51:59Z</time>
      </trkpt>
      <trkpt lat="45.91246" lon="4.74494">
        <ele>174</ele>
        <time>2018-04-08T08:52:00Z</time>
      </trkpt>
      <trkpt lat="45.91248" lon="4.74502">
        <ele>174</ele>
        <time>2018-04-08T08:52:01Z</time>
      </trkpt>
      <trkpt lat="45.91251" lon="4.74509">
        <ele>174</ele>
        <time>2018-04-08T08:52:02Z</time>
      </trkpt>
      <trkpt lat="45.91253" lon="4.74518">
        <ele>174</ele>
        <time>2018-04-08T08:52:03Z</time>
      </trkpt>
      <trkpt lat="45.91256" lon="4.74526">
        <ele>173</ele>
        <time>2018-04-08T08:52:04Z</time>
      </trkpt>
      <trkpt lat="45.9126" lon="4.74534">
        <ele>173</ele>
        <time>2018-04-08T08:52:05Z</time>
      </trkpt>
      <trkpt lat="45.91263" lon="4.74541">
        <ele>173</ele>
        <time>2018-04-08T08:52:06Z</time>
      </trkpt>
      <trkpt lat="45.91267" lon="4.74548">
        <ele>173</ele>
        <time>2018-04-08T08:52:07Z</time>
      </trkpt>
      <trkpt lat="45.9127" lon="4.74555">
        <ele>173</ele>
        <time>2018-04-08T08:52:08Z</time>
      </trkpt>
      <trkpt lat="45.91273" lon="4.74562">
        <ele>173</ele>
        <time>2018-04-08T08:52:09Z</time>
      </trkpt>
      <trkpt lat="45.91276" lon="4.7457">
        <ele>173</ele>
        <time>2018-04-08T08:52:10Z</time>
      </trkpt>
      <trkpt lat="45.9128" lon="4.74577">
        <ele>173</ele>
        <time>2018-04-08T08:52:11Z</time>
      </trkpt>
      <trkpt lat="45.91283" lon="4.74584">
        <ele>173</ele>
        <time>2018-04-08T08:52:12Z</time>
      </trkpt>
      <trkpt lat="45.91287" lon="4.7459">
        <ele>173</ele>
        <time>2018-04-08T08:52:13Z</time>
      </trkpt>
      <trkpt lat="45.9129" lon="4.74598">
        <ele>173</ele>
        <time>2018-04-08T08:52:14Z</time>
      </trkpt>
      <trkpt lat="45.91293" lon="4.74605">
        <ele>173</ele>
        <time>2018-04-08T08:52:15Z</time>
      </trkpt>
      <trkpt lat="45.91295" lon="4.74612">
        <ele>173</ele>
        <time>2018-04-08T08:52:16Z</time>
      </trkpt>
      <trkpt lat="45.91298" lon="4.7462">
        <ele>173</ele>
        <time>2018-04-08T08:52:17Z</time>
      </trkpt>
      <trkpt lat="45.91302" lon="4.74626">
        <ele>173</ele>
        <time>2018-04-08T08:52:18Z</time>
      </trkpt>
      <trkpt lat="45.91304" lon="4.74634">
        <ele>173</ele>
        <time>2018-04-08T08:52:19Z</time>
      </trkpt>
      <trkpt lat="45.91307" lon="4.74641">
        <ele>173</ele>
        <time>2018-04-08T08:52:20Z</time>
      </trkpt>
      <trkpt lat="45.9131" lon="4.74648">
        <ele>173</ele>
        <time>2018-04-08T08:52:21Z</time>
      </trkpt>
      <trkpt lat="45.91313" lon="4.74655">
        <ele>173</ele>
        <time>2018-04-08T08:52:22Z</time>
      </trkpt>
      <trkpt lat="45.91315" lon="4.74664">
        <ele>173</ele>
        <time>2018-04-08T08:52:23Z</time>
      </trkpt>
      <trkpt lat="45.91319" lon="4.74671">
        <ele>173</ele>
        <time>2018-04-08T08:52:24Z</time>
      </trkpt>
      <trkpt lat="45.9132" lon="4.74679">
        <ele>173</ele>
        <time>2018-04-08T08:52:25Z</time>
      </trkpt>
      <trkpt lat="45.91322" lon="4.74686">
        <ele>173</ele>
        <time>2018-04-08T08:52:26Z</time>
      </trkpt>
      <trkpt lat="45.91323" lon="4.74694">
        <ele>173</ele>
        <time>2018-04-08T08:52:27Z</time>
      </trkpt>
      <trkpt lat="45.91324" lon="4.74701">
        <ele>173</ele>
        <time>2018-04-08T08:52:28Z</time>
      </trkpt>
      <trkpt lat="45.91323" lon="4.74708">
        <ele>173</ele>
        <time>2018-04-08T08:52:29Z</time>
      </trkpt>
      <trkpt lat="45.91324" lon="4.74716">
        <ele>173</ele>
        <time>2018-04-08T08:52:30Z</time>
      </trkpt>
      <trkpt lat="45.91324" lon="4.74723">
        <ele>173</ele>
        <time>2018-04-08T08:52:31Z</time>
      </trkpt>
      <trkpt lat="45.91323" lon="4.7473">
        <ele>173</ele>
        <time>2018-04-08T08:52:32Z</time>
      </trkpt>
      <trkpt lat="45.9132" lon="4.74737">
        <ele>173</ele>
        <time>2018-04-08T08:52:33Z</time>
      </trkpt>
      <trkpt lat="45.91319" lon="4.74745">
        <ele>173</ele>
        <time>2018-04-08T08:52:34Z</time>
      </trkpt>
      <trkpt lat="45.91318" lon="4.74753">
        <ele>174</ele>
        <time>2018-04-08T08:52:35Z</time>
      </trkpt>
      <trkpt lat="45.91316" lon="4.7476">
        <ele>174</ele>
        <time>2018-04-08T08:52:36Z</time>
      </trkpt>
      <trkpt lat="45.91315" lon="4.74767">
        <ele>174</ele>
        <time>2018-04-08T08:52:37Z</time>
      </trkpt>
      <trkpt lat="45.91314" lon="4.74774">
        <ele>174</ele>
        <time>2018-04-08T08:52:38Z</time>
      </trkpt>
      <trkpt lat="45.91313" lon="4.74781">
        <ele>174</ele>
        <time>2018-04-08T08:52:39Z</time>
      </trkpt>
      <trkpt lat="45.91313" lon="4.74789">
        <ele>174</ele>
        <time>2018-04-08T08:52:40Z</time>
      </trkpt>
      <trkpt lat="45.91311" lon="4.74795">
        <ele>174</ele>
        <time>2018-04-08T08:52:41Z</time>
      </trkpt>
      <trkpt lat="45.91311" lon="4.74808">
        <ele>175</ele>
        <time>2018-04-08T08:52:43Z</time>
      </trkpt>
      <trkpt lat="45.9131" lon="4.74814">
        <ele>175</ele>
        <time>2018-04-08T08:52:44Z</time>
      </trkpt>
      <trkpt lat="45.91309" lon="4.74821">
        <ele>175</ele>
        <time>2018-04-08T08:52:45Z</time>
      </trkpt>
      <trkpt lat="45.9131" lon="4.74827">
        <ele>175</ele>
        <time>2018-04-08T08:52:46Z</time>
      </trkpt>
      <trkpt lat="45.91308" lon="4.74838">
        <ele>176</ele>
        <time>2018-04-08T08:52:48Z</time>
      </trkpt>
      <trkpt lat="45.91308" lon="4.74844">
        <ele>176</ele>
        <time>2018-04-08T08:52:49Z</time>
      </trkpt>
      <trkpt lat="45.91309" lon="4.7485">
        <ele>176</ele>
        <time>2018-04-08T08:52:50Z</time>
      </trkpt>
      <trkpt lat="45.9131" lon="4.74857">
        <ele>176</ele>
        <time>2018-04-08T08:52:51Z</time>
      </trkpt>
      <trkpt lat="45.91309" lon="4.74869">
        <ele>176</ele>
        <time>2018-04-08T08:52:53Z</time>
      </trkpt>
      <trkpt lat="45.9131" lon="4.74876">
        <ele>176</ele>
        <time>2018-04-08T08:52:54Z</time>
      </trkpt>
      <trkpt lat="45.91308" lon="4.74882">
        <ele>176</ele>
        <time>2018-04-08T08:52:55Z</time>
      </trkpt>
      <trkpt lat="45.91308" lon="4.74889">
        <ele>176</ele>
        <time>2018-04-08T08:52:56Z</time>
      </trkpt>
      <trkpt lat="45.91307" lon="4.74902">
        <ele>176</ele>
        <time>2018-04-08T08:52:58Z</time>
      </trkpt>
      <trkpt lat="45.91306" lon="4.74908">
        <ele>176</ele>
        <time>2018-04-08T08:52:59Z</time>
      </trkpt>
      <trkpt lat="45.91305" lon="4.74915">
        <ele>176</ele>
        <time>2018-04-08T08:53:00Z</time>
      </trkpt>
      <trkpt lat="45.91303" lon="4.74922">
        <ele>177</ele>
        <time>2018-04-08T08:53:01Z</time>
      </trkpt>
      <trkpt lat="45.91302" lon="4.74929">
        <ele>177</ele>
        <time>2018-04-08T08:53:02Z</time>
      </trkpt>
      <trkpt lat="45.91301" lon="4.74936">
        <ele>177</ele>
        <time>2018-04-08T08:53:03Z</time>
      </trkpt>
      <trkpt lat="45.913" lon="4.74942">
        <ele>177</ele>
        <time>2018-04-08T08:53:04Z</time>
      </trkpt>
      <trkpt lat="45.913" lon="4.7495">
        <ele>177</ele>
        <time>2018-04-08T08:53:05Z</time>
      </trkpt>
      <trkpt lat="45.91299" lon="4.74957">
        <ele>177</ele>
        <time>2018-04-08T08:53:06Z</time>
      </trkpt>
      <trkpt lat="45.91299" lon="4.74964">
        <ele>177</ele>
        <time>2018-04-08T08:53:07Z</time>
      </trkpt>
      <trkpt lat="45.91299" lon="4.74973">
        <ele>177</ele>
        <time>2018-04-08T08:53:08Z</time>
      </trkpt>
      <trkpt lat="45.91299" lon="4.7498">
        <ele>177</ele>
        <time>2018-04-08T08:53:09Z</time>
      </trkpt>
      <trkpt lat="45.913" lon="4.74986">
        <ele>177</ele>
        <time>2018-04-08T08:53:10Z</time>
      </trkpt>
      <trkpt lat="45.91299" lon="4.74995">
        <ele>177</ele>
        <time>2018-04-08T08:53:11Z</time>
      </trkpt>
      <trkpt lat="45.91298" lon="4.75001">
        <ele>177</ele>
        <time>2018-04-08T08:53:12Z</time>
      </trkpt>
      <trkpt lat="45.91297" lon="4.75008">
        <ele>177</ele>
        <time>2018-04-08T08:53:13Z</time>
      </trkpt>
      <trkpt lat="45.91297" lon="4.75016">
        <ele>177</ele>
        <time>2018-04-08T08:53:14Z</time>
      </trkpt>
      <trkpt lat="45.91297" lon="4.75023">
        <ele>177</ele>
        <time>2018-04-08T08:53:15Z</time>
      </trkpt>
      <trkpt lat="45.91297" lon="4.7503">
        <ele>177</ele>
        <time>2018-04-08T08:53:16Z</time>
      </trkpt>
      <trkpt lat="45.91297" lon="4.75037">
        <ele>177</ele>
        <time>2018-04-08T08:53:17Z</time>
      </trkpt>
      <trkpt lat="45.91297" lon="4.75044">
        <ele>177</ele>
        <time>2018-04-08T08:53:18Z</time>
      </trkpt>
      <trkpt lat="45.91297" lon="4.7505">
        <ele>177</ele>
        <time>2018-04-08T08:53:19Z</time>
      </trkpt>
      <trkpt lat="45.91297" lon="4.75057">
        <ele>177</ele>
        <time>2018-04-08T08:53:20Z</time>
      </trkpt>
      <trkpt lat="45.91296" lon="4.75063">
        <ele>177</ele>
        <time>2018-04-08T08:53:21Z</time>
      </trkpt>
      <trkpt lat="45.91297" lon="4.75071">
        <ele>177</ele>
        <time>2018-04-08T08:53:22Z</time>
      </trkpt>
      <trkpt lat="45.91298" lon="4.75079">
        <ele>177</ele>
        <time>2018-04-08T08:53:23Z</time>
      </trkpt>
      <trkpt lat="45.91298" lon="4.75086">
        <ele>177</ele>
        <time>2018-04-08T08:53:24Z</time>
      </trkpt>
      <trkpt lat="45.91298" lon="4.75094">
        <ele>177</ele>
        <time>2018-04-08T08:53:25Z</time>
      </trkpt>
      <trkpt lat="45.91299" lon="4.75102">
        <ele>177</ele>
        <time>2018-04-08T08:53:26Z</time>
      </trkpt>
      <trkpt lat="45.913" lon="4.75108">
        <ele>177</ele>
        <time>2018-04-08T08:53:27Z</time>
      </trkpt>
      <trkpt lat="45.91301" lon="4.75115">
        <ele>177</ele>
        <time>2018-04-08T08:53:28Z</time>
      </trkpt>
      <trkpt lat="45.91301" lon="4.75123">
        <ele>177</ele>
        <time>2018-04-08T08:53:29Z</time>
      </trkpt>
      <trkpt lat="45.91303" lon="4.75135">
        <ele>177</ele>
        <time>2018-04-08T08:53:31Z</time>
      </trkpt>
      <trkpt lat="45.91304" lon="4.75141">
        <ele>177</ele>
        <time>2018-04-08T08:53:32Z</time>
      </trkpt>
      <trkpt lat="45.91305" lon="4.75154">
        <ele>177</ele>
        <time>2018-04-08T08:53:34Z</time>
      </trkpt>
      <trkpt lat="45.91303" lon="4.75158">
        <ele>177</ele>
        <time>2018-04-08T08:53:35Z</time>
      </trkpt>
      <trkpt lat="45.913" lon="4.75163">
        <ele>177</ele>
        <time>2018-04-08T08:53:36Z</time>
      </trkpt>
      <trkpt lat="45.91294" lon="4.75154">
        <ele>177</ele>
        <time>2018-04-08T08:53:37Z</time>
      </trkpt>
      <trkpt lat="45.91286" lon="4.7515">
        <ele>177</ele>
        <time>2018-04-08T08:53:39Z</time>
      </trkpt>
      <trkpt lat="45.91282" lon="4.75148">
        <ele>177</ele>
        <time>2018-04-08T08:53:40Z</time>
      </trkpt>
      <trkpt lat="45.91274" lon="4.75145">
        <ele>177</ele>
        <time>2018-04-08T08:53:42Z</time>
      </trkpt>
      <trkpt lat="45.9127" lon="4.75143">
        <ele>177</ele>
        <time>2018-04-08T08:53:43Z</time>
      </trkpt>
      <trkpt lat="45.91265" lon="4.75141">
        <ele>177</ele>
        <time>2018-04-08T08:53:44Z</time>
      </trkpt>
      <trkpt lat="45.91261" lon="4.75138">
        <ele>177</ele>
        <time>2018-04-08T08:53:45Z</time>
      </trkpt>
      <trkpt lat="45.91255" lon="4.75135">
        <ele>177</ele>
        <time>2018-04-08T08:53:46Z</time>
      </trkpt>
      <trkpt lat="45.9125" lon="4.75133">
        <ele>177</ele>
        <time>2018-04-08T08:53:47Z</time>
      </trkpt>
      <trkpt lat="45.91245" lon="4.75131">
        <ele>177</ele>
        <time>2018-04-08T08:53:48Z</time>
      </trkpt>
      <trkpt lat="45.9124" lon="4.75129">
        <ele>177</ele>
        <time>2018-04-08T08:53:49Z</time>
      </trkpt>
      <trkpt lat="45.91235" lon="4.75126">
        <ele>177</ele>
        <time>2018-04-08T08:53:50Z</time>
      </trkpt>
      <trkpt lat="45.91231" lon="4.75124">
        <ele>177</ele>
        <time>2018-04-08T08:53:51Z</time>
      </trkpt>
      <trkpt lat="45.91226" lon="4.75121">
        <ele>177</ele>
        <time>2018-04-08T08:53:52Z</time>
      </trkpt>
      <trkpt lat="45.91222" lon="4.75119">
        <ele>177</ele>
        <time>2018-04-08T08:53:53Z</time>
      </trkpt>
      <trkpt lat="45.91217" lon="4.75117">
        <ele>177</ele>
        <time>2018-04-08T08:53:54Z</time>
      </trkpt>
      <trkpt lat="45.91212" lon="4.75115">
        <ele>177</ele>
        <time>2018-04-08T08:53:55Z</time>
      </trkpt>
      <trkpt lat="45.91208" lon="4.75114">
        <ele>178</ele>
        <time>2018-04-08T08:53:56Z</time>
      </trkpt>
      <trkpt lat="45.91203" lon="4.75114">
        <ele>178</ele>
        <time>2018-04-08T08:53:57Z</time>
      </trkpt>
      <trkpt lat="45.91197" lon="4.75113">
        <ele>178</ele>
        <time>2018-04-08T08:53:58Z</time>
      </trkpt>
      <trkpt lat="45.91192" lon="4.75112">
        <ele>178</ele>
        <time>2018-04-08T08:53:59Z</time>
      </trkpt>
      <trkpt lat="45.91187" lon="4.75111">
        <ele>178</ele>
        <time>2018-04-08T08:54:00Z</time>
      </trkpt>
      <trkpt lat="45.91182" lon="4.7511">
        <ele>178</ele>
        <time>2018-04-08T08:54:01Z</time>
      </trkpt>
      <trkpt lat="45.91176" lon="4.75108">
        <ele>178</ele>
        <time>2018-04-08T08:54:02Z</time>
      </trkpt>
      <trkpt lat="45.91171" lon="4.75107">
        <ele>178</ele>
        <time>2018-04-08T08:54:03Z</time>
      </trkpt>
      <trkpt lat="45.91166" lon="4.75104">
        <ele>179</ele>
        <time>2018-04-08T08:54:04Z</time>
      </trkpt>
      <trkpt lat="45.91161" lon="4.75103">
        <ele>179</ele>
        <time>2018-04-08T08:54:05Z</time>
      </trkpt>
      <trkpt lat="45.91156" lon="4.75103">
        <ele>179</ele>
        <time>2018-04-08T08:54:06Z</time>
      </trkpt>
      <trkpt lat="45.91151" lon="4.75102">
        <ele>179</ele>
        <time>2018-04-08T08:54:07Z</time>
      </trkpt>
      <trkpt lat="45.91146" lon="4.75101">
        <ele>179</ele>
        <time>2018-04-08T08:54:08Z</time>
      </trkpt>
      <trkpt lat="45.91141" lon="4.75099">
        <ele>179</ele>
        <time>2018-04-08T08:54:09Z</time>
      </trkpt>
      <trkpt lat="45.91136" lon="4.75097">
        <ele>179</ele>
        <time>2018-04-08T08:54:10Z</time>
      </trkpt>
      <trkpt lat="45.91131" lon="4.75095">
        <ele>179</ele>
        <time>2018-04-08T08:54:11Z</time>
      </trkpt>
      <trkpt lat="45.91126" lon="4.75094">
        <ele>179</ele>
        <time>2018-04-08T08:54:12Z</time>
      </trkpt>
      <trkpt lat="45.91121" lon="4.75092">
        <ele>179</ele>
        <time>2018-04-08T08:54:13Z</time>
      </trkpt>
      <trkpt lat="45.91116" lon="4.75089">
        <ele>179</ele>
        <time>2018-04-08T08:54:14Z</time>
      </trkpt>
      <trkpt lat="45.9111" lon="4.75088">
        <ele>179</ele>
        <time>2018-04-08T08:54:15Z</time>
      </trkpt>
      <trkpt lat="45.91105" lon="4.75086">
        <ele>180</ele>
        <time>2018-04-08T08:54:16Z</time>
      </trkpt>
      <trkpt lat="45.91099" lon="4.75084">
        <ele>180</ele>
        <time>2018-04-08T08:54:17Z</time>
      </trkpt>
      <trkpt lat="45.91094" lon="4.75082">
        <ele>179</ele>
        <time>2018-04-08T08:54:18Z</time>
      </trkpt>
      <trkpt lat="45.91088" lon="4.75081">
        <ele>180</ele>
        <time>2018-04-08T08:54:19Z</time>
      </trkpt>
      <trkpt lat="45.91082" lon="4.75078">
        <ele>180</ele>
        <time>2018-04-08T08:54:20Z</time>
      </trkpt>
      <trkpt lat="45.91076" lon="4.75076">
        <ele>179</ele>
        <time>2018-04-08T08:54:21Z</time>
      </trkpt>
      <trkpt lat="45.9107" lon="4.75074">
        <ele>179</ele>
        <time>2018-04-08T08:54:22Z</time>
      </trkpt>
      <trkpt lat="45.91065" lon="4.75072">
        <ele>179</ele>
        <time>2018-04-08T08:54:23Z</time>
      </trkpt>
      <trkpt lat="45.9106" lon="4.7507">
        <ele>179</ele>
        <time>2018-04-08T08:54:24Z</time>
      </trkpt>
      <trkpt lat="45.91055" lon="4.75068">
        <ele>179</ele>
        <time>2018-04-08T08:54:25Z</time>
      </trkpt>
      <trkpt lat="45.91049" lon="4.75066">
        <ele>179</ele>
        <time>2018-04-08T08:54:26Z</time>
      </trkpt>
      <trkpt lat="45.91044" lon="4.75063">
        <ele>179</ele>
        <time>2018-04-08T08:54:27Z</time>
      </trkpt>
      <trkpt lat="45.91039" lon="4.75062">
        <ele>179</ele>
        <time>2018-04-08T08:54:28Z</time>
      </trkpt>
      <trkpt lat="45.91034" lon="4.75061">
        <ele>179</ele>
        <time>2018-04-08T08:54:29Z</time>
      </trkpt>
      <trkpt lat="45.91029" lon="4.75059">
        <ele>179</ele>
        <time>2018-04-08T08:54:30Z</time>
      </trkpt>
      <trkpt lat="45.91024" lon="4.75057">
        <ele>179</ele>
        <time>2018-04-08T08:54:31Z</time>
      </trkpt>
      <trkpt lat="45.91016" lon="4.75054">
        <ele>179</ele>
        <time>2018-04-08T08:54:33Z</time>
      </trkpt>
      <trkpt lat="45.91011" lon="4.75052">
        <ele>179</ele>
        <time>2018-04-08T08:54:34Z</time>
      </trkpt>
      <trkpt lat="45.91006" lon="4.7505">
        <ele>178</ele>
        <time>2018-04-08T08:54:35Z</time>
      </trkpt>
      <trkpt lat="45.91002" lon="4.75048">
        <ele>178</ele>
        <time>2018-04-08T08:54:36Z</time>
      </trkpt>
      <trkpt lat="45.90997" lon="4.75047">
        <ele>179</ele>
        <time>2018-04-08T08:54:37Z</time>
      </trkpt>
      <trkpt lat="45.90992" lon="4.75045">
        <ele>179</ele>
        <time>2018-04-08T08:54:38Z</time>
      </trkpt>
      <trkpt lat="45.90987" lon="4.75042">
        <ele>179</ele>
        <time>2018-04-08T08:54:39Z</time>
      </trkpt>
      <trkpt lat="45.90982" lon="4.7504">
        <ele>179</ele>
        <time>2018-04-08T08:54:40Z</time>
      </trkpt>
      <trkpt lat="45.90978" lon="4.75038">
        <ele>179</ele>
        <time>2018-04-08T08:54:41Z</time>
      </trkpt>
      <trkpt lat="45.90973" lon="4.75036">
        <ele>179</ele>
        <time>2018-04-08T08:54:42Z</time>
      </trkpt>
      <trkpt lat="45.90969" lon="4.75034">
        <ele>179</ele>
        <time>2018-04-08T08:54:43Z</time>
      </trkpt>
      <trkpt lat="45.90964" lon="4.75033">
        <ele>179</ele>
        <time>2018-04-08T08:54:44Z</time>
      </trkpt>
      <trkpt lat="45.90956" lon="4.75029">
        <ele>179</ele>
        <time>2018-04-08T08:54:46Z</time>
      </trkpt>
      <trkpt lat="45.9095" lon="4.75027">
        <ele>179</ele>
        <time>2018-04-08T08:54:47Z</time>
      </trkpt>
      <trkpt lat="45.90945" lon="4.75025">
        <ele>179</ele>
        <time>2018-04-08T08:54:48Z</time>
      </trkpt>
      <trkpt lat="45.9094" lon="4.75022">
        <ele>179</ele>
        <time>2018-04-08T08:54:49Z</time>
      </trkpt>
      <trkpt lat="45.90935" lon="4.7502">
        <ele>179</ele>
        <time>2018-04-08T08:54:50Z</time>
      </trkpt>
      <trkpt lat="45.9093" lon="4.75018">
        <ele>178</ele>
        <time>2018-04-08T08:54:51Z</time>
      </trkpt>
      <trkpt lat="45.90925" lon="4.75016">
        <ele>178</ele>
        <time>2018-04-08T08:54:52Z</time>
      </trkpt>
      <trkpt lat="45.9092" lon="4.75014">
        <ele>178</ele>
        <time>2018-04-08T08:54:53Z</time>
      </trkpt>
      <trkpt lat="45.90916" lon="4.75012">
        <ele>179</ele>
        <time>2018-04-08T08:54:54Z</time>
      </trkpt>
      <trkpt lat="45.90911" lon="4.75009">
        <ele>179</ele>
        <time>2018-04-08T08:54:55Z</time>
      </trkpt>
      <trkpt lat="45.90906" lon="4.75007">
        <ele>179</ele>
        <time>2018-04-08T08:54:56Z</time>
      </trkpt>
      <trkpt lat="45.90901" lon="4.75004">
        <ele>179</ele>
        <time>2018-04-08T08:54:57Z</time>
      </trkpt>
      <trkpt lat="45.90895" lon="4.75002">
        <ele>179</ele>
        <time>2018-04-08T08:54:58Z</time>
      </trkpt>
      <trkpt lat="45.9089" lon="4.75">
        <ele>178</ele>
        <time>2018-04-08T08:54:59Z</time>
      </trkpt>
      <trkpt lat="45.90884" lon="4.74997">
        <ele>178</ele>
        <time>2018-04-08T08:55:00Z</time>
      </trkpt>
      <trkpt lat="45.90879" lon="4.74995">
        <ele>178</ele>
        <time>2018-04-08T08:55:01Z</time>
      </trkpt>
      <trkpt lat="45.90874" lon="4.74992">
        <ele>179</ele>
        <time>2018-04-08T08:55:02Z</time>
      </trkpt>
      <trkpt lat="45.90869" lon="4.7499">
        <ele>179</ele>
        <time>2018-04-08T08:55:03Z</time>
      </trkpt>
      <trkpt lat="45.90864" lon="4.74988">
        <ele>179</ele>
        <time>2018-04-08T08:55:04Z</time>
      </trkpt>
      <trkpt lat="45.9086" lon="4.74986">
        <ele>179</ele>
        <time>2018-04-08T08:55:05Z</time>
      </trkpt>
      <trkpt lat="45.90854" lon="4.74983">
        <ele>179</ele>
        <time>2018-04-08T08:55:06Z</time>
      </trkpt>
      <trkpt lat="45.90849" lon="4.74981">
        <ele>179</ele>
        <time>2018-04-08T08:55:07Z</time>
      </trkpt>
      <trkpt lat="45.90845" lon="4.7498">
        <ele>179</ele>
        <time>2018-04-08T08:55:08Z</time>
      </trkpt>
      <trkpt lat="45.9084" lon="4.74978">
        <ele>179</ele>
        <time>2018-04-08T08:55:09Z</time>
      </trkpt>
      <trkpt lat="45.90835" lon="4.74977">
        <ele>179</ele>
        <time>2018-04-08T08:55:10Z</time>
      </trkpt>
      <trkpt lat="45.90831" lon="4.74976">
        <ele>179</ele>
        <time>2018-04-08T08:55:11Z</time>
      </trkpt>
      <trkpt lat="45.90826" lon="4.74975">
        <ele>179</ele>
        <time>2018-04-08T08:55:12Z</time>
      </trkpt>
      <trkpt lat="45.90822" lon="4.74972">
        <ele>179</ele>
        <time>2018-04-08T08:55:13Z</time>
      </trkpt>
      <trkpt lat="45.90817" lon="4.7497">
        <ele>179</ele>
        <time>2018-04-08T08:55:14Z</time>
      </trkpt>
      <trkpt lat="45.90812" lon="4.74968">
        <ele>179</ele>
        <time>2018-04-08T08:55:15Z</time>
      </trkpt>
      <trkpt lat="45.90807" lon="4.74966">
        <ele>179</ele>
        <time>2018-04-08T08:55:16Z</time>
      </trkpt>
      <trkpt lat="45.90802" lon="4.74963">
        <ele>179</ele>
        <time>2018-04-08T08:55:17Z</time>
      </trkpt>
      <trkpt lat="45.90797" lon="4.74961">
        <ele>179</ele>
        <time>2018-04-08T08:55:18Z</time>
      </trkpt>
      <trkpt lat="45.90792" lon="4.7496">
        <ele>179</ele>
        <time>2018-04-08T08:55:19Z</time>
      </trkpt>
      <trkpt lat="45.90786" lon="4.74958">
        <ele>180</ele>
        <time>2018-04-08T08:55:20Z</time>
      </trkpt>
      <trkpt lat="45.90782" lon="4.74957">
        <ele>180</ele>
        <time>2018-04-08T08:55:21Z</time>
      </trkpt>
      <trkpt lat="45.90777" lon="4.74955">
        <ele>180</ele>
        <time>2018-04-08T08:55:22Z</time>
      </trkpt>
      <trkpt lat="45.90772" lon="4.74953">
        <ele>180</ele>
        <time>2018-04-08T08:55:23Z</time>
      </trkpt>
      <trkpt lat="45.90767" lon="4.74951">
        <ele>180</ele>
        <time>2018-04-08T08:55:24Z</time>
      </trkpt>
      <trkpt lat="45.90761" lon="4.74949">
        <ele>180</ele>
        <time>2018-04-08T08:55:25Z</time>
      </trkpt>
      <trkpt lat="45.90755" lon="4.74947">
        <ele>180</ele>
        <time>2018-04-08T08:55:26Z</time>
      </trkpt>
      <trkpt lat="45.9075" lon="4.74944">
        <ele>181</ele>
        <time>2018-04-08T08:55:27Z</time>
      </trkpt>
      <trkpt lat="45.90745" lon="4.74942">
        <ele>181</ele>
        <time>2018-04-08T08:55:28Z</time>
      </trkpt>
      <trkpt lat="45.9074" lon="4.7494">
        <ele>181</ele>
        <time>2018-04-08T08:55:29Z</time>
      </trkpt>
      <trkpt lat="45.90735" lon="4.74938">
        <ele>181</ele>
        <time>2018-04-08T08:55:30Z</time>
      </trkpt>
      <trkpt lat="45.90731" lon="4.74936">
        <ele>181</ele>
        <time>2018-04-08T08:55:31Z</time>
      </trkpt>
      <trkpt lat="45.90727" lon="4.74935">
        <ele>181</ele>
        <time>2018-04-08T08:55:32Z</time>
      </trkpt>
      <trkpt lat="45.90722" lon="4.74933">
        <ele>181</ele>
        <time>2018-04-08T08:55:33Z</time>
      </trkpt>
      <trkpt lat="45.90716" lon="4.74932">
        <ele>181</ele>
        <time>2018-04-08T08:55:34Z</time>
      </trkpt>
      <trkpt lat="45.90711" lon="4.74933">
        <ele>181</ele>
        <time>2018-04-08T08:55:35Z</time>
      </trkpt>
      <trkpt lat="45.90706" lon="4.74935">
        <ele>181</ele>
        <time>2018-04-08T08:55:36Z</time>
      </trkpt>
      <trkpt lat="45.90701" lon="4.74937">
        <ele>181</ele>
        <time>2018-04-08T08:55:37Z</time>
      </trkpt>
      <trkpt lat="45.90695" lon="4.74937">
        <ele>181</ele>
        <time>2018-04-08T08:55:38Z</time>
      </trkpt>
      <trkpt lat="45.90691" lon="4.74938">
        <ele>181</ele>
        <time>2018-04-08T08:55:39Z</time>
      </trkpt>
      <trkpt lat="45.90686" lon="4.7494">
        <ele>181</ele>
        <time>2018-04-08T08:55:40Z</time>
      </trkpt>
      <trkpt lat="45.90681" lon="4.74942">
        <ele>181</ele>
        <time>2018-04-08T08:55:41Z</time>
      </trkpt>
      <trkpt lat="45.90676" lon="4.74944">
        <ele>181</ele>
        <time>2018-04-08T08:55:42Z</time>
      </trkpt>
      <trkpt lat="45.90671" lon="4.74946">
        <ele>181</ele>
        <time>2018-04-08T08:55:43Z</time>
      </trkpt>
      <trkpt lat="45.90666" lon="4.74948">
        <ele>183</ele>
        <time>2018-04-08T08:55:44Z</time>
      </trkpt>
      <trkpt lat="45.90661" lon="4.74951">
        <ele>183</ele>
        <time>2018-04-08T08:55:45Z</time>
      </trkpt>
      <trkpt lat="45.90656" lon="4.74952">
        <ele>183</ele>
        <time>2018-04-08T08:55:46Z</time>
      </trkpt>
      <trkpt lat="45.90651" lon="4.74954">
        <ele>183</ele>
        <time>2018-04-08T08:55:47Z</time>
      </trkpt>
      <trkpt lat="45.90647" lon="4.74957">
        <ele>183</ele>
        <time>2018-04-08T08:55:48Z</time>
      </trkpt>
      <trkpt lat="45.90642" lon="4.74959">
        <ele>183</ele>
        <time>2018-04-08T08:55:49Z</time>
      </trkpt>
      <trkpt lat="45.90637" lon="4.7496">
        <ele>183</ele>
        <time>2018-04-08T08:55:50Z</time>
      </trkpt>
      <trkpt lat="45.90632" lon="4.74961">
        <ele>183</ele>
        <time>2018-04-08T08:55:51Z</time>
      </trkpt>
      <trkpt lat="45.90628" lon="4.74962">
        <ele>183</ele>
        <time>2018-04-08T08:55:52Z</time>
      </trkpt>
      <trkpt lat="45.90624" lon="4.74964">
        <ele>183</ele>
        <time>2018-04-08T08:55:53Z</time>
      </trkpt>
      <trkpt lat="45.90619" lon="4.74965">
        <ele>183</ele>
        <time>2018-04-08T08:55:54Z</time>
      </trkpt>
      <trkpt lat="45.90614" lon="4.74966">
        <ele>183</ele>
        <time>2018-04-08T08:55:55Z</time>
      </trkpt>
      <trkpt lat="45.9061" lon="4.74968">
        <ele>184</ele>
        <time>2018-04-08T08:55:56Z</time>
      </trkpt>
      <trkpt lat="45.90605" lon="4.74969">
        <ele>184</ele>
        <time>2018-04-08T08:55:57Z</time>
      </trkpt>
      <trkpt lat="45.90597" lon="4.74971">
        <ele>184</ele>
        <time>2018-04-08T08:55:59Z</time>
      </trkpt>
      <trkpt lat="45.90592" lon="4.74971">
        <ele>184</ele>
        <time>2018-04-08T08:56:00Z</time>
      </trkpt>
      <trkpt lat="45.90588" lon="4.74972">
        <ele>184</ele>
        <time>2018-04-08T08:56:01Z</time>
      </trkpt>
      <trkpt lat="45.90583" lon="4.74973">
        <ele>184</ele>
        <time>2018-04-08T08:56:02Z</time>
      </trkpt>
      <trkpt lat="45.90578" lon="4.74975">
        <ele>184</ele>
        <time>2018-04-08T08:56:03Z</time>
      </trkpt>
      <trkpt lat="45.90573" lon="4.74976">
        <ele>184</ele>
        <time>2018-04-08T08:56:04Z</time>
      </trkpt>
      <trkpt lat="45.90568" lon="4.74977">
        <ele>184</ele>
        <time>2018-04-08T08:56:05Z</time>
      </trkpt>
      <trkpt lat="45.90564" lon="4.74978">
        <ele>184</ele>
        <time>2018-04-08T08:56:06Z</time>
      </trkpt>
      <trkpt lat="45.90558" lon="4.74979">
        <ele>184</ele>
        <time>2018-04-08T08:56:07Z</time>
      </trkpt>
      <trkpt lat="45.90553" lon="4.74981">
        <ele>185</ele>
        <time>2018-04-08T08:56:08Z</time>
      </trkpt>
      <trkpt lat="45.90548" lon="4.74982">
        <ele>185</ele>
        <time>2018-04-08T08:56:09Z</time>
      </trkpt>
      <trkpt lat="45.90543" lon="4.74982">
        <ele>185</ele>
        <time>2018-04-08T08:56:10Z</time>
      </trkpt>
      <trkpt lat="45.90538" lon="4.74982">
        <ele>185</ele>
        <time>2018-04-08T08:56:11Z</time>
      </trkpt>
      <trkpt lat="45.90533" lon="4.74982">
        <ele>185</ele>
        <time>2018-04-08T08:56:12Z</time>
      </trkpt>
      <trkpt lat="45.90527" lon="4.74982">
        <ele>185</ele>
        <time>2018-04-08T08:56:13Z</time>
      </trkpt>
      <trkpt lat="45.90522" lon="4.74983">
        <ele>185</ele>
        <time>2018-04-08T08:56:14Z</time>
      </trkpt>
      <trkpt lat="45.90517" lon="4.74983">
        <ele>185</ele>
        <time>2018-04-08T08:56:15Z</time>
      </trkpt>
      <trkpt lat="45.90512" lon="4.74984">
        <ele>185</ele>
        <time>2018-04-08T08:56:16Z</time>
      </trkpt>
      <trkpt lat="45.90508" lon="4.74985">
        <ele>185</ele>
        <time>2018-04-08T08:56:17Z</time>
      </trkpt>
      <trkpt lat="45.90503" lon="4.74985">
        <ele>185</ele>
        <time>2018-04-08T08:56:18Z</time>
      </trkpt>
      <trkpt lat="45.90495" lon="4.74987">
        <ele>186</ele>
        <time>2018-04-08T08:56:20Z</time>
      </trkpt>
      <trkpt lat="45.90491" lon="4.74987">
        <ele>186</ele>
        <time>2018-04-08T08:56:21Z</time>
      </trkpt>
      <trkpt lat="45.90482" lon="4.74987">
        <ele>186</ele>
        <time>2018-04-08T08:56:23Z</time>
      </trkpt>
      <trkpt lat="45.90478" lon="4.74987">
        <ele>186</ele>
        <time>2018-04-08T08:56:24Z</time>
      </trkpt>
      <trkpt lat="45.9047" lon="4.74988">
        <ele>186</ele>
        <time>2018-04-08T08:56:26Z</time>
      </trkpt>
      <trkpt lat="45.90465" lon="4.74988">
        <ele>186</ele>
        <time>2018-04-08T08:56:27Z</time>
      </trkpt>
      <trkpt lat="45.9046" lon="4.74989">
        <ele>186</ele>
        <time>2018-04-08T08:56:28Z</time>
      </trkpt>
      <trkpt lat="45.90456" lon="4.74989">
        <ele>186</ele>
        <time>2018-04-08T08:56:29Z</time>
      </trkpt>
      <trkpt lat="45.90451" lon="4.7499">
        <ele>186</ele>
        <time>2018-04-08T08:56:30Z</time>
      </trkpt>
      <trkpt lat="45.90447" lon="4.74991">
        <ele>186</ele>
        <time>2018-04-08T08:56:31Z</time>
      </trkpt>
      <trkpt lat="45.90438" lon="4.74993">
        <ele>187</ele>
        <time>2018-04-08T08:56:33Z</time>
      </trkpt>
      <trkpt lat="45.90434" lon="4.74994">
        <ele>187</ele>
        <time>2018-04-08T08:56:34Z</time>
      </trkpt>
      <trkpt lat="45.90427" lon="4.74996">
        <ele>187</ele>
        <time>2018-04-08T08:56:36Z</time>
      </trkpt>
      <trkpt lat="45.90424" lon="4.74997">
        <ele>187</ele>
        <time>2018-04-08T08:56:37Z</time>
      </trkpt>
      <trkpt lat="45.90416" lon="4.75">
        <ele>188</ele>
        <time>2018-04-08T08:56:39Z</time>
      </trkpt>
      <trkpt lat="45.90411" lon="4.75001">
        <ele>188</ele>
        <time>2018-04-08T08:56:40Z</time>
      </trkpt>
      <trkpt lat="45.90402" lon="4.75003">
        <ele>188</ele>
        <time>2018-04-08T08:56:42Z</time>
      </trkpt>
      <trkpt lat="45.90398" lon="4.75004">
        <ele>188</ele>
        <time>2018-04-08T08:56:43Z</time>
      </trkpt>
      <trkpt lat="45.9039" lon="4.75006">
        <ele>188</ele>
        <time>2018-04-08T08:56:45Z</time>
      </trkpt>
      <trkpt lat="45.90385" lon="4.75007">
        <ele>188</ele>
        <time>2018-04-08T08:56:46Z</time>
      </trkpt>
      <trkpt lat="45.90377" lon="4.7501">
        <ele>188</ele>
        <time>2018-04-08T08:56:48Z</time>
      </trkpt>
      <trkpt lat="45.90373" lon="4.7501">
        <ele>188</ele>
        <time>2018-04-08T08:56:49Z</time>
      </trkpt>
      <trkpt lat="45.90365" lon="4.75013">
        <ele>188</ele>
        <time>2018-04-08T08:56:51Z</time>
      </trkpt>
      <trkpt lat="45.90361" lon="4.75014">
        <ele>188</ele>
        <time>2018-04-08T08:56:52Z</time>
      </trkpt>
      <trkpt lat="45.90352" lon="4.75016">
        <ele>188</ele>
        <time>2018-04-08T08:56:54Z</time>
      </trkpt>
      <trkpt lat="45.90348" lon="4.75017">
        <ele>188</ele>
        <time>2018-04-08T08:56:55Z</time>
      </trkpt>
      <trkpt lat="45.90339" lon="4.7502">
        <ele>188</ele>
        <time>2018-04-08T08:56:57Z</time>
      </trkpt>
      <trkpt lat="45.90335" lon="4.75021">
        <ele>188</ele>
        <time>2018-04-08T08:56:58Z</time>
      </trkpt>
      <trkpt lat="45.90331" lon="4.75022">
        <ele>189</ele>
        <time>2018-04-08T08:56:59Z</time>
      </trkpt>
      <trkpt lat="45.90327" lon="4.75024">
        <ele>189</ele>
        <time>2018-04-08T08:57:00Z</time>
      </trkpt>
      <trkpt lat="45.90318" lon="4.75027">
        <ele>189</ele>
        <time>2018-04-08T08:57:02Z</time>
      </trkpt>
      <trkpt lat="45.90314" lon="4.75029">
        <ele>189</ele>
        <time>2018-04-08T08:57:03Z</time>
      </trkpt>
      <trkpt lat="45.90309" lon="4.7503">
        <ele>189</ele>
        <time>2018-04-08T08:57:04Z</time>
      </trkpt>
      <trkpt lat="45.90304" lon="4.75031">
        <ele>189</ele>
        <time>2018-04-08T08:57:05Z</time>
      </trkpt>
      <trkpt lat="45.90296" lon="4.75033">
        <ele>189</ele>
        <time>2018-04-08T08:57:07Z</time>
      </trkpt>
      <trkpt lat="45.90292" lon="4.75034">
        <ele>189</ele>
        <time>2018-04-08T08:57:08Z</time>
      </trkpt>
      <trkpt lat="45.90284" lon="4.75037">
        <ele>190</ele>
        <time>2018-04-08T08:57:10Z</time>
      </trkpt>
      <trkpt lat="45.9028" lon="4.75038">
        <ele>190</ele>
        <time>2018-04-08T08:57:11Z</time>
      </trkpt>
      <trkpt lat="45.90272" lon="4.75041">
        <ele>190</ele>
        <time>2018-04-08T08:57:13Z</time>
      </trkpt>
      <trkpt lat="45.90268" lon="4.75043">
        <ele>190</ele>
        <time>2018-04-08T08:57:14Z</time>
      </trkpt>
      <trkpt lat="45.90259" lon="4.75045">
        <ele>190</ele>
        <time>2018-04-08T08:57:16Z</time>
      </trkpt>
      <trkpt lat="45.90254" lon="4.75045">
        <ele>190</ele>
        <time>2018-04-08T08:57:17Z</time>
      </trkpt>
      <trkpt lat="45.90247" lon="4.75048">
        <ele>191</ele>
        <time>2018-04-08T08:57:19Z</time>
      </trkpt>
      <trkpt lat="45.90243" lon="4.7505">
        <ele>191</ele>
        <time>2018-04-08T08:57:20Z</time>
      </trkpt>
      <trkpt lat="45.90234" lon="4.75051">
        <ele>191</ele>
        <time>2018-04-08T08:57:22Z</time>
      </trkpt>
      <trkpt lat="45.90231" lon="4.75052">
        <ele>191</ele>
        <time>2018-04-08T08:57:23Z</time>
      </trkpt>
      <trkpt lat="45.90224" lon="4.75055">
        <ele>191</ele>
        <time>2018-04-08T08:57:25Z</time>
      </trkpt>
      <trkpt lat="45.9022" lon="4.75056">
        <ele>191</ele>
        <time>2018-04-08T08:57:26Z</time>
      </trkpt>
      <trkpt lat="45.90212" lon="4.75058">
        <ele>191</ele>
        <time>2018-04-08T08:57:28Z</time>
      </trkpt>
      <trkpt lat="45.9021" lon="4.75058">
        <ele>191</ele>
        <time>2018-04-08T08:57:29Z</time>
      </trkpt>
      <trkpt lat="45.90205" lon="4.75059">
        <ele>191</ele>
        <time>2018-04-08T08:57:30Z</time>
      </trkpt>
      <trkpt lat="45.90201" lon="4.7506">
        <ele>191</ele>
        <time>2018-04-08T08:57:31Z</time>
      </trkpt>
      <trkpt lat="45.90194" lon="4.75063">
        <ele>191</ele>
        <time>2018-04-08T08:57:33Z</time>
      </trkpt>
      <trkpt lat="45.9019" lon="4.75064">
        <ele>191</ele>
        <time>2018-04-08T08:57:34Z</time>
      </trkpt>
      <trkpt lat="45.90182" lon="4.75069">
        <ele>191</ele>
        <time>2018-04-08T08:57:36Z</time>
      </trkpt>
      <trkpt lat="45.90178" lon="4.75072">
        <ele>191</ele>
        <time>2018-04-08T08:57:37Z</time>
      </trkpt>
      <trkpt lat="45.90173" lon="4.75078">
        <ele>191</ele>
        <time>2018-04-08T08:57:40Z</time>
      </trkpt>
      <trkpt lat="45.90166" lon="4.75083">
        <ele>191</ele>
        <time>2018-04-08T08:57:41Z</time>
      </trkpt>
      <trkpt lat="45.90158" lon="4.75082">
        <ele>191</ele>
        <time>2018-04-08T08:57:43Z</time>
      </trkpt>
      <trkpt lat="45.90155" lon="4.7508">
        <ele>191</ele>
        <time>2018-04-08T08:57:44Z</time>
      </trkpt>
      <trkpt lat="45.90148" lon="4.75074">
        <ele>192</ele>
        <time>2018-04-08T08:57:46Z</time>
      </trkpt>
      <trkpt lat="45.90144" lon="4.75072">
        <ele>192</ele>
        <time>2018-04-08T08:57:47Z</time>
      </trkpt>
      <trkpt lat="45.90138" lon="4.75066">
        <ele>192</ele>
        <time>2018-04-08T08:57:49Z</time>
      </trkpt>
      <trkpt lat="45.90136" lon="4.75064">
        <ele>192</ele>
        <time>2018-04-08T08:57:50Z</time>
      </trkpt>
      <trkpt lat="45.90128" lon="4.75059">
        <ele>192</ele>
        <time>2018-04-08T08:57:52Z</time>
      </trkpt>
      <trkpt lat="45.90125" lon="4.75056">
        <ele>192</ele>
        <time>2018-04-08T08:57:53Z</time>
      </trkpt>
      <trkpt lat="45.90117" lon="4.7505">
        <ele>192</ele>
        <time>2018-04-08T08:57:55Z</time>
      </trkpt>
      <trkpt lat="45.90113" lon="4.75047">
        <ele>192</ele>
        <time>2018-04-08T08:57:56Z</time>
      </trkpt>
      <trkpt lat="45.90106" lon="4.75042">
        <ele>192</ele>
        <time>2018-04-08T08:57:58Z</time>
      </trkpt>
      <trkpt lat="45.90102" lon="4.7504">
        <ele>192</ele>
        <time>2018-04-08T08:57:59Z</time>
      </trkpt>
      <trkpt lat="45.90093" lon="4.75036">
        <ele>192</ele>
        <time>2018-04-08T08:58:01Z</time>
      </trkpt>
      <trkpt lat="45.90089" lon="4.75034">
        <ele>192</ele>
        <time>2018-04-08T08:58:02Z</time>
      </trkpt>
      <trkpt lat="45.90081" lon="4.75031">
        <ele>193</ele>
        <time>2018-04-08T08:58:04Z</time>
      </trkpt>
      <trkpt lat="45.90076" lon="4.75029">
        <ele>193</ele>
        <time>2018-04-08T08:58:05Z</time>
      </trkpt>
      <trkpt lat="45.90068" lon="4.75026">
        <ele>193</ele>
        <time>2018-04-08T08:58:07Z</time>
      </trkpt>
      <trkpt lat="45.90064" lon="4.75025">
        <ele>193</ele>
        <time>2018-04-08T08:58:08Z</time>
      </trkpt>
      <trkpt lat="45.9006" lon="4.75023">
        <ele>193</ele>
        <time>2018-04-08T08:58:09Z</time>
      </trkpt>
      <trkpt lat="45.90055" lon="4.75021">
        <ele>193</ele>
        <time>2018-04-08T08:58:10Z</time>
      </trkpt>
      <trkpt lat="45.9005" lon="4.75019">
        <ele>193</ele>
        <time>2018-04-08T08:58:11Z</time>
      </trkpt>
      <trkpt lat="45.90045" lon="4.75019">
        <ele>193</ele>
        <time>2018-04-08T08:58:12Z</time>
      </trkpt>
      <trkpt lat="45.90041" lon="4.75018">
        <ele>193</ele>
        <time>2018-04-08T08:58:13Z</time>
      </trkpt>
      <trkpt lat="45.90036" lon="4.75015">
        <ele>193</ele>
        <time>2018-04-08T08:58:14Z</time>
      </trkpt>
      <trkpt lat="45.90031" lon="4.75013">
        <ele>193</ele>
        <time>2018-04-08T08:58:15Z</time>
      </trkpt>
      <trkpt lat="45.90025" lon="4.75011">
        <ele>193</ele>
        <time>2018-04-08T08:58:16Z</time>
      </trkpt>
      <trkpt lat="45.9002" lon="4.75008">
        <ele>193</ele>
        <time>2018-04-08T08:58:17Z</time>
      </trkpt>
      <trkpt lat="45.90014" lon="4.75007">
        <ele>193</ele>
        <time>2018-04-08T08:58:18Z</time>
      </trkpt>
      <trkpt lat="45.90009" lon="4.75005">
        <ele>192</ele>
        <time>2018-04-08T08:58:19Z</time>
      </trkpt>
      <trkpt lat="45.90003" lon="4.75004">
        <ele>192</ele>
        <time>2018-04-08T08:58:20Z</time>
      </trkpt>
      <trkpt lat="45.89998" lon="4.75002">
        <ele>192</ele>
        <time>2018-04-08T08:58:21Z</time>
      </trkpt>
      <trkpt lat="45.89994" lon="4.75">
        <ele>192</ele>
        <time>2018-04-08T08:58:22Z</time>
      </trkpt>
      <trkpt lat="45.89988" lon="4.74999">
        <ele>192</ele>
        <time>2018-04-08T08:58:23Z</time>
      </trkpt>
      <trkpt lat="45.89983" lon="4.74998">
        <ele>192</ele>
        <time>2018-04-08T08:58:24Z</time>
      </trkpt>
      <trkpt lat="45.89978" lon="4.74997">
        <ele>192</ele>
        <time>2018-04-08T08:58:25Z</time>
      </trkpt>
      <trkpt lat="45.89973" lon="4.74996">
        <ele>193</ele>
        <time>2018-04-08T08:58:26Z</time>
      </trkpt>
      <trkpt lat="45.89964" lon="4.74993">
        <ele>193</ele>
        <time>2018-04-08T08:58:28Z</time>
      </trkpt>
      <trkpt lat="45.8996" lon="4.74991">
        <ele>193</ele>
        <time>2018-04-08T08:58:29Z</time>
      </trkpt>
      <trkpt lat="45.89954" lon="4.74991">
        <ele>193</ele>
        <time>2018-04-08T08:58:30Z</time>
      </trkpt>
      <trkpt lat="45.89949" lon="4.7499">
        <ele>193</ele>
        <time>2018-04-08T08:58:31Z</time>
      </trkpt>
      <trkpt lat="45.89944" lon="4.74989">
        <ele>193</ele>
        <time>2018-04-08T08:58:32Z</time>
      </trkpt>
      <trkpt lat="45.8994" lon="4.74989">
        <ele>193</ele>
        <time>2018-04-08T08:58:33Z</time>
      </trkpt>
      <trkpt lat="45.89932" lon="4.74988">
        <ele>193</ele>
        <time>2018-04-08T08:58:35Z</time>
      </trkpt>
      <trkpt lat="45.89928" lon="4.74986">
        <ele>193</ele>
        <time>2018-04-08T08:58:36Z</time>
      </trkpt>
      <trkpt lat="45.89919" lon="4.74984">
        <ele>193</ele>
        <time>2018-04-08T08:58:38Z</time>
      </trkpt>
      <trkpt lat="45.89914" lon="4.74982">
        <ele>194</ele>
        <time>2018-04-08T08:58:39Z</time>
      </trkpt>
      <trkpt lat="45.8991" lon="4.74981">
        <ele>194</ele>
        <time>2018-04-08T08:58:40Z</time>
      </trkpt>
      <trkpt lat="45.89905" lon="4.7498">
        <ele>194</ele>
        <time>2018-04-08T08:58:41Z</time>
      </trkpt>
      <trkpt lat="45.89896" lon="4.74979">
        <ele>194</ele>
        <time>2018-04-08T08:58:43Z</time>
      </trkpt>
      <trkpt lat="45.89891" lon="4.74978">
        <ele>194</ele>
        <time>2018-04-08T08:58:44Z</time>
      </trkpt>
      <trkpt lat="45.89886" lon="4.74978">
        <ele>194</ele>
        <time>2018-04-08T08:58:45Z</time>
      </trkpt>
      <trkpt lat="45.89881" lon="4.74976">
        <ele>194</ele>
        <time>2018-04-08T08:58:46Z</time>
      </trkpt>
      <trkpt lat="45.89877" lon="4.74974">
        <ele>194</ele>
        <time>2018-04-08T08:58:47Z</time>
      </trkpt>
      <trkpt lat="45.89872" lon="4.74972">
        <ele>194</ele>
        <time>2018-04-08T08:58:48Z</time>
      </trkpt>
      <trkpt lat="45.89867" lon="4.74971">
        <ele>194</ele>
        <time>2018-04-08T08:58:49Z</time>
      </trkpt>
      <trkpt lat="45.89863" lon="4.7497">
        <ele>194</ele>
        <time>2018-04-08T08:58:50Z</time>
      </trkpt>
      <trkpt lat="45.89857" lon="4.74969">
        <ele>194</ele>
        <time>2018-04-08T08:58:51Z</time>
      </trkpt>
      <trkpt lat="45.89853" lon="4.74967">
        <ele>194</ele>
        <time>2018-04-08T08:58:52Z</time>
      </trkpt>
      <trkpt lat="45.89847" lon="4.74966">
        <ele>194</ele>
        <time>2018-04-08T08:58:53Z</time>
      </trkpt>
      <trkpt lat="45.89842" lon="4.74964">
        <ele>194</ele>
        <time>2018-04-08T08:58:54Z</time>
      </trkpt>
      <trkpt lat="45.89837" lon="4.74963">
        <ele>194</ele>
        <time>2018-04-08T08:58:55Z</time>
      </trkpt>
      <trkpt lat="45.89832" lon="4.74962">
        <ele>194</ele>
        <time>2018-04-08T08:58:56Z</time>
      </trkpt>
      <trkpt lat="45.89827" lon="4.74961">
        <ele>194</ele>
        <time>2018-04-08T08:58:57Z</time>
      </trkpt>
      <trkpt lat="45.89822" lon="4.7496">
        <ele>195</ele>
        <time>2018-04-08T08:58:58Z</time>
      </trkpt>
      <trkpt lat="45.89817" lon="4.74959">
        <ele>195</ele>
        <time>2018-04-08T08:58:59Z</time>
      </trkpt>
      <trkpt lat="45.89813" lon="4.74957">
        <ele>195</ele>
        <time>2018-04-08T08:59:00Z</time>
      </trkpt>
      <trkpt lat="45.89808" lon="4.74955">
        <ele>195</ele>
        <time>2018-04-08T08:59:01Z</time>
      </trkpt>
      <trkpt lat="45.89803" lon="4.74953">
        <ele>195</ele>
        <time>2018-04-08T08:59:02Z</time>
      </trkpt>
      <trkpt lat="45.89798" lon="4.74951">
        <ele>195</ele>
        <time>2018-04-08T08:59:03Z</time>
      </trkpt>
      <trkpt lat="45.89793" lon="4.74949">
        <ele>195</ele>
        <time>2018-04-08T08:59:04Z</time>
      </trkpt>
      <trkpt lat="45.89788" lon="4.74947">
        <ele>195</ele>
        <time>2018-04-08T08:59:05Z</time>
      </trkpt>
      <trkpt lat="45.89782" lon="4.74944">
        <ele>195</ele>
        <time>2018-04-08T08:59:06Z</time>
      </trkpt>
      <trkpt lat="45.89777" lon="4.74942">
        <ele>195</ele>
        <time>2018-04-08T08:59:07Z</time>
      </trkpt>
      <trkpt lat="45.89772" lon="4.7494">
        <ele>195</ele>
        <time>2018-04-08T08:59:08Z</time>
      </trkpt>
      <trkpt lat="45.89767" lon="4.74938">
        <ele>195</ele>
        <time>2018-04-08T08:59:09Z</time>
      </trkpt>
      <trkpt lat="45.89763" lon="4.74936">
        <ele>195</ele>
        <time>2018-04-08T08:59:10Z</time>
      </trkpt>
      <trkpt lat="45.89758" lon="4.74933">
        <ele>195</ele>
        <time>2018-04-08T08:59:11Z</time>
      </trkpt>
      <trkpt lat="45.89753" lon="4.7493">
        <ele>195</ele>
        <time>2018-04-08T08:59:12Z</time>
      </trkpt>
      <trkpt lat="45.89747" lon="4.74927">
        <ele>195</ele>
        <time>2018-04-08T08:59:13Z</time>
      </trkpt>
      <trkpt lat="45.89742" lon="4.74925">
        <ele>195</ele>
        <time>2018-04-08T08:59:14Z</time>
      </trkpt>
      <trkpt lat="45.89737" lon="4.74923">
        <ele>196</ele>
        <time>2018-04-08T08:59:15Z</time>
      </trkpt>
      <trkpt lat="45.89732" lon="4.74921">
        <ele>196</ele>
        <time>2018-04-08T08:59:16Z</time>
      </trkpt>
      <trkpt lat="45.89728" lon="4.74918">
        <ele>196</ele>
        <time>2018-04-08T08:59:17Z</time>
      </trkpt>
      <trkpt lat="45.89723" lon="4.74915">
        <ele>195</ele>
        <time>2018-04-08T08:59:18Z</time>
      </trkpt>
      <trkpt lat="45.89718" lon="4.74914">
        <ele>195</ele>
        <time>2018-04-08T08:59:19Z</time>
      </trkpt>
      <trkpt lat="45.89713" lon="4.74914">
        <ele>195</ele>
        <time>2018-04-08T08:59:20Z</time>
      </trkpt>
      <trkpt lat="45.89707" lon="4.74913">
        <ele>195</ele>
        <time>2018-04-08T08:59:21Z</time>
      </trkpt>
      <trkpt lat="45.89703" lon="4.74914">
        <ele>195</ele>
        <time>2018-04-08T08:59:22Z</time>
      </trkpt>
      <trkpt lat="45.89698" lon="4.74914">
        <ele>195</ele>
        <time>2018-04-08T08:59:23Z</time>
      </trkpt>
      <trkpt lat="45.89693" lon="4.74915">
        <ele>195</ele>
        <time>2018-04-08T08:59:24Z</time>
      </trkpt>
      <trkpt lat="45.89687" lon="4.74914">
        <ele>195</ele>
        <time>2018-04-08T08:59:25Z</time>
      </trkpt>
      <trkpt lat="45.89681" lon="4.74914">
        <ele>195</ele>
        <time>2018-04-08T08:59:26Z</time>
      </trkpt>
      <trkpt lat="45.89676" lon="4.74915">
        <ele>196</ele>
        <time>2018-04-08T08:59:27Z</time>
      </trkpt>
      <trkpt lat="45.8967" lon="4.74915">
        <ele>196</ele>
        <time>2018-04-08T08:59:28Z</time>
      </trkpt>
      <trkpt lat="45.89666" lon="4.74914">
        <ele>196</ele>
        <time>2018-04-08T08:59:29Z</time>
      </trkpt>
      <trkpt lat="45.8966" lon="4.74914">
        <ele>196</ele>
        <time>2018-04-08T08:59:30Z</time>
      </trkpt>
      <trkpt lat="45.89655" lon="4.74914">
        <ele>196</ele>
        <time>2018-04-08T08:59:31Z</time>
      </trkpt>
      <trkpt lat="45.89649" lon="4.74913">
        <ele>196</ele>
        <time>2018-04-08T08:59:32Z</time>
      </trkpt>
      <trkpt lat="45.89643" lon="4.74913">
        <ele>196</ele>
        <time>2018-04-08T08:59:33Z</time>
      </trkpt>
      <trkpt lat="45.89638" lon="4.74912">
        <ele>196</ele>
        <time>2018-04-08T08:59:34Z</time>
      </trkpt>
      <trkpt lat="45.89632" lon="4.74912">
        <ele>196</ele>
        <time>2018-04-08T08:59:35Z</time>
      </trkpt>
      <trkpt lat="45.89626" lon="4.74912">
        <ele>196</ele>
        <time>2018-04-08T08:59:36Z</time>
      </trkpt>
      <trkpt lat="45.89621" lon="4.74911">
        <ele>197</ele>
        <time>2018-04-08T08:59:37Z</time>
      </trkpt>
      <trkpt lat="45.89615" lon="4.7491">
        <ele>197</ele>
        <time>2018-04-08T08:59:38Z</time>
      </trkpt>
      <trkpt lat="45.8961" lon="4.7491">
        <ele>197</ele>
        <time>2018-04-08T08:59:39Z</time>
      </trkpt>
      <trkpt lat="45.89606" lon="4.74909">
        <ele>197</ele>
        <time>2018-04-08T08:59:40Z</time>
      </trkpt>
      <trkpt lat="45.896" lon="4.74908">
        <ele>197</ele>
        <time>2018-04-08T08:59:41Z</time>
      </trkpt>
      <trkpt lat="45.89594" lon="4.74907">
        <ele>197</ele>
        <time>2018-04-08T08:59:42Z</time>
      </trkpt>
      <trkpt lat="45.8959" lon="4.74906">
        <ele>197</ele>
        <time>2018-04-08T08:59:43Z</time>
      </trkpt>
      <trkpt lat="45.89585" lon="4.74904">
        <ele>197</ele>
        <time>2018-04-08T08:59:44Z</time>
      </trkpt>
      <trkpt lat="45.89579" lon="4.74903">
        <ele>198</ele>
        <time>2018-04-08T08:59:45Z</time>
      </trkpt>
      <trkpt lat="45.89573" lon="4.74901">
        <ele>198</ele>
        <time>2018-04-08T08:59:46Z</time>
      </trkpt>
      <trkpt lat="45.89567" lon="4.749">
        <ele>198</ele>
        <time>2018-04-08T08:59:47Z</time>
      </trkpt>
      <trkpt lat="45.89562" lon="4.74898">
        <ele>198</ele>
        <time>2018-04-08T08:59:48Z</time>
      </trkpt>
      <trkpt lat="45.89556" lon="4.74898">
        <ele>198</ele>
        <time>2018-04-08T08:59:49Z</time>
      </trkpt>
      <trkpt lat="45.8955" lon="4.74898">
        <ele>198</ele>
        <time>2018-04-08T08:59:50Z</time>
      </trkpt>
      <trkpt lat="45.89545" lon="4.74897">
        <ele>198</ele>
        <time>2018-04-08T08:59:51Z</time>
      </trkpt>
      <trkpt lat="45.8954" lon="4.74896">
        <ele>198</ele>
        <time>2018-04-08T08:59:52Z</time>
      </trkpt>
      <trkpt lat="45.89534" lon="4.74895">
        <ele>198</ele>
        <time>2018-04-08T08:59:53Z</time>
      </trkpt>
      <trkpt lat="45.8953" lon="4.74893">
        <ele>198</ele>
        <time>2018-04-08T08:59:54Z</time>
      </trkpt>
      <trkpt lat="45.89525" lon="4.74892">
        <ele>198</ele>
        <time>2018-04-08T08:59:55Z</time>
      </trkpt>
      <trkpt lat="45.8952" lon="4.74893">
        <ele>198</ele>
        <time>2018-04-08T08:59:56Z</time>
      </trkpt>
      <trkpt lat="45.89515" lon="4.74892">
        <ele>198</ele>
        <time>2018-04-08T08:59:57Z</time>
      </trkpt>
      <trkpt lat="45.8951" lon="4.74891">
        <ele>198</ele>
        <time>2018-04-08T08:59:58Z</time>
      </trkpt>
      <trkpt lat="45.89505" lon="4.7489">
        <ele>198</ele>
        <time>2018-04-08T08:59:59Z</time>
      </trkpt>
      <trkpt lat="45.895" lon="4.7489">
        <ele>199</ele>
        <time>2018-04-08T09:00:00Z</time>
      </trkpt>
      <trkpt lat="45.89496" lon="4.74889">
        <ele>199</ele>
        <time>2018-04-08T09:00:01Z</time>
      </trkpt>
      <trkpt lat="45.89491" lon="4.74887">
        <ele>199</ele>
        <time>2018-04-08T09:00:02Z</time>
      </trkpt>
      <trkpt lat="45.89486" lon="4.74887">
        <ele>199</ele>
        <time>2018-04-08T09:00:03Z</time>
      </trkpt>
      <trkpt lat="45.89481" lon="4.74887">
        <ele>199</ele>
        <time>2018-04-08T09:00:04Z</time>
      </trkpt>
      <trkpt lat="45.89473" lon="4.74885">
        <ele>199</ele>
        <time>2018-04-08T09:00:06Z</time>
      </trkpt>
      <trkpt lat="45.8947" lon="4.74884">
        <ele>199</ele>
        <time>2018-04-08T09:00:07Z</time>
      </trkpt>
      <trkpt lat="45.89465" lon="4.74883">
        <ele>199</ele>
        <time>2018-04-08T09:00:08Z</time>
      </trkpt>
      <trkpt lat="45.8946" lon="4.74882">
        <ele>199</ele>
        <time>2018-04-08T09:00:09Z</time>
      </trkpt>
      <trkpt lat="45.89452" lon="4.74879">
        <ele>199</ele>
        <time>2018-04-08T09:00:11Z</time>
      </trkpt>
      <trkpt lat="45.89446" lon="4.74878">
        <ele>199</ele>
        <time>2018-04-08T09:00:12Z</time>
      </trkpt>
      <trkpt lat="45.89438" lon="4.74877">
        <ele>199</ele>
        <time>2018-04-08T09:00:14Z</time>
      </trkpt>
      <trkpt lat="45.89433" lon="4.74877">
        <ele>199</ele>
        <time>2018-04-08T09:00:15Z</time>
      </trkpt>
      <trkpt lat="45.89428" lon="4.74877">
        <ele>199</ele>
        <time>2018-04-08T09:00:16Z</time>
      </trkpt>
      <trkpt lat="45.89422" lon="4.74876">
        <ele>199</ele>
        <time>2018-04-08T09:00:17Z</time>
      </trkpt>
      <trkpt lat="45.89418" lon="4.74875">
        <ele>199</ele>
        <time>2018-04-08T09:00:18Z</time>
      </trkpt>
      <trkpt lat="45.89413" lon="4.74875">
        <ele>199</ele>
        <time>2018-04-08T09:00:19Z</time>
      </trkpt>
      <trkpt lat="45.89407" lon="4.74873">
        <ele>199</ele>
        <time>2018-04-08T09:00:20Z</time>
      </trkpt>
      <trkpt lat="45.89403" lon="4.74872">
        <ele>199</ele>
        <time>2018-04-08T09:00:21Z</time>
      </trkpt>
      <trkpt lat="45.89398" lon="4.74872">
        <ele>199</ele>
        <time>2018-04-08T09:00:22Z</time>
      </trkpt>
      <trkpt lat="45.89391" lon="4.74871">
        <ele>199</ele>
        <time>2018-04-08T09:00:23Z</time>
      </trkpt>
      <trkpt lat="45.89385" lon="4.7487">
        <ele>199</ele>
        <time>2018-04-08T09:00:25Z</time>
      </trkpt>
      <trkpt lat="45.8938" lon="4.74869">
        <ele>199</ele>
        <time>2018-04-08T09:00:26Z</time>
      </trkpt>
      <trkpt lat="45.89376" lon="4.74868">
        <ele>199</ele>
        <time>2018-04-08T09:00:27Z</time>
      </trkpt>
      <trkpt lat="45.8937" lon="4.74868">
        <ele>199</ele>
        <time>2018-04-08T09:00:28Z</time>
      </trkpt>
      <trkpt lat="45.89361" lon="4.74867">
        <ele>199</ele>
        <time>2018-04-08T09:00:30Z</time>
      </trkpt>
      <trkpt lat="45.89356" lon="4.74866">
        <ele>199</ele>
        <time>2018-04-08T09:00:31Z</time>
      </trkpt>
      <trkpt lat="45.89351" lon="4.74866">
        <ele>199</ele>
        <time>2018-04-08T09:00:32Z</time>
      </trkpt>
      <trkpt lat="45.89347" lon="4.74866">
        <ele>199</ele>
        <time>2018-04-08T09:00:33Z</time>
      </trkpt>
      <trkpt lat="45.89341" lon="4.74866">
        <ele>199</ele>
        <time>2018-04-08T09:00:34Z</time>
      </trkpt>
      <trkpt lat="45.89335" lon="4.74866">
        <ele>199</ele>
        <time>2018-04-08T09:00:35Z</time>
      </trkpt>
      <trkpt lat="45.89329" lon="4.74865">
        <ele>198</ele>
        <time>2018-04-08T09:00:36Z</time>
      </trkpt>
      <trkpt lat="45.89324" lon="4.74864">
        <ele>198</ele>
        <time>2018-04-08T09:00:37Z</time>
      </trkpt>
      <trkpt lat="45.8932" lon="4.74863">
        <ele>198</ele>
        <time>2018-04-08T09:00:38Z</time>
      </trkpt>
      <trkpt lat="45.89315" lon="4.74861">
        <ele>198</ele>
        <time>2018-04-08T09:00:39Z</time>
      </trkpt>
      <trkpt lat="45.89308" lon="4.7486">
        <ele>198</ele>
        <time>2018-04-08T09:00:40Z</time>
      </trkpt>
      <trkpt lat="45.89303" lon="4.74859">
        <ele>198</ele>
        <time>2018-04-08T09:00:41Z</time>
      </trkpt>
      <trkpt lat="45.89297" lon="4.74859">
        <ele>198</ele>
        <time>2018-04-08T09:00:42Z</time>
      </trkpt>
      <trkpt lat="45.89291" lon="4.74859">
        <ele>198</ele>
        <time>2018-04-08T09:00:43Z</time>
      </trkpt>
      <trkpt lat="45.89287" lon="4.7486">
        <ele>198</ele>
        <time>2018-04-08T09:00:44Z</time>
      </trkpt>
      <trkpt lat="45.89275" lon="4.7486">
        <ele>198</ele>
        <time>2018-04-08T09:00:45Z</time>
      </trkpt>
      <trkpt lat="45.89271" lon="4.74858">
        <ele>198</ele>
        <time>2018-04-08T09:00:46Z</time>
      </trkpt>
      <trkpt lat="45.89265" lon="4.74856">
        <ele>198</ele>
        <time>2018-04-08T09:00:47Z</time>
      </trkpt>
      <trkpt lat="45.89258" lon="4.74854">
        <ele>198</ele>
        <time>2018-04-08T09:00:48Z</time>
      </trkpt>
      <trkpt lat="45.89249" lon="4.74856">
        <ele>198</ele>
        <time>2018-04-08T09:00:49Z</time>
      </trkpt>
      <trkpt lat="45.89243" lon="4.74855">
        <ele>198</ele>
        <time>2018-04-08T09:00:50Z</time>
      </trkpt>
      <trkpt lat="45.89238" lon="4.74856">
        <ele>198</ele>
        <time>2018-04-08T09:00:51Z</time>
      </trkpt>
      <trkpt lat="45.89233" lon="4.74856">
        <ele>198</ele>
        <time>2018-04-08T09:00:52Z</time>
      </trkpt>
      <trkpt lat="45.89228" lon="4.74856">
        <ele>198</ele>
        <time>2018-04-08T09:00:53Z</time>
      </trkpt>
      <trkpt lat="45.89222" lon="4.74856">
        <ele>198</ele>
        <time>2018-04-08T09:00:54Z</time>
      </trkpt>
      <trkpt lat="45.89217" lon="4.74856">
        <ele>198</ele>
        <time>2018-04-08T09:00:55Z</time>
      </trkpt>
      <trkpt lat="45.89212" lon="4.74856">
        <ele>198</ele>
        <time>2018-04-08T09:00:56Z</time>
      </trkpt>
      <trkpt lat="45.89208" lon="4.74856">
        <ele>198</ele>
        <time>2018-04-08T09:00:57Z</time>
      </trkpt>
      <trkpt lat="45.89201" lon="4.74856">
        <ele>198</ele>
        <time>2018-04-08T09:00:58Z</time>
      </trkpt>
      <trkpt lat="45.89196" lon="4.74857">
        <ele>198</ele>
        <time>2018-04-08T09:00:59Z</time>
      </trkpt>
      <trkpt lat="45.89191" lon="4.74857">
        <ele>198</ele>
        <time>2018-04-08T09:01:00Z</time>
      </trkpt>
      <trkpt lat="45.89186" lon="4.74857">
        <ele>198</ele>
        <time>2018-04-08T09:01:01Z</time>
      </trkpt>
      <trkpt lat="45.89182" lon="4.74858">
        <ele>198</ele>
        <time>2018-04-08T09:01:02Z</time>
      </trkpt>
      <trkpt lat="45.89176" lon="4.74858">
        <ele>198</ele>
        <time>2018-04-08T09:01:03Z</time>
      </trkpt>
      <trkpt lat="45.89172" lon="4.74857">
        <ele>198</ele>
        <time>2018-04-08T09:01:04Z</time>
      </trkpt>
      <trkpt lat="45.89167" lon="4.74856">
        <ele>198</ele>
        <time>2018-04-08T09:01:05Z</time>
      </trkpt>
      <trkpt lat="45.8916" lon="4.74858">
        <ele>199</ele>
        <time>2018-04-08T09:01:07Z</time>
      </trkpt>
      <trkpt lat="45.89155" lon="4.74857">
        <ele>199</ele>
        <time>2018-04-08T09:01:08Z</time>
      </trkpt>
      <trkpt lat="45.89147" lon="4.74858">
        <ele>199</ele>
        <time>2018-04-08T09:01:10Z</time>
      </trkpt>
      <trkpt lat="45.89143" lon="4.74859">
        <ele>199</ele>
        <time>2018-04-08T09:01:11Z</time>
      </trkpt>
      <trkpt lat="45.89138" lon="4.7486">
        <ele>199</ele>
        <time>2018-04-08T09:01:12Z</time>
      </trkpt>
      <trkpt lat="45.89132" lon="4.7486">
        <ele>199</ele>
        <time>2018-04-08T09:01:13Z</time>
      </trkpt>
      <trkpt lat="45.89124" lon="4.74862">
        <ele>199</ele>
        <time>2018-04-08T09:01:15Z</time>
      </trkpt>
      <trkpt lat="45.89122" lon="4.74862">
        <ele>199</ele>
        <time>2018-04-08T09:01:16Z</time>
      </trkpt>
      <trkpt lat="45.89118" lon="4.74862">
        <ele>199</ele>
        <time>2018-04-08T09:01:18Z</time>
      </trkpt>
      <trkpt lat="45.89111" lon="4.74862">
        <ele>199</ele>
        <time>2018-04-08T09:01:19Z</time>
      </trkpt>
      <trkpt lat="45.89103" lon="4.74862">
        <ele>199</ele>
        <time>2018-04-08T09:01:21Z</time>
      </trkpt>
      <trkpt lat="45.89102" lon="4.74862">
        <ele>199</ele>
        <time>2018-04-08T09:01:22Z</time>
      </trkpt>
      <trkpt lat="45.89097" lon="4.74863">
        <ele>199</ele>
        <time>2018-04-08T09:01:24Z</time>
      </trkpt>
      <trkpt lat="45.8909" lon="4.74863">
        <ele>199</ele>
        <time>2018-04-08T09:01:25Z</time>
      </trkpt>
      <trkpt lat="45.89081" lon="4.74864">
        <ele>199</ele>
        <time>2018-04-08T09:01:28Z</time>
      </trkpt>
      <trkpt lat="45.89079" lon="4.74865">
        <ele>199</ele>
        <time>2018-04-08T09:01:29Z</time>
      </trkpt>
      <trkpt lat="45.89071" lon="4.74868">
        <ele>199</ele>
        <time>2018-04-08T09:01:32Z</time>
      </trkpt>
      <trkpt lat="45.89063" lon="4.74871">
        <ele>199</ele>
        <time>2018-04-08T09:01:33Z</time>
      </trkpt>
      <trkpt lat="45.89055" lon="4.74873">
        <ele>199</ele>
        <time>2018-04-08T09:01:35Z</time>
      </trkpt>
      <trkpt lat="45.89051" lon="4.74874">
        <ele>199</ele>
        <time>2018-04-08T09:01:36Z</time>
      </trkpt>
      <trkpt lat="45.89045" lon="4.74877">
        <ele>199</ele>
        <time>2018-04-08T09:01:38Z</time>
      </trkpt>
      <trkpt lat="45.89041" lon="4.7488">
        <ele>199</ele>
        <time>2018-04-08T09:01:39Z</time>
      </trkpt>
      <trkpt lat="45.89034" lon="4.74885">
        <ele>199</ele>
        <time>2018-04-08T09:01:41Z</time>
      </trkpt>
      <trkpt lat="45.8903" lon="4.74888">
        <ele>199</ele>
        <time>2018-04-08T09:01:42Z</time>
      </trkpt>
      <trkpt lat="45.89023" lon="4.74893">
        <ele>199</ele>
        <time>2018-04-08T09:01:44Z</time>
      </trkpt>
      <trkpt lat="45.89019" lon="4.74896">
        <ele>199</ele>
        <time>2018-04-08T09:01:45Z</time>
      </trkpt>
      <trkpt lat="45.89012" lon="4.74902">
        <ele>199</ele>
        <time>2018-04-08T09:01:47Z</time>
      </trkpt>
      <trkpt lat="45.8901" lon="4.74905">
        <ele>199</ele>
        <time>2018-04-08T09:01:48Z</time>
      </trkpt>
      <trkpt lat="45.89008" lon="4.74907">
        <ele>199</ele>
        <time>2018-04-08T09:01:49Z</time>
      </trkpt>
      <trkpt lat="45.89001" lon="4.7491">
        <ele>199</ele>
        <time>2018-04-08T09:01:50Z</time>
      </trkpt>
      <trkpt lat="45.88993" lon="4.74913">
        <ele>199</ele>
        <time>2018-04-08T09:01:52Z</time>
      </trkpt>
      <trkpt lat="45.88988" lon="4.74917">
        <ele>199</ele>
        <time>2018-04-08T09:01:53Z</time>
      </trkpt>
      <trkpt lat="45.88981" lon="4.74923">
        <ele>199</ele>
        <time>2018-04-08T09:01:55Z</time>
      </trkpt>
      <trkpt lat="45.88975" lon="4.74925">
        <ele>200</ele>
        <time>2018-04-08T09:01:56Z</time>
      </trkpt>
      <trkpt lat="45.88971" lon="4.74927">
        <ele>200</ele>
        <time>2018-04-08T09:01:57Z</time>
      </trkpt>
      <trkpt lat="45.88966" lon="4.74929">
        <ele>200</ele>
        <time>2018-04-08T09:01:58Z</time>
      </trkpt>
      <trkpt lat="45.88961" lon="4.74932">
        <ele>200</ele>
        <time>2018-04-08T09:01:59Z</time>
      </trkpt>
      <trkpt lat="45.88957" lon="4.74934">
        <ele>200</ele>
        <time>2018-04-08T09:02:00Z</time>
      </trkpt>
      <trkpt lat="45.88952" lon="4.74936">
        <ele>200</ele>
        <time>2018-04-08T09:02:01Z</time>
      </trkpt>
      <trkpt lat="45.88947" lon="4.74938">
        <ele>200</ele>
        <time>2018-04-08T09:02:02Z</time>
      </trkpt>
      <trkpt lat="45.88939" lon="4.74944">
        <ele>200</ele>
        <time>2018-04-08T09:02:05Z</time>
      </trkpt>
      <trkpt lat="45.88934" lon="4.74946">
        <ele>200</ele>
        <time>2018-04-08T09:02:06Z</time>
      </trkpt>
      <trkpt lat="45.88927" lon="4.74951">
        <ele>200</ele>
        <time>2018-04-08T09:02:08Z</time>
      </trkpt>
      <trkpt lat="45.88923" lon="4.74953">
        <ele>200</ele>
        <time>2018-04-08T09:02:09Z</time>
      </trkpt>
      <trkpt lat="45.88918" lon="4.74954">
        <ele>200</ele>
        <time>2018-04-08T09:02:10Z</time>
      </trkpt>
      <trkpt lat="45.88913" lon="4.74955">
        <ele>201</ele>
        <time>2018-04-08T09:02:11Z</time>
      </trkpt>
      <trkpt lat="45.88905" lon="4.74958">
        <ele>201</ele>
        <time>2018-04-08T09:02:13Z</time>
      </trkpt>
      <trkpt lat="45.889" lon="4.74959">
        <ele>201</ele>
        <time>2018-04-08T09:02:14Z</time>
      </trkpt>
      <trkpt lat="45.88895" lon="4.74961">
        <ele>201</ele>
        <time>2018-04-08T09:02:15Z</time>
      </trkpt>
      <trkpt lat="45.8889" lon="4.74962">
        <ele>201</ele>
        <time>2018-04-08T09:02:16Z</time>
      </trkpt>
      <trkpt lat="45.88886" lon="4.74961">
        <ele>201</ele>
        <time>2018-04-08T09:02:17Z</time>
      </trkpt>
      <trkpt lat="45.88881" lon="4.7496">
        <ele>201</ele>
        <time>2018-04-08T09:02:18Z</time>
      </trkpt>
      <trkpt lat="45.88876" lon="4.74958">
        <ele>201</ele>
        <time>2018-04-08T09:02:19Z</time>
      </trkpt>
      <trkpt lat="45.88871" lon="4.74958">
        <ele>201</ele>
        <time>2018-04-08T09:02:20Z</time>
      </trkpt>
      <trkpt lat="45.88863" lon="4.74957">
        <ele>201</ele>
        <time>2018-04-08T09:02:22Z</time>
      </trkpt>
      <trkpt lat="45.88858" lon="4.74957">
        <ele>201</ele>
        <time>2018-04-08T09:02:23Z</time>
      </trkpt>
      <trkpt lat="45.88853" lon="4.74957">
        <ele>201</ele>
        <time>2018-04-08T09:02:24Z</time>
      </trkpt>
      <trkpt lat="45.88848" lon="4.74957">
        <ele>201</ele>
        <time>2018-04-08T09:02:25Z</time>
      </trkpt>
      <trkpt lat="45.88844" lon="4.74958">
        <ele>201</ele>
        <time>2018-04-08T09:02:26Z</time>
      </trkpt>
      <trkpt lat="45.88839" lon="4.74956">
        <ele>201</ele>
        <time>2018-04-08T09:02:27Z</time>
      </trkpt>
      <trkpt lat="45.88831" lon="4.74954">
        <ele>201</ele>
        <time>2018-04-08T09:02:29Z</time>
      </trkpt>
      <trkpt lat="45.88827" lon="4.74953">
        <ele>201</ele>
        <time>2018-04-08T09:02:30Z</time>
      </trkpt>
      <trkpt lat="45.88819" lon="4.74952">
        <ele>201</ele>
        <time>2018-04-08T09:02:32Z</time>
      </trkpt>
      <trkpt lat="45.88813" lon="4.74951">
        <ele>201</ele>
        <time>2018-04-08T09:02:33Z</time>
      </trkpt>
      <trkpt lat="45.88804" lon="4.7495">
        <ele>201</ele>
        <time>2018-04-08T09:02:35Z</time>
      </trkpt>
      <trkpt lat="45.888" lon="4.74948">
        <ele>201</ele>
        <time>2018-04-08T09:02:36Z</time>
      </trkpt>
      <trkpt lat="45.88795" lon="4.74948">
        <ele>201</ele>
        <time>2018-04-08T09:02:37Z</time>
      </trkpt>
      <trkpt lat="45.88791" lon="4.74947">
        <ele>201</ele>
        <time>2018-04-08T09:02:38Z</time>
      </trkpt>
      <trkpt lat="45.88782" lon="4.74945">
        <ele>201</ele>
        <time>2018-04-08T09:02:40Z</time>
      </trkpt>
      <trkpt lat="45.88779" lon="4.74944">
        <ele>201</ele>
        <time>2018-04-08T09:02:41Z</time>
      </trkpt>
      <trkpt lat="45.88774" lon="4.74943">
        <ele>201</ele>
        <time>2018-04-08T09:02:42Z</time>
      </trkpt>
      <trkpt lat="45.88769" lon="4.74942">
        <ele>201</ele>
        <time>2018-04-08T09:02:43Z</time>
      </trkpt>
      <trkpt lat="45.88761" lon="4.74941">
        <ele>201</ele>
        <time>2018-04-08T09:02:45Z</time>
      </trkpt>
      <trkpt lat="45.88756" lon="4.7494">
        <ele>201</ele>
        <time>2018-04-08T09:02:46Z</time>
      </trkpt>
      <trkpt lat="45.88752" lon="4.74939">
        <ele>201</ele>
        <time>2018-04-08T09:02:47Z</time>
      </trkpt>
      <trkpt lat="45.88747" lon="4.74938">
        <ele>201</ele>
        <time>2018-04-08T09:02:48Z</time>
      </trkpt>
      <trkpt lat="45.88742" lon="4.74937">
        <ele>201</ele>
        <time>2018-04-08T09:02:49Z</time>
      </trkpt>
      <trkpt lat="45.88736" lon="4.74936">
        <ele>201</ele>
        <time>2018-04-08T09:02:50Z</time>
      </trkpt>
      <trkpt lat="45.88732" lon="4.74935">
        <ele>201</ele>
        <time>2018-04-08T09:02:51Z</time>
      </trkpt>
      <trkpt lat="45.88726" lon="4.74934">
        <ele>201</ele>
        <time>2018-04-08T09:02:52Z</time>
      </trkpt>
      <trkpt lat="45.88718" lon="4.74932">
        <ele>201</ele>
        <time>2018-04-08T09:02:54Z</time>
      </trkpt>
      <trkpt lat="45.88713" lon="4.74931">
        <ele>201</ele>
        <time>2018-04-08T09:02:55Z</time>
      </trkpt>
      <trkpt lat="45.88705" lon="4.74929">
        <ele>202</ele>
        <time>2018-04-08T09:02:57Z</time>
      </trkpt>
      <trkpt lat="45.88701" lon="4.74928">
        <ele>202</ele>
        <time>2018-04-08T09:02:58Z</time>
      </trkpt>
      <trkpt lat="45.88693" lon="4.74926">
        <ele>202</ele>
        <time>2018-04-08T09:03:00Z</time>
      </trkpt>
      <trkpt lat="45.8869" lon="4.74924">
        <ele>202</ele>
        <time>2018-04-08T09:03:01Z</time>
      </trkpt>
      <trkpt lat="45.88682" lon="4.74921">
        <ele>202</ele>
        <time>2018-04-08T09:03:03Z</time>
      </trkpt>
      <trkpt lat="45.8868" lon="4.74919">
        <ele>202</ele>
        <time>2018-04-08T09:03:04Z</time>
      </trkpt>
      <trkpt lat="45.88673" lon="4.74917">
        <ele>202</ele>
        <time>2018-04-08T09:03:06Z</time>
      </trkpt>
      <trkpt lat="45.8867" lon="4.74916">
        <ele>202</ele>
        <time>2018-04-08T09:03:07Z</time>
      </trkpt>
      <trkpt lat="45.88668" lon="4.74916">
        <ele>202</ele>
        <time>2018-04-08T09:03:08Z</time>
      </trkpt>
      <trkpt lat="45.8866" lon="4.74916">
        <ele>202</ele>
        <time>2018-04-08T09:03:09Z</time>
      </trkpt>
      <trkpt lat="45.88653" lon="4.74919">
        <ele>202</ele>
        <time>2018-04-08T09:03:11Z</time>
      </trkpt>
      <trkpt lat="45.88649" lon="4.74922">
        <ele>202</ele>
        <time>2018-04-08T09:03:12Z</time>
      </trkpt>
      <trkpt lat="45.88643" lon="4.74929">
        <ele>202</ele>
        <time>2018-04-08T09:03:14Z</time>
      </trkpt>
      <trkpt lat="45.8864" lon="4.74934">
        <ele>201</ele>
        <time>2018-04-08T09:03:15Z</time>
      </trkpt>
      <trkpt lat="45.88637" lon="4.74939">
        <ele>201</ele>
        <time>2018-04-08T09:03:16Z</time>
      </trkpt>
      <trkpt lat="45.88634" lon="4.74944">
        <ele>201</ele>
        <time>2018-04-08T09:03:17Z</time>
      </trkpt>
      <trkpt lat="45.88632" lon="4.7495">
        <ele>201</ele>
        <time>2018-04-08T09:03:18Z</time>
      </trkpt>
      <trkpt lat="45.8863" lon="4.74956">
        <ele>201</ele>
        <time>2018-04-08T09:03:19Z</time>
      </trkpt>
      <trkpt lat="45.8863" lon="4.74965">
        <ele>201</ele>
        <time>2018-04-08T09:03:20Z</time>
      </trkpt>
      <trkpt lat="45.88628" lon="4.74971">
        <ele>201</ele>
        <time>2018-04-08T09:03:21Z</time>
      </trkpt>
      <trkpt lat="45.88626" lon="4.74983">
        <ele>201</ele>
        <time>2018-04-08T09:03:23Z</time>
      </trkpt>
      <trkpt lat="45.88624" lon="4.74988">
        <ele>201</ele>
        <time>2018-04-08T09:03:24Z</time>
      </trkpt>
      <trkpt lat="45.88623" lon="4.75001">
        <ele>201</ele>
        <time>2018-04-08T09:03:26Z</time>
      </trkpt>
      <trkpt lat="45.88623" lon="4.75007">
        <ele>201</ele>
        <time>2018-04-08T09:03:27Z</time>
      </trkpt>
      <trkpt lat="45.88622" lon="4.75014">
        <ele>201</ele>
        <time>2018-04-08T09:03:28Z</time>
      </trkpt>
      <trkpt lat="45.88621" lon="4.7502">
        <ele>202</ele>
        <time>2018-04-08T09:03:29Z</time>
      </trkpt>
      <trkpt lat="45.8862" lon="4.75027">
        <ele>202</ele>
        <time>2018-04-08T09:03:30Z</time>
      </trkpt>
      <trkpt lat="45.88619" lon="4.75033">
        <ele>202</ele>
        <time>2018-04-08T09:03:31Z</time>
      </trkpt>
      <trkpt lat="45.88617" lon="4.75039">
        <ele>202</ele>
        <time>2018-04-08T09:03:32Z</time>
      </trkpt>
      <trkpt lat="45.88616" lon="4.75047">
        <ele>202</ele>
        <time>2018-04-08T09:03:33Z</time>
      </trkpt>
      <trkpt lat="45.88615" lon="4.75053">
        <ele>202</ele>
        <time>2018-04-08T09:03:34Z</time>
      </trkpt>
      <trkpt lat="45.88614" lon="4.75061">
        <ele>202</ele>
        <time>2018-04-08T09:03:35Z</time>
      </trkpt>
      <trkpt lat="45.88612" lon="4.75066">
        <ele>202</ele>
        <time>2018-04-08T09:03:36Z</time>
      </trkpt>
      <trkpt lat="45.88611" lon="4.75075">
        <ele>202</ele>
        <time>2018-04-08T09:03:37Z</time>
      </trkpt>
      <trkpt lat="45.88608" lon="4.75081">
        <ele>202</ele>
        <time>2018-04-08T09:03:38Z</time>
      </trkpt>
      <trkpt lat="45.88604" lon="4.75085">
        <ele>202</ele>
        <time>2018-04-08T09:03:39Z</time>
      </trkpt>
      <trkpt lat="45.886" lon="4.75089">
        <ele>202</ele>
        <time>2018-04-08T09:03:40Z</time>
      </trkpt>
      <trkpt lat="45.88596" lon="4.75094">
        <ele>202</ele>
        <time>2018-04-08T09:03:41Z</time>
      </trkpt>
      <trkpt lat="45.88589" lon="4.75102">
        <ele>202</ele>
        <time>2018-04-08T09:03:43Z</time>
      </trkpt>
      <trkpt lat="45.88586" lon="4.75107">
        <ele>202</ele>
        <time>2018-04-08T09:03:44Z</time>
      </trkpt>
      <trkpt lat="45.8858" lon="4.75115">
        <ele>201</ele>
        <time>2018-04-08T09:03:46Z</time>
      </trkpt>
      <trkpt lat="45.88577" lon="4.75119">
        <ele>201</ele>
        <time>2018-04-08T09:03:47Z</time>
      </trkpt>
      <trkpt lat="45.88574" lon="4.75123">
        <ele>201</ele>
        <time>2018-04-08T09:03:48Z</time>
      </trkpt>
      <trkpt lat="45.88571" lon="4.75129">
        <ele>201</ele>
        <time>2018-04-08T09:03:49Z</time>
      </trkpt>
      <trkpt lat="45.88568" lon="4.75133">
        <ele>201</ele>
        <time>2018-04-08T09:03:50Z</time>
      </trkpt>
      <trkpt lat="45.88563" lon="4.75137">
        <ele>201</ele>
        <time>2018-04-08T09:03:51Z</time>
      </trkpt>
      <trkpt lat="45.88557" lon="4.75145">
        <ele>201</ele>
        <time>2018-04-08T09:03:53Z</time>
      </trkpt>
      <trkpt lat="45.88553" lon="4.75149">
        <ele>201</ele>
        <time>2018-04-08T09:03:54Z</time>
      </trkpt>
      <trkpt lat="45.8855" lon="4.75159">
        <ele>201</ele>
        <time>2018-04-08T09:03:56Z</time>
      </trkpt>
      <trkpt lat="45.88548" lon="4.75164">
        <ele>201</ele>
        <time>2018-04-08T09:03:57Z</time>
      </trkpt>
      <trkpt lat="45.88545" lon="4.7517">
        <ele>201</ele>
        <time>2018-04-08T09:03:58Z</time>
      </trkpt>
      <trkpt lat="45.88542" lon="4.75176">
        <ele>201</ele>
        <time>2018-04-08T09:03:59Z</time>
      </trkpt>
      <trkpt lat="45.8854" lon="4.75182">
        <ele>201</ele>
        <time>2018-04-08T09:04:00Z</time>
      </trkpt>
      <trkpt lat="45.88537" lon="4.75188">
        <ele>201</ele>
        <time>2018-04-08T09:04:01Z</time>
      </trkpt>
      <trkpt lat="45.88535" lon="4.75194">
        <ele>201</ele>
        <time>2018-04-08T09:04:02Z</time>
      </trkpt>
      <trkpt lat="45.88532" lon="4.75199">
        <ele>201</ele>
        <time>2018-04-08T09:04:03Z</time>
      </trkpt>
      <trkpt lat="45.8853" lon="4.75205">
        <ele>201</ele>
        <time>2018-04-08T09:04:04Z</time>
      </trkpt>
      <trkpt lat="45.88526" lon="4.75211">
        <ele>201</ele>
        <time>2018-04-08T09:04:05Z</time>
      </trkpt>
      <trkpt lat="45.88523" lon="4.75217">
        <ele>201</ele>
        <time>2018-04-08T09:04:06Z</time>
      </trkpt>
      <trkpt lat="45.8852" lon="4.75223">
        <ele>201</ele>
        <time>2018-04-08T09:04:07Z</time>
      </trkpt>
      <trkpt lat="45.88517" lon="4.75228">
        <ele>201</ele>
        <time>2018-04-08T09:04:08Z</time>
      </trkpt>
      <trkpt lat="45.88513" lon="4.75233">
        <ele>201</ele>
        <time>2018-04-08T09:04:09Z</time>
      </trkpt>
      <trkpt lat="45.88509" lon="4.75237">
        <ele>201</ele>
        <time>2018-04-08T09:04:10Z</time>
      </trkpt>
      <trkpt lat="45.88504" lon="4.75241">
        <ele>201</ele>
        <time>2018-04-08T09:04:11Z</time>
      </trkpt>
      <trkpt lat="45.885" lon="4.75246">
        <ele>201</ele>
        <time>2018-04-08T09:04:12Z</time>
      </trkpt>
      <trkpt lat="45.88494" lon="4.75249">
        <ele>201</ele>
        <time>2018-04-08T09:04:13Z</time>
      </trkpt>
      <trkpt lat="45.88489" lon="4.75252">
        <ele>201</ele>
        <time>2018-04-08T09:04:14Z</time>
      </trkpt>
      <trkpt lat="45.88485" lon="4.75255">
        <ele>201</ele>
        <time>2018-04-08T09:04:15Z</time>
      </trkpt>
      <trkpt lat="45.8848" lon="4.75257">
        <ele>201</ele>
        <time>2018-04-08T09:04:16Z</time>
      </trkpt>
      <trkpt lat="45.88476" lon="4.75261">
        <ele>201</ele>
        <time>2018-04-08T09:04:17Z</time>
      </trkpt>
      <trkpt lat="45.88468" lon="4.75266">
        <ele>201</ele>
        <time>2018-04-08T09:04:19Z</time>
      </trkpt>
      <trkpt lat="45.88463" lon="4.75268">
        <ele>201</ele>
        <time>2018-04-08T09:04:20Z</time>
      </trkpt>
      <trkpt lat="45.88459" lon="4.75271">
        <ele>201</ele>
        <time>2018-04-08T09:04:21Z</time>
      </trkpt>
      <trkpt lat="45.88455" lon="4.75273">
        <ele>201</ele>
        <time>2018-04-08T09:04:22Z</time>
      </trkpt>
      <trkpt lat="45.8845" lon="4.75276">
        <ele>201</ele>
        <time>2018-04-08T09:04:23Z</time>
      </trkpt>
      <trkpt lat="45.88445" lon="4.75279">
        <ele>201</ele>
        <time>2018-04-08T09:04:24Z</time>
      </trkpt>
      <trkpt lat="45.8844" lon="4.75282">
        <ele>201</ele>
        <time>2018-04-08T09:04:25Z</time>
      </trkpt>
      <trkpt lat="45.88436" lon="4.75285">
        <ele>201</ele>
        <time>2018-04-08T09:04:26Z</time>
      </trkpt>
      <trkpt lat="45.88432" lon="4.75288">
        <ele>201</ele>
        <time>2018-04-08T09:04:27Z</time>
      </trkpt>
      <trkpt lat="45.88427" lon="4.75292">
        <ele>201</ele>
        <time>2018-04-08T09:04:28Z</time>
      </trkpt>
      <trkpt lat="45.88425" lon="4.75298">
        <ele>201</ele>
        <time>2018-04-08T09:04:29Z</time>
      </trkpt>
      <trkpt lat="45.88422" lon="4.75303">
        <ele>201</ele>
        <time>2018-04-08T09:04:30Z</time>
      </trkpt>
      <trkpt lat="45.88416" lon="4.75312">
        <ele>200</ele>
        <time>2018-04-08T09:04:32Z</time>
      </trkpt>
      <trkpt lat="45.88414" lon="4.75317">
        <ele>200</ele>
        <time>2018-04-08T09:04:33Z</time>
      </trkpt>
      <trkpt lat="45.88411" lon="4.75322">
        <ele>200</ele>
        <time>2018-04-08T09:04:34Z</time>
      </trkpt>
      <trkpt lat="45.88408" lon="4.75328">
        <ele>200</ele>
        <time>2018-04-08T09:04:35Z</time>
      </trkpt>
      <trkpt lat="45.88406" lon="4.75334">
        <ele>200</ele>
        <time>2018-04-08T09:04:36Z</time>
      </trkpt>
      <trkpt lat="45.88403" lon="4.7534">
        <ele>201</ele>
        <time>2018-04-08T09:04:37Z</time>
      </trkpt>
      <trkpt lat="45.884" lon="4.75346">
        <ele>201</ele>
        <time>2018-04-08T09:04:38Z</time>
      </trkpt>
      <trkpt lat="45.88397" lon="4.75351">
        <ele>201</ele>
        <time>2018-04-08T09:04:39Z</time>
      </trkpt>
      <trkpt lat="45.88394" lon="4.75357">
        <ele>201</ele>
        <time>2018-04-08T09:04:40Z</time>
      </trkpt>
      <trkpt lat="45.8839" lon="4.75361">
        <ele>201</ele>
        <time>2018-04-08T09:04:41Z</time>
      </trkpt>
      <trkpt lat="45.88386" lon="4.75366">
        <ele>201</ele>
        <time>2018-04-08T09:04:42Z</time>
      </trkpt>
      <trkpt lat="45.88382" lon="4.75369">
        <ele>201</ele>
        <time>2018-04-08T09:04:43Z</time>
      </trkpt>
      <trkpt lat="45.88377" lon="4.75373">
        <ele>201</ele>
        <time>2018-04-08T09:04:44Z</time>
      </trkpt>
      <trkpt lat="45.88373" lon="4.75375">
        <ele>201</ele>
        <time>2018-04-08T09:04:45Z</time>
      </trkpt>
      <trkpt lat="45.88366" lon="4.75382">
        <ele>201</ele>
        <time>2018-04-08T09:04:47Z</time>
      </trkpt>
      <trkpt lat="45.88363" lon="4.75386">
        <ele>201</ele>
        <time>2018-04-08T09:04:48Z</time>
      </trkpt>
      <trkpt lat="45.88355" lon="4.75389">
        <ele>202</ele>
        <time>2018-04-08T09:04:50Z</time>
      </trkpt>
      <trkpt lat="45.8835" lon="4.75391">
        <ele>202</ele>
        <time>2018-04-08T09:04:51Z</time>
      </trkpt>
      <trkpt lat="45.88342" lon="4.75394">
        <ele>202</ele>
        <time>2018-04-08T09:04:53Z</time>
      </trkpt>
      <trkpt lat="45.88337" lon="4.75396">
        <ele>202</ele>
        <time>2018-04-08T09:04:54Z</time>
      </trkpt>
      <trkpt lat="45.88332" lon="4.75397">
        <ele>203</ele>
        <time>2018-04-08T09:04:55Z</time>
      </trkpt>
      <trkpt lat="45.88327" lon="4.75399">
        <ele>203</ele>
        <time>2018-04-08T09:04:56Z</time>
      </trkpt>
      <trkpt lat="45.88323" lon="4.75401">
        <ele>203</ele>
        <time>2018-04-08T09:04:57Z</time>
      </trkpt>
      <trkpt lat="45.88318" lon="4.75403">
        <ele>203</ele>
        <time>2018-04-08T09:04:58Z</time>
      </trkpt>
      <trkpt lat="45.88313" lon="4.75405">
        <ele>203</ele>
        <time>2018-04-08T09:04:59Z</time>
      </trkpt>
      <trkpt lat="45.88308" lon="4.75408">
        <ele>203</ele>
        <time>2018-04-08T09:05:00Z</time>
      </trkpt>
      <trkpt lat="45.88303" lon="4.7541">
        <ele>203</ele>
        <time>2018-04-08T09:05:01Z</time>
      </trkpt>
      <trkpt lat="45.88299" lon="4.75412">
        <ele>203</ele>
        <time>2018-04-08T09:05:02Z</time>
      </trkpt>
      <trkpt lat="45.88294" lon="4.75414">
        <ele>203</ele>
        <time>2018-04-08T09:05:03Z</time>
      </trkpt>
      <trkpt lat="45.88289" lon="4.75416">
        <ele>203</ele>
        <time>2018-04-08T09:05:04Z</time>
      </trkpt>
      <trkpt lat="45.88284" lon="4.75418">
        <ele>204</ele>
        <time>2018-04-08T09:05:05Z</time>
      </trkpt>
      <trkpt lat="45.88279" lon="4.7542">
        <ele>204</ele>
        <time>2018-04-08T09:05:06Z</time>
      </trkpt>
      <trkpt lat="45.88274" lon="4.75423">
        <ele>204</ele>
        <time>2018-04-08T09:05:07Z</time>
      </trkpt>
      <trkpt lat="45.8827" lon="4.75425">
        <ele>204</ele>
        <time>2018-04-08T09:05:08Z</time>
      </trkpt>
      <trkpt lat="45.88263" lon="4.75429">
        <ele>204</ele>
        <time>2018-04-08T09:05:10Z</time>
      </trkpt>
      <trkpt lat="45.88259" lon="4.75431">
        <ele>204</ele>
        <time>2018-04-08T09:05:11Z</time>
      </trkpt>
      <trkpt lat="45.88251" lon="4.75436">
        <ele>204</ele>
        <time>2018-04-08T09:05:13Z</time>
      </trkpt>
      <trkpt lat="45.88247" lon="4.75438">
        <ele>204</ele>
        <time>2018-04-08T09:05:14Z</time>
      </trkpt>
      <trkpt lat="45.8824" lon="4.75443">
        <ele>204</ele>
        <time>2018-04-08T09:05:17Z</time>
      </trkpt>
      <trkpt lat="45.88237" lon="4.75444">
        <ele>204</ele>
        <time>2018-04-08T09:05:18Z</time>
      </trkpt>
      <trkpt lat="45.88231" lon="4.7545">
        <ele>204</ele>
        <time>2018-04-08T09:05:21Z</time>
      </trkpt>
      <trkpt lat="45.88229" lon="4.75452">
        <ele>204</ele>
        <time>2018-04-08T09:05:22Z</time>
      </trkpt>
      <trkpt lat="45.88225" lon="4.75463">
        <ele>203</ele>
        <time>2018-04-08T09:05:33Z</time>
      </trkpt>
      <trkpt lat="45.88224" lon="4.75463">
        <ele>203</ele>
        <time>2018-04-08T09:05:34Z</time>
      </trkpt>
      <trkpt lat="45.88233" lon="4.75464">
        <ele>203</ele>
        <time>2018-04-08T09:06:00Z</time>
      </trkpt>
      <trkpt lat="45.88233" lon="4.75463">
        <ele>203</ele>
        <time>2018-04-08T09:06:01Z</time>
      </trkpt>
      <trkpt lat="45.88226" lon="4.7547">
        <ele>203</ele>
        <time>2018-04-08T09:07:27Z</time>
      </trkpt>
      <trkpt lat="45.88225" lon="4.7547">
        <ele>203</ele>
        <time>2018-04-08T09:07:28Z</time>
      </trkpt>
      <trkpt lat="45.88217" lon="4.75475">
        <ele>203</ele>
        <time>2018-04-08T09:08:01Z</time>
      </trkpt>
      <trkpt lat="45.88217" lon="4.75475">
        <ele>203</ele>
        <time>2018-04-08T09:08:02Z</time>
      </trkpt>
      <trkpt lat="45.88217" lon="4.75475">
        <ele>203</ele>
        <time>2018-04-08T09:08:04Z</time>
      </trkpt>
      <trkpt lat="45.88217" lon="4.75474">
        <ele>203</ele>
        <time>2018-04-08T09:08:05Z</time>
      </trkpt>
      <trkpt lat="45.88225" lon="4.75472">
        <ele>203</ele>
        <time>2018-04-08T09:08:25Z</time>
      </trkpt>
      <trkpt lat="45.88226" lon="4.75471">
        <ele>203</ele>
        <time>2018-04-08T09:08:26Z</time>
      </trkpt>
      <trkpt lat="45.88231" lon="4.7546">
        <ele>203</ele>
        <time>2018-04-08T09:08:48Z</time>
      </trkpt>
      <trkpt lat="45.88231" lon="4.7546">
        <ele>203</ele>
        <time>2018-04-08T09:08:49Z</time>
      </trkpt>
      <trkpt lat="45.88238" lon="4.75452">
        <ele>204</ele>
        <time>2018-04-08T09:08:55Z</time>
      </trkpt>
      <trkpt lat="45.8824" lon="4.75451">
        <ele>204</ele>
        <time>2018-04-08T09:08:56Z</time>
      </trkpt>
      <trkpt lat="45.88245" lon="4.75447">
        <ele>204</ele>
        <time>2018-04-08T09:08:58Z</time>
      </trkpt>
      <trkpt lat="45.88254" lon="4.75442">
        <ele>204</ele>
        <time>2018-04-08T09:08:59Z</time>
      </trkpt>
      <trkpt lat="45.88261" lon="4.75437">
        <ele>204</ele>
        <time>2018-04-08T09:09:01Z</time>
      </trkpt>
      <trkpt lat="45.88264" lon="4.75435">
        <ele>204</ele>
        <time>2018-04-08T09:09:02Z</time>
      </trkpt>
      <trkpt lat="45.88269" lon="4.75432">
        <ele>204</ele>
        <time>2018-04-08T09:09:03Z</time>
      </trkpt>
      <trkpt lat="45.88274" lon="4.75429">
        <ele>204</ele>
        <time>2018-04-08T09:09:04Z</time>
      </trkpt>
      <trkpt lat="45.88279" lon="4.75426">
        <ele>204</ele>
        <time>2018-04-08T09:09:05Z</time>
      </trkpt>
      <trkpt lat="45.88284" lon="4.75424">
        <ele>204</ele>
        <time>2018-04-08T09:09:06Z</time>
      </trkpt>
      <trkpt lat="45.88289" lon="4.75422">
        <ele>204</ele>
        <time>2018-04-08T09:09:07Z</time>
      </trkpt>
      <trkpt lat="45.88294" lon="4.7542">
        <ele>203</ele>
        <time>2018-04-08T09:09:08Z</time>
      </trkpt>
      <trkpt lat="45.883" lon="4.75417">
        <ele>203</ele>
        <time>2018-04-08T09:09:09Z</time>
      </trkpt>
      <trkpt lat="45.88304" lon="4.75414">
        <ele>203</ele>
        <time>2018-04-08T09:09:10Z</time>
      </trkpt>
      <trkpt lat="45.88309" lon="4.7541">
        <ele>203</ele>
        <time>2018-04-08T09:09:11Z</time>
      </trkpt>
      <trkpt lat="45.88313" lon="4.75408">
        <ele>203</ele>
        <time>2018-04-08T09:09:12Z</time>
      </trkpt>
      <trkpt lat="45.88321" lon="4.75404">
        <ele>203</ele>
        <time>2018-04-08T09:09:14Z</time>
      </trkpt>
      <trkpt lat="45.88326" lon="4.75402">
        <ele>203</ele>
        <time>2018-04-08T09:09:15Z</time>
      </trkpt>
      <trkpt lat="45.88331" lon="4.754">
        <ele>203</ele>
        <time>2018-04-08T09:09:16Z</time>
      </trkpt>
      <trkpt lat="45.88336" lon="4.75398">
        <ele>202</ele>
        <time>2018-04-08T09:09:17Z</time>
      </trkpt>
      <trkpt lat="45.88341" lon="4.75395">
        <ele>202</ele>
        <time>2018-04-08T09:09:18Z</time>
      </trkpt>
      <trkpt lat="45.88347" lon="4.75393">
        <ele>202</ele>
        <time>2018-04-08T09:09:19Z</time>
      </trkpt>
      <trkpt lat="45.88352" lon="4.75391">
        <ele>202</ele>
        <time>2018-04-08T09:09:20Z</time>
      </trkpt>
      <trkpt lat="45.88356" lon="4.75388">
        <ele>202</ele>
        <time>2018-04-08T09:09:21Z</time>
      </trkpt>
      <trkpt lat="45.88365" lon="4.75384">
        <ele>201</ele>
        <time>2018-04-08T09:09:23Z</time>
      </trkpt>
      <trkpt lat="45.88368" lon="4.7538">
        <ele>201</ele>
        <time>2018-04-08T09:09:24Z</time>
      </trkpt>
      <trkpt lat="45.88377" lon="4.7538">
        <ele>201</ele>
        <time>2018-04-08T09:09:28Z</time>
      </trkpt>
      <trkpt lat="45.88378" lon="4.75383">
        <ele>201</ele>
        <time>2018-04-08T09:09:29Z</time>
      </trkpt>
      <trkpt lat="45.88379" lon="4.75393">
        <ele>201</ele>
        <time>2018-04-08T09:09:30Z</time>
      </trkpt>
      <trkpt lat="45.88378" lon="4.75398">
        <ele>202</ele>
        <time>2018-04-08T09:09:31Z</time>
      </trkpt>
      <trkpt lat="45.88374" lon="4.75409">
        <ele>202</ele>
        <time>2018-04-08T09:09:33Z</time>
      </trkpt>
      <trkpt lat="45.88373" lon="4.75415">
        <ele>202</ele>
        <time>2018-04-08T09:09:34Z</time>
      </trkpt>
      <trkpt lat="45.88372" lon="4.75421">
        <ele>203</ele>
        <time>2018-04-08T09:09:35Z</time>
      </trkpt>
      <trkpt lat="45.88371" lon="4.75428">
        <ele>203</ele>
        <time>2018-04-08T09:09:36Z</time>
      </trkpt>
      <trkpt lat="45.8837" lon="4.75435">
        <ele>203</ele>
        <time>2018-04-08T09:09:37Z</time>
      </trkpt>
      <trkpt lat="45.88369" lon="4.75442">
        <ele>203</ele>
        <time>2018-04-08T09:09:38Z</time>
      </trkpt>
      <trkpt lat="45.88369" lon="4.7545">
        <ele>203</ele>
        <time>2018-04-08T09:09:39Z</time>
      </trkpt>
      <trkpt lat="45.88368" lon="4.75457">
        <ele>203</ele>
        <time>2018-04-08T09:09:40Z</time>
      </trkpt>
      <trkpt lat="45.88367" lon="4.75465">
        <ele>203</ele>
        <time>2018-04-08T09:09:41Z</time>
      </trkpt>
      <trkpt lat="45.88366" lon="4.75472">
        <ele>203</ele>
        <time>2018-04-08T09:09:42Z</time>
      </trkpt>
      <trkpt lat="45.88366" lon="4.75481">
        <ele>203</ele>
        <time>2018-04-08T09:09:43Z</time>
      </trkpt>
      <trkpt lat="45.88366" lon="4.75488">
        <ele>203</ele>
        <time>2018-04-08T09:09:44Z</time>
      </trkpt>
      <trkpt lat="45.88366" lon="4.75496">
        <ele>203</ele>
        <time>2018-04-08T09:09:45Z</time>
      </trkpt>
      <trkpt lat="45.88365" lon="4.75503">
        <ele>204</ele>
        <time>2018-04-08T09:09:46Z</time>
      </trkpt>
      <trkpt lat="45.88365" lon="4.75511">
        <ele>204</ele>
        <time>2018-04-08T09:09:47Z</time>
      </trkpt>
      <trkpt lat="45.88366" lon="4.75518">
        <ele>204</ele>
        <time>2018-04-08T09:09:48Z</time>
      </trkpt>
      <trkpt lat="45.88366" lon="4.75525">
        <ele>204</ele>
        <time>2018-04-08T09:09:49Z</time>
      </trkpt>
      <trkpt lat="45.88366" lon="4.75531">
        <ele>204</ele>
        <time>2018-04-08T09:09:50Z</time>
      </trkpt>
      <trkpt lat="45.88365" lon="4.75543">
        <ele>204</ele>
        <time>2018-04-08T09:09:52Z</time>
      </trkpt>
      <trkpt lat="45.88366" lon="4.7555">
        <ele>204</ele>
        <time>2018-04-08T09:09:53Z</time>
      </trkpt>
      <trkpt lat="45.88367" lon="4.75557">
        <ele>204</ele>
        <time>2018-04-08T09:09:54Z</time>
      </trkpt>
      <trkpt lat="45.88367" lon="4.75565">
        <ele>204</ele>
        <time>2018-04-08T09:09:55Z</time>
      </trkpt>
      <trkpt lat="45.88366" lon="4.75572">
        <ele>204</ele>
        <time>2018-04-08T09:09:56Z</time>
      </trkpt>
      <trkpt lat="45.88366" lon="4.75579">
        <ele>204</ele>
        <time>2018-04-08T09:09:57Z</time>
      </trkpt>
      <trkpt lat="45.88366" lon="4.75586">
        <ele>204</ele>
        <time>2018-04-08T09:09:58Z</time>
      </trkpt>
      <trkpt lat="45.88365" lon="4.75592">
        <ele>204</ele>
        <time>2018-04-08T09:09:59Z</time>
      </trkpt>
      <trkpt lat="45.88365" lon="4.75599">
        <ele>204</ele>
        <time>2018-04-08T09:10:00Z</time>
      </trkpt>
      <trkpt lat="45.88364" lon="4.75606">
        <ele>204</ele>
        <time>2018-04-08T09:10:01Z</time>
      </trkpt>
      <trkpt lat="45.88364" lon="4.75613">
        <ele>204</ele>
        <time>2018-04-08T09:10:02Z</time>
      </trkpt>
      <trkpt lat="45.88363" lon="4.75621">
        <ele>204</ele>
        <time>2018-04-08T09:10:03Z</time>
      </trkpt>
      <trkpt lat="45.88363" lon="4.75628">
        <ele>204</ele>
        <time>2018-04-08T09:10:04Z</time>
      </trkpt>
      <trkpt lat="45.88363" lon="4.75636">
        <ele>204</ele>
        <time>2018-04-08T09:10:05Z</time>
      </trkpt>
      <trkpt lat="45.88362" lon="4.75642">
        <ele>204</ele>
        <time>2018-04-08T09:10:06Z</time>
      </trkpt>
      <trkpt lat="45.88362" lon="4.75649">
        <ele>204</ele>
        <time>2018-04-08T09:10:07Z</time>
      </trkpt>
      <trkpt lat="45.88362" lon="4.75656">
        <ele>204</ele>
        <time>2018-04-08T09:10:08Z</time>
      </trkpt>
      <trkpt lat="45.88361" lon="4.75664">
        <ele>204</ele>
        <time>2018-04-08T09:10:09Z</time>
      </trkpt>
      <trkpt lat="45.88361" lon="4.7567">
        <ele>204</ele>
        <time>2018-04-08T09:10:10Z</time>
      </trkpt>
      <trkpt lat="45.8836" lon="4.75677">
        <ele>204</ele>
        <time>2018-04-08T09:10:11Z</time>
      </trkpt>
      <trkpt lat="45.88358" lon="4.75684">
        <ele>204</ele>
        <time>2018-04-08T09:10:12Z</time>
      </trkpt>
      <trkpt lat="45.88357" lon="4.75691">
        <ele>204</ele>
        <time>2018-04-08T09:10:13Z</time>
      </trkpt>
      <trkpt lat="45.88356" lon="4.75697">
        <ele>204</ele>
        <time>2018-04-08T09:10:14Z</time>
      </trkpt>
      <trkpt lat="45.88355" lon="4.75703">
        <ele>204</ele>
        <time>2018-04-08T09:10:15Z</time>
      </trkpt>
      <trkpt lat="45.88353" lon="4.7571">
        <ele>204</ele>
        <time>2018-04-08T09:10:16Z</time>
      </trkpt>
      <trkpt lat="45.88353" lon="4.75716">
        <ele>204</ele>
        <time>2018-04-08T09:10:17Z</time>
      </trkpt>
      <trkpt lat="45.88351" lon="4.75728">
        <ele>204</ele>
        <time>2018-04-08T09:10:19Z</time>
      </trkpt>
      <trkpt lat="45.8835" lon="4.75735">
        <ele>203</ele>
        <time>2018-04-08T09:10:20Z</time>
      </trkpt>
      <trkpt lat="45.88349" lon="4.75741">
        <ele>203</ele>
        <time>2018-04-08T09:10:21Z</time>
      </trkpt>
      <trkpt lat="45.88346" lon="4.75747">
        <ele>203</ele>
        <time>2018-04-08T09:10:22Z</time>
      </trkpt>
      <trkpt lat="45.88345" lon="4.75753">
        <ele>203</ele>
        <time>2018-04-08T09:10:23Z</time>
      </trkpt>
      <trkpt lat="45.88343" lon="4.75761">
        <ele>203</ele>
        <time>2018-04-08T09:10:24Z</time>
      </trkpt>
      <trkpt lat="45.88344" lon="4.75769">
        <ele>203</ele>
        <time>2018-04-08T09:10:25Z</time>
      </trkpt>
      <trkpt lat="45.88344" lon="4.75776">
        <ele>203</ele>
        <time>2018-04-08T09:10:26Z</time>
      </trkpt>
      <trkpt lat="45.88343" lon="4.75783">
        <ele>203</ele>
        <time>2018-04-08T09:10:27Z</time>
      </trkpt>
      <trkpt lat="45.88342" lon="4.75791">
        <ele>203</ele>
        <time>2018-04-08T09:10:28Z</time>
      </trkpt>
      <trkpt lat="45.88342" lon="4.75803">
        <ele>203</ele>
        <time>2018-04-08T09:10:30Z</time>
      </trkpt>
      <trkpt lat="45.88341" lon="4.75809">
        <ele>203</ele>
        <time>2018-04-08T09:10:31Z</time>
      </trkpt>
      <trkpt lat="45.8834" lon="4.75822">
        <ele>203</ele>
        <time>2018-04-08T09:10:33Z</time>
      </trkpt>
      <trkpt lat="45.88339" lon="4.75827">
        <ele>203</ele>
        <time>2018-04-08T09:10:34Z</time>
      </trkpt>
      <trkpt lat="45.88338" lon="4.75833">
        <ele>203</ele>
        <time>2018-04-08T09:10:35Z</time>
      </trkpt>
      <trkpt lat="45.88339" lon="4.75841">
        <ele>203</ele>
        <time>2018-04-08T09:10:36Z</time>
      </trkpt>
      <trkpt lat="45.88339" lon="4.75848">
        <ele>203</ele>
        <time>2018-04-08T09:10:37Z</time>
      </trkpt>
      <trkpt lat="45.88338" lon="4.75854">
        <ele>204</ele>
        <time>2018-04-08T09:10:38Z</time>
      </trkpt>
      <trkpt lat="45.88338" lon="4.75861">
        <ele>204</ele>
        <time>2018-04-08T09:10:39Z</time>
      </trkpt>
      <trkpt lat="45.88337" lon="4.75867">
        <ele>204</ele>
        <time>2018-04-08T09:10:40Z</time>
      </trkpt>
      <trkpt lat="45.88337" lon="4.75874">
        <ele>204</ele>
        <time>2018-04-08T09:10:41Z</time>
      </trkpt>
      <trkpt lat="45.88336" lon="4.75881">
        <ele>204</ele>
        <time>2018-04-08T09:10:42Z</time>
      </trkpt>
      <trkpt lat="45.88335" lon="4.75887">
        <ele>204</ele>
        <time>2018-04-08T09:10:43Z</time>
      </trkpt>
      <trkpt lat="45.88334" lon="4.75894">
        <ele>204</ele>
        <time>2018-04-08T09:10:44Z</time>
      </trkpt>
      <trkpt lat="45.88334" lon="4.759">
        <ele>204</ele>
        <time>2018-04-08T09:10:45Z</time>
      </trkpt>
      <trkpt lat="45.88333" lon="4.75907">
        <ele>205</ele>
        <time>2018-04-08T09:10:46Z</time>
      </trkpt>
      <trkpt lat="45.88331" lon="4.75913">
        <ele>205</ele>
        <time>2018-04-08T09:10:47Z</time>
      </trkpt>
      <trkpt lat="45.8833" lon="4.75919">
        <ele>205</ele>
        <time>2018-04-08T09:10:48Z</time>
      </trkpt>
      <trkpt lat="45.88325" lon="4.7593">
        <ele>205</ele>
        <time>2018-04-08T09:10:50Z</time>
      </trkpt>
      <trkpt lat="45.88323" lon="4.75935">
        <ele>206</ele>
        <time>2018-04-08T09:10:51Z</time>
      </trkpt>
      <trkpt lat="45.88322" lon="4.75943">
        <ele>206</ele>
        <time>2018-04-08T09:10:52Z</time>
      </trkpt>
      <trkpt lat="45.88319" lon="4.75948">
        <ele>206</ele>
        <time>2018-04-08T09:10:53Z</time>
      </trkpt>
      <trkpt lat="45.88316" lon="4.75953">
        <ele>206</ele>
        <time>2018-04-08T09:10:54Z</time>
      </trkpt>
      <trkpt lat="45.88314" lon="4.7596">
        <ele>206</ele>
        <time>2018-04-08T09:10:55Z</time>
      </trkpt>
      <trkpt lat="45.88313" lon="4.75966">
        <ele>206</ele>
        <time>2018-04-08T09:10:56Z</time>
      </trkpt>
      <trkpt lat="45.88311" lon="4.75972">
        <ele>206</ele>
        <time>2018-04-08T09:10:57Z</time>
      </trkpt>
      <trkpt lat="45.88309" lon="4.75979">
        <ele>206</ele>
        <time>2018-04-08T09:10:58Z</time>
      </trkpt>
      <trkpt lat="45.88307" lon="4.75984">
        <ele>206</ele>
        <time>2018-04-08T09:10:59Z</time>
      </trkpt>
      <trkpt lat="45.88304" lon="4.75989">
        <ele>206</ele>
        <time>2018-04-08T09:11:00Z</time>
      </trkpt>
      <trkpt lat="45.88304" lon="4.75997">
        <ele>206</ele>
        <time>2018-04-08T09:11:01Z</time>
      </trkpt>
      <trkpt lat="45.88301" lon="4.76008">
        <ele>207</ele>
        <time>2018-04-08T09:11:03Z</time>
      </trkpt>
      <trkpt lat="45.88299" lon="4.76013">
        <ele>207</ele>
        <time>2018-04-08T09:11:04Z</time>
      </trkpt>
      <trkpt lat="45.88297" lon="4.76024">
        <ele>207</ele>
        <time>2018-04-08T09:11:06Z</time>
      </trkpt>
      <trkpt lat="45.88297" lon="4.76031">
        <ele>207</ele>
        <time>2018-04-08T09:11:07Z</time>
      </trkpt>
      <trkpt lat="45.88296" lon="4.76042">
        <ele>207</ele>
        <time>2018-04-08T09:11:09Z</time>
      </trkpt>
      <trkpt lat="45.88296" lon="4.76047">
        <ele>207</ele>
        <time>2018-04-08T09:11:10Z</time>
      </trkpt>
      <trkpt lat="45.88295" lon="4.76056">
        <ele>208</ele>
        <time>2018-04-08T09:11:12Z</time>
      </trkpt>
      <trkpt lat="45.88294" lon="4.76063">
        <ele>208</ele>
        <time>2018-04-08T09:11:13Z</time>
      </trkpt>
      <trkpt lat="45.88292" lon="4.76074">
        <ele>208</ele>
        <time>2018-04-08T09:11:15Z</time>
      </trkpt>
      <trkpt lat="45.88292" lon="4.7608">
        <ele>208</ele>
        <time>2018-04-08T09:11:16Z</time>
      </trkpt>
      <trkpt lat="45.88291" lon="4.76093">
        <ele>210</ele>
        <time>2018-04-08T09:11:18Z</time>
      </trkpt>
      <trkpt lat="45.88291" lon="4.76098">
        <ele>210</ele>
        <time>2018-04-08T09:11:19Z</time>
      </trkpt>
      <trkpt lat="45.88291" lon="4.76109">
        <ele>210</ele>
        <time>2018-04-08T09:11:21Z</time>
      </trkpt>
      <trkpt lat="45.88291" lon="4.76115">
        <ele>210</ele>
        <time>2018-04-08T09:11:22Z</time>
      </trkpt>
      <trkpt lat="45.88291" lon="4.76126">
        <ele>210</ele>
        <time>2018-04-08T09:11:24Z</time>
      </trkpt>
      <trkpt lat="45.88291" lon="4.76128">
        <ele>210</ele>
        <time>2018-04-08T09:11:25Z</time>
      </trkpt>
      <trkpt lat="45.8829" lon="4.76138">
        <ele>210</ele>
        <time>2018-04-08T09:11:27Z</time>
      </trkpt>
      <trkpt lat="45.8829" lon="4.76146">
        <ele>210</ele>
        <time>2018-04-08T09:11:28Z</time>
      </trkpt>
      <trkpt lat="45.88289" lon="4.76151">
        <ele>211</ele>
        <time>2018-04-08T09:11:30Z</time>
      </trkpt>
      <trkpt lat="45.88288" lon="4.7616">
        <ele>211</ele>
        <time>2018-04-08T09:11:31Z</time>
      </trkpt>
      <trkpt lat="45.88288" lon="4.7617">
        <ele>212</ele>
        <time>2018-04-08T09:11:33Z</time>
      </trkpt>
      <trkpt lat="45.88287" lon="4.76176">
        <ele>212</ele>
        <time>2018-04-08T09:11:34Z</time>
      </trkpt>
      <trkpt lat="45.88287" lon="4.76186">
        <ele>212</ele>
        <time>2018-04-08T09:11:36Z</time>
      </trkpt>
      <trkpt lat="45.88287" lon="4.76191">
        <ele>212</ele>
        <time>2018-04-08T09:11:37Z</time>
      </trkpt>
      <trkpt lat="45.88287" lon="4.76202">
        <ele>213</ele>
        <time>2018-04-08T09:11:39Z</time>
      </trkpt>
      <trkpt lat="45.88287" lon="4.76208">
        <ele>213</ele>
        <time>2018-04-08T09:11:40Z</time>
      </trkpt>
      <trkpt lat="45.88286" lon="4.7622">
        <ele>213</ele>
        <time>2018-04-08T09:11:42Z</time>
      </trkpt>
      <trkpt lat="45.88286" lon="4.76226">
        <ele>213</ele>
        <time>2018-04-08T09:11:43Z</time>
      </trkpt>
      <trkpt lat="45.88286" lon="4.76237">
        <ele>213</ele>
        <time>2018-04-08T09:11:45Z</time>
      </trkpt>
      <trkpt lat="45.88286" lon="4.76239">
        <ele>213</ele>
        <time>2018-04-08T09:11:46Z</time>
      </trkpt>
      <trkpt lat="45.88285" lon="4.7625">
        <ele>213</ele>
        <time>2018-04-08T09:11:48Z</time>
      </trkpt>
      <trkpt lat="45.88284" lon="4.76253">
        <ele>214</ele>
        <time>2018-04-08T09:11:49Z</time>
      </trkpt>
      <trkpt lat="45.88282" lon="4.7626">
        <ele>214</ele>
        <time>2018-04-08T09:11:51Z</time>
      </trkpt>
      <trkpt lat="45.8828" lon="4.76272">
        <ele>214</ele>
        <time>2018-04-08T09:11:52Z</time>
      </trkpt>
      <trkpt lat="45.88278" lon="4.76282">
        <ele>214</ele>
        <time>2018-04-08T09:11:54Z</time>
      </trkpt>
      <trkpt lat="45.88277" lon="4.76287">
        <ele>214</ele>
        <time>2018-04-08T09:11:55Z</time>
      </trkpt>
      <trkpt lat="45.88275" lon="4.76297">
        <ele>214</ele>
        <time>2018-04-08T09:11:57Z</time>
      </trkpt>
      <trkpt lat="45.88274" lon="4.76302">
        <ele>214</ele>
        <time>2018-04-08T09:11:58Z</time>
      </trkpt>
      <trkpt lat="45.88271" lon="4.76313">
        <ele>214</ele>
        <time>2018-04-08T09:12:00Z</time>
      </trkpt>
      <trkpt lat="45.8827" lon="4.76318">
        <ele>214</ele>
        <time>2018-04-08T09:12:01Z</time>
      </trkpt>
      <trkpt lat="45.88267" lon="4.76328">
        <ele>214</ele>
        <time>2018-04-08T09:12:03Z</time>
      </trkpt>
      <trkpt lat="45.88265" lon="4.76334">
        <ele>214</ele>
        <time>2018-04-08T09:12:04Z</time>
      </trkpt>
      <trkpt lat="45.88262" lon="4.76344">
        <ele>214</ele>
        <time>2018-04-08T09:12:06Z</time>
      </trkpt>
      <trkpt lat="45.8826" lon="4.76349">
        <ele>214</ele>
        <time>2018-04-08T09:12:07Z</time>
      </trkpt>
      <trkpt lat="45.88258" lon="4.76354">
        <ele>214</ele>
        <time>2018-04-08T09:12:08Z</time>
      </trkpt>
      <trkpt lat="45.88255" lon="4.76359">
        <ele>214</ele>
        <time>2018-04-08T09:12:09Z</time>
      </trkpt>
      <trkpt lat="45.88252" lon="4.76365">
        <ele>214</ele>
        <time>2018-04-08T09:12:10Z</time>
      </trkpt>
      <trkpt lat="45.8825" lon="4.7637">
        <ele>215</ele>
        <time>2018-04-08T09:12:11Z</time>
      </trkpt>
      <trkpt lat="45.88246" lon="4.76382">
        <ele>215</ele>
        <time>2018-04-08T09:12:13Z</time>
      </trkpt>
      <trkpt lat="45.88244" lon="4.76387">
        <ele>215</ele>
        <time>2018-04-08T09:12:14Z</time>
      </trkpt>
      <trkpt lat="45.8824" lon="4.76397">
        <ele>215</ele>
        <time>2018-04-08T09:12:16Z</time>
      </trkpt>
      <trkpt lat="45.88238" lon="4.76402">
        <ele>215</ele>
        <time>2018-04-08T09:12:17Z</time>
      </trkpt>
      <trkpt lat="45.88239" lon="4.76411">
        <ele>214</ele>
        <time>2018-04-08T09:12:18Z</time>
      </trkpt>
      <trkpt lat="45.88237" lon="4.76416">
        <ele>214</ele>
        <time>2018-04-08T09:12:19Z</time>
      </trkpt>
      <trkpt lat="45.88233" lon="4.76425">
        <ele>214</ele>
        <time>2018-04-08T09:12:21Z</time>
      </trkpt>
      <trkpt lat="45.88231" lon="4.7643">
        <ele>214</ele>
        <time>2018-04-08T09:12:22Z</time>
      </trkpt>
      <trkpt lat="45.88228" lon="4.76441">
        <ele>214</ele>
        <time>2018-04-08T09:12:24Z</time>
      </trkpt>
      <trkpt lat="45.88226" lon="4.76447">
        <ele>214</ele>
        <time>2018-04-08T09:12:25Z</time>
      </trkpt>
      <trkpt lat="45.88224" lon="4.76453">
        <ele>214</ele>
        <time>2018-04-08T09:12:26Z</time>
      </trkpt>
      <trkpt lat="45.88222" lon="4.76459">
        <ele>214</ele>
        <time>2018-04-08T09:12:27Z</time>
      </trkpt>
      <trkpt lat="45.88218" lon="4.76469">
        <ele>214</ele>
        <time>2018-04-08T09:12:29Z</time>
      </trkpt>
      <trkpt lat="45.88216" lon="4.76473">
        <ele>214</ele>
        <time>2018-04-08T09:12:30Z</time>
      </trkpt>
      <trkpt lat="45.88214" lon="4.7648">
        <ele>214</ele>
        <time>2018-04-08T09:12:31Z</time>
      </trkpt>
      <trkpt lat="45.88212" lon="4.76486">
        <ele>214</ele>
        <time>2018-04-08T09:12:32Z</time>
      </trkpt>
      <trkpt lat="45.88208" lon="4.76497">
        <ele>214</ele>
        <time>2018-04-08T09:12:34Z</time>
      </trkpt>
      <trkpt lat="45.88206" lon="4.76501">
        <ele>214</ele>
        <time>2018-04-08T09:12:35Z</time>
      </trkpt>
      <trkpt lat="45.88203" lon="4.76508">
        <ele>214</ele>
        <time>2018-04-08T09:12:36Z</time>
      </trkpt>
      <trkpt lat="45.882" lon="4.76513">
        <ele>214</ele>
        <time>2018-04-08T09:12:37Z</time>
      </trkpt>
      <trkpt lat="45.88198" lon="4.7652">
        <ele>214</ele>
        <time>2018-04-08T09:12:38Z</time>
      </trkpt>
      <trkpt lat="45.882" lon="4.76534">
        <ele>214</ele>
        <time>2018-04-08T09:12:39Z</time>
      </trkpt>
      <trkpt lat="45.88196" lon="4.76542">
        <ele>214</ele>
        <time>2018-04-08T09:12:40Z</time>
      </trkpt>
      <trkpt lat="45.88193" lon="4.76548">
        <ele>214</ele>
        <time>2018-04-08T09:12:41Z</time>
      </trkpt>
      <trkpt lat="45.88191" lon="4.76554">
        <ele>214</ele>
        <time>2018-04-08T09:12:42Z</time>
      </trkpt>
      <trkpt lat="45.88188" lon="4.76562">
        <ele>214</ele>
        <time>2018-04-08T09:12:43Z</time>
      </trkpt>
      <trkpt lat="45.88187" lon="4.76568">
        <ele>214</ele>
        <time>2018-04-08T09:12:44Z</time>
      </trkpt>
      <trkpt lat="45.88186" lon="4.76576">
        <ele>214</ele>
        <time>2018-04-08T09:12:45Z</time>
      </trkpt>
      <trkpt lat="45.88184" lon="4.76581">
        <ele>214</ele>
        <time>2018-04-08T09:12:46Z</time>
      </trkpt>
      <trkpt lat="45.88182" lon="4.76589">
        <ele>214</ele>
        <time>2018-04-08T09:12:47Z</time>
      </trkpt>
      <trkpt lat="45.8818" lon="4.76594">
        <ele>214</ele>
        <time>2018-04-08T09:12:48Z</time>
      </trkpt>
      <trkpt lat="45.88178" lon="4.76601">
        <ele>214</ele>
        <time>2018-04-08T09:12:49Z</time>
      </trkpt>
      <trkpt lat="45.88177" lon="4.76608">
        <ele>214</ele>
        <time>2018-04-08T09:12:50Z</time>
      </trkpt>
      <trkpt lat="45.88174" lon="4.76615">
        <ele>214</ele>
        <time>2018-04-08T09:12:51Z</time>
      </trkpt>
      <trkpt lat="45.88171" lon="4.76622">
        <ele>214</ele>
        <time>2018-04-08T09:12:52Z</time>
      </trkpt>
      <trkpt lat="45.88169" lon="4.76628">
        <ele>214</ele>
        <time>2018-04-08T09:12:53Z</time>
      </trkpt>
      <trkpt lat="45.88165" lon="4.76633">
        <ele>215</ele>
        <time>2018-04-08T09:12:54Z</time>
      </trkpt>
      <trkpt lat="45.88162" lon="4.76639">
        <ele>215</ele>
        <time>2018-04-08T09:12:55Z</time>
      </trkpt>
      <trkpt lat="45.88159" lon="4.76645">
        <ele>214</ele>
        <time>2018-04-08T09:12:56Z</time>
      </trkpt>
      <trkpt lat="45.88156" lon="4.76651">
        <ele>214</ele>
        <time>2018-04-08T09:12:57Z</time>
      </trkpt>
      <trkpt lat="45.88154" lon="4.76657">
        <ele>214</ele>
        <time>2018-04-08T09:12:58Z</time>
      </trkpt>
      <trkpt lat="45.88151" lon="4.76662">
        <ele>214</ele>
        <time>2018-04-08T09:12:59Z</time>
      </trkpt>
      <trkpt lat="45.88148" lon="4.76669">
        <ele>214</ele>
        <time>2018-04-08T09:13:00Z</time>
      </trkpt>
      <trkpt lat="45.88144" lon="4.76675">
        <ele>214</ele>
        <time>2018-04-08T09:13:01Z</time>
      </trkpt>
      <trkpt lat="45.88142" lon="4.76683">
        <ele>214</ele>
        <time>2018-04-08T09:13:02Z</time>
      </trkpt>
      <trkpt lat="45.88139" lon="4.7669">
        <ele>214</ele>
        <time>2018-04-08T09:13:03Z</time>
      </trkpt>
      <trkpt lat="45.88137" lon="4.76697">
        <ele>214</ele>
        <time>2018-04-08T09:13:04Z</time>
      </trkpt>
      <trkpt lat="45.88133" lon="4.76704">
        <ele>214</ele>
        <time>2018-04-08T09:13:05Z</time>
      </trkpt>
      <trkpt lat="45.88129" lon="4.76711">
        <ele>214</ele>
        <time>2018-04-08T09:13:06Z</time>
      </trkpt>
      <trkpt lat="45.88126" lon="4.76718">
        <ele>214</ele>
        <time>2018-04-08T09:13:07Z</time>
      </trkpt>
      <trkpt lat="45.88122" lon="4.76724">
        <ele>214</ele>
        <time>2018-04-08T09:13:08Z</time>
      </trkpt>
      <trkpt lat="45.8812" lon="4.76731">
        <ele>214</ele>
        <time>2018-04-08T09:13:09Z</time>
      </trkpt>
      <trkpt lat="45.88116" lon="4.76737">
        <ele>214</ele>
        <time>2018-04-08T09:13:10Z</time>
      </trkpt>
      <trkpt lat="45.88115" lon="4.76744">
        <ele>214</ele>
        <time>2018-04-08T09:13:11Z</time>
      </trkpt>
      <trkpt lat="45.88111" lon="4.7675">
        <ele>214</ele>
        <time>2018-04-08T09:13:12Z</time>
      </trkpt>
      <trkpt lat="45.88109" lon="4.76757">
        <ele>213</ele>
        <time>2018-04-08T09:13:13Z</time>
      </trkpt>
      <trkpt lat="45.88109" lon="4.76765">
        <ele>213</ele>
        <time>2018-04-08T09:13:14Z</time>
      </trkpt>
      <trkpt lat="45.88108" lon="4.76772">
        <ele>213</ele>
        <time>2018-04-08T09:13:15Z</time>
      </trkpt>
      <trkpt lat="45.88108" lon="4.76779">
        <ele>213</ele>
        <time>2018-04-08T09:13:16Z</time>
      </trkpt>
      <trkpt lat="45.88106" lon="4.76787">
        <ele>213</ele>
        <time>2018-04-08T09:13:17Z</time>
      </trkpt>
      <trkpt lat="45.88106" lon="4.76794">
        <ele>213</ele>
        <time>2018-04-08T09:13:18Z</time>
      </trkpt>
      <trkpt lat="45.88105" lon="4.768">
        <ele>213</ele>
        <time>2018-04-08T09:13:19Z</time>
      </trkpt>
      <trkpt lat="45.88105" lon="4.7681">
        <ele>213</ele>
        <time>2018-04-08T09:13:20Z</time>
      </trkpt>
      <trkpt lat="45.88104" lon="4.76818">
        <ele>213</ele>
        <time>2018-04-08T09:13:21Z</time>
      </trkpt>
      <trkpt lat="45.88103" lon="4.76826">
        <ele>213</ele>
        <time>2018-04-08T09:13:22Z</time>
      </trkpt>
      <trkpt lat="45.88102" lon="4.76835">
        <ele>212</ele>
        <time>2018-04-08T09:13:23Z</time>
      </trkpt>
      <trkpt lat="45.88102" lon="4.76843">
        <ele>212</ele>
        <time>2018-04-08T09:13:24Z</time>
      </trkpt>
      <trkpt lat="45.881" lon="4.76851">
        <ele>212</ele>
        <time>2018-04-08T09:13:25Z</time>
      </trkpt>
      <trkpt lat="45.88099" lon="4.7686">
        <ele>212</ele>
        <time>2018-04-08T09:13:26Z</time>
      </trkpt>
      <trkpt lat="45.88097" lon="4.76868">
        <ele>212</ele>
        <time>2018-04-08T09:13:27Z</time>
      </trkpt>
      <trkpt lat="45.88096" lon="4.76877">
        <ele>212</ele>
        <time>2018-04-08T09:13:28Z</time>
      </trkpt>
      <trkpt lat="45.88095" lon="4.76885">
        <ele>212</ele>
        <time>2018-04-08T09:13:29Z</time>
      </trkpt>
      <trkpt lat="45.88094" lon="4.76893">
        <ele>212</ele>
        <time>2018-04-08T09:13:30Z</time>
      </trkpt>
      <trkpt lat="45.88093" lon="4.769">
        <ele>212</ele>
        <time>2018-04-08T09:13:31Z</time>
      </trkpt>
      <trkpt lat="45.88093" lon="4.76908">
        <ele>212</ele>
        <time>2018-04-08T09:13:32Z</time>
      </trkpt>
      <trkpt lat="45.88092" lon="4.76914">
        <ele>213</ele>
        <time>2018-04-08T09:13:33Z</time>
      </trkpt>
      <trkpt lat="45.88091" lon="4.76921">
        <ele>213</ele>
        <time>2018-04-08T09:13:34Z</time>
      </trkpt>
      <trkpt lat="45.8809" lon="4.76928">
        <ele>212</ele>
        <time>2018-04-08T09:13:35Z</time>
      </trkpt>
      <trkpt lat="45.88088" lon="4.76935">
        <ele>212</ele>
        <time>2018-04-08T09:13:36Z</time>
      </trkpt>
      <trkpt lat="45.88087" lon="4.76941">
        <ele>212</ele>
        <time>2018-04-08T09:13:37Z</time>
      </trkpt>
      <trkpt lat="45.88086" lon="4.76949">
        <ele>212</ele>
        <time>2018-04-08T09:13:38Z</time>
      </trkpt>
      <trkpt lat="45.88084" lon="4.76956">
        <ele>212</ele>
        <time>2018-04-08T09:13:39Z</time>
      </trkpt>
      <trkpt lat="45.88082" lon="4.76962">
        <ele>213</ele>
        <time>2018-04-08T09:13:40Z</time>
      </trkpt>
      <trkpt lat="45.88081" lon="4.7697">
        <ele>213</ele>
        <time>2018-04-08T09:13:41Z</time>
      </trkpt>
      <trkpt lat="45.88078" lon="4.76981">
        <ele>213</ele>
        <time>2018-04-08T09:13:43Z</time>
      </trkpt>
      <trkpt lat="45.88076" lon="4.76988">
        <ele>213</ele>
        <time>2018-04-08T09:13:44Z</time>
      </trkpt>
      <trkpt lat="45.88074" lon="4.76995">
        <ele>213</ele>
        <time>2018-04-08T09:13:45Z</time>
      </trkpt>
      <trkpt lat="45.88073" lon="4.77002">
        <ele>213</ele>
        <time>2018-04-08T09:13:46Z</time>
      </trkpt>
      <trkpt lat="45.88071" lon="4.77008">
        <ele>213</ele>
        <time>2018-04-08T09:13:47Z</time>
      </trkpt>
      <trkpt lat="45.8807" lon="4.77016">
        <ele>214</ele>
        <time>2018-04-08T09:13:48Z</time>
      </trkpt>
      <trkpt lat="45.88068" lon="4.77023">
        <ele>214</ele>
        <time>2018-04-08T09:13:49Z</time>
      </trkpt>
      <trkpt lat="45.88067" lon="4.77029">
        <ele>214</ele>
        <time>2018-04-08T09:13:50Z</time>
      </trkpt>
      <trkpt lat="45.88065" lon="4.77035">
        <ele>214</ele>
        <time>2018-04-08T09:13:51Z</time>
      </trkpt>
      <trkpt lat="45.88064" lon="4.77042">
        <ele>214</ele>
        <time>2018-04-08T09:13:52Z</time>
      </trkpt>
      <trkpt lat="45.88062" lon="4.77049">
        <ele>214</ele>
        <time>2018-04-08T09:13:53Z</time>
      </trkpt>
      <trkpt lat="45.88061" lon="4.77055">
        <ele>214</ele>
        <time>2018-04-08T09:13:54Z</time>
      </trkpt>
      <trkpt lat="45.88061" lon="4.77064">
        <ele>214</ele>
        <time>2018-04-08T09:13:55Z</time>
      </trkpt>
      <trkpt lat="45.88059" lon="4.7707">
        <ele>214</ele>
        <time>2018-04-08T09:13:56Z</time>
      </trkpt>
      <trkpt lat="45.88057" lon="4.77076">
        <ele>214</ele>
        <time>2018-04-08T09:13:57Z</time>
      </trkpt>
      <trkpt lat="45.88056" lon="4.77083">
        <ele>214</ele>
        <time>2018-04-08T09:13:58Z</time>
      </trkpt>
      <trkpt lat="45.88053" lon="4.77089">
        <ele>215</ele>
        <time>2018-04-08T09:13:59Z</time>
      </trkpt>
      <trkpt lat="45.88052" lon="4.77098">
        <ele>215</ele>
        <time>2018-04-08T09:14:00Z</time>
      </trkpt>
      <trkpt lat="45.8805" lon="4.77105">
        <ele>215</ele>
        <time>2018-04-08T09:14:01Z</time>
      </trkpt>
      <trkpt lat="45.88048" lon="4.77112">
        <ele>215</ele>
        <time>2018-04-08T09:14:02Z</time>
      </trkpt>
      <trkpt lat="45.88045" lon="4.77122">
        <ele>215</ele>
        <time>2018-04-08T09:14:04Z</time>
      </trkpt>
      <trkpt lat="45.88045" lon="4.77128">
        <ele>215</ele>
        <time>2018-04-08T09:14:05Z</time>
      </trkpt>
      <trkpt lat="45.88045" lon="4.77135">
        <ele>215</ele>
        <time>2018-04-08T09:14:06Z</time>
      </trkpt>
      <trkpt lat="45.88043" lon="4.77141">
        <ele>215</ele>
        <time>2018-04-08T09:14:07Z</time>
      </trkpt>
      <trkpt lat="45.88041" lon="4.77153">
        <ele>215</ele>
        <time>2018-04-08T09:14:09Z</time>
      </trkpt>
      <trkpt lat="45.88041" lon="4.77159">
        <ele>215</ele>
        <time>2018-04-08T09:14:10Z</time>
      </trkpt>
      <trkpt lat="45.8804" lon="4.77166">
        <ele>215</ele>
        <time>2018-04-08T09:14:11Z</time>
      </trkpt>
      <trkpt lat="45.88039" lon="4.77172">
        <ele>216</ele>
        <time>2018-04-08T09:14:12Z</time>
      </trkpt>
      <trkpt lat="45.88038" lon="4.77179">
        <ele>216</ele>
        <time>2018-04-08T09:14:13Z</time>
      </trkpt>
      <trkpt lat="45.88037" lon="4.77186">
        <ele>216</ele>
        <time>2018-04-08T09:14:14Z</time>
      </trkpt>
      <trkpt lat="45.88037" lon="4.77193">
        <ele>216</ele>
        <time>2018-04-08T09:14:15Z</time>
      </trkpt>
      <trkpt lat="45.88035" lon="4.77199">
        <ele>216</ele>
        <time>2018-04-08T09:14:16Z</time>
      </trkpt>
      <trkpt lat="45.88034" lon="4.77205">
        <ele>216</ele>
        <time>2018-04-08T09:14:17Z</time>
      </trkpt>
      <trkpt lat="45.88034" lon="4.77212">
        <ele>216</ele>
        <time>2018-04-08T09:14:18Z</time>
      </trkpt>
      <trkpt lat="45.88033" lon="4.77218">
        <ele>216</ele>
        <time>2018-04-08T09:14:19Z</time>
      </trkpt>
      <trkpt lat="45.88033" lon="4.77225">
        <ele>216</ele>
        <time>2018-04-08T09:14:20Z</time>
      </trkpt>
      <trkpt lat="45.8803" lon="4.77236">
        <ele>216</ele>
        <time>2018-04-08T09:14:22Z</time>
      </trkpt>
      <trkpt lat="45.8803" lon="4.77243">
        <ele>216</ele>
        <time>2018-04-08T09:14:23Z</time>
      </trkpt>
      <trkpt lat="45.88028" lon="4.77248">
        <ele>216</ele>
        <time>2018-04-08T09:14:24Z</time>
      </trkpt>
      <trkpt lat="45.88028" lon="4.77255">
        <ele>216</ele>
        <time>2018-04-08T09:14:25Z</time>
      </trkpt>
      <trkpt lat="45.88027" lon="4.77263">
        <ele>216</ele>
        <time>2018-04-08T09:14:26Z</time>
      </trkpt>
      <trkpt lat="45.88026" lon="4.77271">
        <ele>215</ele>
        <time>2018-04-08T09:14:27Z</time>
      </trkpt>
      <trkpt lat="45.88025" lon="4.77277">
        <ele>215</ele>
        <time>2018-04-08T09:14:28Z</time>
      </trkpt>
      <trkpt lat="45.88024" lon="4.77284">
        <ele>215</ele>
        <time>2018-04-08T09:14:29Z</time>
      </trkpt>
      <trkpt lat="45.88021" lon="4.77296">
        <ele>215</ele>
        <time>2018-04-08T09:14:31Z</time>
      </trkpt>
      <trkpt lat="45.88021" lon="4.77303">
        <ele>215</ele>
        <time>2018-04-08T09:14:32Z</time>
      </trkpt>
      <trkpt lat="45.88019" lon="4.77314">
        <ele>215</ele>
        <time>2018-04-08T09:14:34Z</time>
      </trkpt>
      <trkpt lat="45.88018" lon="4.77323">
        <ele>215</ele>
        <time>2018-04-08T09:14:35Z</time>
      </trkpt>
      <trkpt lat="45.88016" lon="4.7733">
        <ele>215</ele>
        <time>2018-04-08T09:14:36Z</time>
      </trkpt>
      <trkpt lat="45.88015" lon="4.77337">
        <ele>215</ele>
        <time>2018-04-08T09:14:37Z</time>
      </trkpt>
      <trkpt lat="45.88015" lon="4.77345">
        <ele>215</ele>
        <time>2018-04-08T09:14:38Z</time>
      </trkpt>
      <trkpt lat="45.88013" lon="4.77353">
        <ele>215</ele>
        <time>2018-04-08T09:14:39Z</time>
      </trkpt>
      <trkpt lat="45.88012" lon="4.7736">
        <ele>215</ele>
        <time>2018-04-08T09:14:40Z</time>
      </trkpt>
      <trkpt lat="45.88011" lon="4.77367">
        <ele>215</ele>
        <time>2018-04-08T09:14:41Z</time>
      </trkpt>
      <trkpt lat="45.88009" lon="4.77374">
        <ele>215</ele>
        <time>2018-04-08T09:14:42Z</time>
      </trkpt>
      <trkpt lat="45.88008" lon="4.7738">
        <ele>215</ele>
        <time>2018-04-08T09:14:43Z</time>
      </trkpt>
      <trkpt lat="45.88007" lon="4.77387">
        <ele>215</ele>
        <time>2018-04-08T09:14:44Z</time>
      </trkpt>
      <trkpt lat="45.88005" lon="4.77394">
        <ele>215</ele>
        <time>2018-04-08T09:14:45Z</time>
      </trkpt>
      <trkpt lat="45.88004" lon="4.77401">
        <ele>215</ele>
        <time>2018-04-08T09:14:46Z</time>
      </trkpt>
      <trkpt lat="45.88003" lon="4.77407">
        <ele>215</ele>
        <time>2018-04-08T09:14:47Z</time>
      </trkpt>
      <trkpt lat="45.88002" lon="4.77414">
        <ele>215</ele>
        <time>2018-04-08T09:14:48Z</time>
      </trkpt>
      <trkpt lat="45.88001" lon="4.77421">
        <ele>215</ele>
        <time>2018-04-08T09:14:49Z</time>
      </trkpt>
      <trkpt lat="45.88" lon="4.77429">
        <ele>215</ele>
        <time>2018-04-08T09:14:50Z</time>
      </trkpt>
      <trkpt lat="45.87999" lon="4.77435">
        <ele>216</ele>
        <time>2018-04-08T09:14:51Z</time>
      </trkpt>
      <trkpt lat="45.87998" lon="4.77443">
        <ele>216</ele>
        <time>2018-04-08T09:14:52Z</time>
      </trkpt>
      <trkpt lat="45.87997" lon="4.77449">
        <ele>217</ele>
        <time>2018-04-08T09:14:53Z</time>
      </trkpt>
      <trkpt lat="45.87996" lon="4.77457">
        <ele>217</ele>
        <time>2018-04-08T09:14:54Z</time>
      </trkpt>
      <trkpt lat="45.87996" lon="4.77464">
        <ele>217</ele>
        <time>2018-04-08T09:14:55Z</time>
      </trkpt>
      <trkpt lat="45.87995" lon="4.77471">
        <ele>217</ele>
        <time>2018-04-08T09:14:56Z</time>
      </trkpt>
      <trkpt lat="45.87995" lon="4.77478">
        <ele>217</ele>
        <time>2018-04-08T09:14:57Z</time>
      </trkpt>
      <trkpt lat="45.87995" lon="4.77486">
        <ele>216</ele>
        <time>2018-04-08T09:14:58Z</time>
      </trkpt>
      <trkpt lat="45.87994" lon="4.77493">
        <ele>216</ele>
        <time>2018-04-08T09:14:59Z</time>
      </trkpt>
      <trkpt lat="45.87994" lon="4.775">
        <ele>216</ele>
        <time>2018-04-08T09:15:00Z</time>
      </trkpt>
      <trkpt lat="45.87993" lon="4.77507">
        <ele>216</ele>
        <time>2018-04-08T09:15:01Z</time>
      </trkpt>
      <trkpt lat="45.87992" lon="4.77519">
        <ele>217</ele>
        <time>2018-04-08T09:15:03Z</time>
      </trkpt>
      <trkpt lat="45.87991" lon="4.77525">
        <ele>217</ele>
        <time>2018-04-08T09:15:04Z</time>
      </trkpt>
      <trkpt lat="45.8799" lon="4.77532">
        <ele>217</ele>
        <time>2018-04-08T09:15:05Z</time>
      </trkpt>
      <trkpt lat="45.8799" lon="4.77539">
        <ele>217</ele>
        <time>2018-04-08T09:15:06Z</time>
      </trkpt>
      <trkpt lat="45.87989" lon="4.77546">
        <ele>217</ele>
        <time>2018-04-08T09:15:07Z</time>
      </trkpt>
      <trkpt lat="45.87988" lon="4.77553">
        <ele>217</ele>
        <time>2018-04-08T09:15:08Z</time>
      </trkpt>
      <trkpt lat="45.87987" lon="4.77561">
        <ele>217</ele>
        <time>2018-04-08T09:15:09Z</time>
      </trkpt>
      <trkpt lat="45.87985" lon="4.77568">
        <ele>217</ele>
        <time>2018-04-08T09:15:10Z</time>
      </trkpt>
      <trkpt lat="45.87984" lon="4.77574">
        <ele>217</ele>
        <time>2018-04-08T09:15:11Z</time>
      </trkpt>
      <trkpt lat="45.87984" lon="4.77581">
        <ele>217</ele>
        <time>2018-04-08T09:15:12Z</time>
      </trkpt>
      <trkpt lat="45.87982" lon="4.77587">
        <ele>218</ele>
        <time>2018-04-08T09:15:13Z</time>
      </trkpt>
      <trkpt lat="45.87983" lon="4.77596">
        <ele>218</ele>
        <time>2018-04-08T09:15:14Z</time>
      </trkpt>
      <trkpt lat="45.87979" lon="4.77607">
        <ele>218</ele>
        <time>2018-04-08T09:15:16Z</time>
      </trkpt>
      <trkpt lat="45.87977" lon="4.77614">
        <ele>218</ele>
        <time>2018-04-08T09:15:17Z</time>
      </trkpt>
      <trkpt lat="45.87975" lon="4.7762">
        <ele>218</ele>
        <time>2018-04-08T09:15:18Z</time>
      </trkpt>
      <trkpt lat="45.87974" lon="4.77626">
        <ele>218</ele>
        <time>2018-04-08T09:15:19Z</time>
      </trkpt>
      <trkpt lat="45.87972" lon="4.77638">
        <ele>218</ele>
        <time>2018-04-08T09:15:21Z</time>
      </trkpt>
      <trkpt lat="45.87971" lon="4.77644">
        <ele>218</ele>
        <time>2018-04-08T09:15:22Z</time>
      </trkpt>
      <trkpt lat="45.8797" lon="4.77651">
        <ele>218</ele>
        <time>2018-04-08T09:15:23Z</time>
      </trkpt>
      <trkpt lat="45.87968" lon="4.77657">
        <ele>218</ele>
        <time>2018-04-08T09:15:24Z</time>
      </trkpt>
      <trkpt lat="45.87967" lon="4.77664">
        <ele>218</ele>
        <time>2018-04-08T09:15:25Z</time>
      </trkpt>
      <trkpt lat="45.87965" lon="4.7767">
        <ele>218</ele>
        <time>2018-04-08T09:15:26Z</time>
      </trkpt>
      <trkpt lat="45.8796" lon="4.7768">
        <ele>218</ele>
        <time>2018-04-08T09:15:28Z</time>
      </trkpt>
      <trkpt lat="45.87958" lon="4.77687">
        <ele>218</ele>
        <time>2018-04-08T09:15:29Z</time>
      </trkpt>
      <trkpt lat="45.87957" lon="4.77694">
        <ele>218</ele>
        <time>2018-04-08T09:15:30Z</time>
      </trkpt>
      <trkpt lat="45.87956" lon="4.77701">
        <ele>218</ele>
        <time>2018-04-08T09:15:31Z</time>
      </trkpt>
      <trkpt lat="45.87955" lon="4.77709">
        <ele>218</ele>
        <time>2018-04-08T09:15:32Z</time>
      </trkpt>
      <trkpt lat="45.87955" lon="4.77717">
        <ele>218</ele>
        <time>2018-04-08T09:15:33Z</time>
      </trkpt>
      <trkpt lat="45.87955" lon="4.77724">
        <ele>218</ele>
        <time>2018-04-08T09:15:34Z</time>
      </trkpt>
      <trkpt lat="45.87955" lon="4.77731">
        <ele>218</ele>
        <time>2018-04-08T09:15:35Z</time>
      </trkpt>
      <trkpt lat="45.87956" lon="4.77738">
        <ele>218</ele>
        <time>2018-04-08T09:15:36Z</time>
      </trkpt>
      <trkpt lat="45.87955" lon="4.77745">
        <ele>218</ele>
        <time>2018-04-08T09:15:37Z</time>
      </trkpt>
      <trkpt lat="45.87955" lon="4.77757">
        <ele>219</ele>
        <time>2018-04-08T09:15:39Z</time>
      </trkpt>
      <trkpt lat="45.87956" lon="4.77762">
        <ele>219</ele>
        <time>2018-04-08T09:15:40Z</time>
      </trkpt>
      <trkpt lat="45.87958" lon="4.77774">
        <ele>219</ele>
        <time>2018-04-08T09:15:42Z</time>
      </trkpt>
      <trkpt lat="45.8796" lon="4.7778">
        <ele>219</ele>
        <time>2018-04-08T09:15:43Z</time>
      </trkpt>
      <trkpt lat="45.87962" lon="4.77792">
        <ele>219</ele>
        <time>2018-04-08T09:15:45Z</time>
      </trkpt>
      <trkpt lat="45.87965" lon="4.77799">
        <ele>219</ele>
        <time>2018-04-08T09:15:46Z</time>
      </trkpt>
      <trkpt lat="45.87965" lon="4.7781">
        <ele>219</ele>
        <time>2018-04-08T09:15:48Z</time>
      </trkpt>
      <trkpt lat="45.87966" lon="4.77817">
        <ele>218</ele>
        <time>2018-04-08T09:15:49Z</time>
      </trkpt>
      <trkpt lat="45.87967" lon="4.77828">
        <ele>218</ele>
        <time>2018-04-08T09:15:51Z</time>
      </trkpt>
      <trkpt lat="45.87968" lon="4.77835">
        <ele>219</ele>
        <time>2018-04-08T09:15:52Z</time>
      </trkpt>
      <trkpt lat="45.87967" lon="4.77842">
        <ele>219</ele>
        <time>2018-04-08T09:15:53Z</time>
      </trkpt>
      <trkpt lat="45.87967" lon="4.77848">
        <ele>219</ele>
        <time>2018-04-08T09:15:54Z</time>
      </trkpt>
      <trkpt lat="45.87966" lon="4.77861">
        <ele>219</ele>
        <time>2018-04-08T09:15:56Z</time>
      </trkpt>
      <trkpt lat="45.87966" lon="4.77867">
        <ele>219</ele>
        <time>2018-04-08T09:15:57Z</time>
      </trkpt>
      <trkpt lat="45.87967" lon="4.7788">
        <ele>219</ele>
        <time>2018-04-08T09:15:59Z</time>
      </trkpt>
      <trkpt lat="45.87966" lon="4.77886">
        <ele>220</ele>
        <time>2018-04-08T09:16:00Z</time>
      </trkpt>
      <trkpt lat="45.87966" lon="4.77893">
        <ele>220</ele>
        <time>2018-04-08T09:16:01Z</time>
      </trkpt>
      <trkpt lat="45.87967" lon="4.779">
        <ele>220</ele>
        <time>2018-04-08T09:16:02Z</time>
      </trkpt>
      <trkpt lat="45.87969" lon="4.77912">
        <ele>219</ele>
        <time>2018-04-08T09:16:04Z</time>
      </trkpt>
      <trkpt lat="45.87969" lon="4.77918">
        <ele>220</ele>
        <time>2018-04-08T09:16:05Z</time>
      </trkpt>
      <trkpt lat="45.87969" lon="4.77928">
        <ele>220</ele>
        <time>2018-04-08T09:16:07Z</time>
      </trkpt>
      <trkpt lat="45.8797" lon="4.77931">
        <ele>220</ele>
        <time>2018-04-08T09:16:08Z</time>
      </trkpt>
      <trkpt lat="45.87971" lon="4.77942">
        <ele>220</ele>
        <time>2018-04-08T09:16:11Z</time>
      </trkpt>
      <trkpt lat="45.87973" lon="4.77955">
        <ele>219</ele>
        <time>2018-04-08T09:16:12Z</time>
      </trkpt>
      <trkpt lat="45.87975" lon="4.77965">
        <ele>219</ele>
        <time>2018-04-08T09:16:14Z</time>
      </trkpt>
      <trkpt lat="45.87976" lon="4.77969">
        <ele>219</ele>
        <time>2018-04-08T09:16:15Z</time>
      </trkpt>
      <trkpt lat="45.87977" lon="4.77977">
        <ele>219</ele>
        <time>2018-04-08T09:16:16Z</time>
      </trkpt>
      <trkpt lat="45.87978" lon="4.77985">
        <ele>219</ele>
        <time>2018-04-08T09:16:17Z</time>
      </trkpt>
      <trkpt lat="45.87979" lon="4.77992">
        <ele>219</ele>
        <time>2018-04-08T09:16:18Z</time>
      </trkpt>
      <trkpt lat="45.87981" lon="4.78">
        <ele>219</ele>
        <time>2018-04-08T09:16:19Z</time>
      </trkpt>
      <trkpt lat="45.87982" lon="4.78007">
        <ele>218</ele>
        <time>2018-04-08T09:16:20Z</time>
      </trkpt>
      <trkpt lat="45.87982" lon="4.78015">
        <ele>218</ele>
        <time>2018-04-08T09:16:21Z</time>
      </trkpt>
      <trkpt lat="45.87983" lon="4.78022">
        <ele>218</ele>
        <time>2018-04-08T09:16:22Z</time>
      </trkpt>
      <trkpt lat="45.87984" lon="4.7803">
        <ele>218</ele>
        <time>2018-04-08T09:16:23Z</time>
      </trkpt>
      <trkpt lat="45.87986" lon="4.78039">
        <ele>217</ele>
        <time>2018-04-08T09:16:24Z</time>
      </trkpt>
      <trkpt lat="45.87987" lon="4.78047">
        <ele>217</ele>
        <time>2018-04-08T09:16:25Z</time>
      </trkpt>
      <trkpt lat="45.87988" lon="4.78054">
        <ele>217</ele>
        <time>2018-04-08T09:16:26Z</time>
      </trkpt>
      <trkpt lat="45.87989" lon="4.78062">
        <ele>217</ele>
        <time>2018-04-08T09:16:27Z</time>
      </trkpt>
      <trkpt lat="45.8799" lon="4.78069">
        <ele>216</ele>
        <time>2018-04-08T09:16:28Z</time>
      </trkpt>
      <trkpt lat="45.87992" lon="4.78076">
        <ele>216</ele>
        <time>2018-04-08T09:16:29Z</time>
      </trkpt>
      <trkpt lat="45.87994" lon="4.78083">
        <ele>216</ele>
        <time>2018-04-08T09:16:30Z</time>
      </trkpt>
      <trkpt lat="45.87995" lon="4.7809">
        <ele>215</ele>
        <time>2018-04-08T09:16:31Z</time>
      </trkpt>
      <trkpt lat="45.87996" lon="4.78097">
        <ele>216</ele>
        <time>2018-04-08T09:16:32Z</time>
      </trkpt>
      <trkpt lat="45.87998" lon="4.78104">
        <ele>216</ele>
        <time>2018-04-08T09:16:33Z</time>
      </trkpt>
      <trkpt lat="45.87999" lon="4.78111">
        <ele>216</ele>
        <time>2018-04-08T09:16:34Z</time>
      </trkpt>
      <trkpt lat="45.88" lon="4.78118">
        <ele>214</ele>
        <time>2018-04-08T09:16:35Z</time>
      </trkpt>
      <trkpt lat="45.88001" lon="4.78126">
        <ele>214</ele>
        <time>2018-04-08T09:16:36Z</time>
      </trkpt>
      <trkpt lat="45.88002" lon="4.78134">
        <ele>214</ele>
        <time>2018-04-08T09:16:37Z</time>
      </trkpt>
      <trkpt lat="45.88003" lon="4.7814">
        <ele>214</ele>
        <time>2018-04-08T09:16:38Z</time>
      </trkpt>
      <trkpt lat="45.88003" lon="4.78147">
        <ele>214</ele>
        <time>2018-04-08T09:16:39Z</time>
      </trkpt>
      <trkpt lat="45.88003" lon="4.78154">
        <ele>214</ele>
        <time>2018-04-08T09:16:40Z</time>
      </trkpt>
      <trkpt lat="45.88003" lon="4.78162">
        <ele>215</ele>
        <time>2018-04-08T09:16:41Z</time>
      </trkpt>
      <trkpt lat="45.88004" lon="4.78169">
        <ele>215</ele>
        <time>2018-04-08T09:16:42Z</time>
      </trkpt>
      <trkpt lat="45.88005" lon="4.78176">
        <ele>214</ele>
        <time>2018-04-08T09:16:43Z</time>
      </trkpt>
      <trkpt lat="45.88003" lon="4.78188">
        <ele>214</ele>
        <time>2018-04-08T09:17:37Z</time>
      </trkpt>
      <trkpt lat="45.88003" lon="4.78189">
        <ele>214</ele>
        <time>2018-04-08T09:17:38Z</time>
      </trkpt>
      <trkpt lat="45.88003" lon="4.78202">
        <ele>214</ele>
        <time>2018-04-08T09:17:43Z</time>
      </trkpt>
      <trkpt lat="45.88003" lon="4.78206">
        <ele>214</ele>
        <time>2018-04-08T09:17:44Z</time>
      </trkpt>
      <trkpt lat="45.88001" lon="4.78219">
        <ele>214</ele>
        <time>2018-04-08T09:17:45Z</time>
      </trkpt>
      <trkpt lat="45.87999" lon="4.7823">
        <ele>215</ele>
        <time>2018-04-08T09:17:47Z</time>
      </trkpt>
      <trkpt lat="45.87999" lon="4.78236">
        <ele>215</ele>
        <time>2018-04-08T09:17:48Z</time>
      </trkpt>
      <trkpt lat="45.87997" lon="4.78247">
        <ele>214</ele>
        <time>2018-04-08T09:17:50Z</time>
      </trkpt>
      <trkpt lat="45.87996" lon="4.78253">
        <ele>214</ele>
        <time>2018-04-08T09:17:51Z</time>
      </trkpt>
      <trkpt lat="45.87997" lon="4.78261">
        <ele>215</ele>
        <time>2018-04-08T09:17:52Z</time>
      </trkpt>
      <trkpt lat="45.87996" lon="4.78267">
        <ele>215</ele>
        <time>2018-04-08T09:17:53Z</time>
      </trkpt>
      <trkpt lat="45.87994" lon="4.78279">
        <ele>215</ele>
        <time>2018-04-08T09:17:55Z</time>
      </trkpt>
      <trkpt lat="45.87993" lon="4.78286">
        <ele>215</ele>
        <time>2018-04-08T09:17:56Z</time>
      </trkpt>
      <trkpt lat="45.87992" lon="4.78293">
        <ele>215</ele>
        <time>2018-04-08T09:17:57Z</time>
      </trkpt>
      <trkpt lat="45.87992" lon="4.78299">
        <ele>215</ele>
        <time>2018-04-08T09:17:58Z</time>
      </trkpt>
      <trkpt lat="45.87992" lon="4.78307">
        <ele>215</ele>
        <time>2018-04-08T09:17:59Z</time>
      </trkpt>
      <trkpt lat="45.87991" lon="4.78314">
        <ele>215</ele>
        <time>2018-04-08T09:18:00Z</time>
      </trkpt>
      <trkpt lat="45.87991" lon="4.78322">
        <ele>215</ele>
        <time>2018-04-08T09:18:01Z</time>
      </trkpt>
      <trkpt lat="45.87989" lon="4.78328">
        <ele>215</ele>
        <time>2018-04-08T09:18:02Z</time>
      </trkpt>
      <trkpt lat="45.87987" lon="4.7834">
        <ele>215</ele>
        <time>2018-04-08T09:18:04Z</time>
      </trkpt>
      <trkpt lat="45.87986" lon="4.78347">
        <ele>215</ele>
        <time>2018-04-08T09:18:05Z</time>
      </trkpt>
      <trkpt lat="45.87984" lon="4.78359">
        <ele>215</ele>
        <time>2018-04-08T09:18:07Z</time>
      </trkpt>
      <trkpt lat="45.87984" lon="4.78365">
        <ele>215</ele>
        <time>2018-04-08T09:18:08Z</time>
      </trkpt>
      <trkpt lat="45.87984" lon="4.78372">
        <ele>215</ele>
        <time>2018-04-08T09:18:09Z</time>
      </trkpt>
      <trkpt lat="45.87984" lon="4.78379">
        <ele>215</ele>
        <time>2018-04-08T09:18:10Z</time>
      </trkpt>
      <trkpt lat="45.87985" lon="4.7839">
        <ele>215</ele>
        <time>2018-04-08T09:18:12Z</time>
      </trkpt>
      <trkpt lat="45.87986" lon="4.78398">
        <ele>214</ele>
        <time>2018-04-08T09:18:13Z</time>
      </trkpt>
      <trkpt lat="45.87986" lon="4.7841">
        <ele>214</ele>
        <time>2018-04-08T09:18:15Z</time>
      </trkpt>
      <trkpt lat="45.87987" lon="4.78416">
        <ele>214</ele>
        <time>2018-04-08T09:18:16Z</time>
      </trkpt>
      <trkpt lat="45.87984" lon="4.78419">
        <ele>214</ele>
        <time>2018-04-08T09:18:18Z</time>
      </trkpt>
      <trkpt lat="45.87979" lon="4.78423">
        <ele>215</ele>
        <time>2018-04-08T09:18:19Z</time>
      </trkpt>
      <trkpt lat="45.87972" lon="4.78426">
        <ele>215</ele>
        <time>2018-04-08T09:18:22Z</time>
      </trkpt>
      <trkpt lat="45.87969" lon="4.78427">
        <ele>215</ele>
        <time>2018-04-08T09:18:23Z</time>
      </trkpt>
      <trkpt lat="45.87961" lon="4.78427">
        <ele>215</ele>
        <time>2018-04-08T09:18:26Z</time>
      </trkpt>
      <trkpt lat="45.87958" lon="4.78428">
        <ele>216</ele>
        <time>2018-04-08T09:18:27Z</time>
      </trkpt>
      <trkpt lat="45.87951" lon="4.78429">
        <ele>216</ele>
        <time>2018-04-08T09:18:29Z</time>
      </trkpt>
      <trkpt lat="45.87941" lon="4.78431">
        <ele>216</ele>
        <time>2018-04-08T09:18:30Z</time>
      </trkpt>
      <trkpt lat="45.87934" lon="4.78432">
        <ele>216</ele>
        <time>2018-04-08T09:18:32Z</time>
      </trkpt>
      <trkpt lat="45.8793" lon="4.78433">
        <ele>216</ele>
        <time>2018-04-08T09:18:33Z</time>
      </trkpt>
      <trkpt lat="45.87922" lon="4.78434">
        <ele>216</ele>
        <time>2018-04-08T09:18:36Z</time>
      </trkpt>
      <trkpt lat="45.87919" lon="4.78435">
        <ele>216</ele>
        <time>2018-04-08T09:18:37Z</time>
      </trkpt>
      <trkpt lat="45.87911" lon="4.78437">
        <ele>219</ele>
        <time>2018-04-08T09:18:40Z</time>
      </trkpt>
      <trkpt lat="45.87908" lon="4.78437">
        <ele>219</ele>
        <time>2018-04-08T09:18:41Z</time>
      </trkpt>
      <trkpt lat="45.879" lon="4.7844">
        <ele>220</ele>
        <time>2018-04-08T09:18:44Z</time>
      </trkpt>
      <trkpt lat="45.87897" lon="4.78441">
        <ele>220</ele>
        <time>2018-04-08T09:18:45Z</time>
      </trkpt>
      <trkpt lat="45.87889" lon="4.78443">
        <ele>220</ele>
        <time>2018-04-08T09:18:48Z</time>
      </trkpt>
      <trkpt lat="45.87886" lon="4.78444">
        <ele>221</ele>
        <time>2018-04-08T09:18:49Z</time>
      </trkpt>
      <trkpt lat="45.87878" lon="4.78446">
        <ele>221</ele>
        <time>2018-04-08T09:18:52Z</time>
      </trkpt>
      <trkpt lat="45.87874" lon="4.78447">
        <ele>221</ele>
        <time>2018-04-08T09:18:53Z</time>
      </trkpt>
      <trkpt lat="45.87868" lon="4.78448">
        <ele>221</ele>
        <time>2018-04-08T09:18:55Z</time>
      </trkpt>
      <trkpt lat="45.87865" lon="4.78449">
        <ele>221</ele>
        <time>2018-04-08T09:18:56Z</time>
      </trkpt>
      <trkpt lat="45.87857" lon="4.78452">
        <ele>222</ele>
        <time>2018-04-08T09:18:59Z</time>
      </trkpt>
      <trkpt lat="45.87854" lon="4.78453">
        <ele>222</ele>
        <time>2018-04-08T09:19:00Z</time>
      </trkpt>
      <trkpt lat="45.87845" lon="4.78456">
        <ele>222</ele>
        <time>2018-04-08T09:19:03Z</time>
      </trkpt>
      <trkpt lat="45.87843" lon="4.78456">
        <ele>222</ele>
        <time>2018-04-08T09:19:04Z</time>
      </trkpt>
      <trkpt lat="45.87836" lon="4.78459">
        <ele>222</ele>
        <time>2018-04-08T09:19:07Z</time>
      </trkpt>
      <trkpt lat="45.87833" lon="4.7846">
        <ele>225</ele>
        <time>2018-04-08T09:19:08Z</time>
      </trkpt>
      <trkpt lat="45.87824" lon="4.78461">
        <ele>226</ele>
        <time>2018-04-08T09:19:11Z</time>
      </trkpt>
      <trkpt lat="45.87821" lon="4.78462">
        <ele>226</ele>
        <time>2018-04-08T09:19:12Z</time>
      </trkpt>
      <trkpt lat="45.87812" lon="4.78465">
        <ele>226</ele>
        <time>2018-04-08T09:19:13Z</time>
      </trkpt>
      <trkpt lat="45.87808" lon="4.78471">
        <ele>226</ele>
        <time>2018-04-08T09:19:15Z</time>
      </trkpt>
      <trkpt lat="45.87806" lon="4.78478">
        <ele>226</ele>
        <time>2018-04-08T09:19:16Z</time>
      </trkpt>
      <trkpt lat="45.87807" lon="4.7849">
        <ele>226</ele>
        <time>2018-04-08T09:19:18Z</time>
      </trkpt>
      <trkpt lat="45.87809" lon="4.78496">
        <ele>226</ele>
        <time>2018-04-08T09:19:19Z</time>
      </trkpt>
      <trkpt lat="45.87812" lon="4.78507">
        <ele>228</ele>
        <time>2018-04-08T09:19:21Z</time>
      </trkpt>
      <trkpt lat="45.87813" lon="4.7851">
        <ele>228</ele>
        <time>2018-04-08T09:19:22Z</time>
      </trkpt>
      <trkpt lat="45.87814" lon="4.78513">
        <ele>228</ele>
        <time>2018-04-08T09:19:23Z</time>
      </trkpt>
      <trkpt lat="45.87817" lon="4.78522">
        <ele>228</ele>
        <time>2018-04-08T09:19:24Z</time>
      </trkpt>
      <trkpt lat="45.87818" lon="4.78531">
        <ele>228</ele>
        <time>2018-04-08T09:19:27Z</time>
      </trkpt>
      <trkpt lat="45.8782" lon="4.78541">
        <ele>228</ele>
        <time>2018-04-08T09:19:28Z</time>
      </trkpt>
      <trkpt lat="45.87822" lon="4.78552">
        <ele>228</ele>
        <time>2018-04-08T09:19:30Z</time>
      </trkpt>
      <trkpt lat="45.87823" lon="4.78558">
        <ele>228</ele>
        <time>2018-04-08T09:19:31Z</time>
      </trkpt>
      <trkpt lat="45.87825" lon="4.78569">
        <ele>228</ele>
        <time>2018-04-08T09:19:33Z</time>
      </trkpt>
      <trkpt lat="45.87826" lon="4.78575">
        <ele>228</ele>
        <time>2018-04-08T09:19:34Z</time>
      </trkpt>
      <trkpt lat="45.87829" lon="4.78586">
        <ele>228</ele>
        <time>2018-04-08T09:19:37Z</time>
      </trkpt>
      <trkpt lat="45.87829" lon="4.78589">
        <ele>229</ele>
        <time>2018-04-08T09:19:38Z</time>
      </trkpt>
      <trkpt lat="45.8783" lon="4.78599">
        <ele>229</ele>
        <time>2018-04-08T09:19:41Z</time>
      </trkpt>
      <trkpt lat="45.8783" lon="4.78603">
        <ele>229</ele>
        <time>2018-04-08T09:19:42Z</time>
      </trkpt>
      <trkpt lat="45.8783" lon="4.7861">
        <ele>229</ele>
        <time>2018-04-08T09:19:44Z</time>
      </trkpt>
      <trkpt lat="45.87832" lon="4.78623">
        <ele>230</ele>
        <time>2018-04-08T09:19:45Z</time>
      </trkpt>
      <trkpt lat="45.87834" lon="4.78634">
        <ele>226</ele>
        <time>2018-04-08T09:19:47Z</time>
      </trkpt>
      <trkpt lat="45.87834" lon="4.7864">
        <ele>226</ele>
        <time>2018-04-08T09:19:48Z</time>
      </trkpt>
      <trkpt lat="45.87836" lon="4.78651">
        <ele>227</ele>
        <time>2018-04-08T09:19:50Z</time>
      </trkpt>
      <trkpt lat="45.87836" lon="4.78653">
        <ele>227</ele>
        <time>2018-04-08T09:19:51Z</time>
      </trkpt>
      <trkpt lat="45.87838" lon="4.78665">
        <ele>227</ele>
        <time>2018-04-08T09:19:53Z</time>
      </trkpt>
      <trkpt lat="45.87838" lon="4.78671">
        <ele>227</ele>
        <time>2018-04-08T09:19:54Z</time>
      </trkpt>
      <trkpt lat="45.87839" lon="4.78678">
        <ele>227</ele>
        <time>2018-04-08T09:19:55Z</time>
      </trkpt>
      <trkpt lat="45.8784" lon="4.78685">
        <ele>226</ele>
        <time>2018-04-08T09:19:56Z</time>
      </trkpt>
      <trkpt lat="45.87841" lon="4.78692">
        <ele>226</ele>
        <time>2018-04-08T09:19:57Z</time>
      </trkpt>
      <trkpt lat="45.87842" lon="4.78698">
        <ele>226</ele>
        <time>2018-04-08T09:19:58Z</time>
      </trkpt>
      <trkpt lat="45.87843" lon="4.78705">
        <ele>226</ele>
        <time>2018-04-08T09:19:59Z</time>
      </trkpt>
      <trkpt lat="45.87844" lon="4.78712">
        <ele>226</ele>
        <time>2018-04-08T09:20:00Z</time>
      </trkpt>
      <trkpt lat="45.87845" lon="4.78718">
        <ele>226</ele>
        <time>2018-04-08T09:20:01Z</time>
      </trkpt>
      <trkpt lat="45.87845" lon="4.78724">
        <ele>226</ele>
        <time>2018-04-08T09:20:02Z</time>
      </trkpt>
      <trkpt lat="45.87846" lon="4.78737">
        <ele>226</ele>
        <time>2018-04-08T09:20:05Z</time>
      </trkpt>
      <trkpt lat="45.87847" lon="4.78747">
        <ele>226</ele>
        <time>2018-04-08T09:20:06Z</time>
      </trkpt>
      <trkpt lat="45.87847" lon="4.78759">
        <ele>226</ele>
        <time>2018-04-08T09:20:08Z</time>
      </trkpt>
      <trkpt lat="45.87847" lon="4.78762">
        <ele>226</ele>
        <time>2018-04-08T09:20:09Z</time>
      </trkpt>
      <trkpt lat="45.87847" lon="4.7877">
        <ele>226</ele>
        <time>2018-04-08T09:20:10Z</time>
      </trkpt>
      <trkpt lat="45.87847" lon="4.78776">
        <ele>226</ele>
        <time>2018-04-08T09:20:11Z</time>
      </trkpt>
      <trkpt lat="45.87847" lon="4.78788">
        <ele>226</ele>
        <time>2018-04-08T09:20:13Z</time>
      </trkpt>
      <trkpt lat="45.87847" lon="4.78794">
        <ele>226</ele>
        <time>2018-04-08T09:20:14Z</time>
      </trkpt>
      <trkpt lat="45.87848" lon="4.78806">
        <ele>226</ele>
        <time>2018-04-08T09:20:16Z</time>
      </trkpt>
      <trkpt lat="45.87848" lon="4.78811">
        <ele>226</ele>
        <time>2018-04-08T09:20:17Z</time>
      </trkpt>
      <trkpt lat="45.87847" lon="4.78823">
        <ele>227</ele>
        <time>2018-04-08T09:20:19Z</time>
      </trkpt>
      <trkpt lat="45.87846" lon="4.78829">
        <ele>227</ele>
        <time>2018-04-08T09:20:20Z</time>
      </trkpt>
      <trkpt lat="45.87845" lon="4.78841">
        <ele>227</ele>
        <time>2018-04-08T09:20:22Z</time>
      </trkpt>
      <trkpt lat="45.87845" lon="4.78847">
        <ele>227</ele>
        <time>2018-04-08T09:20:23Z</time>
      </trkpt>
      <trkpt lat="45.87844" lon="4.78853">
        <ele>226</ele>
        <time>2018-04-08T09:20:24Z</time>
      </trkpt>
      <trkpt lat="45.87843" lon="4.78859">
        <ele>226</ele>
        <time>2018-04-08T09:20:25Z</time>
      </trkpt>
      <trkpt lat="45.87841" lon="4.78871">
        <ele>226</ele>
        <time>2018-04-08T09:20:28Z</time>
      </trkpt>
      <trkpt lat="45.87841" lon="4.78873">
        <ele>226</ele>
        <time>2018-04-08T09:20:29Z</time>
      </trkpt>
      <trkpt lat="45.87838" lon="4.78882">
        <ele>226</ele>
        <time>2018-04-08T09:20:32Z</time>
      </trkpt>
      <trkpt lat="45.87838" lon="4.78886">
        <ele>226</ele>
        <time>2018-04-08T09:20:33Z</time>
      </trkpt>
      <trkpt lat="45.87836" lon="4.78894">
        <ele>226</ele>
        <time>2018-04-08T09:20:35Z</time>
      </trkpt>
      <trkpt lat="45.87835" lon="4.78899">
        <ele>226</ele>
        <time>2018-04-08T09:20:36Z</time>
      </trkpt>
      <trkpt lat="45.87833" lon="4.78908">
        <ele>226</ele>
        <time>2018-04-08T09:20:38Z</time>
      </trkpt>
      <trkpt lat="45.87833" lon="4.78913">
        <ele>228</ele>
        <time>2018-04-08T09:20:39Z</time>
      </trkpt>
      <trkpt lat="45.87831" lon="4.78929">
        <ele>230</ele>
        <time>2018-04-08T09:20:40Z</time>
      </trkpt>
      <trkpt lat="45.87831" lon="4.78942">
        <ele>231</ele>
        <time>2018-04-08T09:20:43Z</time>
      </trkpt>
      <trkpt lat="45.87831" lon="4.78946">
        <ele>231</ele>
        <time>2018-04-08T09:20:44Z</time>
      </trkpt>
      <trkpt lat="45.87832" lon="4.78958">
        <ele>232</ele>
        <time>2018-04-08T09:20:45Z</time>
      </trkpt>
      <trkpt lat="45.87832" lon="4.78965">
        <ele>232</ele>
        <time>2018-04-08T09:20:46Z</time>
      </trkpt>
      <trkpt lat="45.87833" lon="4.78975">
        <ele>231</ele>
        <time>2018-04-08T09:20:49Z</time>
      </trkpt>
      <trkpt lat="45.87833" lon="4.78979">
        <ele>231</ele>
        <time>2018-04-08T09:20:50Z</time>
      </trkpt>
      <trkpt lat="45.87834" lon="4.78988">
        <ele>227</ele>
        <time>2018-04-08T09:20:52Z</time>
      </trkpt>
      <trkpt lat="45.87835" lon="4.79002">
        <ele>229</ele>
        <time>2018-04-08T09:20:53Z</time>
      </trkpt>
      <trkpt lat="45.87837" lon="4.79013">
        <ele>228</ele>
        <time>2018-04-08T09:20:55Z</time>
      </trkpt>
      <trkpt lat="45.87838" lon="4.79019">
        <ele>228</ele>
        <time>2018-04-08T09:20:56Z</time>
      </trkpt>
      <trkpt lat="45.87839" lon="4.7903">
        <ele>228</ele>
        <time>2018-04-08T09:20:58Z</time>
      </trkpt>
      <trkpt lat="45.8784" lon="4.79036">
        <ele>228</ele>
        <time>2018-04-08T09:20:59Z</time>
      </trkpt>
      <trkpt lat="45.87841" lon="4.79045">
        <ele>228</ele>
        <time>2018-04-08T09:21:01Z</time>
      </trkpt>
      <trkpt lat="45.87843" lon="4.79053">
        <ele>228</ele>
        <time>2018-04-08T09:21:02Z</time>
      </trkpt>
      <trkpt lat="45.87845" lon="4.79065">
        <ele>229</ele>
        <time>2018-04-08T09:21:04Z</time>
      </trkpt>
      <trkpt lat="45.87845" lon="4.7907">
        <ele>229</ele>
        <time>2018-04-08T09:21:05Z</time>
      </trkpt>
      <trkpt lat="45.87847" lon="4.79082">
        <ele>230</ele>
        <time>2018-04-08T09:21:07Z</time>
      </trkpt>
      <trkpt lat="45.87849" lon="4.79088">
        <ele>231</ele>
        <time>2018-04-08T09:21:08Z</time>
      </trkpt>
      <trkpt lat="45.87851" lon="4.79099">
        <ele>230</ele>
        <time>2018-04-08T09:21:10Z</time>
      </trkpt>
      <trkpt lat="45.87852" lon="4.79105">
        <ele>230</ele>
        <time>2018-04-08T09:21:11Z</time>
      </trkpt>
      <trkpt lat="45.87854" lon="4.79116">
        <ele>230</ele>
        <time>2018-04-08T09:21:13Z</time>
      </trkpt>
      <trkpt lat="45.87855" lon="4.79122">
        <ele>230</ele>
        <time>2018-04-08T09:21:14Z</time>
      </trkpt>
      <trkpt lat="45.87856" lon="4.79133">
        <ele>230</ele>
        <time>2018-04-08T09:21:18Z</time>
      </trkpt>
      <trkpt lat="45.87856" lon="4.79136">
        <ele>230</ele>
        <time>2018-04-08T09:21:19Z</time>
      </trkpt>
      <trkpt lat="45.87856" lon="4.79146">
        <ele>231</ele>
        <time>2018-04-08T09:21:22Z</time>
      </trkpt>
      <trkpt lat="45.87857" lon="4.79151">
        <ele>231</ele>
        <time>2018-04-08T09:21:23Z</time>
      </trkpt>
      <trkpt lat="45.87858" lon="4.7916">
        <ele>231</ele>
        <time>2018-04-08T09:21:25Z</time>
      </trkpt>
      <trkpt lat="45.87858" lon="4.79165">
        <ele>231</ele>
        <time>2018-04-08T09:21:26Z</time>
      </trkpt>
      <trkpt lat="45.87859" lon="4.79175">
        <ele>233</ele>
        <time>2018-04-08T09:21:28Z</time>
      </trkpt>
      <trkpt lat="45.8786" lon="4.7918">
        <ele>233</ele>
        <time>2018-04-08T09:21:29Z</time>
      </trkpt>
      <trkpt lat="45.87862" lon="4.79195">
        <ele>233</ele>
        <time>2018-04-08T09:21:30Z</time>
      </trkpt>
      <trkpt lat="45.87863" lon="4.79204">
        <ele>233</ele>
        <time>2018-04-08T09:21:32Z</time>
      </trkpt>
      <trkpt lat="45.87864" lon="4.79212">
        <ele>233</ele>
        <time>2018-04-08T09:21:33Z</time>
      </trkpt>
      <trkpt lat="45.87865" lon="4.79223">
        <ele>234</ele>
        <time>2018-04-08T09:21:36Z</time>
      </trkpt>
      <trkpt lat="45.87865" lon="4.79227">
        <ele>234</ele>
        <time>2018-04-08T09:21:37Z</time>
      </trkpt>
      <trkpt lat="45.87867" lon="4.79235">
        <ele>234</ele>
        <time>2018-04-08T09:21:39Z</time>
      </trkpt>
      <trkpt lat="45.87867" lon="4.7924">
        <ele>234</ele>
        <time>2018-04-08T09:21:40Z</time>
      </trkpt>
      <trkpt lat="45.87869" lon="4.79248">
        <ele>234</ele>
        <time>2018-04-08T09:21:42Z</time>
      </trkpt>
      <trkpt lat="45.87869" lon="4.79253">
        <ele>237</ele>
        <time>2018-04-08T09:21:43Z</time>
      </trkpt>
      <trkpt lat="45.8787" lon="4.79261">
        <ele>237</ele>
        <time>2018-04-08T09:21:45Z</time>
      </trkpt>
      <trkpt lat="45.87871" lon="4.79266">
        <ele>237</ele>
        <time>2018-04-08T09:21:46Z</time>
      </trkpt>
      <trkpt lat="45.87872" lon="4.79274">
        <ele>237</ele>
        <time>2018-04-08T09:21:48Z</time>
      </trkpt>
      <trkpt lat="45.87873" lon="4.79279">
        <ele>237</ele>
        <time>2018-04-08T09:21:49Z</time>
      </trkpt>
      <trkpt lat="45.87874" lon="4.79287">
        <ele>237</ele>
        <time>2018-04-08T09:21:51Z</time>
      </trkpt>
      <trkpt lat="45.87874" lon="4.79292">
        <ele>237</ele>
        <time>2018-04-08T09:21:52Z</time>
      </trkpt>
      <trkpt lat="45.87875" lon="4.79301">
        <ele>237</ele>
        <time>2018-04-08T09:21:54Z</time>
      </trkpt>
      <trkpt lat="45.87876" lon="4.79305">
        <ele>237</ele>
        <time>2018-04-08T09:21:55Z</time>
      </trkpt>
      <trkpt lat="45.87877" lon="4.79314">
        <ele>237</ele>
        <time>2018-04-08T09:21:57Z</time>
      </trkpt>
      <trkpt lat="45.87878" lon="4.79319">
        <ele>237</ele>
        <time>2018-04-08T09:21:58Z</time>
      </trkpt>
      <trkpt lat="45.87879" lon="4.79329">
        <ele>237</ele>
        <time>2018-04-08T09:22:01Z</time>
      </trkpt>
      <trkpt lat="45.8788" lon="4.79332">
        <ele>237</ele>
        <time>2018-04-08T09:22:02Z</time>
      </trkpt>
      <trkpt lat="45.87881" lon="4.79342">
        <ele>241</ele>
        <time>2018-04-08T09:22:05Z</time>
      </trkpt>
      <trkpt lat="45.87882" lon="4.79345">
        <ele>241</ele>
        <time>2018-04-08T09:22:06Z</time>
      </trkpt>
      <trkpt lat="45.87884" lon="4.79357">
        <ele>241</ele>
        <time>2018-04-08T09:22:09Z</time>
      </trkpt>
      <trkpt lat="45.87885" lon="4.79361">
        <ele>241</ele>
        <time>2018-04-08T09:22:10Z</time>
      </trkpt>
      <trkpt lat="45.87887" lon="4.79372">
        <ele>241</ele>
        <time>2018-04-08T09:22:13Z</time>
      </trkpt>
      <trkpt lat="45.87887" lon="4.79377">
        <ele>241</ele>
        <time>2018-04-08T09:22:14Z</time>
      </trkpt>
      <trkpt lat="45.87889" lon="4.79386">
        <ele>241</ele>
        <time>2018-04-08T09:22:16Z</time>
      </trkpt>
      <trkpt lat="45.8789" lon="4.79391">
        <ele>241</ele>
        <time>2018-04-08T09:22:17Z</time>
      </trkpt>
      <trkpt lat="45.87891" lon="4.79401">
        <ele>241</ele>
        <time>2018-04-08T09:22:19Z</time>
      </trkpt>
      <trkpt lat="45.87892" lon="4.79406">
        <ele>241</ele>
        <time>2018-04-08T09:22:20Z</time>
      </trkpt>
      <trkpt lat="45.87894" lon="4.79416">
        <ele>241</ele>
        <time>2018-04-08T09:22:22Z</time>
      </trkpt>
      <trkpt lat="45.87895" lon="4.7942">
        <ele>244</ele>
        <time>2018-04-08T09:22:23Z</time>
      </trkpt>
      <trkpt lat="45.87897" lon="4.79429">
        <ele>244</ele>
        <time>2018-04-08T09:22:25Z</time>
      </trkpt>
      <trkpt lat="45.87898" lon="4.79434">
        <ele>245</ele>
        <time>2018-04-08T09:22:26Z</time>
      </trkpt>
      <trkpt lat="45.879" lon="4.79443">
        <ele>245</ele>
        <time>2018-04-08T09:22:28Z</time>
      </trkpt>
      <trkpt lat="45.87901" lon="4.79447">
        <ele>245</ele>
        <time>2018-04-08T09:22:29Z</time>
      </trkpt>
      <trkpt lat="45.87903" lon="4.79457">
        <ele>246</ele>
        <time>2018-04-08T09:22:31Z</time>
      </trkpt>
      <trkpt lat="45.87906" lon="4.7947">
        <ele>246</ele>
        <time>2018-04-08T09:22:32Z</time>
      </trkpt>
      <trkpt lat="45.87909" lon="4.79479">
        <ele>246</ele>
        <time>2018-04-08T09:22:34Z</time>
      </trkpt>
      <trkpt lat="45.8791" lon="4.79485">
        <ele>246</ele>
        <time>2018-04-08T09:22:35Z</time>
      </trkpt>
      <trkpt lat="45.87913" lon="4.79495">
        <ele>246</ele>
        <time>2018-04-08T09:22:37Z</time>
      </trkpt>
      <trkpt lat="45.87915" lon="4.795">
        <ele>245</ele>
        <time>2018-04-08T09:22:38Z</time>
      </trkpt>
      <trkpt lat="45.87919" lon="4.79511">
        <ele>243</ele>
        <time>2018-04-08T09:22:41Z</time>
      </trkpt>
      <trkpt lat="45.8792" lon="4.79516">
        <ele>242</ele>
        <time>2018-04-08T09:22:42Z</time>
      </trkpt>
      <trkpt lat="45.87922" lon="4.79522">
        <ele>242</ele>
        <time>2018-04-08T09:22:44Z</time>
      </trkpt>
      <trkpt lat="45.87925" lon="4.79535">
        <ele>241</ele>
        <time>2018-04-08T09:22:45Z</time>
      </trkpt>
      <trkpt lat="45.87927" lon="4.79547">
        <ele>241</ele>
        <time>2018-04-08T09:22:47Z</time>
      </trkpt>
      <trkpt lat="45.87929" lon="4.79553">
        <ele>241</ele>
        <time>2018-04-08T09:22:48Z</time>
      </trkpt>
      <trkpt lat="45.87932" lon="4.79563">
        <ele>241</ele>
        <time>2018-04-08T09:22:49Z</time>
      </trkpt>
      <trkpt lat="45.87936" lon="4.7957">
        <ele>242</ele>
        <time>2018-04-08T09:22:50Z</time>
      </trkpt>
      <trkpt lat="45.87938" lon="4.79577">
        <ele>241</ele>
        <time>2018-04-08T09:22:51Z</time>
      </trkpt>
      <trkpt lat="45.87941" lon="4.79584">
        <ele>242</ele>
        <time>2018-04-08T09:22:52Z</time>
      </trkpt>
      <trkpt lat="45.87943" lon="4.79592">
        <ele>241</ele>
        <time>2018-04-08T09:22:53Z</time>
      </trkpt>
      <trkpt lat="45.87946" lon="4.79599">
        <ele>241</ele>
        <time>2018-04-08T09:22:54Z</time>
      </trkpt>
      <trkpt lat="45.87949" lon="4.79607">
        <ele>241</ele>
        <time>2018-04-08T09:22:55Z</time>
      </trkpt>
      <trkpt lat="45.87952" lon="4.79614">
        <ele>240</ele>
        <time>2018-04-08T09:22:56Z</time>
      </trkpt>
      <trkpt lat="45.87957" lon="4.7962">
        <ele>240</ele>
        <time>2018-04-08T09:22:57Z</time>
      </trkpt>
      <trkpt lat="45.87961" lon="4.79626">
        <ele>240</ele>
        <time>2018-04-08T09:22:58Z</time>
      </trkpt>
      <trkpt lat="45.87965" lon="4.79634">
        <ele>239</ele>
        <time>2018-04-08T09:22:59Z</time>
      </trkpt>
      <trkpt lat="45.87969" lon="4.79642">
        <ele>239</ele>
        <time>2018-04-08T09:23:00Z</time>
      </trkpt>
      <trkpt lat="45.87972" lon="4.79652">
        <ele>239</ele>
        <time>2018-04-08T09:23:01Z</time>
      </trkpt>
      <trkpt lat="45.87974" lon="4.79659">
        <ele>238</ele>
        <time>2018-04-08T09:23:02Z</time>
      </trkpt>
      <trkpt lat="45.87977" lon="4.79666">
        <ele>238</ele>
        <time>2018-04-08T09:23:03Z</time>
      </trkpt>
      <trkpt lat="45.87979" lon="4.79673">
        <ele>240</ele>
        <time>2018-04-08T09:23:04Z</time>
      </trkpt>
      <trkpt lat="45.87984" lon="4.79683">
        <ele>240</ele>
        <time>2018-04-08T09:23:05Z</time>
      </trkpt>
      <trkpt lat="45.87986" lon="4.79685">
        <ele>240</ele>
        <time>2018-04-08T09:23:06Z</time>
      </trkpt>
      <trkpt lat="45.8799" lon="4.79694">
        <ele>241</ele>
        <time>2018-04-08T09:23:07Z</time>
      </trkpt>
      <trkpt lat="45.87992" lon="4.79698">
        <ele>241</ele>
        <time>2018-04-08T09:23:08Z</time>
      </trkpt>
      <trkpt lat="45.87995" lon="4.79704">
        <ele>241</ele>
        <time>2018-04-08T09:23:09Z</time>
      </trkpt>
      <trkpt lat="45.87997" lon="4.7971">
        <ele>242</ele>
        <time>2018-04-08T09:23:10Z</time>
      </trkpt>
      <trkpt lat="45.88002" lon="4.7972">
        <ele>237</ele>
        <time>2018-04-08T09:23:13Z</time>
      </trkpt>
      <trkpt lat="45.88004" lon="4.79723">
        <ele>237</ele>
        <time>2018-04-08T09:23:14Z</time>
      </trkpt>
      <trkpt lat="45.88007" lon="4.79732">
        <ele>238</ele>
        <time>2018-04-08T09:23:15Z</time>
      </trkpt>
      <trkpt lat="45.88008" lon="4.79735">
        <ele>238</ele>
        <time>2018-04-08T09:23:16Z</time>
      </trkpt>
      <trkpt lat="45.88012" lon="4.79743">
        <ele>239</ele>
        <time>2018-04-08T09:23:19Z</time>
      </trkpt>
      <trkpt lat="45.88013" lon="4.79746">
        <ele>239</ele>
        <time>2018-04-08T09:23:20Z</time>
      </trkpt>
      <trkpt lat="45.88017" lon="4.79757">
        <ele>242</ele>
        <time>2018-04-08T09:23:23Z</time>
      </trkpt>
      <trkpt lat="45.88018" lon="4.79762">
        <ele>242</ele>
        <time>2018-04-08T09:23:24Z</time>
      </trkpt>
      <trkpt lat="45.8802" lon="4.79773">
        <ele>242</ele>
        <time>2018-04-08T09:23:27Z</time>
      </trkpt>
      <trkpt lat="45.8802" lon="4.79777">
        <ele>242</ele>
        <time>2018-04-08T09:23:28Z</time>
      </trkpt>
      <trkpt lat="45.88022" lon="4.79786">
        <ele>242</ele>
        <time>2018-04-08T09:23:30Z</time>
      </trkpt>
      <trkpt lat="45.88023" lon="4.7979">
        <ele>242</ele>
        <time>2018-04-08T09:23:31Z</time>
      </trkpt>
      <trkpt lat="45.88024" lon="4.79799">
        <ele>243</ele>
        <time>2018-04-08T09:23:33Z</time>
      </trkpt>
      <trkpt lat="45.88025" lon="4.79803">
        <ele>243</ele>
        <time>2018-04-08T09:23:34Z</time>
      </trkpt>
      <trkpt lat="45.88027" lon="4.79815">
        <ele>243</ele>
        <time>2018-04-08T09:23:37Z</time>
      </trkpt>
      <trkpt lat="45.88028" lon="4.79819">
        <ele>243</ele>
        <time>2018-04-08T09:23:38Z</time>
      </trkpt>
      <trkpt lat="45.88028" lon="4.7983">
        <ele>244</ele>
        <time>2018-04-08T09:23:41Z</time>
      </trkpt>
      <trkpt lat="45.88028" lon="4.79834">
        <ele>247</ele>
        <time>2018-04-08T09:23:42Z</time>
      </trkpt>
      <trkpt lat="45.88027" lon="4.79845">
        <ele>247</ele>
        <time>2018-04-08T09:23:45Z</time>
      </trkpt>
      <trkpt lat="45.88027" lon="4.79849">
        <ele>247</ele>
        <time>2018-04-08T09:23:46Z</time>
      </trkpt>
      <trkpt lat="45.88026" lon="4.7986">
        <ele>247</ele>
        <time>2018-04-08T09:23:49Z</time>
      </trkpt>
      <trkpt lat="45.88026" lon="4.79864">
        <ele>247</ele>
        <time>2018-04-08T09:23:50Z</time>
      </trkpt>
      <trkpt lat="45.88024" lon="4.79874">
        <ele>247</ele>
        <time>2018-04-08T09:23:53Z</time>
      </trkpt>
      <trkpt lat="45.88023" lon="4.79877">
        <ele>247</ele>
        <time>2018-04-08T09:23:54Z</time>
      </trkpt>
      <trkpt lat="45.88021" lon="4.79887">
        <ele>248</ele>
        <time>2018-04-08T09:23:57Z</time>
      </trkpt>
      <trkpt lat="45.8802" lon="4.7989">
        <ele>248</ele>
        <time>2018-04-08T09:23:58Z</time>
      </trkpt>
      <trkpt lat="45.88017" lon="4.79901">
        <ele>248</ele>
        <time>2018-04-08T09:24:01Z</time>
      </trkpt>
      <trkpt lat="45.88017" lon="4.79904">
        <ele>249</ele>
        <time>2018-04-08T09:24:02Z</time>
      </trkpt>
      <trkpt lat="45.88014" lon="4.79915">
        <ele>249</ele>
        <time>2018-04-08T09:24:05Z</time>
      </trkpt>
      <trkpt lat="45.88014" lon="4.79918">
        <ele>250</ele>
        <time>2018-04-08T09:24:06Z</time>
      </trkpt>
      <trkpt lat="45.88011" lon="4.79929">
        <ele>250</ele>
        <time>2018-04-08T09:24:09Z</time>
      </trkpt>
      <trkpt lat="45.8801" lon="4.79932">
        <ele>250</ele>
        <time>2018-04-08T09:24:10Z</time>
      </trkpt>
      <trkpt lat="45.88007" lon="4.79943">
        <ele>250</ele>
        <time>2018-04-08T09:24:13Z</time>
      </trkpt>
      <trkpt lat="45.88006" lon="4.79947">
        <ele>250</ele>
        <time>2018-04-08T09:24:14Z</time>
      </trkpt>
      <trkpt lat="45.88004" lon="4.79958">
        <ele>250</ele>
        <time>2018-04-08T09:24:17Z</time>
      </trkpt>
      <trkpt lat="45.88003" lon="4.79962">
        <ele>250</ele>
        <time>2018-04-08T09:24:18Z</time>
      </trkpt>
      <trkpt lat="45.88001" lon="4.79973">
        <ele>250</ele>
        <time>2018-04-08T09:24:21Z</time>
      </trkpt>
      <trkpt lat="45.88" lon="4.79977">
        <ele>254</ele>
        <time>2018-04-08T09:24:22Z</time>
      </trkpt>
      <trkpt lat="45.87996" lon="4.79987">
        <ele>253</ele>
        <time>2018-04-08T09:24:25Z</time>
      </trkpt>
      <trkpt lat="45.87995" lon="4.7999">
        <ele>253</ele>
        <time>2018-04-08T09:24:26Z</time>
      </trkpt>
      <trkpt lat="45.87992" lon="4.8">
        <ele>252</ele>
        <time>2018-04-08T09:24:29Z</time>
      </trkpt>
      <trkpt lat="45.87991" lon="4.80003">
        <ele>253</ele>
        <time>2018-04-08T09:24:30Z</time>
      </trkpt>
      <trkpt lat="45.87986" lon="4.80013">
        <ele>254</ele>
        <time>2018-04-08T09:24:33Z</time>
      </trkpt>
      <trkpt lat="45.87985" lon="4.80017">
        <ele>255</ele>
        <time>2018-04-08T09:24:34Z</time>
      </trkpt>
      <trkpt lat="45.87979" lon="4.80026">
        <ele>255</ele>
        <time>2018-04-08T09:24:37Z</time>
      </trkpt>
      <trkpt lat="45.87977" lon="4.80029">
        <ele>256</ele>
        <time>2018-04-08T09:24:38Z</time>
      </trkpt>
      <trkpt lat="45.87972" lon="4.80038">
        <ele>256</ele>
        <time>2018-04-08T09:24:41Z</time>
      </trkpt>
      <trkpt lat="45.8797" lon="4.8004">
        <ele>256</ele>
        <time>2018-04-08T09:24:42Z</time>
      </trkpt>
      <trkpt lat="45.87964" lon="4.8005">
        <ele>257</ele>
        <time>2018-04-08T09:24:45Z</time>
      </trkpt>
      <trkpt lat="45.87962" lon="4.80053">
        <ele>257</ele>
        <time>2018-04-08T09:24:46Z</time>
      </trkpt>
      <trkpt lat="45.87957" lon="4.80059">
        <ele>257</ele>
        <time>2018-04-08T09:24:48Z</time>
      </trkpt>
      <trkpt lat="45.87955" lon="4.80062">
        <ele>257</ele>
        <time>2018-04-08T09:24:49Z</time>
      </trkpt>
      <trkpt lat="45.87948" lon="4.80069">
        <ele>258</ele>
        <time>2018-04-08T09:24:52Z</time>
      </trkpt>
      <trkpt lat="45.87945" lon="4.80072">
        <ele>258</ele>
        <time>2018-04-08T09:24:53Z</time>
      </trkpt>
      <trkpt lat="45.87938" lon="4.80077">
        <ele>259</ele>
        <time>2018-04-08T09:24:56Z</time>
      </trkpt>
      <trkpt lat="45.87936" lon="4.80078">
        <ele>259</ele>
        <time>2018-04-08T09:24:57Z</time>
      </trkpt>
      <trkpt lat="45.87928" lon="4.80082">
        <ele>260</ele>
        <time>2018-04-08T09:25:00Z</time>
      </trkpt>
      <trkpt lat="45.87925" lon="4.80083">
        <ele>260</ele>
        <time>2018-04-08T09:25:01Z</time>
      </trkpt>
      <trkpt lat="45.87917" lon="4.80088">
        <ele>261</ele>
        <time>2018-04-08T09:25:04Z</time>
      </trkpt>
      <trkpt lat="45.87915" lon="4.80089">
        <ele>262</ele>
        <time>2018-04-08T09:25:05Z</time>
      </trkpt>
      <trkpt lat="45.87908" lon="4.80095">
        <ele>262</ele>
        <time>2018-04-08T09:25:08Z</time>
      </trkpt>
      <trkpt lat="45.87905" lon="4.80098">
        <ele>262</ele>
        <time>2018-04-08T09:25:09Z</time>
      </trkpt>
      <trkpt lat="45.87901" lon="4.80104">
        <ele>262</ele>
        <time>2018-04-08T09:25:11Z</time>
      </trkpt>
      <trkpt lat="45.87899" lon="4.80107">
        <ele>262</ele>
        <time>2018-04-08T09:25:12Z</time>
      </trkpt>
      <trkpt lat="45.87898" lon="4.80111">
        <ele>262</ele>
        <time>2018-04-08T09:25:13Z</time>
      </trkpt>
      <trkpt lat="45.87893" lon="4.80124">
        <ele>262</ele>
        <time>2018-04-08T09:25:14Z</time>
      </trkpt>
      <trkpt lat="45.87892" lon="4.8013">
        <ele>262</ele>
        <time>2018-04-08T09:25:15Z</time>
      </trkpt>
      <trkpt lat="45.87891" lon="4.80139">
        <ele>262</ele>
        <time>2018-04-08T09:25:16Z</time>
      </trkpt>
      <trkpt lat="45.8789" lon="4.80146">
        <ele>261</ele>
        <time>2018-04-08T09:25:17Z</time>
      </trkpt>
      <trkpt lat="45.87891" lon="4.80154">
        <ele>261</ele>
        <time>2018-04-08T09:25:18Z</time>
      </trkpt>
      <trkpt lat="45.8789" lon="4.80162">
        <ele>261</ele>
        <time>2018-04-08T09:25:19Z</time>
      </trkpt>
      <trkpt lat="45.8789" lon="4.8017">
        <ele>258</ele>
        <time>2018-04-08T09:25:20Z</time>
      </trkpt>
      <trkpt lat="45.8789" lon="4.80182">
        <ele>257</ele>
        <time>2018-04-08T09:25:21Z</time>
      </trkpt>
      <trkpt lat="45.87889" lon="4.80192">
        <ele>257</ele>
        <time>2018-04-08T09:25:22Z</time>
      </trkpt>
      <trkpt lat="45.87887" lon="4.80203">
        <ele>257</ele>
        <time>2018-04-08T09:25:23Z</time>
      </trkpt>
      <trkpt lat="45.87886" lon="4.80213">
        <ele>256</ele>
        <time>2018-04-08T09:25:24Z</time>
      </trkpt>
      <trkpt lat="45.87885" lon="4.80223">
        <ele>256</ele>
        <time>2018-04-08T09:25:25Z</time>
      </trkpt>
      <trkpt lat="45.87884" lon="4.80235">
        <ele>255</ele>
        <time>2018-04-08T09:25:26Z</time>
      </trkpt>
      <trkpt lat="45.87883" lon="4.80246">
        <ele>255</ele>
        <time>2018-04-08T09:25:27Z</time>
      </trkpt>
      <trkpt lat="45.87883" lon="4.80255">
        <ele>253</ele>
        <time>2018-04-08T09:25:28Z</time>
      </trkpt>
      <trkpt lat="45.87882" lon="4.80265">
        <ele>252</ele>
        <time>2018-04-08T09:25:29Z</time>
      </trkpt>
      <trkpt lat="45.87882" lon="4.80273">
        <ele>252</ele>
        <time>2018-04-08T09:25:30Z</time>
      </trkpt>
      <trkpt lat="45.87881" lon="4.80281">
        <ele>252</ele>
        <time>2018-04-08T09:25:31Z</time>
      </trkpt>
      <trkpt lat="45.8788" lon="4.80287">
        <ele>252</ele>
        <time>2018-04-08T09:25:32Z</time>
      </trkpt>
      <trkpt lat="45.87879" lon="4.80298">
        <ele>252</ele>
        <time>2018-04-08T09:25:34Z</time>
      </trkpt>
      <trkpt lat="45.87879" lon="4.80304">
        <ele>252</ele>
        <time>2018-04-08T09:25:35Z</time>
      </trkpt>
      <trkpt lat="45.87879" lon="4.80316">
        <ele>252</ele>
        <time>2018-04-08T09:25:37Z</time>
      </trkpt>
      <trkpt lat="45.87879" lon="4.80323">
        <ele>252</ele>
        <time>2018-04-08T09:25:38Z</time>
      </trkpt>
      <trkpt lat="45.87878" lon="4.80329">
        <ele>252</ele>
        <time>2018-04-08T09:25:39Z</time>
      </trkpt>
      <trkpt lat="45.87877" lon="4.80336">
        <ele>250</ele>
        <time>2018-04-08T09:25:40Z</time>
      </trkpt>
      <trkpt lat="45.87877" lon="4.80343">
        <ele>250</ele>
        <time>2018-04-08T09:25:41Z</time>
      </trkpt>
      <trkpt lat="45.87876" lon="4.8035">
        <ele>250</ele>
        <time>2018-04-08T09:25:42Z</time>
      </trkpt>
      <trkpt lat="45.87876" lon="4.80359">
        <ele>249</ele>
        <time>2018-04-08T09:25:43Z</time>
      </trkpt>
      <trkpt lat="45.87875" lon="4.80367">
        <ele>249</ele>
        <time>2018-04-08T09:25:44Z</time>
      </trkpt>
      <trkpt lat="45.87874" lon="4.80376">
        <ele>249</ele>
        <time>2018-04-08T09:25:45Z</time>
      </trkpt>
      <trkpt lat="45.87873" lon="4.80384">
        <ele>249</ele>
        <time>2018-04-08T09:25:46Z</time>
      </trkpt>
      <trkpt lat="45.87872" lon="4.80393">
        <ele>249</ele>
        <time>2018-04-08T09:25:47Z</time>
      </trkpt>
      <trkpt lat="45.87871" lon="4.80403">
        <ele>249</ele>
        <time>2018-04-08T09:25:48Z</time>
      </trkpt>
      <trkpt lat="45.8787" lon="4.8041">
        <ele>249</ele>
        <time>2018-04-08T09:25:49Z</time>
      </trkpt>
      <trkpt lat="45.87871" lon="4.80419">
        <ele>248</ele>
        <time>2018-04-08T09:25:50Z</time>
      </trkpt>
      <trkpt lat="45.8787" lon="4.8043">
        <ele>248</ele>
        <time>2018-04-08T09:25:54Z</time>
      </trkpt>
      <trkpt lat="45.87869" lon="4.80434">
        <ele>248</ele>
        <time>2018-04-08T09:25:55Z</time>
      </trkpt>
      <trkpt lat="45.87869" lon="4.80446">
        <ele>248</ele>
        <time>2018-04-08T09:25:58Z</time>
      </trkpt>
      <trkpt lat="45.87869" lon="4.8045">
        <ele>248</ele>
        <time>2018-04-08T09:25:59Z</time>
      </trkpt>
      <trkpt lat="45.87868" lon="4.80459">
        <ele>248</ele>
        <time>2018-04-08T09:26:01Z</time>
      </trkpt>
      <trkpt lat="45.87868" lon="4.80463">
        <ele>248</ele>
        <time>2018-04-08T09:26:02Z</time>
      </trkpt>
      <trkpt lat="45.87867" lon="4.80478">
        <ele>249</ele>
        <time>2018-04-08T09:26:03Z</time>
      </trkpt>
      <trkpt lat="45.87865" lon="4.80488">
        <ele>249</ele>
        <time>2018-04-08T09:26:05Z</time>
      </trkpt>
      <trkpt lat="45.87865" lon="4.8049">
        <ele>249</ele>
        <time>2018-04-08T09:26:06Z</time>
      </trkpt>
      <trkpt lat="45.87864" lon="4.80497">
        <ele>249</ele>
        <time>2018-04-08T09:26:08Z</time>
      </trkpt>
      <trkpt lat="45.87864" lon="4.80507">
        <ele>251</ele>
        <time>2018-04-08T09:26:09Z</time>
      </trkpt>
      <trkpt lat="45.87864" lon="4.80519">
        <ele>251</ele>
        <time>2018-04-08T09:26:12Z</time>
      </trkpt>
      <trkpt lat="45.87864" lon="4.80522">
        <ele>251</ele>
        <time>2018-04-08T09:26:13Z</time>
      </trkpt>
      <trkpt lat="45.87863" lon="4.80532">
        <ele>251</ele>
        <time>2018-04-08T09:26:16Z</time>
      </trkpt>
      <trkpt lat="45.87862" lon="4.80536">
        <ele>251</ele>
        <time>2018-04-08T09:26:17Z</time>
      </trkpt>
      <trkpt lat="45.87861" lon="4.80548">
        <ele>251</ele>
        <time>2018-04-08T09:26:20Z</time>
      </trkpt>
      <trkpt lat="45.8786" lon="4.80552">
        <ele>251</ele>
        <time>2018-04-08T09:26:21Z</time>
      </trkpt>
      <trkpt lat="45.87859" lon="4.80562">
        <ele>252</ele>
        <time>2018-04-08T09:26:23Z</time>
      </trkpt>
      <trkpt lat="45.87858" lon="4.80575">
        <ele>252</ele>
        <time>2018-04-08T09:26:24Z</time>
      </trkpt>
      <trkpt lat="45.87857" lon="4.80585">
        <ele>254</ele>
        <time>2018-04-08T09:26:27Z</time>
      </trkpt>
      <trkpt lat="45.87857" lon="4.80588">
        <ele>254</ele>
        <time>2018-04-08T09:26:28Z</time>
      </trkpt>
      <trkpt lat="45.87857" lon="4.80597">
        <ele>254</ele>
        <time>2018-04-08T09:26:30Z</time>
      </trkpt>
      <trkpt lat="45.87857" lon="4.80601">
        <ele>254</ele>
        <time>2018-04-08T09:26:31Z</time>
      </trkpt>
      <trkpt lat="45.87857" lon="4.8061">
        <ele>255</ele>
        <time>2018-04-08T09:26:33Z</time>
      </trkpt>
      <trkpt lat="45.87856" lon="4.80614">
        <ele>255</ele>
        <time>2018-04-08T09:26:34Z</time>
      </trkpt>
      <trkpt lat="45.87856" lon="4.80627">
        <ele>255</ele>
        <time>2018-04-08T09:26:37Z</time>
      </trkpt>
      <trkpt lat="45.87856" lon="4.80631">
        <ele>255</ele>
        <time>2018-04-08T09:26:38Z</time>
      </trkpt>
      <trkpt lat="45.87856" lon="4.80641">
        <ele>256</ele>
        <time>2018-04-08T09:26:40Z</time>
      </trkpt>
      <trkpt lat="45.87856" lon="4.80646">
        <ele>256</ele>
        <time>2018-04-08T09:26:41Z</time>
      </trkpt>
      <trkpt lat="45.87856" lon="4.80655">
        <ele>256</ele>
        <time>2018-04-08T09:26:43Z</time>
      </trkpt>
      <trkpt lat="45.87856" lon="4.8066">
        <ele>256</ele>
        <time>2018-04-08T09:26:44Z</time>
      </trkpt>
      <trkpt lat="45.87857" lon="4.80672">
        <ele>257</ele>
        <time>2018-04-08T09:26:47Z</time>
      </trkpt>
      <trkpt lat="45.87857" lon="4.80676">
        <ele>257</ele>
        <time>2018-04-08T09:26:48Z</time>
      </trkpt>
      <trkpt lat="45.87858" lon="4.80688">
        <ele>257</ele>
        <time>2018-04-08T09:26:51Z</time>
      </trkpt>
      <trkpt lat="45.87859" lon="4.80692">
        <ele>257</ele>
        <time>2018-04-08T09:26:52Z</time>
      </trkpt>
      <trkpt lat="45.87859" lon="4.807">
        <ele>257</ele>
        <time>2018-04-08T09:26:54Z</time>
      </trkpt>
      <trkpt lat="45.87859" lon="4.80705">
        <ele>257</ele>
        <time>2018-04-08T09:26:55Z</time>
      </trkpt>
      <trkpt lat="45.87859" lon="4.80714">
        <ele>257</ele>
        <time>2018-04-08T09:26:57Z</time>
      </trkpt>
      <trkpt lat="45.87858" lon="4.80718">
        <ele>257</ele>
        <time>2018-04-08T09:26:58Z</time>
      </trkpt>
      <trkpt lat="45.87858" lon="4.80722">
        <ele>257</ele>
        <time>2018-04-08T09:26:59Z</time>
      </trkpt>
      <trkpt lat="45.87856" lon="4.80734">
        <ele>257</ele>
        <time>2018-04-08T09:27:00Z</time>
      </trkpt>
      <trkpt lat="45.87853" lon="4.80745">
        <ele>257</ele>
        <time>2018-04-08T09:27:04Z</time>
      </trkpt>
      <trkpt lat="45.87852" lon="4.80748">
        <ele>257</ele>
        <time>2018-04-08T09:27:05Z</time>
      </trkpt>
      <trkpt lat="45.87849" lon="4.80756">
        <ele>256</ele>
        <time>2018-04-08T09:27:07Z</time>
      </trkpt>
      <trkpt lat="45.87848" lon="4.8076">
        <ele>256</ele>
        <time>2018-04-08T09:27:08Z</time>
      </trkpt>
      <trkpt lat="45.87844" lon="4.80766">
        <ele>256</ele>
        <time>2018-04-08T09:27:10Z</time>
      </trkpt>
      <trkpt lat="45.87837" lon="4.80776">
        <ele>256</ele>
        <time>2018-04-08T09:27:11Z</time>
      </trkpt>
      <trkpt lat="45.87831" lon="4.80785">
        <ele>257</ele>
        <time>2018-04-08T09:27:13Z</time>
      </trkpt>
      <trkpt lat="45.87828" lon="4.8079">
        <ele>257</ele>
        <time>2018-04-08T09:27:14Z</time>
      </trkpt>
      <trkpt lat="45.87825" lon="4.80794">
        <ele>257</ele>
        <time>2018-04-08T09:27:15Z</time>
      </trkpt>
      <trkpt lat="45.87822" lon="4.80801">
        <ele>256</ele>
        <time>2018-04-08T09:27:16Z</time>
      </trkpt>
      <trkpt lat="45.87816" lon="4.8081">
        <ele>256</ele>
        <time>2018-04-08T09:27:18Z</time>
      </trkpt>
      <trkpt lat="45.87813" lon="4.80814">
        <ele>256</ele>
        <time>2018-04-08T09:27:19Z</time>
      </trkpt>
      <trkpt lat="45.8781" lon="4.80822">
        <ele>256</ele>
        <time>2018-04-08T09:27:20Z</time>
      </trkpt>
      <trkpt lat="45.87807" lon="4.80827">
        <ele>256</ele>
        <time>2018-04-08T09:27:21Z</time>
      </trkpt>
      <trkpt lat="45.87803" lon="4.80832">
        <ele>256</ele>
        <time>2018-04-08T09:27:22Z</time>
      </trkpt>
      <trkpt lat="45.878" lon="4.80838">
        <ele>254</ele>
        <time>2018-04-08T09:27:23Z</time>
      </trkpt>
      <trkpt lat="45.87797" lon="4.80845">
        <ele>254</ele>
        <time>2018-04-08T09:27:24Z</time>
      </trkpt>
      <trkpt lat="45.87792" lon="4.80851">
        <ele>253</ele>
        <time>2018-04-08T09:27:25Z</time>
      </trkpt>
      <trkpt lat="45.87787" lon="4.80857">
        <ele>253</ele>
        <time>2018-04-08T09:27:26Z</time>
      </trkpt>
      <trkpt lat="45.87783" lon="4.80862">
        <ele>253</ele>
        <time>2018-04-08T09:27:27Z</time>
      </trkpt>
      <trkpt lat="45.87779" lon="4.80869">
        <ele>253</ele>
        <time>2018-04-08T09:27:28Z</time>
      </trkpt>
      <trkpt lat="45.87775" lon="4.80876">
        <ele>253</ele>
        <time>2018-04-08T09:27:29Z</time>
      </trkpt>
      <trkpt lat="45.8777" lon="4.80886">
        <ele>252</ele>
        <time>2018-04-08T09:27:30Z</time>
      </trkpt>
      <trkpt lat="45.87766" lon="4.80894">
        <ele>252</ele>
        <time>2018-04-08T09:27:31Z</time>
      </trkpt>
      <trkpt lat="45.87762" lon="4.80902">
        <ele>252</ele>
        <time>2018-04-08T09:27:32Z</time>
      </trkpt>
      <trkpt lat="45.87758" lon="4.8091">
        <ele>251</ele>
        <time>2018-04-08T09:27:33Z</time>
      </trkpt>
      <trkpt lat="45.87754" lon="4.80919">
        <ele>250</ele>
        <time>2018-04-08T09:27:34Z</time>
      </trkpt>
      <trkpt lat="45.87753" lon="4.8093">
        <ele>249</ele>
        <time>2018-04-08T09:27:35Z</time>
      </trkpt>
      <trkpt lat="45.8775" lon="4.8094">
        <ele>252</ele>
        <time>2018-04-08T09:27:36Z</time>
      </trkpt>
      <trkpt lat="45.87747" lon="4.80951">
        <ele>252</ele>
        <time>2018-04-08T09:27:37Z</time>
      </trkpt>
      <trkpt lat="45.87746" lon="4.80961">
        <ele>252</ele>
        <time>2018-04-08T09:27:38Z</time>
      </trkpt>
      <trkpt lat="45.87745" lon="4.8097">
        <ele>251</ele>
        <time>2018-04-08T09:27:39Z</time>
      </trkpt>
      <trkpt lat="45.87744" lon="4.8098">
        <ele>251</ele>
        <time>2018-04-08T09:27:40Z</time>
      </trkpt>
      <trkpt lat="45.87744" lon="4.8099">
        <ele>250</ele>
        <time>2018-04-08T09:27:41Z</time>
      </trkpt>
      <trkpt lat="45.87744" lon="4.81">
        <ele>250</ele>
        <time>2018-04-08T09:27:42Z</time>
      </trkpt>
      <trkpt lat="45.87745" lon="4.81009">
        <ele>249</ele>
        <time>2018-04-08T09:27:43Z</time>
      </trkpt>
      <trkpt lat="45.87746" lon="4.81018">
        <ele>249</ele>
        <time>2018-04-08T09:27:44Z</time>
      </trkpt>
      <trkpt lat="45.87746" lon="4.81026">
        <ele>249</ele>
        <time>2018-04-08T09:27:45Z</time>
      </trkpt>
      <trkpt lat="45.87746" lon="4.81035">
        <ele>249</ele>
        <time>2018-04-08T09:27:46Z</time>
      </trkpt>
      <trkpt lat="45.87745" lon="4.81043">
        <ele>249</ele>
        <time>2018-04-08T09:27:47Z</time>
      </trkpt>
      <trkpt lat="45.87745" lon="4.81053">
        <ele>249</ele>
        <time>2018-04-08T09:27:48Z</time>
      </trkpt>
      <trkpt lat="45.87743" lon="4.81061">
        <ele>248</ele>
        <time>2018-04-08T09:27:49Z</time>
      </trkpt>
      <trkpt lat="45.87741" lon="4.8107">
        <ele>248</ele>
        <time>2018-04-08T09:27:50Z</time>
      </trkpt>
      <trkpt lat="45.87737" lon="4.81079">
        <ele>248</ele>
        <time>2018-04-08T09:27:51Z</time>
      </trkpt>
      <trkpt lat="45.87733" lon="4.81087">
        <ele>246</ele>
        <time>2018-04-08T09:27:52Z</time>
      </trkpt>
      <trkpt lat="45.87729" lon="4.81094">
        <ele>246</ele>
        <time>2018-04-08T09:27:53Z</time>
      </trkpt>
      <trkpt lat="45.87724" lon="4.81099">
        <ele>246</ele>
        <time>2018-04-08T09:27:54Z</time>
      </trkpt>
      <trkpt lat="45.8772" lon="4.81106">
        <ele>246</ele>
        <time>2018-04-08T09:27:55Z</time>
      </trkpt>
      <trkpt lat="45.87716" lon="4.81114">
        <ele>246</ele>
        <time>2018-04-08T09:27:57Z</time>
      </trkpt>
      <trkpt lat="45.87711" lon="4.81126">
        <ele>246</ele>
        <time>2018-04-08T09:27:58Z</time>
      </trkpt>
      <trkpt lat="45.87706" lon="4.81131">
        <ele>246</ele>
        <time>2018-04-08T09:27:59Z</time>
      </trkpt>
      <trkpt lat="45.87702" lon="4.81134">
        <ele>246</ele>
        <time>2018-04-08T09:28:00Z</time>
      </trkpt>
      <trkpt lat="45.877" lon="4.81138">
        <ele>246</ele>
        <time>2018-04-08T09:28:01Z</time>
      </trkpt>
      <trkpt lat="45.87695" lon="4.81143">
        <ele>246</ele>
        <time>2018-04-08T09:28:02Z</time>
      </trkpt>
      <trkpt lat="45.8769" lon="4.81146">
        <ele>246</ele>
        <time>2018-04-08T09:28:03Z</time>
      </trkpt>
      <trkpt lat="45.87686" lon="4.8115">
        <ele>246</ele>
        <time>2018-04-08T09:28:04Z</time>
      </trkpt>
      <trkpt lat="45.87681" lon="4.81154">
        <ele>246</ele>
        <time>2018-04-08T09:28:05Z</time>
      </trkpt>
      <trkpt lat="45.87677" lon="4.81158">
        <ele>247</ele>
        <time>2018-04-08T09:28:06Z</time>
      </trkpt>
      <trkpt lat="45.87671" lon="4.81162">
        <ele>247</ele>
        <time>2018-04-08T09:28:07Z</time>
      </trkpt>
      <trkpt lat="45.87666" lon="4.81166">
        <ele>247</ele>
        <time>2018-04-08T09:28:08Z</time>
      </trkpt>
      <trkpt lat="45.87661" lon="4.81171">
        <ele>247</ele>
        <time>2018-04-08T09:28:09Z</time>
      </trkpt>
      <trkpt lat="45.87657" lon="4.81176">
        <ele>247</ele>
        <time>2018-04-08T09:28:10Z</time>
      </trkpt>
      <trkpt lat="45.87652" lon="4.81181">
        <ele>247</ele>
        <time>2018-04-08T09:28:11Z</time>
      </trkpt>
      <trkpt lat="45.87647" lon="4.81185">
        <ele>247</ele>
        <time>2018-04-08T09:28:12Z</time>
      </trkpt>
      <trkpt lat="45.87643" lon="4.81189">
        <ele>247</ele>
        <time>2018-04-08T09:28:13Z</time>
      </trkpt>
      <trkpt lat="45.87638" lon="4.81193">
        <ele>247</ele>
        <time>2018-04-08T09:28:14Z</time>
      </trkpt>
      <trkpt lat="45.87633" lon="4.81197">
        <ele>247</ele>
        <time>2018-04-08T09:28:15Z</time>
      </trkpt>
      <trkpt lat="45.87628" lon="4.812">
        <ele>247</ele>
        <time>2018-04-08T09:28:16Z</time>
      </trkpt>
      <trkpt lat="45.87623" lon="4.81203">
        <ele>247</ele>
        <time>2018-04-08T09:28:17Z</time>
      </trkpt>
      <trkpt lat="45.87618" lon="4.81206">
        <ele>247</ele>
        <time>2018-04-08T09:28:18Z</time>
      </trkpt>
      <trkpt lat="45.87612" lon="4.81208">
        <ele>247</ele>
        <time>2018-04-08T09:28:19Z</time>
      </trkpt>
      <trkpt lat="45.87608" lon="4.8121">
        <ele>247</ele>
        <time>2018-04-08T09:28:20Z</time>
      </trkpt>
      <trkpt lat="45.876" lon="4.81214">
        <ele>247</ele>
        <time>2018-04-08T09:28:22Z</time>
      </trkpt>
      <trkpt lat="45.87596" lon="4.81219">
        <ele>247</ele>
        <time>2018-04-08T09:28:23Z</time>
      </trkpt>
      <trkpt lat="45.8759" lon="4.81222">
        <ele>247</ele>
        <time>2018-04-08T09:28:24Z</time>
      </trkpt>
      <trkpt lat="45.87584" lon="4.81223">
        <ele>247</ele>
        <time>2018-04-08T09:28:25Z</time>
      </trkpt>
      <trkpt lat="45.87579" lon="4.81227">
        <ele>250</ele>
        <time>2018-04-08T09:28:26Z</time>
      </trkpt>
      <trkpt lat="45.87574" lon="4.81229">
        <ele>250</ele>
        <time>2018-04-08T09:28:27Z</time>
      </trkpt>
      <trkpt lat="45.87571" lon="4.8123">
        <ele>250</ele>
        <time>2018-04-08T09:28:29Z</time>
      </trkpt>
      <trkpt lat="45.87565" lon="4.81233">
        <ele>250</ele>
        <time>2018-04-08T09:28:30Z</time>
      </trkpt>
      <trkpt lat="45.8756" lon="4.81235">
        <ele>251</ele>
        <time>2018-04-08T09:28:31Z</time>
      </trkpt>
      <trkpt lat="45.87554" lon="4.81237">
        <ele>251</ele>
        <time>2018-04-08T09:28:32Z</time>
      </trkpt>
      <trkpt lat="45.8755" lon="4.81237">
        <ele>251</ele>
        <time>2018-04-08T09:28:33Z</time>
      </trkpt>
      <trkpt lat="45.87544" lon="4.81238">
        <ele>252</ele>
        <time>2018-04-08T09:28:34Z</time>
      </trkpt>
      <trkpt lat="45.8754" lon="4.81237">
        <ele>252</ele>
        <time>2018-04-08T09:28:35Z</time>
      </trkpt>
      <trkpt lat="45.87534" lon="4.81238">
        <ele>252</ele>
        <time>2018-04-08T09:28:36Z</time>
      </trkpt>
      <trkpt lat="45.87529" lon="4.8124">
        <ele>252</ele>
        <time>2018-04-08T09:28:37Z</time>
      </trkpt>
      <trkpt lat="45.87524" lon="4.81244">
        <ele>253</ele>
        <time>2018-04-08T09:28:38Z</time>
      </trkpt>
      <trkpt lat="45.87517" lon="4.81251">
        <ele>250</ele>
        <time>2018-04-08T09:28:40Z</time>
      </trkpt>
      <trkpt lat="45.87514" lon="4.81256">
        <ele>250</ele>
        <time>2018-04-08T09:28:41Z</time>
      </trkpt>
      <trkpt lat="45.8751" lon="4.81262">
        <ele>250</ele>
        <time>2018-04-08T09:28:42Z</time>
      </trkpt>
      <trkpt lat="45.87508" lon="4.81268">
        <ele>250</ele>
        <time>2018-04-08T09:28:43Z</time>
      </trkpt>
      <trkpt lat="45.87505" lon="4.81274">
        <ele>249</ele>
        <time>2018-04-08T09:28:44Z</time>
      </trkpt>
      <trkpt lat="45.87503" lon="4.81282">
        <ele>249</ele>
        <time>2018-04-08T09:28:45Z</time>
      </trkpt>
      <trkpt lat="45.87502" lon="4.81289">
        <ele>248</ele>
        <time>2018-04-08T09:28:46Z</time>
      </trkpt>
      <trkpt lat="45.87502" lon="4.81295">
        <ele>248</ele>
        <time>2018-04-08T09:28:47Z</time>
      </trkpt>
      <trkpt lat="45.87502" lon="4.81303">
        <ele>248</ele>
        <time>2018-04-08T09:28:48Z</time>
      </trkpt>
      <trkpt lat="45.87501" lon="4.81311">
        <ele>247</ele>
        <time>2018-04-08T09:28:49Z</time>
      </trkpt>
      <trkpt lat="45.87499" lon="4.81317">
        <ele>251</ele>
        <time>2018-04-08T09:28:50Z</time>
      </trkpt>
      <trkpt lat="45.87497" lon="4.81326">
        <ele>250</ele>
        <time>2018-04-08T09:28:51Z</time>
      </trkpt>
      <trkpt lat="45.87493" lon="4.81334">
        <ele>248</ele>
        <time>2018-04-08T09:28:52Z</time>
      </trkpt>
      <trkpt lat="45.87488" lon="4.81342">
        <ele>248</ele>
        <time>2018-04-08T09:28:53Z</time>
      </trkpt>
      <trkpt lat="45.87483" lon="4.8135">
        <ele>248</ele>
        <time>2018-04-08T09:28:54Z</time>
      </trkpt>
      <trkpt lat="45.87479" lon="4.81357">
        <ele>248</ele>
        <time>2018-04-08T09:28:55Z</time>
      </trkpt>
      <trkpt lat="45.87475" lon="4.81367">
        <ele>248</ele>
        <time>2018-04-08T09:28:56Z</time>
      </trkpt>
      <trkpt lat="45.8747" lon="4.81376">
        <ele>248</ele>
        <time>2018-04-08T09:28:57Z</time>
      </trkpt>
      <trkpt lat="45.87466" lon="4.81384">
        <ele>248</ele>
        <time>2018-04-08T09:28:58Z</time>
      </trkpt>
      <trkpt lat="45.87461" lon="4.81394">
        <ele>248</ele>
        <time>2018-04-08T09:28:59Z</time>
      </trkpt>
      <trkpt lat="45.87455" lon="4.81402">
        <ele>248</ele>
        <time>2018-04-08T09:29:00Z</time>
      </trkpt>
      <trkpt lat="45.8745" lon="4.81411">
        <ele>248</ele>
        <time>2018-04-08T09:29:01Z</time>
      </trkpt>
      <trkpt lat="45.87446" lon="4.8142">
        <ele>243</ele>
        <time>2018-04-08T09:29:02Z</time>
      </trkpt>
      <trkpt lat="45.87441" lon="4.81428">
        <ele>243</ele>
        <time>2018-04-08T09:29:03Z</time>
      </trkpt>
      <trkpt lat="45.87437" lon="4.81438">
        <ele>243</ele>
        <time>2018-04-08T09:29:04Z</time>
      </trkpt>
      <trkpt lat="45.87432" lon="4.81447">
        <ele>243</ele>
        <time>2018-04-08T09:29:05Z</time>
      </trkpt>
      <trkpt lat="45.87428" lon="4.81457">
        <ele>242</ele>
        <time>2018-04-08T09:29:06Z</time>
      </trkpt>
      <trkpt lat="45.87424" lon="4.81466">
        <ele>242</ele>
        <time>2018-04-08T09:29:07Z</time>
      </trkpt>
      <trkpt lat="45.87419" lon="4.81474">
        <ele>242</ele>
        <time>2018-04-08T09:29:08Z</time>
      </trkpt>
      <trkpt lat="45.87415" lon="4.81483">
        <ele>246</ele>
        <time>2018-04-08T09:29:09Z</time>
      </trkpt>
      <trkpt lat="45.87411" lon="4.81492">
        <ele>245</ele>
        <time>2018-04-08T09:29:10Z</time>
      </trkpt>
      <trkpt lat="45.87407" lon="4.81501">
        <ele>243</ele>
        <time>2018-04-08T09:29:11Z</time>
      </trkpt>
      <trkpt lat="45.87404" lon="4.81509">
        <ele>244</ele>
        <time>2018-04-08T09:29:12Z</time>
      </trkpt>
      <trkpt lat="45.874" lon="4.81518">
        <ele>244</ele>
        <time>2018-04-08T09:29:13Z</time>
      </trkpt>
      <trkpt lat="45.87397" lon="4.81527">
        <ele>244</ele>
        <time>2018-04-08T09:29:14Z</time>
      </trkpt>
      <trkpt lat="45.87394" lon="4.81536">
        <ele>244</ele>
        <time>2018-04-08T09:29:15Z</time>
      </trkpt>
      <trkpt lat="45.87391" lon="4.81544">
        <ele>244</ele>
        <time>2018-04-08T09:29:16Z</time>
      </trkpt>
      <trkpt lat="45.87388" lon="4.81554">
        <ele>244</ele>
        <time>2018-04-08T09:29:17Z</time>
      </trkpt>
      <trkpt lat="45.87385" lon="4.81564">
        <ele>243</ele>
        <time>2018-04-08T09:29:18Z</time>
      </trkpt>
      <trkpt lat="45.87383" lon="4.81574">
        <ele>243</ele>
        <time>2018-04-08T09:29:19Z</time>
      </trkpt>
      <trkpt lat="45.87381" lon="4.81583">
        <ele>243</ele>
        <time>2018-04-08T09:29:20Z</time>
      </trkpt>
      <trkpt lat="45.87379" lon="4.81593">
        <ele>240</ele>
        <time>2018-04-08T09:29:21Z</time>
      </trkpt>
      <trkpt lat="45.87375" lon="4.81606">
        <ele>240</ele>
        <time>2018-04-08T09:29:22Z</time>
      </trkpt>
      <trkpt lat="45.87373" lon="4.81615">
        <ele>240</ele>
        <time>2018-04-08T09:29:23Z</time>
      </trkpt>
      <trkpt lat="45.87369" lon="4.81626">
        <ele>240</ele>
        <time>2018-04-08T09:29:24Z</time>
      </trkpt>
      <trkpt lat="45.87365" lon="4.81637">
        <ele>240</ele>
        <time>2018-04-08T09:29:25Z</time>
      </trkpt>
      <trkpt lat="45.87361" lon="4.81647">
        <ele>240</ele>
        <time>2018-04-08T09:29:26Z</time>
      </trkpt>
      <trkpt lat="45.87357" lon="4.81657">
        <ele>240</ele>
        <time>2018-04-08T09:29:27Z</time>
      </trkpt>
      <trkpt lat="45.87352" lon="4.81666">
        <ele>240</ele>
        <time>2018-04-08T09:29:28Z</time>
      </trkpt>
      <trkpt lat="45.87348" lon="4.81676">
        <ele>238</ele>
        <time>2018-04-08T09:29:29Z</time>
      </trkpt>
      <trkpt lat="45.87344" lon="4.81686">
        <ele>238</ele>
        <time>2018-04-08T09:29:30Z</time>
      </trkpt>
      <trkpt lat="45.87341" lon="4.81696">
        <ele>237</ele>
        <time>2018-04-08T09:29:31Z</time>
      </trkpt>
      <trkpt lat="45.87337" lon="4.81705">
        <ele>237</ele>
        <time>2018-04-08T09:29:32Z</time>
      </trkpt>
      <trkpt lat="45.87335" lon="4.81716">
        <ele>236</ele>
        <time>2018-04-08T09:29:33Z</time>
      </trkpt>
      <trkpt lat="45.8733" lon="4.81726">
        <ele>241</ele>
        <time>2018-04-08T09:29:34Z</time>
      </trkpt>
      <trkpt lat="45.87328" lon="4.81736">
        <ele>240</ele>
        <time>2018-04-08T09:29:35Z</time>
      </trkpt>
      <trkpt lat="45.87325" lon="4.81746">
        <ele>239</ele>
        <time>2018-04-08T09:29:36Z</time>
      </trkpt>
      <trkpt lat="45.87323" lon="4.81755">
        <ele>238</ele>
        <time>2018-04-08T09:29:37Z</time>
      </trkpt>
      <trkpt lat="45.8732" lon="4.81764">
        <ele>239</ele>
        <time>2018-04-08T09:29:38Z</time>
      </trkpt>
      <trkpt lat="45.87318" lon="4.81774">
        <ele>239</ele>
        <time>2018-04-08T09:29:39Z</time>
      </trkpt>
      <trkpt lat="45.87315" lon="4.81782">
        <ele>239</ele>
        <time>2018-04-08T09:29:40Z</time>
      </trkpt>
      <trkpt lat="45.87313" lon="4.81792">
        <ele>239</ele>
        <time>2018-04-08T09:29:41Z</time>
      </trkpt>
      <trkpt lat="45.8731" lon="4.81801">
        <ele>238</ele>
        <time>2018-04-08T09:29:42Z</time>
      </trkpt>
      <trkpt lat="45.87307" lon="4.81808">
        <ele>238</ele>
        <time>2018-04-08T09:29:43Z</time>
      </trkpt>
      <trkpt lat="45.87303" lon="4.81818">
        <ele>238</ele>
        <time>2018-04-08T09:29:44Z</time>
      </trkpt>
      <trkpt lat="45.87303" lon="4.81827">
        <ele>238</ele>
        <time>2018-04-08T09:29:45Z</time>
      </trkpt>
      <trkpt lat="45.873" lon="4.81835">
        <ele>236</ele>
        <time>2018-04-08T09:29:46Z</time>
      </trkpt>
      <trkpt lat="45.873" lon="4.81845">
        <ele>236</ele>
        <time>2018-04-08T09:29:47Z</time>
      </trkpt>
      <trkpt lat="45.87299" lon="4.81855">
        <ele>236</ele>
        <time>2018-04-08T09:29:48Z</time>
      </trkpt>
      <trkpt lat="45.87299" lon="4.81864">
        <ele>235</ele>
        <time>2018-04-08T09:29:49Z</time>
      </trkpt>
      <trkpt lat="45.87296" lon="4.81875">
        <ele>235</ele>
        <time>2018-04-08T09:29:50Z</time>
      </trkpt>
      <trkpt lat="45.87294" lon="4.81885">
        <ele>235</ele>
        <time>2018-04-08T09:29:51Z</time>
      </trkpt>
      <trkpt lat="45.87291" lon="4.81893">
        <ele>235</ele>
        <time>2018-04-08T09:29:52Z</time>
      </trkpt>
      <trkpt lat="45.87288" lon="4.81902">
        <ele>235</ele>
        <time>2018-04-08T09:29:53Z</time>
      </trkpt>
      <trkpt lat="45.87282" lon="4.8191">
        <ele>235</ele>
        <time>2018-04-08T09:29:54Z</time>
      </trkpt>
      <trkpt lat="45.87277" lon="4.81915">
        <ele>235</ele>
        <time>2018-04-08T09:29:55Z</time>
      </trkpt>
      <trkpt lat="45.8727" lon="4.81919">
        <ele>231</ele>
        <time>2018-04-08T09:29:56Z</time>
      </trkpt>
      <trkpt lat="45.87262" lon="4.81923">
        <ele>232</ele>
        <time>2018-04-08T09:29:57Z</time>
      </trkpt>
      <trkpt lat="45.87258" lon="4.81927">
        <ele>232</ele>
        <time>2018-04-08T09:29:58Z</time>
      </trkpt>
      <trkpt lat="45.87254" lon="4.81931">
        <ele>232</ele>
        <time>2018-04-08T09:29:59Z</time>
      </trkpt>
      <trkpt lat="45.87248" lon="4.81935">
        <ele>232</ele>
        <time>2018-04-08T09:30:00Z</time>
      </trkpt>
      <trkpt lat="45.87244" lon="4.81937">
        <ele>232</ele>
        <time>2018-04-08T09:30:01Z</time>
      </trkpt>
      <trkpt lat="45.87239" lon="4.81938">
        <ele>232</ele>
        <time>2018-04-08T09:30:02Z</time>
      </trkpt>
      <trkpt lat="45.87235" lon="4.81941">
        <ele>232</ele>
        <time>2018-04-08T09:30:03Z</time>
      </trkpt>
      <trkpt lat="45.8723" lon="4.81944">
        <ele>232</ele>
        <time>2018-04-08T09:30:04Z</time>
      </trkpt>
      <trkpt lat="45.87224" lon="4.81947">
        <ele>231</ele>
        <time>2018-04-08T09:30:05Z</time>
      </trkpt>
      <trkpt lat="45.87219" lon="4.81951">
        <ele>231</ele>
        <time>2018-04-08T09:30:06Z</time>
      </trkpt>
      <trkpt lat="45.87212" lon="4.81954">
        <ele>231</ele>
        <time>2018-04-08T09:30:07Z</time>
      </trkpt>
      <trkpt lat="45.87207" lon="4.81957">
        <ele>231</ele>
        <time>2018-04-08T09:30:08Z</time>
      </trkpt>
      <trkpt lat="45.87201" lon="4.81959">
        <ele>231</ele>
        <time>2018-04-08T09:30:09Z</time>
      </trkpt>
      <trkpt lat="45.87197" lon="4.81961">
        <ele>231</ele>
        <time>2018-04-08T09:30:10Z</time>
      </trkpt>
      <trkpt lat="45.8719" lon="4.81965">
        <ele>231</ele>
        <time>2018-04-08T09:30:12Z</time>
      </trkpt>
      <trkpt lat="45.87183" lon="4.81967">
        <ele>231</ele>
        <time>2018-04-08T09:30:13Z</time>
      </trkpt>
      <trkpt lat="45.87177" lon="4.81968">
        <ele>230</ele>
        <time>2018-04-08T09:30:14Z</time>
      </trkpt>
      <trkpt lat="45.87171" lon="4.81968">
        <ele>230</ele>
        <time>2018-04-08T09:30:15Z</time>
      </trkpt>
      <trkpt lat="45.87164" lon="4.8197">
        <ele>231</ele>
        <time>2018-04-08T09:30:16Z</time>
      </trkpt>
      <trkpt lat="45.87157" lon="4.8197">
        <ele>231</ele>
        <time>2018-04-08T09:30:17Z</time>
      </trkpt>
      <trkpt lat="45.87149" lon="4.81971">
        <ele>231</ele>
        <time>2018-04-08T09:30:18Z</time>
      </trkpt>
      <trkpt lat="45.87143" lon="4.81971">
        <ele>231</ele>
        <time>2018-04-08T09:30:19Z</time>
      </trkpt>
      <trkpt lat="45.87136" lon="4.81971">
        <ele>231</ele>
        <time>2018-04-08T09:30:20Z</time>
      </trkpt>
      <trkpt lat="45.87126" lon="4.81971">
        <ele>231</ele>
        <time>2018-04-08T09:30:21Z</time>
      </trkpt>
      <trkpt lat="45.87115" lon="4.81971">
        <ele>230</ele>
        <time>2018-04-08T09:30:22Z</time>
      </trkpt>
      <trkpt lat="45.87109" lon="4.8197">
        <ele>230</ele>
        <time>2018-04-08T09:30:23Z</time>
      </trkpt>
      <trkpt lat="45.871" lon="4.8197">
        <ele>230</ele>
        <time>2018-04-08T09:30:24Z</time>
      </trkpt>
      <trkpt lat="45.87092" lon="4.81969">
        <ele>230</ele>
        <time>2018-04-08T09:30:25Z</time>
      </trkpt>
      <trkpt lat="45.87084" lon="4.81968">
        <ele>230</ele>
        <time>2018-04-08T09:30:26Z</time>
      </trkpt>
      <trkpt lat="45.87076" lon="4.81966">
        <ele>228</ele>
        <time>2018-04-08T09:30:27Z</time>
      </trkpt>
      <trkpt lat="45.87066" lon="4.81961">
        <ele>229</ele>
        <time>2018-04-08T09:30:28Z</time>
      </trkpt>
      <trkpt lat="45.87058" lon="4.81958">
        <ele>229</ele>
        <time>2018-04-08T09:30:29Z</time>
      </trkpt>
      <trkpt lat="45.87051" lon="4.81955">
        <ele>229</ele>
        <time>2018-04-08T09:30:30Z</time>
      </trkpt>
      <trkpt lat="45.87042" lon="4.81951">
        <ele>229</ele>
        <time>2018-04-08T09:30:31Z</time>
      </trkpt>
      <trkpt lat="45.87034" lon="4.81947">
        <ele>229</ele>
        <time>2018-04-08T09:30:32Z</time>
      </trkpt>
      <trkpt lat="45.87026" lon="4.81945">
        <ele>229</ele>
        <time>2018-04-08T09:30:33Z</time>
      </trkpt>
      <trkpt lat="45.87019" lon="4.81944">
        <ele>229</ele>
        <time>2018-04-08T09:30:34Z</time>
      </trkpt>
      <trkpt lat="45.87012" lon="4.81943">
        <ele>229</ele>
        <time>2018-04-08T09:30:35Z</time>
      </trkpt>
      <trkpt lat="45.87004" lon="4.81944">
        <ele>229</ele>
        <time>2018-04-08T09:30:36Z</time>
      </trkpt>
      <trkpt lat="45.86997" lon="4.81946">
        <ele>227</ele>
        <time>2018-04-08T09:30:37Z</time>
      </trkpt>
      <trkpt lat="45.86991" lon="4.81952">
        <ele>227</ele>
        <time>2018-04-08T09:30:38Z</time>
      </trkpt>
      <trkpt lat="45.86986" lon="4.81959">
        <ele>226</ele>
        <time>2018-04-08T09:30:39Z</time>
      </trkpt>
      <trkpt lat="45.86984" lon="4.81965">
        <ele>225</ele>
        <time>2018-04-08T09:30:40Z</time>
      </trkpt>
      <trkpt lat="45.86983" lon="4.81972">
        <ele>224</ele>
        <time>2018-04-08T09:30:41Z</time>
      </trkpt>
      <trkpt lat="45.86981" lon="4.81984">
        <ele>223</ele>
        <time>2018-04-08T09:30:44Z</time>
      </trkpt>
      <trkpt lat="45.86982" lon="4.81987">
        <ele>223</ele>
        <time>2018-04-08T09:30:45Z</time>
      </trkpt>
      <trkpt lat="45.8698" lon="4.81999">
        <ele>223</ele>
        <time>2018-04-08T09:30:51Z</time>
      </trkpt>
      <trkpt lat="45.8698" lon="4.82">
        <ele>223</ele>
        <time>2018-04-08T09:30:52Z</time>
      </trkpt>
      <trkpt lat="45.86981" lon="4.82011">
        <ele>222</ele>
        <time>2018-04-08T09:30:58Z</time>
      </trkpt>
      <trkpt lat="45.86983" lon="4.82014">
        <ele>222</ele>
        <time>2018-04-08T09:30:59Z</time>
      </trkpt>
      <trkpt lat="45.8699" lon="4.82024">
        <ele>223</ele>
        <time>2018-04-08T09:31:00Z</time>
      </trkpt>
      <trkpt lat="45.86997" lon="4.82031">
        <ele>223</ele>
        <time>2018-04-08T09:31:01Z</time>
      </trkpt>
      <trkpt lat="45.87002" lon="4.82034">
        <ele>218</ele>
        <time>2018-04-08T09:31:02Z</time>
      </trkpt>
      <trkpt lat="45.87008" lon="4.82039">
        <ele>218</ele>
        <time>2018-04-08T09:31:03Z</time>
      </trkpt>
      <trkpt lat="45.87013" lon="4.82042">
        <ele>218</ele>
        <time>2018-04-08T09:31:04Z</time>
      </trkpt>
      <trkpt lat="45.8702" lon="4.82046">
        <ele>218</ele>
        <time>2018-04-08T09:31:05Z</time>
      </trkpt>
      <trkpt lat="45.87026" lon="4.82051">
        <ele>218</ele>
        <time>2018-04-08T09:31:06Z</time>
      </trkpt>
      <trkpt lat="45.87032" lon="4.82055">
        <ele>218</ele>
        <time>2018-04-08T09:31:07Z</time>
      </trkpt>
      <trkpt lat="45.87039" lon="4.82059">
        <ele>218</ele>
        <time>2018-04-08T09:31:08Z</time>
      </trkpt>
      <trkpt lat="45.87046" lon="4.82064">
        <ele>218</ele>
        <time>2018-04-08T09:31:09Z</time>
      </trkpt>
      <trkpt lat="45.87054" lon="4.82069">
        <ele>217</ele>
        <time>2018-04-08T09:31:10Z</time>
      </trkpt>
      <trkpt lat="45.87062" lon="4.82073">
        <ele>217</ele>
        <time>2018-04-08T09:31:11Z</time>
      </trkpt>
      <trkpt lat="45.87069" lon="4.82079">
        <ele>216</ele>
        <time>2018-04-08T09:31:12Z</time>
      </trkpt>
      <trkpt lat="45.87077" lon="4.82085">
        <ele>215</ele>
        <time>2018-04-08T09:31:13Z</time>
      </trkpt>
      <trkpt lat="45.87084" lon="4.8209">
        <ele>214</ele>
        <time>2018-04-08T09:31:14Z</time>
      </trkpt>
      <trkpt lat="45.87091" lon="4.82095">
        <ele>213</ele>
        <time>2018-04-08T09:31:15Z</time>
      </trkpt>
      <trkpt lat="45.87099" lon="4.821">
        <ele>213</ele>
        <time>2018-04-08T09:31:16Z</time>
      </trkpt>
      <trkpt lat="45.87107" lon="4.82106">
        <ele>213</ele>
        <time>2018-04-08T09:31:17Z</time>
      </trkpt>
      <trkpt lat="45.87115" lon="4.82112">
        <ele>213</ele>
        <time>2018-04-08T09:31:18Z</time>
      </trkpt>
      <trkpt lat="45.87123" lon="4.82117">
        <ele>212</ele>
        <time>2018-04-08T09:31:19Z</time>
      </trkpt>
      <trkpt lat="45.87132" lon="4.82124">
        <ele>212</ele>
        <time>2018-04-08T09:31:20Z</time>
      </trkpt>
      <trkpt lat="45.87139" lon="4.82131">
        <ele>212</ele>
        <time>2018-04-08T09:31:21Z</time>
      </trkpt>
      <trkpt lat="45.87146" lon="4.82139">
        <ele>211</ele>
        <time>2018-04-08T09:31:22Z</time>
      </trkpt>
      <trkpt lat="45.87152" lon="4.82149">
        <ele>211</ele>
        <time>2018-04-08T09:31:23Z</time>
      </trkpt>
      <trkpt lat="45.87157" lon="4.8216">
        <ele>210</ele>
        <time>2018-04-08T09:31:24Z</time>
      </trkpt>
      <trkpt lat="45.87161" lon="4.82171">
        <ele>210</ele>
        <time>2018-04-08T09:31:25Z</time>
      </trkpt>
      <trkpt lat="45.87166" lon="4.82184">
        <ele>211</ele>
        <time>2018-04-08T09:31:26Z</time>
      </trkpt>
      <trkpt lat="45.8717" lon="4.82197">
        <ele>208</ele>
        <time>2018-04-08T09:31:27Z</time>
      </trkpt>
      <trkpt lat="45.87174" lon="4.82208">
        <ele>208</ele>
        <time>2018-04-08T09:31:28Z</time>
      </trkpt>
      <trkpt lat="45.87178" lon="4.82219">
        <ele>208</ele>
        <time>2018-04-08T09:31:29Z</time>
      </trkpt>
      <trkpt lat="45.87182" lon="4.82231">
        <ele>208</ele>
        <time>2018-04-08T09:31:30Z</time>
      </trkpt>
      <trkpt lat="45.87186" lon="4.82242">
        <ele>208</ele>
        <time>2018-04-08T09:31:31Z</time>
      </trkpt>
      <trkpt lat="45.8719" lon="4.82252">
        <ele>210</ele>
        <time>2018-04-08T09:31:32Z</time>
      </trkpt>
      <trkpt lat="45.87193" lon="4.82262">
        <ele>210</ele>
        <time>2018-04-08T09:31:33Z</time>
      </trkpt>
      <trkpt lat="45.87197" lon="4.82271">
        <ele>210</ele>
        <time>2018-04-08T09:31:34Z</time>
      </trkpt>
      <trkpt lat="45.872" lon="4.8228">
        <ele>210</ele>
        <time>2018-04-08T09:31:35Z</time>
      </trkpt>
      <trkpt lat="45.87203" lon="4.82287">
        <ele>210</ele>
        <time>2018-04-08T09:31:36Z</time>
      </trkpt>
      <trkpt lat="45.87206" lon="4.82294">
        <ele>210</ele>
        <time>2018-04-08T09:31:37Z</time>
      </trkpt>
      <trkpt lat="45.8721" lon="4.823">
        <ele>210</ele>
        <time>2018-04-08T09:31:38Z</time>
      </trkpt>
      <trkpt lat="45.87211" lon="4.82308">
        <ele>210</ele>
        <time>2018-04-08T09:31:39Z</time>
      </trkpt>
      <trkpt lat="45.87215" lon="4.82316">
        <ele>210</ele>
        <time>2018-04-08T09:31:40Z</time>
      </trkpt>
      <trkpt lat="45.87218" lon="4.82322">
        <ele>210</ele>
        <time>2018-04-08T09:31:41Z</time>
      </trkpt>
      <trkpt lat="45.87223" lon="4.8233">
        <ele>210</ele>
        <time>2018-04-08T09:31:42Z</time>
      </trkpt>
      <trkpt lat="45.87225" lon="4.82336">
        <ele>214</ele>
        <time>2018-04-08T09:31:43Z</time>
      </trkpt>
      <trkpt lat="45.87229" lon="4.82341">
        <ele>214</ele>
        <time>2018-04-08T09:31:44Z</time>
      </trkpt>
      <trkpt lat="45.87232" lon="4.82346">
        <ele>213</ele>
        <time>2018-04-08T09:31:45Z</time>
      </trkpt>
      <trkpt lat="45.87234" lon="4.82351">
        <ele>214</ele>
        <time>2018-04-08T09:31:46Z</time>
      </trkpt>
      <trkpt lat="45.87237" lon="4.82357">
        <ele>214</ele>
        <time>2018-04-08T09:31:47Z</time>
      </trkpt>
      <trkpt lat="45.8724" lon="4.82363">
        <ele>215</ele>
        <time>2018-04-08T09:31:48Z</time>
      </trkpt>
      <trkpt lat="45.87243" lon="4.82368">
        <ele>215</ele>
        <time>2018-04-08T09:31:49Z</time>
      </trkpt>
      <trkpt lat="45.87246" lon="4.82372">
        <ele>215</ele>
        <time>2018-04-08T09:31:50Z</time>
      </trkpt>
      <trkpt lat="45.87251" lon="4.82382">
        <ele>209</ele>
        <time>2018-04-08T09:31:52Z</time>
      </trkpt>
      <trkpt lat="45.87255" lon="4.82386">
        <ele>210</ele>
        <time>2018-04-08T09:31:53Z</time>
      </trkpt>
      <trkpt lat="45.8726" lon="4.82395">
        <ele>210</ele>
        <time>2018-04-08T09:31:55Z</time>
      </trkpt>
      <trkpt lat="45.87262" lon="4.824">
        <ele>211</ele>
        <time>2018-04-08T09:31:56Z</time>
      </trkpt>
      <trkpt lat="45.87267" lon="4.82407">
        <ele>211</ele>
        <time>2018-04-08T09:31:58Z</time>
      </trkpt>
      <trkpt lat="45.8727" lon="4.82413">
        <ele>211</ele>
        <time>2018-04-08T09:31:59Z</time>
      </trkpt>
      <trkpt lat="45.87276" lon="4.82422">
        <ele>214</ele>
        <time>2018-04-08T09:32:01Z</time>
      </trkpt>
      <trkpt lat="45.87279" lon="4.82426">
        <ele>213</ele>
        <time>2018-04-08T09:32:02Z</time>
      </trkpt>
      <trkpt lat="45.87282" lon="4.82431">
        <ele>213</ele>
        <time>2018-04-08T09:32:03Z</time>
      </trkpt>
      <trkpt lat="45.87286" lon="4.82436">
        <ele>213</ele>
        <time>2018-04-08T09:32:04Z</time>
      </trkpt>
      <trkpt lat="45.87289" lon="4.82441">
        <ele>213</ele>
        <time>2018-04-08T09:32:05Z</time>
      </trkpt>
      <trkpt lat="45.87291" lon="4.82446">
        <ele>213</ele>
        <time>2018-04-08T09:32:06Z</time>
      </trkpt>
      <trkpt lat="45.87296" lon="4.82457">
        <ele>213</ele>
        <time>2018-04-08T09:32:08Z</time>
      </trkpt>
      <trkpt lat="45.87299" lon="4.82461">
        <ele>213</ele>
        <time>2018-04-08T09:32:09Z</time>
      </trkpt>
      <trkpt lat="45.87303" lon="4.82466">
        <ele>212</ele>
        <time>2018-04-08T09:32:10Z</time>
      </trkpt>
      <trkpt lat="45.87306" lon="4.82472">
        <ele>212</ele>
        <time>2018-04-08T09:32:11Z</time>
      </trkpt>
      <trkpt lat="45.87308" lon="4.82477">
        <ele>212</ele>
        <time>2018-04-08T09:32:12Z</time>
      </trkpt>
      <trkpt lat="45.87312" lon="4.82482">
        <ele>212</ele>
        <time>2018-04-08T09:32:13Z</time>
      </trkpt>
      <trkpt lat="45.87314" lon="4.82488">
        <ele>212</ele>
        <time>2018-04-08T09:32:14Z</time>
      </trkpt>
      <trkpt lat="45.87316" lon="4.82494">
        <ele>211</ele>
        <time>2018-04-08T09:32:15Z</time>
      </trkpt>
      <trkpt lat="45.87318" lon="4.82499">
        <ele>211</ele>
        <time>2018-04-08T09:32:16Z</time>
      </trkpt>
      <trkpt lat="45.87322" lon="4.82505">
        <ele>213</ele>
        <time>2018-04-08T09:32:17Z</time>
      </trkpt>
      <trkpt lat="45.87328" lon="4.82515">
        <ele>213</ele>
        <time>2018-04-08T09:32:19Z</time>
      </trkpt>
      <trkpt lat="45.87329" lon="4.82521">
        <ele>214</ele>
        <time>2018-04-08T09:32:20Z</time>
      </trkpt>
      <trkpt lat="45.87332" lon="4.82532">
        <ele>215</ele>
        <time>2018-04-08T09:32:22Z</time>
      </trkpt>
      <trkpt lat="45.87334" lon="4.82537">
        <ele>209</ele>
        <time>2018-04-08T09:32:23Z</time>
      </trkpt>
      <trkpt lat="45.87338" lon="4.82543">
        <ele>209</ele>
        <time>2018-04-08T09:32:24Z</time>
      </trkpt>
      <trkpt lat="45.87341" lon="4.82548">
        <ele>209</ele>
        <time>2018-04-08T09:32:25Z</time>
      </trkpt>
      <trkpt lat="45.87343" lon="4.82554">
        <ele>210</ele>
        <time>2018-04-08T09:32:26Z</time>
      </trkpt>
      <trkpt lat="45.87345" lon="4.8256">
        <ele>210</ele>
        <time>2018-04-08T09:32:27Z</time>
      </trkpt>
      <trkpt lat="45.87348" lon="4.82567">
        <ele>211</ele>
        <time>2018-04-08T09:32:28Z</time>
      </trkpt>
      <trkpt lat="45.87351" lon="4.82574">
        <ele>211</ele>
        <time>2018-04-08T09:32:29Z</time>
      </trkpt>
      <trkpt lat="45.87354" lon="4.8258">
        <ele>211</ele>
        <time>2018-04-08T09:32:30Z</time>
      </trkpt>
      <trkpt lat="45.87356" lon="4.82586">
        <ele>214</ele>
        <time>2018-04-08T09:32:31Z</time>
      </trkpt>
      <trkpt lat="45.8736" lon="4.82592">
        <ele>213</ele>
        <time>2018-04-08T09:32:32Z</time>
      </trkpt>
      <trkpt lat="45.87362" lon="4.82598">
        <ele>213</ele>
        <time>2018-04-08T09:32:33Z</time>
      </trkpt>
      <trkpt lat="45.87365" lon="4.82608">
        <ele>213</ele>
        <time>2018-04-08T09:32:35Z</time>
      </trkpt>
      <trkpt lat="45.87368" lon="4.82614">
        <ele>213</ele>
        <time>2018-04-08T09:32:36Z</time>
      </trkpt>
      <trkpt lat="45.87372" lon="4.82625">
        <ele>213</ele>
        <time>2018-04-08T09:32:38Z</time>
      </trkpt>
      <trkpt lat="45.87374" lon="4.82631">
        <ele>213</ele>
        <time>2018-04-08T09:32:39Z</time>
      </trkpt>
      <trkpt lat="45.87377" lon="4.82639">
        <ele>213</ele>
        <time>2018-04-08T09:32:40Z</time>
      </trkpt>
      <trkpt lat="45.87381" lon="4.82646">
        <ele>213</ele>
        <time>2018-04-08T09:32:41Z</time>
      </trkpt>
      <trkpt lat="45.87384" lon="4.82654">
        <ele>213</ele>
        <time>2018-04-08T09:32:42Z</time>
      </trkpt>
      <trkpt lat="45.87388" lon="4.82661">
        <ele>213</ele>
        <time>2018-04-08T09:32:43Z</time>
      </trkpt>
      <trkpt lat="45.87392" lon="4.82668">
        <ele>215</ele>
        <time>2018-04-08T09:32:44Z</time>
      </trkpt>
      <trkpt lat="45.87397" lon="4.82676">
        <ele>215</ele>
        <time>2018-04-08T09:32:45Z</time>
      </trkpt>
      <trkpt lat="45.87401" lon="4.82683">
        <ele>215</ele>
        <time>2018-04-08T09:32:46Z</time>
      </trkpt>
      <trkpt lat="45.87405" lon="4.8269">
        <ele>215</ele>
        <time>2018-04-08T09:32:47Z</time>
      </trkpt>
      <trkpt lat="45.87409" lon="4.82697">
        <ele>215</ele>
        <time>2018-04-08T09:32:48Z</time>
      </trkpt>
      <trkpt lat="45.87414" lon="4.82706">
        <ele>215</ele>
        <time>2018-04-08T09:32:49Z</time>
      </trkpt>
      <trkpt lat="45.87418" lon="4.82713">
        <ele>209</ele>
        <time>2018-04-08T09:32:50Z</time>
      </trkpt>
      <trkpt lat="45.87421" lon="4.8272">
        <ele>209</ele>
        <time>2018-04-08T09:32:51Z</time>
      </trkpt>
      <trkpt lat="45.87426" lon="4.82727">
        <ele>210</ele>
        <time>2018-04-08T09:32:52Z</time>
      </trkpt>
      <trkpt lat="45.87429" lon="4.82735">
        <ele>210</ele>
        <time>2018-04-08T09:32:53Z</time>
      </trkpt>
      <trkpt lat="45.87432" lon="4.82743">
        <ele>210</ele>
        <time>2018-04-08T09:32:54Z</time>
      </trkpt>
      <trkpt lat="45.87436" lon="4.8275">
        <ele>210</ele>
        <time>2018-04-08T09:32:55Z</time>
      </trkpt>
      <trkpt lat="45.87439" lon="4.82756">
        <ele>211</ele>
        <time>2018-04-08T09:32:56Z</time>
      </trkpt>
      <trkpt lat="45.87442" lon="4.82764">
        <ele>211</ele>
        <time>2018-04-08T09:32:57Z</time>
      </trkpt>
      <trkpt lat="45.87446" lon="4.82772">
        <ele>210</ele>
        <time>2018-04-08T09:32:58Z</time>
      </trkpt>
      <trkpt lat="45.87449" lon="4.8278">
        <ele>210</ele>
        <time>2018-04-08T09:32:59Z</time>
      </trkpt>
      <trkpt lat="45.87452" lon="4.82787">
        <ele>210</ele>
        <time>2018-04-08T09:33:00Z</time>
      </trkpt>
      <trkpt lat="45.87455" lon="4.82794">
        <ele>210</ele>
        <time>2018-04-08T09:33:01Z</time>
      </trkpt>
      <trkpt lat="45.87459" lon="4.82801">
        <ele>210</ele>
        <time>2018-04-08T09:33:02Z</time>
      </trkpt>
      <trkpt lat="45.87463" lon="4.82808">
        <ele>209</ele>
        <time>2018-04-08T09:33:03Z</time>
      </trkpt>
      <trkpt lat="45.87467" lon="4.82816">
        <ele>209</ele>
        <time>2018-04-08T09:33:04Z</time>
      </trkpt>
      <trkpt lat="45.8747" lon="4.82824">
        <ele>209</ele>
        <time>2018-04-08T09:33:05Z</time>
      </trkpt>
      <trkpt lat="45.87474" lon="4.82832">
        <ele>209</ele>
        <time>2018-04-08T09:33:06Z</time>
      </trkpt>
      <trkpt lat="45.87477" lon="4.82841">
        <ele>210</ele>
        <time>2018-04-08T09:33:07Z</time>
      </trkpt>
      <trkpt lat="45.87481" lon="4.82848">
        <ele>210</ele>
        <time>2018-04-08T09:33:08Z</time>
      </trkpt>
      <trkpt lat="45.87485" lon="4.82857">
        <ele>210</ele>
        <time>2018-04-08T09:33:09Z</time>
      </trkpt>
      <trkpt lat="45.87489" lon="4.82866">
        <ele>210</ele>
        <time>2018-04-08T09:33:10Z</time>
      </trkpt>
      <trkpt lat="45.87492" lon="4.82875">
        <ele>210</ele>
        <time>2018-04-08T09:33:11Z</time>
      </trkpt>
      <trkpt lat="45.87496" lon="4.82885">
        <ele>210</ele>
        <time>2018-04-08T09:33:12Z</time>
      </trkpt>
      <trkpt lat="45.87499" lon="4.82894">
        <ele>210</ele>
        <time>2018-04-08T09:33:13Z</time>
      </trkpt>
      <trkpt lat="45.87503" lon="4.82904">
        <ele>207</ele>
        <time>2018-04-08T09:33:14Z</time>
      </trkpt>
      <trkpt lat="45.87507" lon="4.82914">
        <ele>208</ele>
        <time>2018-04-08T09:33:15Z</time>
      </trkpt>
      <trkpt lat="45.8751" lon="4.82925">
        <ele>208</ele>
        <time>2018-04-08T09:33:16Z</time>
      </trkpt>
      <trkpt lat="45.87513" lon="4.82936">
        <ele>207</ele>
        <time>2018-04-08T09:33:17Z</time>
      </trkpt>
      <trkpt lat="45.87517" lon="4.82947">
        <ele>207</ele>
        <time>2018-04-08T09:33:18Z</time>
      </trkpt>
      <trkpt lat="45.8752" lon="4.8296">
        <ele>206</ele>
        <time>2018-04-08T09:33:19Z</time>
      </trkpt>
      <trkpt lat="45.87523" lon="4.82973">
        <ele>206</ele>
        <time>2018-04-08T09:33:20Z</time>
      </trkpt>
      <trkpt lat="45.87525" lon="4.82986">
        <ele>206</ele>
        <time>2018-04-08T09:33:21Z</time>
      </trkpt>
      <trkpt lat="45.87526" lon="4.83">
        <ele>203</ele>
        <time>2018-04-08T09:33:22Z</time>
      </trkpt>
      <trkpt lat="45.87526" lon="4.83015">
        <ele>202</ele>
        <time>2018-04-08T09:33:23Z</time>
      </trkpt>
      <trkpt lat="45.87524" lon="4.83029">
        <ele>202</ele>
        <time>2018-04-08T09:33:24Z</time>
      </trkpt>
      <trkpt lat="45.87522" lon="4.83042">
        <ele>201</ele>
        <time>2018-04-08T09:33:25Z</time>
      </trkpt>
      <trkpt lat="45.87519" lon="4.83055">
        <ele>200</ele>
        <time>2018-04-08T09:33:26Z</time>
      </trkpt>
      <trkpt lat="45.87515" lon="4.8307">
        <ele>200</ele>
        <time>2018-04-08T09:33:27Z</time>
      </trkpt>
      <trkpt lat="45.87509" lon="4.83083">
        <ele>199</ele>
        <time>2018-04-08T09:33:28Z</time>
      </trkpt>
      <trkpt lat="45.87502" lon="4.83093">
        <ele>196</ele>
        <time>2018-04-08T09:33:29Z</time>
      </trkpt>
      <trkpt lat="45.87496" lon="4.83102">
        <ele>197</ele>
        <time>2018-04-08T09:33:30Z</time>
      </trkpt>
      <trkpt lat="45.87489" lon="4.8311">
        <ele>196</ele>
        <time>2018-04-08T09:33:31Z</time>
      </trkpt>
      <trkpt lat="45.87483" lon="4.83116">
        <ele>195</ele>
        <time>2018-04-08T09:33:32Z</time>
      </trkpt>
      <trkpt lat="45.87479" lon="4.83125">
        <ele>195</ele>
        <time>2018-04-08T09:33:33Z</time>
      </trkpt>
      <trkpt lat="45.87477" lon="4.83135">
        <ele>194</ele>
        <time>2018-04-08T09:33:34Z</time>
      </trkpt>
      <trkpt lat="45.87477" lon="4.83146">
        <ele>194</ele>
        <time>2018-04-08T09:33:35Z</time>
      </trkpt>
      <trkpt lat="45.87479" lon="4.83155">
        <ele>193</ele>
        <time>2018-04-08T09:33:36Z</time>
      </trkpt>
      <trkpt lat="45.87486" lon="4.83161">
        <ele>192</ele>
        <time>2018-04-08T09:33:37Z</time>
      </trkpt>
      <trkpt lat="45.87493" lon="4.83165">
        <ele>191</ele>
        <time>2018-04-08T09:33:38Z</time>
      </trkpt>
      <trkpt lat="45.875" lon="4.83165">
        <ele>190</ele>
        <time>2018-04-08T09:33:39Z</time>
      </trkpt>
      <trkpt lat="45.87507" lon="4.83163">
        <ele>190</ele>
        <time>2018-04-08T09:33:40Z</time>
      </trkpt>
      <trkpt lat="45.87514" lon="4.8316">
        <ele>190</ele>
        <time>2018-04-08T09:33:41Z</time>
      </trkpt>
      <trkpt lat="45.8752" lon="4.83158">
        <ele>190</ele>
        <time>2018-04-08T09:33:42Z</time>
      </trkpt>
      <trkpt lat="45.87527" lon="4.83159">
        <ele>190</ele>
        <time>2018-04-08T09:33:43Z</time>
      </trkpt>
      <trkpt lat="45.87533" lon="4.83163">
        <ele>190</ele>
        <time>2018-04-08T09:33:44Z</time>
      </trkpt>
      <trkpt lat="45.87539" lon="4.8317">
        <ele>184</ele>
        <time>2018-04-08T09:33:45Z</time>
      </trkpt>
      <trkpt lat="45.87544" lon="4.83178">
        <ele>183</ele>
        <time>2018-04-08T09:33:46Z</time>
      </trkpt>
      <trkpt lat="45.87549" lon="4.83187">
        <ele>183</ele>
        <time>2018-04-08T09:33:47Z</time>
      </trkpt>
      <trkpt lat="45.87554" lon="4.83196">
        <ele>183</ele>
        <time>2018-04-08T09:33:48Z</time>
      </trkpt>
      <trkpt lat="45.87558" lon="4.83205">
        <ele>182</ele>
        <time>2018-04-08T09:33:49Z</time>
      </trkpt>
      <trkpt lat="45.87562" lon="4.83213">
        <ele>182</ele>
        <time>2018-04-08T09:33:50Z</time>
      </trkpt>
      <trkpt lat="45.87565" lon="4.83221">
        <ele>181</ele>
        <time>2018-04-08T09:33:51Z</time>
      </trkpt>
      <trkpt lat="45.87566" lon="4.83229">
        <ele>181</ele>
        <time>2018-04-08T09:33:52Z</time>
      </trkpt>
      <trkpt lat="45.87565" lon="4.83236">
        <ele>181</ele>
        <time>2018-04-08T09:33:53Z</time>
      </trkpt>
      <trkpt lat="45.87563" lon="4.83244">
        <ele>180</ele>
        <time>2018-04-08T09:33:54Z</time>
      </trkpt>
      <trkpt lat="45.87556" lon="4.83249">
        <ele>181</ele>
        <time>2018-04-08T09:33:55Z</time>
      </trkpt>
      <trkpt lat="45.87549" lon="4.83253">
        <ele>178</ele>
        <time>2018-04-08T09:33:56Z</time>
      </trkpt>
      <trkpt lat="45.87544" lon="4.8326">
        <ele>178</ele>
        <time>2018-04-08T09:33:57Z</time>
      </trkpt>
      <trkpt lat="45.8754" lon="4.83266">
        <ele>178</ele>
        <time>2018-04-08T09:33:58Z</time>
      </trkpt>
      <trkpt lat="45.87536" lon="4.83272">
        <ele>178</ele>
        <time>2018-04-08T09:33:59Z</time>
      </trkpt>
      <trkpt lat="45.87534" lon="4.83281">
        <ele>178</ele>
        <time>2018-04-08T09:34:00Z</time>
      </trkpt>
      <trkpt lat="45.87534" lon="4.83292">
        <ele>178</ele>
        <time>2018-04-08T09:34:01Z</time>
      </trkpt>
      <trkpt lat="45.87536" lon="4.83301">
        <ele>177</ele>
        <time>2018-04-08T09:34:02Z</time>
      </trkpt>
      <trkpt lat="45.8754" lon="4.83309">
        <ele>177</ele>
        <time>2018-04-08T09:34:03Z</time>
      </trkpt>
      <trkpt lat="45.87544" lon="4.83317">
        <ele>177</ele>
        <time>2018-04-08T09:34:04Z</time>
      </trkpt>
      <trkpt lat="45.87549" lon="4.83324">
        <ele>177</ele>
        <time>2018-04-08T09:34:05Z</time>
      </trkpt>
      <trkpt lat="45.87553" lon="4.83332">
        <ele>177</ele>
        <time>2018-04-08T09:34:06Z</time>
      </trkpt>
      <trkpt lat="45.87559" lon="4.83342">
        <ele>176</ele>
        <time>2018-04-08T09:34:07Z</time>
      </trkpt>
      <trkpt lat="45.87565" lon="4.83352">
        <ele>175</ele>
        <time>2018-04-08T09:34:08Z</time>
      </trkpt>
      <trkpt lat="45.87571" lon="4.8336">
        <ele>175</ele>
        <time>2018-04-08T09:34:09Z</time>
      </trkpt>
      <trkpt lat="45.87577" lon="4.83368">
        <ele>175</ele>
        <time>2018-04-08T09:34:10Z</time>
      </trkpt>
      <trkpt lat="45.87585" lon="4.83378">
        <ele>174</ele>
        <time>2018-04-08T09:34:11Z</time>
      </trkpt>
      <trkpt lat="45.87591" lon="4.83385">
        <ele>174</ele>
        <time>2018-04-08T09:34:12Z</time>
      </trkpt>
      <trkpt lat="45.87598" lon="4.83392">
        <ele>174</ele>
        <time>2018-04-08T09:34:13Z</time>
      </trkpt>
      <trkpt lat="45.87605" lon="4.83399">
        <ele>174</ele>
        <time>2018-04-08T09:34:14Z</time>
      </trkpt>
      <trkpt lat="45.87612" lon="4.83406">
        <ele>174</ele>
        <time>2018-04-08T09:34:15Z</time>
      </trkpt>
      <trkpt lat="45.87618" lon="4.83413">
        <ele>174</ele>
        <time>2018-04-08T09:34:16Z</time>
      </trkpt>
      <trkpt lat="45.87624" lon="4.8342">
        <ele>172</ele>
        <time>2018-04-08T09:34:17Z</time>
      </trkpt>
      <trkpt lat="45.87631" lon="4.83427">
        <ele>172</ele>
        <time>2018-04-08T09:34:18Z</time>
      </trkpt>
      <trkpt lat="45.87636" lon="4.83433">
        <ele>172</ele>
        <time>2018-04-08T09:34:19Z</time>
      </trkpt>
      <trkpt lat="45.87641" lon="4.8344">
        <ele>172</ele>
        <time>2018-04-08T09:34:20Z</time>
      </trkpt>
      <trkpt lat="45.87646" lon="4.83447">
        <ele>172</ele>
        <time>2018-04-08T09:34:21Z</time>
      </trkpt>
      <trkpt lat="45.87652" lon="4.83453">
        <ele>172</ele>
        <time>2018-04-08T09:34:22Z</time>
      </trkpt>
      <trkpt lat="45.87656" lon="4.8346">
        <ele>172</ele>
        <time>2018-04-08T09:34:23Z</time>
      </trkpt>
      <trkpt lat="45.87659" lon="4.83468">
        <ele>172</ele>
        <time>2018-04-08T09:34:24Z</time>
      </trkpt>
      <trkpt lat="45.87661" lon="4.83476">
        <ele>171</ele>
        <time>2018-04-08T09:34:25Z</time>
      </trkpt>
      <trkpt lat="45.87665" lon="4.83488">
        <ele>171</ele>
        <time>2018-04-08T09:34:26Z</time>
      </trkpt>
      <trkpt lat="45.87666" lon="4.83499">
        <ele>171</ele>
        <time>2018-04-08T09:34:27Z</time>
      </trkpt>
      <trkpt lat="45.87668" lon="4.8351">
        <ele>170</ele>
        <time>2018-04-08T09:34:29Z</time>
      </trkpt>
      <trkpt lat="45.87669" lon="4.83513">
        <ele>170</ele>
        <time>2018-04-08T09:34:30Z</time>
      </trkpt>
      <trkpt lat="45.87669" lon="4.83523">
        <ele>169</ele>
        <time>2018-04-08T09:34:34Z</time>
      </trkpt>
      <trkpt lat="45.8767" lon="4.83526">
        <ele>169</ele>
        <time>2018-04-08T09:34:35Z</time>
      </trkpt>
      <trkpt lat="45.8767" lon="4.83536">
        <ele>169</ele>
        <time>2018-04-08T09:34:38Z</time>
      </trkpt>
      <trkpt lat="45.8767" lon="4.8354">
        <ele>168</ele>
        <time>2018-04-08T09:34:39Z</time>
      </trkpt>
      <trkpt lat="45.8767" lon="4.83544">
        <ele>168</ele>
        <time>2018-04-08T09:34:40Z</time>
      </trkpt>
      <trkpt lat="45.87671" lon="4.83556">
        <ele>167</ele>
        <time>2018-04-08T09:34:41Z</time>
      </trkpt>
      <trkpt lat="45.87674" lon="4.83566">
        <ele>167</ele>
        <time>2018-04-08T09:34:43Z</time>
      </trkpt>
      <trkpt lat="45.87675" lon="4.83571">
        <ele>167</ele>
        <time>2018-04-08T09:34:44Z</time>
      </trkpt>
      <trkpt lat="45.87676" lon="4.83584">
        <ele>165</ele>
        <time>2018-04-08T09:34:46Z</time>
      </trkpt>
      <trkpt lat="45.87676" lon="4.8359">
        <ele>165</ele>
        <time>2018-04-08T09:34:47Z</time>
      </trkpt>
      <trkpt lat="45.87675" lon="4.83597">
        <ele>165</ele>
        <time>2018-04-08T09:34:48Z</time>
      </trkpt>
      <trkpt lat="45.87676" lon="4.83603">
        <ele>165</ele>
        <time>2018-04-08T09:34:49Z</time>
      </trkpt>
      <trkpt lat="45.87676" lon="4.83606">
        <ele>165</ele>
        <time>2018-04-08T09:34:50Z</time>
      </trkpt>
      <trkpt lat="45.87678" lon="4.83616">
        <ele>165</ele>
        <time>2018-04-08T09:34:51Z</time>
      </trkpt>
      <trkpt lat="45.87679" lon="4.83621">
        <ele>165</ele>
        <time>2018-04-08T09:34:52Z</time>
      </trkpt>
      <trkpt lat="45.8768" lon="4.83628">
        <ele>165</ele>
        <time>2018-04-08T09:34:53Z</time>
      </trkpt>
      <trkpt lat="45.87681" lon="4.83635">
        <ele>165</ele>
        <time>2018-04-08T09:34:54Z</time>
      </trkpt>
      <trkpt lat="45.87681" lon="4.83643">
        <ele>165</ele>
        <time>2018-04-08T09:34:55Z</time>
      </trkpt>
      <trkpt lat="45.87681" lon="4.8365">
        <ele>165</ele>
        <time>2018-04-08T09:34:56Z</time>
      </trkpt>
      <trkpt lat="45.87682" lon="4.83658">
        <ele>165</ele>
        <time>2018-04-08T09:34:57Z</time>
      </trkpt>
      <trkpt lat="45.87682" lon="4.83665">
        <ele>165</ele>
        <time>2018-04-08T09:34:58Z</time>
      </trkpt>
      <trkpt lat="45.87682" lon="4.83671">
        <ele>165</ele>
        <time>2018-04-08T09:34:59Z</time>
      </trkpt>
      <trkpt lat="45.87682" lon="4.83678">
        <ele>165</ele>
        <time>2018-04-08T09:35:00Z</time>
      </trkpt>
      <trkpt lat="45.87683" lon="4.83684">
        <ele>165</ele>
        <time>2018-04-08T09:35:01Z</time>
      </trkpt>
      <trkpt lat="45.87684" lon="4.83692">
        <ele>165</ele>
        <time>2018-04-08T09:35:02Z</time>
      </trkpt>
      <trkpt lat="45.87685" lon="4.837">
        <ele>165</ele>
        <time>2018-04-08T09:35:03Z</time>
      </trkpt>
      <trkpt lat="45.87685" lon="4.83707">
        <ele>165</ele>
        <time>2018-04-08T09:35:04Z</time>
      </trkpt>
      <trkpt lat="45.87686" lon="4.83715">
        <ele>165</ele>
        <time>2018-04-08T09:35:05Z</time>
      </trkpt>
      <trkpt lat="45.87685" lon="4.83725">
        <ele>165</ele>
        <time>2018-04-08T09:35:06Z</time>
      </trkpt>
      <trkpt lat="45.87686" lon="4.83735">
        <ele>165</ele>
        <time>2018-04-08T09:35:07Z</time>
      </trkpt>
      <trkpt lat="45.87686" lon="4.83745">
        <ele>165</ele>
        <time>2018-04-08T09:35:08Z</time>
      </trkpt>
      <trkpt lat="45.87687" lon="4.83754">
        <ele>167</ele>
        <time>2018-04-08T09:35:09Z</time>
      </trkpt>
      <trkpt lat="45.87688" lon="4.83764">
        <ele>167</ele>
        <time>2018-04-08T09:35:10Z</time>
      </trkpt>
      <trkpt lat="45.87689" lon="4.83774">
        <ele>167</ele>
        <time>2018-04-08T09:35:11Z</time>
      </trkpt>
      <trkpt lat="45.8769" lon="4.83783">
        <ele>168</ele>
        <time>2018-04-08T09:35:12Z</time>
      </trkpt>
      <trkpt lat="45.87692" lon="4.83793">
        <ele>168</ele>
        <time>2018-04-08T09:35:13Z</time>
      </trkpt>
      <trkpt lat="45.87692" lon="4.83802">
        <ele>169</ele>
        <time>2018-04-08T09:35:14Z</time>
      </trkpt>
      <trkpt lat="45.87693" lon="4.8381">
        <ele>169</ele>
        <time>2018-04-08T09:35:15Z</time>
      </trkpt>
      <trkpt lat="45.87692" lon="4.83817">
        <ele>169</ele>
        <time>2018-04-08T09:35:16Z</time>
      </trkpt>
      <trkpt lat="45.87692" lon="4.83825">
        <ele>170</ele>
        <time>2018-04-08T09:35:17Z</time>
      </trkpt>
      <trkpt lat="45.87693" lon="4.83834">
        <ele>172</ele>
        <time>2018-04-08T09:35:18Z</time>
      </trkpt>
      <trkpt lat="45.87693" lon="4.83841">
        <ele>172</ele>
        <time>2018-04-08T09:35:19Z</time>
      </trkpt>
      <trkpt lat="45.87695" lon="4.83848">
        <ele>172</ele>
        <time>2018-04-08T09:35:20Z</time>
      </trkpt>
      <trkpt lat="45.87698" lon="4.83853">
        <ele>172</ele>
        <time>2018-04-08T09:35:21Z</time>
      </trkpt>
      <trkpt lat="45.87704" lon="4.83858">
        <ele>172</ele>
        <time>2018-04-08T09:35:22Z</time>
      </trkpt>
      <trkpt lat="45.87709" lon="4.83859">
        <ele>172</ele>
        <time>2018-04-08T09:35:23Z</time>
      </trkpt>
      <trkpt lat="45.87713" lon="4.83859">
        <ele>172</ele>
        <time>2018-04-08T09:35:24Z</time>
      </trkpt>
      <trkpt lat="45.87718" lon="4.83857">
        <ele>172</ele>
        <time>2018-04-08T09:35:25Z</time>
      </trkpt>
      <trkpt lat="45.87722" lon="4.83855">
        <ele>172</ele>
        <time>2018-04-08T09:35:26Z</time>
      </trkpt>
      <trkpt lat="45.87728" lon="4.83853">
        <ele>172</ele>
        <time>2018-04-08T09:35:27Z</time>
      </trkpt>
      <trkpt lat="45.87733" lon="4.83851">
        <ele>172</ele>
        <time>2018-04-08T09:35:28Z</time>
      </trkpt>
      <trkpt lat="45.87738" lon="4.83849">
        <ele>172</ele>
        <time>2018-04-08T09:35:29Z</time>
      </trkpt>
      <trkpt lat="45.87744" lon="4.83848">
        <ele>172</ele>
        <time>2018-04-08T09:35:30Z</time>
      </trkpt>
      <trkpt lat="45.87749" lon="4.83846">
        <ele>171</ele>
        <time>2018-04-08T09:35:31Z</time>
      </trkpt>
      <trkpt lat="45.87755" lon="4.83842">
        <ele>171</ele>
        <time>2018-04-08T09:35:32Z</time>
      </trkpt>
      <trkpt lat="45.87759" lon="4.83839">
        <ele>171</ele>
        <time>2018-04-08T09:35:33Z</time>
      </trkpt>
      <trkpt lat="45.87764" lon="4.83835">
        <ele>171</ele>
        <time>2018-04-08T09:35:34Z</time>
      </trkpt>
      <trkpt lat="45.8777" lon="4.83831">
        <ele>170</ele>
        <time>2018-04-08T09:35:35Z</time>
      </trkpt>
      <trkpt lat="45.87775" lon="4.83827">
        <ele>170</ele>
        <time>2018-04-08T09:35:36Z</time>
      </trkpt>
      <trkpt lat="45.8778" lon="4.83822">
        <ele>170</ele>
        <time>2018-04-08T09:35:37Z</time>
      </trkpt>
      <trkpt lat="45.87785" lon="4.83816">
        <ele>169</ele>
        <time>2018-04-08T09:35:38Z</time>
      </trkpt>
      <trkpt lat="45.87789" lon="4.83812">
        <ele>169</ele>
        <time>2018-04-08T09:35:39Z</time>
      </trkpt>
      <trkpt lat="45.87794" lon="4.83807">
        <ele>169</ele>
        <time>2018-04-08T09:35:40Z</time>
      </trkpt>
      <trkpt lat="45.87799" lon="4.83802">
        <ele>169</ele>
        <time>2018-04-08T09:35:41Z</time>
      </trkpt>
      <trkpt lat="45.87804" lon="4.83796">
        <ele>169</ele>
        <time>2018-04-08T09:35:42Z</time>
      </trkpt>
      <trkpt lat="45.87808" lon="4.83792">
        <ele>169</ele>
        <time>2018-04-08T09:35:43Z</time>
      </trkpt>
      <trkpt lat="45.87812" lon="4.83786">
        <ele>168</ele>
        <time>2018-04-08T09:35:44Z</time>
      </trkpt>
      <trkpt lat="45.87817" lon="4.83783">
        <ele>168</ele>
        <time>2018-04-08T09:35:45Z</time>
      </trkpt>
      <trkpt lat="45.87821" lon="4.83777">
        <ele>168</ele>
        <time>2018-04-08T09:35:46Z</time>
      </trkpt>
      <trkpt lat="45.87825" lon="4.83773">
        <ele>167</ele>
        <time>2018-04-08T09:35:47Z</time>
      </trkpt>
      <trkpt lat="45.8783" lon="4.8377">
        <ele>167</ele>
        <time>2018-04-08T09:35:48Z</time>
      </trkpt>
      <trkpt lat="45.87834" lon="4.83767">
        <ele>168</ele>
        <time>2018-04-08T09:35:49Z</time>
      </trkpt>
      <trkpt lat="45.87838" lon="4.83762">
        <ele>168</ele>
        <time>2018-04-08T09:35:50Z</time>
      </trkpt>
      <trkpt lat="45.87843" lon="4.83759">
        <ele>168</ele>
        <time>2018-04-08T09:35:51Z</time>
      </trkpt>
      <trkpt lat="45.87848" lon="4.83755">
        <ele>168</ele>
        <time>2018-04-08T09:35:52Z</time>
      </trkpt>
      <trkpt lat="45.87852" lon="4.83751">
        <ele>168</ele>
        <time>2018-04-08T09:35:53Z</time>
      </trkpt>
      <trkpt lat="45.87856" lon="4.83748">
        <ele>167</ele>
        <time>2018-04-08T09:35:54Z</time>
      </trkpt>
      <trkpt lat="45.8786" lon="4.83744">
        <ele>168</ele>
        <time>2018-04-08T09:35:55Z</time>
      </trkpt>
      <trkpt lat="45.87868" lon="4.83738">
        <ele>168</ele>
        <time>2018-04-08T09:35:57Z</time>
      </trkpt>
      <trkpt lat="45.87871" lon="4.83735">
        <ele>168</ele>
        <time>2018-04-08T09:35:58Z</time>
      </trkpt>
      <trkpt lat="45.87879" lon="4.83729">
        <ele>169</ele>
        <time>2018-04-08T09:36:00Z</time>
      </trkpt>
      <trkpt lat="45.87883" lon="4.83725">
        <ele>169</ele>
        <time>2018-04-08T09:36:01Z</time>
      </trkpt>
      <trkpt lat="45.8789" lon="4.83718">
        <ele>169</ele>
        <time>2018-04-08T09:36:03Z</time>
      </trkpt>
      <trkpt lat="45.87895" lon="4.83714">
        <ele>169</ele>
        <time>2018-04-08T09:36:04Z</time>
      </trkpt>
      <trkpt lat="45.87901" lon="4.83708">
        <ele>169</ele>
        <time>2018-04-08T09:36:06Z</time>
      </trkpt>
      <trkpt lat="45.87905" lon="4.83705">
        <ele>170</ele>
        <time>2018-04-08T09:36:07Z</time>
      </trkpt>
      <trkpt lat="45.87911" lon="4.83698">
        <ele>170</ele>
        <time>2018-04-08T09:36:11Z</time>
      </trkpt>
      <trkpt lat="45.87913" lon="4.83696">
        <ele>170</ele>
        <time>2018-04-08T09:36:12Z</time>
      </trkpt>
      <trkpt lat="45.87919" lon="4.83687">
        <ele>171</ele>
        <time>2018-04-08T09:36:30Z</time>
      </trkpt>
      <trkpt lat="45.8792" lon="4.83686">
        <ele>171</ele>
        <time>2018-04-08T09:36:31Z</time>
      </trkpt>
      <trkpt lat="45.87927" lon="4.83681">
        <ele>171</ele>
        <time>2018-04-08T09:36:35Z</time>
      </trkpt>
      <trkpt lat="45.87929" lon="4.83679">
        <ele>171</ele>
        <time>2018-04-08T09:36:36Z</time>
      </trkpt>
      <trkpt lat="45.87931" lon="4.83676">
        <ele>171</ele>
        <time>2018-04-08T09:36:37Z</time>
      </trkpt>
      <trkpt lat="45.87939" lon="4.83668">
        <ele>171</ele>
        <time>2018-04-08T09:36:38Z</time>
      </trkpt>
      <trkpt lat="45.87942" lon="4.83665">
        <ele>171</ele>
        <time>2018-04-08T09:36:40Z</time>
      </trkpt>
      <trkpt lat="45.87948" lon="4.83659">
        <ele>171</ele>
        <time>2018-04-08T09:36:41Z</time>
      </trkpt>
      <trkpt lat="45.87955" lon="4.83652">
        <ele>171</ele>
        <time>2018-04-08T09:36:43Z</time>
      </trkpt>
      <trkpt lat="45.8796" lon="4.83646">
        <ele>171</ele>
        <time>2018-04-08T09:36:44Z</time>
      </trkpt>
      <trkpt lat="45.87965" lon="4.83642">
        <ele>171</ele>
        <time>2018-04-08T09:36:45Z</time>
      </trkpt>
      <trkpt lat="45.8797" lon="4.83638">
        <ele>171</ele>
        <time>2018-04-08T09:36:46Z</time>
      </trkpt>
      <trkpt lat="45.87975" lon="4.83635">
        <ele>171</ele>
        <time>2018-04-08T09:36:47Z</time>
      </trkpt>
      <trkpt lat="45.8798" lon="4.83629">
        <ele>171</ele>
        <time>2018-04-08T09:36:48Z</time>
      </trkpt>
      <trkpt lat="45.87985" lon="4.83625">
        <ele>171</ele>
        <time>2018-04-08T09:36:49Z</time>
      </trkpt>
      <trkpt lat="45.8799" lon="4.83621">
        <ele>171</ele>
        <time>2018-04-08T09:36:50Z</time>
      </trkpt>
      <trkpt lat="45.87995" lon="4.83617">
        <ele>171</ele>
        <time>2018-04-08T09:36:51Z</time>
      </trkpt>
      <trkpt lat="45.88" lon="4.8361">
        <ele>171</ele>
        <time>2018-04-08T09:36:52Z</time>
      </trkpt>
      <trkpt lat="45.88004" lon="4.83606">
        <ele>172</ele>
        <time>2018-04-08T09:36:53Z</time>
      </trkpt>
      <trkpt lat="45.88008" lon="4.83602">
        <ele>172</ele>
        <time>2018-04-08T09:36:54Z</time>
      </trkpt>
      <trkpt lat="45.88016" lon="4.83593">
        <ele>172</ele>
        <time>2018-04-08T09:36:55Z</time>
      </trkpt>
      <trkpt lat="45.8802" lon="4.83589">
        <ele>172</ele>
        <time>2018-04-08T09:36:56Z</time>
      </trkpt>
      <trkpt lat="45.88025" lon="4.83585">
        <ele>172</ele>
        <time>2018-04-08T09:36:57Z</time>
      </trkpt>
      <trkpt lat="45.88029" lon="4.8358">
        <ele>172</ele>
        <time>2018-04-08T09:36:58Z</time>
      </trkpt>
      <trkpt lat="45.88034" lon="4.83576">
        <ele>172</ele>
        <time>2018-04-08T09:36:59Z</time>
      </trkpt>
      <trkpt lat="45.88039" lon="4.83573">
        <ele>172</ele>
        <time>2018-04-08T09:37:00Z</time>
      </trkpt>
      <trkpt lat="45.88042" lon="4.83568">
        <ele>172</ele>
        <time>2018-04-08T09:37:01Z</time>
      </trkpt>
      <trkpt lat="45.88046" lon="4.83563">
        <ele>172</ele>
        <time>2018-04-08T09:37:02Z</time>
      </trkpt>
      <trkpt lat="45.8805" lon="4.83557">
        <ele>172</ele>
        <time>2018-04-08T09:37:03Z</time>
      </trkpt>
      <trkpt lat="45.88055" lon="4.8355">
        <ele>173</ele>
        <time>2018-04-08T09:37:04Z</time>
      </trkpt>
      <trkpt lat="45.8806" lon="4.83542">
        <ele>173</ele>
        <time>2018-04-08T09:37:05Z</time>
      </trkpt>
      <trkpt lat="45.88065" lon="4.83537">
        <ele>173</ele>
        <time>2018-04-08T09:37:06Z</time>
      </trkpt>
      <trkpt lat="45.88071" lon="4.83529">
        <ele>173</ele>
        <time>2018-04-08T09:37:07Z</time>
      </trkpt>
      <trkpt lat="45.88076" lon="4.83526">
        <ele>173</ele>
        <time>2018-04-08T09:37:08Z</time>
      </trkpt>
      <trkpt lat="45.88082" lon="4.83522">
        <ele>173</ele>
        <time>2018-04-08T09:37:09Z</time>
      </trkpt>
      <trkpt lat="45.88087" lon="4.83518">
        <ele>173</ele>
        <time>2018-04-08T09:37:10Z</time>
      </trkpt>
      <trkpt lat="45.88091" lon="4.83515">
        <ele>173</ele>
        <time>2018-04-08T09:37:11Z</time>
      </trkpt>
      <trkpt lat="45.88095" lon="4.8351">
        <ele>173</ele>
        <time>2018-04-08T09:37:12Z</time>
      </trkpt>
      <trkpt lat="45.881" lon="4.83506">
        <ele>173</ele>
        <time>2018-04-08T09:37:13Z</time>
      </trkpt>
      <trkpt lat="45.88103" lon="4.83502">
        <ele>173</ele>
        <time>2018-04-08T09:37:14Z</time>
      </trkpt>
      <trkpt lat="45.88107" lon="4.83496">
        <ele>172</ele>
        <time>2018-04-08T09:37:15Z</time>
      </trkpt>
      <trkpt lat="45.88112" lon="4.83493">
        <ele>172</ele>
        <time>2018-04-08T09:37:16Z</time>
      </trkpt>
      <trkpt lat="45.88116" lon="4.83489">
        <ele>172</ele>
        <time>2018-04-08T09:37:17Z</time>
      </trkpt>
      <trkpt lat="45.8812" lon="4.83485">
        <ele>172</ele>
        <time>2018-04-08T09:37:18Z</time>
      </trkpt>
      <trkpt lat="45.88125" lon="4.83481">
        <ele>172</ele>
        <time>2018-04-08T09:37:19Z</time>
      </trkpt>
      <trkpt lat="45.8813" lon="4.83477">
        <ele>172</ele>
        <time>2018-04-08T09:37:20Z</time>
      </trkpt>
      <trkpt lat="45.88136" lon="4.83473">
        <ele>172</ele>
        <time>2018-04-08T09:37:21Z</time>
      </trkpt>
      <trkpt lat="45.8814" lon="4.8347">
        <ele>172</ele>
        <time>2018-04-08T09:37:22Z</time>
      </trkpt>
      <trkpt lat="45.88145" lon="4.83466">
        <ele>171</ele>
        <time>2018-04-08T09:37:23Z</time>
      </trkpt>
      <trkpt lat="45.8815" lon="4.83463">
        <ele>171</ele>
        <time>2018-04-08T09:37:24Z</time>
      </trkpt>
      <trkpt lat="45.88154" lon="4.83458">
        <ele>171</ele>
        <time>2018-04-08T09:37:25Z</time>
      </trkpt>
      <trkpt lat="45.88162" lon="4.83453">
        <ele>171</ele>
        <time>2018-04-08T09:37:27Z</time>
      </trkpt>
      <trkpt lat="45.88167" lon="4.83449">
        <ele>171</ele>
        <time>2018-04-08T09:37:28Z</time>
      </trkpt>
      <trkpt lat="45.88171" lon="4.83445">
        <ele>171</ele>
        <time>2018-04-08T09:37:29Z</time>
      </trkpt>
      <trkpt lat="45.88176" lon="4.83442">
        <ele>171</ele>
        <time>2018-04-08T09:37:30Z</time>
      </trkpt>
      <trkpt lat="45.88181" lon="4.83438">
        <ele>171</ele>
        <time>2018-04-08T09:37:31Z</time>
      </trkpt>
      <trkpt lat="45.88187" lon="4.83435">
        <ele>171</ele>
        <time>2018-04-08T09:37:32Z</time>
      </trkpt>
      <trkpt lat="45.88192" lon="4.83433">
        <ele>171</ele>
        <time>2018-04-08T09:37:33Z</time>
      </trkpt>
      <trkpt lat="45.88197" lon="4.8343">
        <ele>171</ele>
        <time>2018-04-08T09:37:34Z</time>
      </trkpt>
      <trkpt lat="45.88203" lon="4.83427">
        <ele>171</ele>
        <time>2018-04-08T09:37:35Z</time>
      </trkpt>
      <trkpt lat="45.88209" lon="4.83425">
        <ele>172</ele>
        <time>2018-04-08T09:37:36Z</time>
      </trkpt>
      <trkpt lat="45.88215" lon="4.83422">
        <ele>172</ele>
        <time>2018-04-08T09:37:37Z</time>
      </trkpt>
      <trkpt lat="45.8822" lon="4.8342">
        <ele>172</ele>
        <time>2018-04-08T09:37:38Z</time>
      </trkpt>
      <trkpt lat="45.88225" lon="4.83418">
        <ele>172</ele>
        <time>2018-04-08T09:37:39Z</time>
      </trkpt>
      <trkpt lat="45.8823" lon="4.83415">
        <ele>171</ele>
        <time>2018-04-08T09:37:40Z</time>
      </trkpt>
      <trkpt lat="45.88236" lon="4.83414">
        <ele>172</ele>
        <time>2018-04-08T09:37:41Z</time>
      </trkpt>
      <trkpt lat="45.88241" lon="4.83412">
        <ele>172</ele>
        <time>2018-04-08T09:37:42Z</time>
      </trkpt>
      <trkpt lat="45.88246" lon="4.8341">
        <ele>172</ele>
        <time>2018-04-08T09:37:43Z</time>
      </trkpt>
      <trkpt lat="45.88251" lon="4.83407">
        <ele>172</ele>
        <time>2018-04-08T09:37:44Z</time>
      </trkpt>
      <trkpt lat="45.88257" lon="4.83405">
        <ele>172</ele>
        <time>2018-04-08T09:37:45Z</time>
      </trkpt>
      <trkpt lat="45.88262" lon="4.83403">
        <ele>172</ele>
        <time>2018-04-08T09:37:46Z</time>
      </trkpt>
      <trkpt lat="45.88267" lon="4.83401">
        <ele>172</ele>
        <time>2018-04-08T09:37:47Z</time>
      </trkpt>
      <trkpt lat="45.88273" lon="4.83399">
        <ele>172</ele>
        <time>2018-04-08T09:37:48Z</time>
      </trkpt>
      <trkpt lat="45.88279" lon="4.83397">
        <ele>172</ele>
        <time>2018-04-08T09:37:49Z</time>
      </trkpt>
      <trkpt lat="45.88285" lon="4.83396">
        <ele>172</ele>
        <time>2018-04-08T09:37:50Z</time>
      </trkpt>
      <trkpt lat="45.8829" lon="4.83394">
        <ele>172</ele>
        <time>2018-04-08T09:37:51Z</time>
      </trkpt>
      <trkpt lat="45.88294" lon="4.83393">
        <ele>172</ele>
        <time>2018-04-08T09:37:52Z</time>
      </trkpt>
      <trkpt lat="45.88299" lon="4.8339">
        <ele>172</ele>
        <time>2018-04-08T09:37:53Z</time>
      </trkpt>
      <trkpt lat="45.88305" lon="4.83389">
        <ele>172</ele>
        <time>2018-04-08T09:37:54Z</time>
      </trkpt>
      <trkpt lat="45.8831" lon="4.83386">
        <ele>172</ele>
        <time>2018-04-08T09:37:55Z</time>
      </trkpt>
      <trkpt lat="45.88315" lon="4.83386">
        <ele>172</ele>
        <time>2018-04-08T09:37:56Z</time>
      </trkpt>
      <trkpt lat="45.88321" lon="4.83385">
        <ele>172</ele>
        <time>2018-04-08T09:37:57Z</time>
      </trkpt>
      <trkpt lat="45.88327" lon="4.83381">
        <ele>172</ele>
        <time>2018-04-08T09:37:58Z</time>
      </trkpt>
      <trkpt lat="45.88333" lon="4.8338">
        <ele>172</ele>
        <time>2018-04-08T09:37:59Z</time>
      </trkpt>
      <trkpt lat="45.88339" lon="4.83377">
        <ele>172</ele>
        <time>2018-04-08T09:38:00Z</time>
      </trkpt>
      <trkpt lat="45.88344" lon="4.83376">
        <ele>172</ele>
        <time>2018-04-08T09:38:01Z</time>
      </trkpt>
      <trkpt lat="45.88348" lon="4.83373">
        <ele>172</ele>
        <time>2018-04-08T09:38:02Z</time>
      </trkpt>
      <trkpt lat="45.88353" lon="4.8337">
        <ele>172</ele>
        <time>2018-04-08T09:38:03Z</time>
      </trkpt>
      <trkpt lat="45.88358" lon="4.83369">
        <ele>172</ele>
        <time>2018-04-08T09:38:04Z</time>
      </trkpt>
      <trkpt lat="45.88363" lon="4.83366">
        <ele>172</ele>
        <time>2018-04-08T09:38:05Z</time>
      </trkpt>
      <trkpt lat="45.88368" lon="4.83364">
        <ele>172</ele>
        <time>2018-04-08T09:38:06Z</time>
      </trkpt>
      <trkpt lat="45.88373" lon="4.83362">
        <ele>172</ele>
        <time>2018-04-08T09:38:07Z</time>
      </trkpt>
      <trkpt lat="45.88379" lon="4.8336">
        <ele>172</ele>
        <time>2018-04-08T09:38:08Z</time>
      </trkpt>
      <trkpt lat="45.88384" lon="4.83357">
        <ele>172</ele>
        <time>2018-04-08T09:38:09Z</time>
      </trkpt>
      <trkpt lat="45.88388" lon="4.83354">
        <ele>172</ele>
        <time>2018-04-08T09:38:10Z</time>
      </trkpt>
      <trkpt lat="45.88393" lon="4.83352">
        <ele>172</ele>
        <time>2018-04-08T09:38:11Z</time>
      </trkpt>
      <trkpt lat="45.88398" lon="4.83352">
        <ele>172</ele>
        <time>2018-04-08T09:38:12Z</time>
      </trkpt>
      <trkpt lat="45.88403" lon="4.83349">
        <ele>172</ele>
        <time>2018-04-08T09:38:13Z</time>
      </trkpt>
      <trkpt lat="45.88408" lon="4.83347">
        <ele>172</ele>
        <time>2018-04-08T09:38:14Z</time>
      </trkpt>
      <trkpt lat="45.88413" lon="4.83344">
        <ele>172</ele>
        <time>2018-04-08T09:38:15Z</time>
      </trkpt>
      <trkpt lat="45.88418" lon="4.83342">
        <ele>172</ele>
        <time>2018-04-08T09:38:16Z</time>
      </trkpt>
      <trkpt lat="45.88423" lon="4.83339">
        <ele>172</ele>
        <time>2018-04-08T09:38:17Z</time>
      </trkpt>
      <trkpt lat="45.88428" lon="4.83337">
        <ele>172</ele>
        <time>2018-04-08T09:38:18Z</time>
      </trkpt>
      <trkpt lat="45.88434" lon="4.83334">
        <ele>172</ele>
        <time>2018-04-08T09:38:19Z</time>
      </trkpt>
      <trkpt lat="45.88439" lon="4.83332">
        <ele>172</ele>
        <time>2018-04-08T09:38:20Z</time>
      </trkpt>
      <trkpt lat="45.88443" lon="4.8333">
        <ele>172</ele>
        <time>2018-04-08T09:38:21Z</time>
      </trkpt>
      <trkpt lat="45.88449" lon="4.83327">
        <ele>172</ele>
        <time>2018-04-08T09:38:22Z</time>
      </trkpt>
      <trkpt lat="45.88454" lon="4.83324">
        <ele>172</ele>
        <time>2018-04-08T09:38:23Z</time>
      </trkpt>
      <trkpt lat="45.88459" lon="4.83321">
        <ele>172</ele>
        <time>2018-04-08T09:38:24Z</time>
      </trkpt>
      <trkpt lat="45.88464" lon="4.83318">
        <ele>172</ele>
        <time>2018-04-08T09:38:25Z</time>
      </trkpt>
      <trkpt lat="45.88469" lon="4.83315">
        <ele>172</ele>
        <time>2018-04-08T09:38:26Z</time>
      </trkpt>
      <trkpt lat="45.88474" lon="4.83312">
        <ele>172</ele>
        <time>2018-04-08T09:38:27Z</time>
      </trkpt>
      <trkpt lat="45.8848" lon="4.83309">
        <ele>172</ele>
        <time>2018-04-08T09:38:28Z</time>
      </trkpt>
      <trkpt lat="45.88486" lon="4.83306">
        <ele>172</ele>
        <time>2018-04-08T09:38:29Z</time>
      </trkpt>
      <trkpt lat="45.8849" lon="4.83303">
        <ele>172</ele>
        <time>2018-04-08T09:38:30Z</time>
      </trkpt>
      <trkpt lat="45.88496" lon="4.83301">
        <ele>172</ele>
        <time>2018-04-08T09:38:31Z</time>
      </trkpt>
      <trkpt lat="45.88501" lon="4.83296">
        <ele>172</ele>
        <time>2018-04-08T09:38:32Z</time>
      </trkpt>
      <trkpt lat="45.88506" lon="4.83293">
        <ele>172</ele>
        <time>2018-04-08T09:38:33Z</time>
      </trkpt>
      <trkpt lat="45.88511" lon="4.83291">
        <ele>172</ele>
        <time>2018-04-08T09:38:34Z</time>
      </trkpt>
      <trkpt lat="45.88515" lon="4.83287">
        <ele>172</ele>
        <time>2018-04-08T09:38:35Z</time>
      </trkpt>
      <trkpt lat="45.8852" lon="4.83283">
        <ele>172</ele>
        <time>2018-04-08T09:38:36Z</time>
      </trkpt>
      <trkpt lat="45.88524" lon="4.83279">
        <ele>172</ele>
        <time>2018-04-08T09:38:37Z</time>
      </trkpt>
      <trkpt lat="45.88529" lon="4.83275">
        <ele>172</ele>
        <time>2018-04-08T09:38:38Z</time>
      </trkpt>
      <trkpt lat="45.88533" lon="4.83273">
        <ele>172</ele>
        <time>2018-04-08T09:38:39Z</time>
      </trkpt>
      <trkpt lat="45.88538" lon="4.83268">
        <ele>172</ele>
        <time>2018-04-08T09:38:40Z</time>
      </trkpt>
      <trkpt lat="45.88541" lon="4.83265">
        <ele>172</ele>
        <time>2018-04-08T09:38:41Z</time>
      </trkpt>
      <trkpt lat="45.88545" lon="4.83261">
        <ele>172</ele>
        <time>2018-04-08T09:38:42Z</time>
      </trkpt>
      <trkpt lat="45.88548" lon="4.83256">
        <ele>172</ele>
        <time>2018-04-08T09:38:43Z</time>
      </trkpt>
      <trkpt lat="45.88552" lon="4.83251">
        <ele>172</ele>
        <time>2018-04-08T09:38:44Z</time>
      </trkpt>
      <trkpt lat="45.88556" lon="4.83246">
        <ele>172</ele>
        <time>2018-04-08T09:38:45Z</time>
      </trkpt>
      <trkpt lat="45.88559" lon="4.83241">
        <ele>172</ele>
        <time>2018-04-08T09:38:46Z</time>
      </trkpt>
      <trkpt lat="45.88563" lon="4.83237">
        <ele>172</ele>
        <time>2018-04-08T09:38:47Z</time>
      </trkpt>
      <trkpt lat="45.88566" lon="4.83232">
        <ele>172</ele>
        <time>2018-04-08T09:38:48Z</time>
      </trkpt>
      <trkpt lat="45.8857" lon="4.83227">
        <ele>172</ele>
        <time>2018-04-08T09:38:49Z</time>
      </trkpt>
      <trkpt lat="45.88574" lon="4.83222">
        <ele>172</ele>
        <time>2018-04-08T09:38:50Z</time>
      </trkpt>
      <trkpt lat="45.88577" lon="4.83217">
        <ele>172</ele>
        <time>2018-04-08T09:38:51Z</time>
      </trkpt>
      <trkpt lat="45.88581" lon="4.83212">
        <ele>172</ele>
        <time>2018-04-08T09:38:52Z</time>
      </trkpt>
      <trkpt lat="45.88585" lon="4.83206">
        <ele>172</ele>
        <time>2018-04-08T09:38:53Z</time>
      </trkpt>
      <trkpt lat="45.88589" lon="4.83202">
        <ele>172</ele>
        <time>2018-04-08T09:38:54Z</time>
      </trkpt>
      <trkpt lat="45.88594" lon="4.83198">
        <ele>172</ele>
        <time>2018-04-08T09:38:55Z</time>
      </trkpt>
      <trkpt lat="45.88597" lon="4.83195">
        <ele>172</ele>
        <time>2018-04-08T09:38:56Z</time>
      </trkpt>
      <trkpt lat="45.88602" lon="4.8319">
        <ele>172</ele>
        <time>2018-04-08T09:38:57Z</time>
      </trkpt>
      <trkpt lat="45.88606" lon="4.83185">
        <ele>172</ele>
        <time>2018-04-08T09:38:58Z</time>
      </trkpt>
      <trkpt lat="45.8861" lon="4.8318">
        <ele>172</ele>
        <time>2018-04-08T09:38:59Z</time>
      </trkpt>
      <trkpt lat="45.88616" lon="4.83176">
        <ele>172</ele>
        <time>2018-04-08T09:39:00Z</time>
      </trkpt>
      <trkpt lat="45.8862" lon="4.83171">
        <ele>172</ele>
        <time>2018-04-08T09:39:01Z</time>
      </trkpt>
      <trkpt lat="45.88624" lon="4.83166">
        <ele>172</ele>
        <time>2018-04-08T09:39:02Z</time>
      </trkpt>
      <trkpt lat="45.8863" lon="4.83158">
        <ele>173</ele>
        <time>2018-04-08T09:39:04Z</time>
      </trkpt>
      <trkpt lat="45.88633" lon="4.83154">
        <ele>173</ele>
        <time>2018-04-08T09:39:05Z</time>
      </trkpt>
      <trkpt lat="45.88636" lon="4.8315">
        <ele>173</ele>
        <time>2018-04-08T09:39:06Z</time>
      </trkpt>
      <trkpt lat="45.8864" lon="4.83145">
        <ele>173</ele>
        <time>2018-04-08T09:39:07Z</time>
      </trkpt>
      <trkpt lat="45.88645" lon="4.83139">
        <ele>173</ele>
        <time>2018-04-08T09:39:08Z</time>
      </trkpt>
      <trkpt lat="45.88649" lon="4.83135">
        <ele>173</ele>
        <time>2018-04-08T09:39:09Z</time>
      </trkpt>
      <trkpt lat="45.88653" lon="4.83129">
        <ele>173</ele>
        <time>2018-04-08T09:39:10Z</time>
      </trkpt>
      <trkpt lat="45.88657" lon="4.83124">
        <ele>173</ele>
        <time>2018-04-08T09:39:11Z</time>
      </trkpt>
      <trkpt lat="45.88661" lon="4.8312">
        <ele>173</ele>
        <time>2018-04-08T09:39:12Z</time>
      </trkpt>
      <trkpt lat="45.88665" lon="4.83115">
        <ele>173</ele>
        <time>2018-04-08T09:39:13Z</time>
      </trkpt>
      <trkpt lat="45.88669" lon="4.83109">
        <ele>174</ele>
        <time>2018-04-08T09:39:14Z</time>
      </trkpt>
      <trkpt lat="45.88674" lon="4.83103">
        <ele>174</ele>
        <time>2018-04-08T09:39:15Z</time>
      </trkpt>
      <trkpt lat="45.88677" lon="4.831">
        <ele>174</ele>
        <time>2018-04-08T09:39:16Z</time>
      </trkpt>
      <trkpt lat="45.88681" lon="4.83096">
        <ele>174</ele>
        <time>2018-04-08T09:39:17Z</time>
      </trkpt>
      <trkpt lat="45.88686" lon="4.83092">
        <ele>174</ele>
        <time>2018-04-08T09:39:18Z</time>
      </trkpt>
      <trkpt lat="45.88689" lon="4.83087">
        <ele>174</ele>
        <time>2018-04-08T09:39:19Z</time>
      </trkpt>
      <trkpt lat="45.88693" lon="4.83083">
        <ele>174</ele>
        <time>2018-04-08T09:39:20Z</time>
      </trkpt>
      <trkpt lat="45.88697" lon="4.83078">
        <ele>174</ele>
        <time>2018-04-08T09:39:21Z</time>
      </trkpt>
      <trkpt lat="45.887" lon="4.83073">
        <ele>174</ele>
        <time>2018-04-08T09:39:22Z</time>
      </trkpt>
      <trkpt lat="45.88704" lon="4.83068">
        <ele>174</ele>
        <time>2018-04-08T09:39:23Z</time>
      </trkpt>
      <trkpt lat="45.88708" lon="4.83064">
        <ele>174</ele>
        <time>2018-04-08T09:39:24Z</time>
      </trkpt>
      <trkpt lat="45.88712" lon="4.83058">
        <ele>174</ele>
        <time>2018-04-08T09:39:25Z</time>
      </trkpt>
      <trkpt lat="45.88715" lon="4.83054">
        <ele>174</ele>
        <time>2018-04-08T09:39:26Z</time>
      </trkpt>
      <trkpt lat="45.88719" lon="4.83049">
        <ele>174</ele>
        <time>2018-04-08T09:39:27Z</time>
      </trkpt>
      <trkpt lat="45.88723" lon="4.83044">
        <ele>174</ele>
        <time>2018-04-08T09:39:28Z</time>
      </trkpt>
      <trkpt lat="45.88727" lon="4.8304">
        <ele>173</ele>
        <time>2018-04-08T09:39:29Z</time>
      </trkpt>
      <trkpt lat="45.8873" lon="4.83035">
        <ele>173</ele>
        <time>2018-04-08T09:39:30Z</time>
      </trkpt>
      <trkpt lat="45.88733" lon="4.83031">
        <ele>173</ele>
        <time>2018-04-08T09:39:31Z</time>
      </trkpt>
      <trkpt lat="45.88736" lon="4.83026">
        <ele>173</ele>
        <time>2018-04-08T09:39:32Z</time>
      </trkpt>
      <trkpt lat="45.8874" lon="4.83022">
        <ele>173</ele>
        <time>2018-04-08T09:39:33Z</time>
      </trkpt>
      <trkpt lat="45.88743" lon="4.83018">
        <ele>173</ele>
        <time>2018-04-08T09:39:34Z</time>
      </trkpt>
      <trkpt lat="45.88748" lon="4.83013">
        <ele>173</ele>
        <time>2018-04-08T09:39:35Z</time>
      </trkpt>
      <trkpt lat="45.88751" lon="4.83006">
        <ele>172</ele>
        <time>2018-04-08T09:39:36Z</time>
      </trkpt>
      <trkpt lat="45.88755" lon="4.83">
        <ele>172</ele>
        <time>2018-04-08T09:39:37Z</time>
      </trkpt>
      <trkpt lat="45.8876" lon="4.82996">
        <ele>172</ele>
        <time>2018-04-08T09:39:38Z</time>
      </trkpt>
      <trkpt lat="45.88763" lon="4.82992">
        <ele>172</ele>
        <time>2018-04-08T09:39:39Z</time>
      </trkpt>
      <trkpt lat="45.88767" lon="4.82987">
        <ele>172</ele>
        <time>2018-04-08T09:39:40Z</time>
      </trkpt>
      <trkpt lat="45.88771" lon="4.82983">
        <ele>172</ele>
        <time>2018-04-08T09:39:41Z</time>
      </trkpt>
      <trkpt lat="45.88774" lon="4.82978">
        <ele>172</ele>
        <time>2018-04-08T09:39:42Z</time>
      </trkpt>
      <trkpt lat="45.88777" lon="4.82974">
        <ele>172</ele>
        <time>2018-04-08T09:39:43Z</time>
      </trkpt>
      <trkpt lat="45.88781" lon="4.82968">
        <ele>172</ele>
        <time>2018-04-08T09:39:44Z</time>
      </trkpt>
      <trkpt lat="45.88785" lon="4.82964">
        <ele>172</ele>
        <time>2018-04-08T09:39:45Z</time>
      </trkpt>
      <trkpt lat="45.88788" lon="4.82959">
        <ele>172</ele>
        <time>2018-04-08T09:39:46Z</time>
      </trkpt>
      <trkpt lat="45.88792" lon="4.82955">
        <ele>172</ele>
        <time>2018-04-08T09:39:47Z</time>
      </trkpt>
      <trkpt lat="45.88796" lon="4.82951">
        <ele>172</ele>
        <time>2018-04-08T09:39:48Z</time>
      </trkpt>
      <trkpt lat="45.88801" lon="4.82946">
        <ele>172</ele>
        <time>2018-04-08T09:39:49Z</time>
      </trkpt>
      <trkpt lat="45.88804" lon="4.82942">
        <ele>172</ele>
        <time>2018-04-08T09:39:50Z</time>
      </trkpt>
      <trkpt lat="45.88808" lon="4.82936">
        <ele>172</ele>
        <time>2018-04-08T09:39:51Z</time>
      </trkpt>
      <trkpt lat="45.88811" lon="4.82931">
        <ele>172</ele>
        <time>2018-04-08T09:39:52Z</time>
      </trkpt>
      <trkpt lat="45.88815" lon="4.82927">
        <ele>172</ele>
        <time>2018-04-08T09:39:53Z</time>
      </trkpt>
      <trkpt lat="45.8882" lon="4.82922">
        <ele>172</ele>
        <time>2018-04-08T09:39:54Z</time>
      </trkpt>
      <trkpt lat="45.88824" lon="4.82917">
        <ele>172</ele>
        <time>2018-04-08T09:39:55Z</time>
      </trkpt>
      <trkpt lat="45.88828" lon="4.82912">
        <ele>172</ele>
        <time>2018-04-08T09:39:56Z</time>
      </trkpt>
      <trkpt lat="45.88832" lon="4.82907">
        <ele>172</ele>
        <time>2018-04-08T09:39:57Z</time>
      </trkpt>
      <trkpt lat="45.88836" lon="4.82902">
        <ele>172</ele>
        <time>2018-04-08T09:39:58Z</time>
      </trkpt>
      <trkpt lat="45.8884" lon="4.82896">
        <ele>172</ele>
        <time>2018-04-08T09:39:59Z</time>
      </trkpt>
      <trkpt lat="45.88845" lon="4.8289">
        <ele>172</ele>
        <time>2018-04-08T09:40:00Z</time>
      </trkpt>
      <trkpt lat="45.88849" lon="4.82885">
        <ele>172</ele>
        <time>2018-04-08T09:40:01Z</time>
      </trkpt>
      <trkpt lat="45.88853" lon="4.8288">
        <ele>172</ele>
        <time>2018-04-08T09:40:02Z</time>
      </trkpt>
      <trkpt lat="45.88857" lon="4.82875">
        <ele>172</ele>
        <time>2018-04-08T09:40:03Z</time>
      </trkpt>
      <trkpt lat="45.88861" lon="4.8287">
        <ele>172</ele>
        <time>2018-04-08T09:40:04Z</time>
      </trkpt>
      <trkpt lat="45.88865" lon="4.82866">
        <ele>172</ele>
        <time>2018-04-08T09:40:05Z</time>
      </trkpt>
      <trkpt lat="45.88869" lon="4.82861">
        <ele>172</ele>
        <time>2018-04-08T09:40:06Z</time>
      </trkpt>
      <trkpt lat="45.88873" lon="4.82856">
        <ele>172</ele>
        <time>2018-04-08T09:40:07Z</time>
      </trkpt>
      <trkpt lat="45.88878" lon="4.82851">
        <ele>172</ele>
        <time>2018-04-08T09:40:08Z</time>
      </trkpt>
      <trkpt lat="45.88882" lon="4.82846">
        <ele>172</ele>
        <time>2018-04-08T09:40:09Z</time>
      </trkpt>
      <trkpt lat="45.88888" lon="4.82838">
        <ele>172</ele>
        <time>2018-04-08T09:40:10Z</time>
      </trkpt>
      <trkpt lat="45.88892" lon="4.82834">
        <ele>172</ele>
        <time>2018-04-08T09:40:11Z</time>
      </trkpt>
      <trkpt lat="45.88896" lon="4.82828">
        <ele>172</ele>
        <time>2018-04-08T09:40:12Z</time>
      </trkpt>
      <trkpt lat="45.889" lon="4.82823">
        <ele>172</ele>
        <time>2018-04-08T09:40:13Z</time>
      </trkpt>
      <trkpt lat="45.88905" lon="4.82818">
        <ele>172</ele>
        <time>2018-04-08T09:40:14Z</time>
      </trkpt>
      <trkpt lat="45.88909" lon="4.82814">
        <ele>172</ele>
        <time>2018-04-08T09:40:15Z</time>
      </trkpt>
      <trkpt lat="45.88913" lon="4.82809">
        <ele>172</ele>
        <time>2018-04-08T09:40:16Z</time>
      </trkpt>
      <trkpt lat="45.88916" lon="4.82804">
        <ele>171</ele>
        <time>2018-04-08T09:40:17Z</time>
      </trkpt>
      <trkpt lat="45.8892" lon="4.82799">
        <ele>172</ele>
        <time>2018-04-08T09:40:18Z</time>
      </trkpt>
      <trkpt lat="45.88925" lon="4.82794">
        <ele>172</ele>
        <time>2018-04-08T09:40:19Z</time>
      </trkpt>
      <trkpt lat="45.88928" lon="4.82789">
        <ele>172</ele>
        <time>2018-04-08T09:40:20Z</time>
      </trkpt>
      <trkpt lat="45.88933" lon="4.82785">
        <ele>172</ele>
        <time>2018-04-08T09:40:21Z</time>
      </trkpt>
      <trkpt lat="45.88937" lon="4.8278">
        <ele>172</ele>
        <time>2018-04-08T09:40:22Z</time>
      </trkpt>
      <trkpt lat="45.88941" lon="4.82776">
        <ele>172</ele>
        <time>2018-04-08T09:40:23Z</time>
      </trkpt>
      <trkpt lat="45.88945" lon="4.8277">
        <ele>172</ele>
        <time>2018-04-08T09:40:24Z</time>
      </trkpt>
      <trkpt lat="45.88949" lon="4.82767">
        <ele>172</ele>
        <time>2018-04-08T09:40:25Z</time>
      </trkpt>
      <trkpt lat="45.88951" lon="4.82763">
        <ele>172</ele>
        <time>2018-04-08T09:40:26Z</time>
      </trkpt>
      <trkpt lat="45.88956" lon="4.82758">
        <ele>172</ele>
        <time>2018-04-08T09:40:27Z</time>
      </trkpt>
      <trkpt lat="45.88959" lon="4.82754">
        <ele>172</ele>
        <time>2018-04-08T09:40:28Z</time>
      </trkpt>
      <trkpt lat="45.88962" lon="4.8275">
        <ele>172</ele>
        <time>2018-04-08T09:40:29Z</time>
      </trkpt>
      <trkpt lat="45.88966" lon="4.82743">
        <ele>172</ele>
        <time>2018-04-08T09:40:30Z</time>
      </trkpt>
      <trkpt lat="45.88969" lon="4.82737">
        <ele>172</ele>
        <time>2018-04-08T09:40:31Z</time>
      </trkpt>
      <trkpt lat="45.88973" lon="4.82732">
        <ele>173</ele>
        <time>2018-04-08T09:40:32Z</time>
      </trkpt>
      <trkpt lat="45.88977" lon="4.82727">
        <ele>173</ele>
        <time>2018-04-08T09:40:33Z</time>
      </trkpt>
      <trkpt lat="45.88983" lon="4.82719">
        <ele>173</ele>
        <time>2018-04-08T09:40:35Z</time>
      </trkpt>
      <trkpt lat="45.88986" lon="4.82713">
        <ele>173</ele>
        <time>2018-04-08T09:40:36Z</time>
      </trkpt>
      <trkpt lat="45.88991" lon="4.82703">
        <ele>173</ele>
        <time>2018-04-08T09:40:38Z</time>
      </trkpt>
      <trkpt lat="45.88993" lon="4.82697">
        <ele>173</ele>
        <time>2018-04-08T09:40:39Z</time>
      </trkpt>
      <trkpt lat="45.88997" lon="4.82691">
        <ele>173</ele>
        <time>2018-04-08T09:40:40Z</time>
      </trkpt>
      <trkpt lat="45.89001" lon="4.82686">
        <ele>173</ele>
        <time>2018-04-08T09:40:41Z</time>
      </trkpt>
      <trkpt lat="45.89004" lon="4.82679">
        <ele>173</ele>
        <time>2018-04-08T09:40:42Z</time>
      </trkpt>
      <trkpt lat="45.89008" lon="4.82672">
        <ele>173</ele>
        <time>2018-04-08T09:40:43Z</time>
      </trkpt>
      <trkpt lat="45.89011" lon="4.82666">
        <ele>173</ele>
        <time>2018-04-08T09:40:44Z</time>
      </trkpt>
      <trkpt lat="45.89014" lon="4.82659">
        <ele>173</ele>
        <time>2018-04-08T09:40:45Z</time>
      </trkpt>
      <trkpt lat="45.89017" lon="4.82653">
        <ele>173</ele>
        <time>2018-04-08T09:40:46Z</time>
      </trkpt>
      <trkpt lat="45.8902" lon="4.82646">
        <ele>174</ele>
        <time>2018-04-08T09:40:47Z</time>
      </trkpt>
      <trkpt lat="45.89023" lon="4.8264">
        <ele>174</ele>
        <time>2018-04-08T09:40:48Z</time>
      </trkpt>
      <trkpt lat="45.89025" lon="4.82634">
        <ele>174</ele>
        <time>2018-04-08T09:40:49Z</time>
      </trkpt>
      <trkpt lat="45.89028" lon="4.82628">
        <ele>174</ele>
        <time>2018-04-08T09:40:50Z</time>
      </trkpt>
      <trkpt lat="45.8903" lon="4.82621">
        <ele>174</ele>
        <time>2018-04-08T09:40:51Z</time>
      </trkpt>
      <trkpt lat="45.89033" lon="4.82615">
        <ele>174</ele>
        <time>2018-04-08T09:40:52Z</time>
      </trkpt>
      <trkpt lat="45.89036" lon="4.82609">
        <ele>174</ele>
        <time>2018-04-08T09:40:53Z</time>
      </trkpt>
      <trkpt lat="45.89039" lon="4.82604">
        <ele>174</ele>
        <time>2018-04-08T09:40:54Z</time>
      </trkpt>
      <trkpt lat="45.89041" lon="4.82598">
        <ele>174</ele>
        <time>2018-04-08T09:40:55Z</time>
      </trkpt>
      <trkpt lat="45.89045" lon="4.82592">
        <ele>174</ele>
        <time>2018-04-08T09:40:56Z</time>
      </trkpt>
      <trkpt lat="45.89047" lon="4.82587">
        <ele>174</ele>
        <time>2018-04-08T09:40:57Z</time>
      </trkpt>
      <trkpt lat="45.89053" lon="4.82578">
        <ele>174</ele>
        <time>2018-04-08T09:41:00Z</time>
      </trkpt>
      <trkpt lat="45.89054" lon="4.82577">
        <ele>174</ele>
        <time>2018-04-08T09:41:01Z</time>
      </trkpt>
      <trkpt lat="45.89061" lon="4.82575">
        <ele>174</ele>
        <time>2018-04-08T09:41:06Z</time>
      </trkpt>
      <trkpt lat="45.89068" lon="4.82579">
        <ele>174</ele>
        <time>2018-04-08T09:41:07Z</time>
      </trkpt>
      <trkpt lat="45.89073" lon="4.82589">
        <ele>174</ele>
        <time>2018-04-08T09:41:09Z</time>
      </trkpt>
      <trkpt lat="45.89076" lon="4.82594">
        <ele>174</ele>
        <time>2018-04-08T09:41:10Z</time>
      </trkpt>
      <trkpt lat="45.8908" lon="4.82599">
        <ele>174</ele>
        <time>2018-04-08T09:41:11Z</time>
      </trkpt>
      <trkpt lat="45.89084" lon="4.82603">
        <ele>174</ele>
        <time>2018-04-08T09:41:12Z</time>
      </trkpt>
      <trkpt lat="45.89088" lon="4.82607">
        <ele>174</ele>
        <time>2018-04-08T09:41:13Z</time>
      </trkpt>
      <trkpt lat="45.89093" lon="4.82609">
        <ele>174</ele>
        <time>2018-04-08T09:41:14Z</time>
      </trkpt>
      <trkpt lat="45.89099" lon="4.82611">
        <ele>174</ele>
        <time>2018-04-08T09:41:15Z</time>
      </trkpt>
      <trkpt lat="45.89104" lon="4.82611">
        <ele>174</ele>
        <time>2018-04-08T09:41:16Z</time>
      </trkpt>
      <trkpt lat="45.89109" lon="4.82611">
        <ele>174</ele>
        <time>2018-04-08T09:41:17Z</time>
      </trkpt>
      <trkpt lat="45.89114" lon="4.8261">
        <ele>174</ele>
        <time>2018-04-08T09:41:18Z</time>
      </trkpt>
      <trkpt lat="45.89118" lon="4.82608">
        <ele>174</ele>
        <time>2018-04-08T09:41:19Z</time>
      </trkpt>
      <trkpt lat="45.89123" lon="4.82604">
        <ele>174</ele>
        <time>2018-04-08T09:41:20Z</time>
      </trkpt>
      <trkpt lat="45.89127" lon="4.82598">
        <ele>174</ele>
        <time>2018-04-08T09:41:21Z</time>
      </trkpt>
      <trkpt lat="45.8913" lon="4.82591">
        <ele>174</ele>
        <time>2018-04-08T09:41:22Z</time>
      </trkpt>
      <trkpt lat="45.89132" lon="4.82585">
        <ele>174</ele>
        <time>2018-04-08T09:41:23Z</time>
      </trkpt>
      <trkpt lat="45.89134" lon="4.82577">
        <ele>173</ele>
        <time>2018-04-08T09:41:24Z</time>
      </trkpt>
      <trkpt lat="45.89137" lon="4.8257">
        <ele>173</ele>
        <time>2018-04-08T09:41:25Z</time>
      </trkpt>
      <trkpt lat="45.89139" lon="4.82563">
        <ele>173</ele>
        <time>2018-04-08T09:41:26Z</time>
      </trkpt>
      <trkpt lat="45.89143" lon="4.82557">
        <ele>173</ele>
        <time>2018-04-08T09:41:27Z</time>
      </trkpt>
      <trkpt lat="45.89147" lon="4.82552">
        <ele>173</ele>
        <time>2018-04-08T09:41:28Z</time>
      </trkpt>
      <trkpt lat="45.89151" lon="4.82546">
        <ele>173</ele>
        <time>2018-04-08T09:41:29Z</time>
      </trkpt>
      <trkpt lat="45.89156" lon="4.82541">
        <ele>173</ele>
        <time>2018-04-08T09:41:30Z</time>
      </trkpt>
      <trkpt lat="45.89161" lon="4.82536">
        <ele>173</ele>
        <time>2018-04-08T09:41:31Z</time>
      </trkpt>
      <trkpt lat="45.89165" lon="4.82531">
        <ele>173</ele>
        <time>2018-04-08T09:41:32Z</time>
      </trkpt>
      <trkpt lat="45.89169" lon="4.82527">
        <ele>172</ele>
        <time>2018-04-08T09:41:33Z</time>
      </trkpt>
      <trkpt lat="45.89174" lon="4.82523">
        <ele>172</ele>
        <time>2018-04-08T09:41:34Z</time>
      </trkpt>
      <trkpt lat="45.89178" lon="4.82519">
        <ele>172</ele>
        <time>2018-04-08T09:41:35Z</time>
      </trkpt>
      <trkpt lat="45.89183" lon="4.82514">
        <ele>172</ele>
        <time>2018-04-08T09:41:36Z</time>
      </trkpt>
      <trkpt lat="45.89188" lon="4.8251">
        <ele>172</ele>
        <time>2018-04-08T09:41:37Z</time>
      </trkpt>
      <trkpt lat="45.89192" lon="4.82505">
        <ele>172</ele>
        <time>2018-04-08T09:41:38Z</time>
      </trkpt>
      <trkpt lat="45.89197" lon="4.825">
        <ele>172</ele>
        <time>2018-04-08T09:41:39Z</time>
      </trkpt>
      <trkpt lat="45.89202" lon="4.82495">
        <ele>172</ele>
        <time>2018-04-08T09:41:40Z</time>
      </trkpt>
      <trkpt lat="45.89207" lon="4.82491">
        <ele>172</ele>
        <time>2018-04-08T09:41:41Z</time>
      </trkpt>
      <trkpt lat="45.89211" lon="4.82486">
        <ele>173</ele>
        <time>2018-04-08T09:41:42Z</time>
      </trkpt>
      <trkpt lat="45.89216" lon="4.82482">
        <ele>173</ele>
        <time>2018-04-08T09:41:43Z</time>
      </trkpt>
      <trkpt lat="45.8922" lon="4.82478">
        <ele>173</ele>
        <time>2018-04-08T09:41:44Z</time>
      </trkpt>
      <trkpt lat="45.89223" lon="4.82474">
        <ele>173</ele>
        <time>2018-04-08T09:41:45Z</time>
      </trkpt>
      <trkpt lat="45.89228" lon="4.82468">
        <ele>173</ele>
        <time>2018-04-08T09:41:46Z</time>
      </trkpt>
      <trkpt lat="45.89232" lon="4.82463">
        <ele>173</ele>
        <time>2018-04-08T09:41:47Z</time>
      </trkpt>
      <trkpt lat="45.89237" lon="4.82457">
        <ele>173</ele>
        <time>2018-04-08T09:41:48Z</time>
      </trkpt>
      <trkpt lat="45.89241" lon="4.82451">
        <ele>173</ele>
        <time>2018-04-08T09:41:49Z</time>
      </trkpt>
      <trkpt lat="45.89246" lon="4.82446">
        <ele>173</ele>
        <time>2018-04-08T09:41:50Z</time>
      </trkpt>
      <trkpt lat="45.89251" lon="4.8244">
        <ele>173</ele>
        <time>2018-04-08T09:41:51Z</time>
      </trkpt>
      <trkpt lat="45.89255" lon="4.82434">
        <ele>173</ele>
        <time>2018-04-08T09:41:52Z</time>
      </trkpt>
      <trkpt lat="45.8926" lon="4.82428">
        <ele>173</ele>
        <time>2018-04-08T09:41:53Z</time>
      </trkpt>
      <trkpt lat="45.89265" lon="4.82423">
        <ele>173</ele>
        <time>2018-04-08T09:41:54Z</time>
      </trkpt>
      <trkpt lat="45.89269" lon="4.82417">
        <ele>173</ele>
        <time>2018-04-08T09:41:55Z</time>
      </trkpt>
      <trkpt lat="45.89274" lon="4.82411">
        <ele>173</ele>
        <time>2018-04-08T09:41:56Z</time>
      </trkpt>
      <trkpt lat="45.89278" lon="4.82406">
        <ele>173</ele>
        <time>2018-04-08T09:41:57Z</time>
      </trkpt>
      <trkpt lat="45.89282" lon="4.824">
        <ele>173</ele>
        <time>2018-04-08T09:41:58Z</time>
      </trkpt>
      <trkpt lat="45.89286" lon="4.82395">
        <ele>173</ele>
        <time>2018-04-08T09:41:59Z</time>
      </trkpt>
      <trkpt lat="45.8929" lon="4.8239">
        <ele>173</ele>
        <time>2018-04-08T09:42:00Z</time>
      </trkpt>
      <trkpt lat="45.89295" lon="4.82383">
        <ele>173</ele>
        <time>2018-04-08T09:42:01Z</time>
      </trkpt>
      <trkpt lat="45.89299" lon="4.82378">
        <ele>173</ele>
        <time>2018-04-08T09:42:02Z</time>
      </trkpt>
      <trkpt lat="45.89304" lon="4.82373">
        <ele>173</ele>
        <time>2018-04-08T09:42:03Z</time>
      </trkpt>
      <trkpt lat="45.89309" lon="4.82368">
        <ele>173</ele>
        <time>2018-04-08T09:42:04Z</time>
      </trkpt>
      <trkpt lat="45.89313" lon="4.82362">
        <ele>173</ele>
        <time>2018-04-08T09:42:05Z</time>
      </trkpt>
      <trkpt lat="45.89317" lon="4.82357">
        <ele>173</ele>
        <time>2018-04-08T09:42:06Z</time>
      </trkpt>
      <trkpt lat="45.89321" lon="4.82352">
        <ele>173</ele>
        <time>2018-04-08T09:42:07Z</time>
      </trkpt>
      <trkpt lat="45.89326" lon="4.82348">
        <ele>173</ele>
        <time>2018-04-08T09:42:08Z</time>
      </trkpt>
      <trkpt lat="45.89329" lon="4.82344">
        <ele>172</ele>
        <time>2018-04-08T09:42:09Z</time>
      </trkpt>
      <trkpt lat="45.89333" lon="4.8234">
        <ele>172</ele>
        <time>2018-04-08T09:42:10Z</time>
      </trkpt>
      <trkpt lat="45.89335" lon="4.82338">
        <ele>172</ele>
        <time>2018-04-08T09:42:11Z</time>
      </trkpt>
      <trkpt lat="45.89342" lon="4.82329">
        <ele>172</ele>
        <time>2018-04-08T09:42:12Z</time>
      </trkpt>
      <trkpt lat="45.89346" lon="4.82325">
        <ele>172</ele>
        <time>2018-04-08T09:42:13Z</time>
      </trkpt>
      <trkpt lat="45.8935" lon="4.82319">
        <ele>172</ele>
        <time>2018-04-08T09:42:14Z</time>
      </trkpt>
      <trkpt lat="45.89354" lon="4.82313">
        <ele>172</ele>
        <time>2018-04-08T09:42:15Z</time>
      </trkpt>
      <trkpt lat="45.89358" lon="4.82308">
        <ele>172</ele>
        <time>2018-04-08T09:42:16Z</time>
      </trkpt>
      <trkpt lat="45.89363" lon="4.82303">
        <ele>172</ele>
        <time>2018-04-08T09:42:17Z</time>
      </trkpt>
      <trkpt lat="45.89366" lon="4.82298">
        <ele>172</ele>
        <time>2018-04-08T09:42:18Z</time>
      </trkpt>
      <trkpt lat="45.8937" lon="4.82294">
        <ele>172</ele>
        <time>2018-04-08T09:42:19Z</time>
      </trkpt>
      <trkpt lat="45.89374" lon="4.82289">
        <ele>172</ele>
        <time>2018-04-08T09:42:20Z</time>
      </trkpt>
      <trkpt lat="45.89378" lon="4.82285">
        <ele>172</ele>
        <time>2018-04-08T09:42:21Z</time>
      </trkpt>
      <trkpt lat="45.89381" lon="4.8228">
        <ele>172</ele>
        <time>2018-04-08T09:42:22Z</time>
      </trkpt>
      <trkpt lat="45.89385" lon="4.82275">
        <ele>172</ele>
        <time>2018-04-08T09:42:23Z</time>
      </trkpt>
      <trkpt lat="45.89388" lon="4.82271">
        <ele>172</ele>
        <time>2018-04-08T09:42:24Z</time>
      </trkpt>
      <trkpt lat="45.89392" lon="4.82266">
        <ele>172</ele>
        <time>2018-04-08T09:42:25Z</time>
      </trkpt>
      <trkpt lat="45.89397" lon="4.82261">
        <ele>172</ele>
        <time>2018-04-08T09:42:26Z</time>
      </trkpt>
      <trkpt lat="45.89401" lon="4.82255">
        <ele>171</ele>
        <time>2018-04-08T09:42:27Z</time>
      </trkpt>
      <trkpt lat="45.89407" lon="4.82248">
        <ele>171</ele>
        <time>2018-04-08T09:42:28Z</time>
      </trkpt>
      <trkpt lat="45.89411" lon="4.82242">
        <ele>171</ele>
        <time>2018-04-08T09:42:29Z</time>
      </trkpt>
      <trkpt lat="45.89415" lon="4.82237">
        <ele>171</ele>
        <time>2018-04-08T09:42:30Z</time>
      </trkpt>
      <trkpt lat="45.89419" lon="4.82232">
        <ele>171</ele>
        <time>2018-04-08T09:42:31Z</time>
      </trkpt>
      <trkpt lat="45.89423" lon="4.82227">
        <ele>171</ele>
        <time>2018-04-08T09:42:32Z</time>
      </trkpt>
      <trkpt lat="45.89428" lon="4.82221">
        <ele>171</ele>
        <time>2018-04-08T09:42:33Z</time>
      </trkpt>
      <trkpt lat="45.89433" lon="4.82214">
        <ele>171</ele>
        <time>2018-04-08T09:42:34Z</time>
      </trkpt>
      <trkpt lat="45.89437" lon="4.82209">
        <ele>171</ele>
        <time>2018-04-08T09:42:35Z</time>
      </trkpt>
      <trkpt lat="45.89441" lon="4.82204">
        <ele>171</ele>
        <time>2018-04-08T09:42:36Z</time>
      </trkpt>
      <trkpt lat="45.89446" lon="4.822">
        <ele>171</ele>
        <time>2018-04-08T09:42:37Z</time>
      </trkpt>
      <trkpt lat="45.8945" lon="4.82196">
        <ele>171</ele>
        <time>2018-04-08T09:42:38Z</time>
      </trkpt>
      <trkpt lat="45.89455" lon="4.82192">
        <ele>171</ele>
        <time>2018-04-08T09:42:39Z</time>
      </trkpt>
      <trkpt lat="45.8946" lon="4.82188">
        <ele>171</ele>
        <time>2018-04-08T09:42:40Z</time>
      </trkpt>
      <trkpt lat="45.89465" lon="4.82184">
        <ele>171</ele>
        <time>2018-04-08T09:42:41Z</time>
      </trkpt>
      <trkpt lat="45.89469" lon="4.82181">
        <ele>171</ele>
        <time>2018-04-08T09:42:42Z</time>
      </trkpt>
      <trkpt lat="45.89475" lon="4.82177">
        <ele>171</ele>
        <time>2018-04-08T09:42:43Z</time>
      </trkpt>
      <trkpt lat="45.8948" lon="4.82173">
        <ele>171</ele>
        <time>2018-04-08T09:42:44Z</time>
      </trkpt>
      <trkpt lat="45.89485" lon="4.8217">
        <ele>171</ele>
        <time>2018-04-08T09:42:45Z</time>
      </trkpt>
      <trkpt lat="45.8949" lon="4.82165">
        <ele>171</ele>
        <time>2018-04-08T09:42:46Z</time>
      </trkpt>
      <trkpt lat="45.89495" lon="4.82161">
        <ele>171</ele>
        <time>2018-04-08T09:42:47Z</time>
      </trkpt>
      <trkpt lat="45.895" lon="4.82157">
        <ele>171</ele>
        <time>2018-04-08T09:42:48Z</time>
      </trkpt>
      <trkpt lat="45.89504" lon="4.82153">
        <ele>172</ele>
        <time>2018-04-08T09:42:49Z</time>
      </trkpt>
      <trkpt lat="45.89509" lon="4.82149">
        <ele>172</ele>
        <time>2018-04-08T09:42:50Z</time>
      </trkpt>
      <trkpt lat="45.89514" lon="4.82145">
        <ele>172</ele>
        <time>2018-04-08T09:42:51Z</time>
      </trkpt>
      <trkpt lat="45.8952" lon="4.8214">
        <ele>172</ele>
        <time>2018-04-08T09:42:52Z</time>
      </trkpt>
      <trkpt lat="45.89526" lon="4.82136">
        <ele>172</ele>
        <time>2018-04-08T09:42:53Z</time>
      </trkpt>
      <trkpt lat="45.89531" lon="4.82136">
        <ele>172</ele>
        <time>2018-04-08T09:42:54Z</time>
      </trkpt>
      <trkpt lat="45.89536" lon="4.82133">
        <ele>172</ele>
        <time>2018-04-08T09:42:55Z</time>
      </trkpt>
      <trkpt lat="45.89541" lon="4.82129">
        <ele>172</ele>
        <time>2018-04-08T09:42:56Z</time>
      </trkpt>
      <trkpt lat="45.89545" lon="4.82124">
        <ele>173</ele>
        <time>2018-04-08T09:42:57Z</time>
      </trkpt>
      <trkpt lat="45.89547" lon="4.82118">
        <ele>173</ele>
        <time>2018-04-08T09:42:58Z</time>
      </trkpt>
      <trkpt lat="45.8955" lon="4.82112">
        <ele>173</ele>
        <time>2018-04-08T09:42:59Z</time>
      </trkpt>
      <trkpt lat="45.89553" lon="4.82105">
        <ele>173</ele>
        <time>2018-04-08T09:43:00Z</time>
      </trkpt>
      <trkpt lat="45.89556" lon="4.82099">
        <ele>173</ele>
        <time>2018-04-08T09:43:01Z</time>
      </trkpt>
      <trkpt lat="45.8956" lon="4.82092">
        <ele>173</ele>
        <time>2018-04-08T09:43:02Z</time>
      </trkpt>
      <trkpt lat="45.89566" lon="4.82086">
        <ele>173</ele>
        <time>2018-04-08T09:43:03Z</time>
      </trkpt>
      <trkpt lat="45.89571" lon="4.82081">
        <ele>172</ele>
        <time>2018-04-08T09:43:04Z</time>
      </trkpt>
      <trkpt lat="45.89576" lon="4.82076">
        <ele>173</ele>
        <time>2018-04-08T09:43:05Z</time>
      </trkpt>
      <trkpt lat="45.89581" lon="4.82072">
        <ele>173</ele>
        <time>2018-04-08T09:43:06Z</time>
      </trkpt>
      <trkpt lat="45.89586" lon="4.82067">
        <ele>173</ele>
        <time>2018-04-08T09:43:07Z</time>
      </trkpt>
      <trkpt lat="45.89591" lon="4.82064">
        <ele>173</ele>
        <time>2018-04-08T09:43:08Z</time>
      </trkpt>
      <trkpt lat="45.89596" lon="4.82058">
        <ele>173</ele>
        <time>2018-04-08T09:43:09Z</time>
      </trkpt>
      <trkpt lat="45.89601" lon="4.82053">
        <ele>173</ele>
        <time>2018-04-08T09:43:10Z</time>
      </trkpt>
      <trkpt lat="45.89605" lon="4.82049">
        <ele>173</ele>
        <time>2018-04-08T09:43:11Z</time>
      </trkpt>
      <trkpt lat="45.8961" lon="4.82046">
        <ele>173</ele>
        <time>2018-04-08T09:43:12Z</time>
      </trkpt>
      <trkpt lat="45.89614" lon="4.82041">
        <ele>173</ele>
        <time>2018-04-08T09:43:13Z</time>
      </trkpt>
      <trkpt lat="45.89619" lon="4.82037">
        <ele>173</ele>
        <time>2018-04-08T09:43:14Z</time>
      </trkpt>
      <trkpt lat="45.89623" lon="4.82032">
        <ele>173</ele>
        <time>2018-04-08T09:43:15Z</time>
      </trkpt>
      <trkpt lat="45.89627" lon="4.82028">
        <ele>173</ele>
        <time>2018-04-08T09:43:16Z</time>
      </trkpt>
      <trkpt lat="45.89632" lon="4.82022">
        <ele>173</ele>
        <time>2018-04-08T09:43:17Z</time>
      </trkpt>
      <trkpt lat="45.89637" lon="4.82016">
        <ele>173</ele>
        <time>2018-04-08T09:43:18Z</time>
      </trkpt>
      <trkpt lat="45.89642" lon="4.82012">
        <ele>173</ele>
        <time>2018-04-08T09:43:19Z</time>
      </trkpt>
      <trkpt lat="45.89647" lon="4.82007">
        <ele>173</ele>
        <time>2018-04-08T09:43:20Z</time>
      </trkpt>
      <trkpt lat="45.89652" lon="4.82003">
        <ele>174</ele>
        <time>2018-04-08T09:43:21Z</time>
      </trkpt>
      <trkpt lat="45.89657" lon="4.81999">
        <ele>173</ele>
        <time>2018-04-08T09:43:22Z</time>
      </trkpt>
      <trkpt lat="45.89662" lon="4.81996">
        <ele>173</ele>
        <time>2018-04-08T09:43:23Z</time>
      </trkpt>
      <trkpt lat="45.89667" lon="4.81992">
        <ele>173</ele>
        <time>2018-04-08T09:43:24Z</time>
      </trkpt>
      <trkpt lat="45.89671" lon="4.81987">
        <ele>174</ele>
        <time>2018-04-08T09:43:25Z</time>
      </trkpt>
      <trkpt lat="45.89676" lon="4.81983">
        <ele>174</ele>
        <time>2018-04-08T09:43:26Z</time>
      </trkpt>
      <trkpt lat="45.89681" lon="4.81979">
        <ele>173</ele>
        <time>2018-04-08T09:43:27Z</time>
      </trkpt>
      <trkpt lat="45.89686" lon="4.81975">
        <ele>173</ele>
        <time>2018-04-08T09:43:28Z</time>
      </trkpt>
      <trkpt lat="45.89691" lon="4.81971">
        <ele>173</ele>
        <time>2018-04-08T09:43:29Z</time>
      </trkpt>
      <trkpt lat="45.89695" lon="4.81966">
        <ele>173</ele>
        <time>2018-04-08T09:43:30Z</time>
      </trkpt>
      <trkpt lat="45.897" lon="4.81963">
        <ele>173</ele>
        <time>2018-04-08T09:43:31Z</time>
      </trkpt>
      <trkpt lat="45.89704" lon="4.81959">
        <ele>173</ele>
        <time>2018-04-08T09:43:32Z</time>
      </trkpt>
      <trkpt lat="45.89708" lon="4.81956">
        <ele>173</ele>
        <time>2018-04-08T09:43:33Z</time>
      </trkpt>
      <trkpt lat="45.89712" lon="4.81952">
        <ele>173</ele>
        <time>2018-04-08T09:43:34Z</time>
      </trkpt>
      <trkpt lat="45.89718" lon="4.81948">
        <ele>173</ele>
        <time>2018-04-08T09:43:35Z</time>
      </trkpt>
      <trkpt lat="45.89722" lon="4.81945">
        <ele>173</ele>
        <time>2018-04-08T09:43:36Z</time>
      </trkpt>
      <trkpt lat="45.89727" lon="4.81941">
        <ele>173</ele>
        <time>2018-04-08T09:43:37Z</time>
      </trkpt>
      <trkpt lat="45.89731" lon="4.81938">
        <ele>173</ele>
        <time>2018-04-08T09:43:38Z</time>
      </trkpt>
      <trkpt lat="45.89736" lon="4.81933">
        <ele>174</ele>
        <time>2018-04-08T09:43:39Z</time>
      </trkpt>
      <trkpt lat="45.89741" lon="4.81928">
        <ele>174</ele>
        <time>2018-04-08T09:43:40Z</time>
      </trkpt>
      <trkpt lat="45.89745" lon="4.81924">
        <ele>174</ele>
        <time>2018-04-08T09:43:41Z</time>
      </trkpt>
      <trkpt lat="45.89749" lon="4.8192">
        <ele>174</ele>
        <time>2018-04-08T09:43:42Z</time>
      </trkpt>
      <trkpt lat="45.89754" lon="4.81915">
        <ele>174</ele>
        <time>2018-04-08T09:43:43Z</time>
      </trkpt>
      <trkpt lat="45.89759" lon="4.81912">
        <ele>174</ele>
        <time>2018-04-08T09:43:44Z</time>
      </trkpt>
      <trkpt lat="45.89764" lon="4.81908">
        <ele>174</ele>
        <time>2018-04-08T09:43:45Z</time>
      </trkpt>
      <trkpt lat="45.89768" lon="4.81905">
        <ele>174</ele>
        <time>2018-04-08T09:43:46Z</time>
      </trkpt>
      <trkpt lat="45.89774" lon="4.81902">
        <ele>174</ele>
        <time>2018-04-08T09:43:47Z</time>
      </trkpt>
      <trkpt lat="45.89779" lon="4.81899">
        <ele>174</ele>
        <time>2018-04-08T09:43:48Z</time>
      </trkpt>
      <trkpt lat="45.89783" lon="4.81896">
        <ele>174</ele>
        <time>2018-04-08T09:43:49Z</time>
      </trkpt>
      <trkpt lat="45.89787" lon="4.81892">
        <ele>174</ele>
        <time>2018-04-08T09:43:50Z</time>
      </trkpt>
      <trkpt lat="45.89792" lon="4.81888">
        <ele>174</ele>
        <time>2018-04-08T09:43:51Z</time>
      </trkpt>
      <trkpt lat="45.89796" lon="4.81884">
        <ele>174</ele>
        <time>2018-04-08T09:43:52Z</time>
      </trkpt>
      <trkpt lat="45.89801" lon="4.8188">
        <ele>174</ele>
        <time>2018-04-08T09:43:53Z</time>
      </trkpt>
      <trkpt lat="45.89806" lon="4.81875">
        <ele>174</ele>
        <time>2018-04-08T09:43:54Z</time>
      </trkpt>
      <trkpt lat="45.8981" lon="4.81871">
        <ele>174</ele>
        <time>2018-04-08T09:43:55Z</time>
      </trkpt>
      <trkpt lat="45.89815" lon="4.81868">
        <ele>174</ele>
        <time>2018-04-08T09:43:56Z</time>
      </trkpt>
      <trkpt lat="45.89819" lon="4.81864">
        <ele>174</ele>
        <time>2018-04-08T09:43:57Z</time>
      </trkpt>
      <trkpt lat="45.89823" lon="4.81859">
        <ele>174</ele>
        <time>2018-04-08T09:43:58Z</time>
      </trkpt>
      <trkpt lat="45.89826" lon="4.81855">
        <ele>174</ele>
        <time>2018-04-08T09:43:59Z</time>
      </trkpt>
      <trkpt lat="45.8983" lon="4.81851">
        <ele>174</ele>
        <time>2018-04-08T09:44:00Z</time>
      </trkpt>
      <trkpt lat="45.89835" lon="4.81847">
        <ele>175</ele>
        <time>2018-04-08T09:44:01Z</time>
      </trkpt>
      <trkpt lat="45.89839" lon="4.81843">
        <ele>175</ele>
        <time>2018-04-08T09:44:02Z</time>
      </trkpt>
      <trkpt lat="45.89842" lon="4.8184">
        <ele>175</ele>
        <time>2018-04-08T09:44:03Z</time>
      </trkpt>
      <trkpt lat="45.89847" lon="4.81835">
        <ele>175</ele>
        <time>2018-04-08T09:44:04Z</time>
      </trkpt>
      <trkpt lat="45.89851" lon="4.81831">
        <ele>175</ele>
        <time>2018-04-08T09:44:05Z</time>
      </trkpt>
      <trkpt lat="45.89855" lon="4.81827">
        <ele>175</ele>
        <time>2018-04-08T09:44:06Z</time>
      </trkpt>
      <trkpt lat="45.89859" lon="4.81823">
        <ele>175</ele>
        <time>2018-04-08T09:44:07Z</time>
      </trkpt>
      <trkpt lat="45.89862" lon="4.81818">
        <ele>175</ele>
        <time>2018-04-08T09:44:08Z</time>
      </trkpt>
      <trkpt lat="45.89866" lon="4.81814">
        <ele>175</ele>
        <time>2018-04-08T09:44:09Z</time>
      </trkpt>
      <trkpt lat="45.8987" lon="4.81809">
        <ele>175</ele>
        <time>2018-04-08T09:44:10Z</time>
      </trkpt>
      <trkpt lat="45.89874" lon="4.81804">
        <ele>175</ele>
        <time>2018-04-08T09:44:11Z</time>
      </trkpt>
      <trkpt lat="45.89878" lon="4.818">
        <ele>176</ele>
        <time>2018-04-08T09:44:12Z</time>
      </trkpt>
      <trkpt lat="45.89882" lon="4.81796">
        <ele>176</ele>
        <time>2018-04-08T09:44:13Z</time>
      </trkpt>
      <trkpt lat="45.89885" lon="4.81792">
        <ele>176</ele>
        <time>2018-04-08T09:44:14Z</time>
      </trkpt>
      <trkpt lat="45.89893" lon="4.81785">
        <ele>176</ele>
        <time>2018-04-08T09:44:16Z</time>
      </trkpt>
      <trkpt lat="45.89896" lon="4.81783">
        <ele>176</ele>
        <time>2018-04-08T09:44:17Z</time>
      </trkpt>
      <trkpt lat="45.899" lon="4.81779">
        <ele>176</ele>
        <time>2018-04-08T09:44:18Z</time>
      </trkpt>
      <trkpt lat="45.89904" lon="4.81776">
        <ele>176</ele>
        <time>2018-04-08T09:44:19Z</time>
      </trkpt>
      <trkpt lat="45.89908" lon="4.81774">
        <ele>176</ele>
        <time>2018-04-08T09:44:20Z</time>
      </trkpt>
      <trkpt lat="45.89914" lon="4.8177">
        <ele>176</ele>
        <time>2018-04-08T09:44:21Z</time>
      </trkpt>
      <trkpt lat="45.89918" lon="4.8177">
        <ele>177</ele>
        <time>2018-04-08T09:44:22Z</time>
      </trkpt>
      <trkpt lat="45.89923" lon="4.8177">
        <ele>177</ele>
        <time>2018-04-08T09:44:23Z</time>
      </trkpt>
      <trkpt lat="45.89929" lon="4.8177">
        <ele>177</ele>
        <time>2018-04-08T09:44:24Z</time>
      </trkpt>
      <trkpt lat="45.89934" lon="4.8177">
        <ele>177</ele>
        <time>2018-04-08T09:44:25Z</time>
      </trkpt>
      <trkpt lat="45.8994" lon="4.81768">
        <ele>177</ele>
        <time>2018-04-08T09:44:26Z</time>
      </trkpt>
      <trkpt lat="45.89945" lon="4.81765">
        <ele>177</ele>
        <time>2018-04-08T09:44:27Z</time>
      </trkpt>
      <trkpt lat="45.89948" lon="4.81759">
        <ele>177</ele>
        <time>2018-04-08T09:44:28Z</time>
      </trkpt>
      <trkpt lat="45.89952" lon="4.81753">
        <ele>177</ele>
        <time>2018-04-08T09:44:29Z</time>
      </trkpt>
      <trkpt lat="45.89955" lon="4.81746">
        <ele>177</ele>
        <time>2018-04-08T09:44:30Z</time>
      </trkpt>
      <trkpt lat="45.89958" lon="4.81738">
        <ele>176</ele>
        <time>2018-04-08T09:44:31Z</time>
      </trkpt>
      <trkpt lat="45.89961" lon="4.81732">
        <ele>176</ele>
        <time>2018-04-08T09:44:32Z</time>
      </trkpt>
      <trkpt lat="45.89965" lon="4.81726">
        <ele>176</ele>
        <time>2018-04-08T09:44:33Z</time>
      </trkpt>
      <trkpt lat="45.8997" lon="4.8172">
        <ele>176</ele>
        <time>2018-04-08T09:44:34Z</time>
      </trkpt>
      <trkpt lat="45.89976" lon="4.81717">
        <ele>176</ele>
        <time>2018-04-08T09:44:35Z</time>
      </trkpt>
      <trkpt lat="45.89982" lon="4.81713">
        <ele>176</ele>
        <time>2018-04-08T09:44:36Z</time>
      </trkpt>
      <trkpt lat="45.89987" lon="4.81709">
        <ele>176</ele>
        <time>2018-04-08T09:44:37Z</time>
      </trkpt>
      <trkpt lat="45.89992" lon="4.81705">
        <ele>176</ele>
        <time>2018-04-08T09:44:38Z</time>
      </trkpt>
      <trkpt lat="45.89997" lon="4.81702">
        <ele>176</ele>
        <time>2018-04-08T09:44:39Z</time>
      </trkpt>
      <trkpt lat="45.90002" lon="4.817">
        <ele>177</ele>
        <time>2018-04-08T09:44:40Z</time>
      </trkpt>
      <trkpt lat="45.90007" lon="4.81696">
        <ele>177</ele>
        <time>2018-04-08T09:44:41Z</time>
      </trkpt>
      <trkpt lat="45.90011" lon="4.81694">
        <ele>177</ele>
        <time>2018-04-08T09:44:42Z</time>
      </trkpt>
      <trkpt lat="45.90016" lon="4.81692">
        <ele>177</ele>
        <time>2018-04-08T09:44:43Z</time>
      </trkpt>
      <trkpt lat="45.90021" lon="4.81689">
        <ele>177</ele>
        <time>2018-04-08T09:44:44Z</time>
      </trkpt>
      <trkpt lat="45.90025" lon="4.81687">
        <ele>178</ele>
        <time>2018-04-08T09:44:45Z</time>
      </trkpt>
      <trkpt lat="45.9003" lon="4.81685">
        <ele>178</ele>
        <time>2018-04-08T09:44:46Z</time>
      </trkpt>
      <trkpt lat="45.90036" lon="4.81683">
        <ele>178</ele>
        <time>2018-04-08T09:44:47Z</time>
      </trkpt>
      <trkpt lat="45.90041" lon="4.8168">
        <ele>178</ele>
        <time>2018-04-08T09:44:48Z</time>
      </trkpt>
      <trkpt lat="45.90046" lon="4.81678">
        <ele>178</ele>
        <time>2018-04-08T09:44:49Z</time>
      </trkpt>
      <trkpt lat="45.90051" lon="4.81676">
        <ele>178</ele>
        <time>2018-04-08T09:44:50Z</time>
      </trkpt>
      <trkpt lat="45.90055" lon="4.81675">
        <ele>178</ele>
        <time>2018-04-08T09:44:51Z</time>
      </trkpt>
      <trkpt lat="45.9006" lon="4.81673">
        <ele>178</ele>
        <time>2018-04-08T09:44:52Z</time>
      </trkpt>
      <trkpt lat="45.90065" lon="4.81671">
        <ele>178</ele>
        <time>2018-04-08T09:44:53Z</time>
      </trkpt>
      <trkpt lat="45.9007" lon="4.81669">
        <ele>179</ele>
        <time>2018-04-08T09:44:54Z</time>
      </trkpt>
      <trkpt lat="45.90075" lon="4.81668">
        <ele>179</ele>
        <time>2018-04-08T09:44:55Z</time>
      </trkpt>
      <trkpt lat="45.9008" lon="4.81666">
        <ele>179</ele>
        <time>2018-04-08T09:44:56Z</time>
      </trkpt>
      <trkpt lat="45.90085" lon="4.81664">
        <ele>179</ele>
        <time>2018-04-08T09:44:57Z</time>
      </trkpt>
      <trkpt lat="45.9009" lon="4.81664">
        <ele>179</ele>
        <time>2018-04-08T09:44:58Z</time>
      </trkpt>
      <trkpt lat="45.90095" lon="4.81662">
        <ele>179</ele>
        <time>2018-04-08T09:44:59Z</time>
      </trkpt>
      <trkpt lat="45.90099" lon="4.81661">
        <ele>179</ele>
        <time>2018-04-08T09:45:00Z</time>
      </trkpt>
      <trkpt lat="45.90104" lon="4.8166">
        <ele>179</ele>
        <time>2018-04-08T09:45:01Z</time>
      </trkpt>
      <trkpt lat="45.90109" lon="4.8166">
        <ele>179</ele>
        <time>2018-04-08T09:45:02Z</time>
      </trkpt>
      <trkpt lat="45.90113" lon="4.81658">
        <ele>179</ele>
        <time>2018-04-08T09:45:03Z</time>
      </trkpt>
      <trkpt lat="45.90118" lon="4.81658">
        <ele>179</ele>
        <time>2018-04-08T09:45:04Z</time>
      </trkpt>
      <trkpt lat="45.90124" lon="4.81657">
        <ele>179</ele>
        <time>2018-04-08T09:45:05Z</time>
      </trkpt>
      <trkpt lat="45.90129" lon="4.81657">
        <ele>179</ele>
        <time>2018-04-08T09:45:06Z</time>
      </trkpt>
      <trkpt lat="45.90134" lon="4.81656">
        <ele>179</ele>
        <time>2018-04-08T09:45:07Z</time>
      </trkpt>
      <trkpt lat="45.90139" lon="4.81656">
        <ele>179</ele>
        <time>2018-04-08T09:45:08Z</time>
      </trkpt>
      <trkpt lat="45.90144" lon="4.81655">
        <ele>179</ele>
        <time>2018-04-08T09:45:09Z</time>
      </trkpt>
      <trkpt lat="45.9015" lon="4.81652">
        <ele>179</ele>
        <time>2018-04-08T09:45:10Z</time>
      </trkpt>
      <trkpt lat="45.90156" lon="4.81652">
        <ele>179</ele>
        <time>2018-04-08T09:45:11Z</time>
      </trkpt>
      <trkpt lat="45.9016" lon="4.81651">
        <ele>179</ele>
        <time>2018-04-08T09:45:12Z</time>
      </trkpt>
      <trkpt lat="45.90166" lon="4.81651">
        <ele>179</ele>
        <time>2018-04-08T09:45:13Z</time>
      </trkpt>
      <trkpt lat="45.90171" lon="4.81651">
        <ele>180</ele>
        <time>2018-04-08T09:45:14Z</time>
      </trkpt>
      <trkpt lat="45.90176" lon="4.8165">
        <ele>180</ele>
        <time>2018-04-08T09:45:15Z</time>
      </trkpt>
      <trkpt lat="45.90181" lon="4.8165">
        <ele>180</ele>
        <time>2018-04-08T09:45:16Z</time>
      </trkpt>
      <trkpt lat="45.90186" lon="4.8165">
        <ele>180</ele>
        <time>2018-04-08T09:45:17Z</time>
      </trkpt>
      <trkpt lat="45.90194" lon="4.81652">
        <ele>180</ele>
        <time>2018-04-08T09:45:21Z</time>
      </trkpt>
      <trkpt lat="45.90195" lon="4.81653">
        <ele>180</ele>
        <time>2018-04-08T09:45:22Z</time>
      </trkpt>
      <trkpt lat="45.90216" lon="4.81648">
        <ele>180</ele>
        <time>2018-04-08T09:45:23Z</time>
      </trkpt>
      <trkpt lat="45.90223" lon="4.81645">
        <ele>180</ele>
        <time>2018-04-08T09:45:24Z</time>
      </trkpt>
      <trkpt lat="45.9023" lon="4.81643">
        <ele>181</ele>
        <time>2018-04-08T09:45:25Z</time>
      </trkpt>
      <trkpt lat="45.90235" lon="4.81642">
        <ele>181</ele>
        <time>2018-04-08T09:45:26Z</time>
      </trkpt>
      <trkpt lat="45.90241" lon="4.81641">
        <ele>181</ele>
        <time>2018-04-08T09:45:27Z</time>
      </trkpt>
      <trkpt lat="45.90246" lon="4.81642">
        <ele>181</ele>
        <time>2018-04-08T09:45:28Z</time>
      </trkpt>
      <trkpt lat="45.90252" lon="4.81642">
        <ele>182</ele>
        <time>2018-04-08T09:45:29Z</time>
      </trkpt>
      <trkpt lat="45.90257" lon="4.81644">
        <ele>182</ele>
        <time>2018-04-08T09:45:30Z</time>
      </trkpt>
      <trkpt lat="45.90262" lon="4.81645">
        <ele>182</ele>
        <time>2018-04-08T09:45:31Z</time>
      </trkpt>
      <trkpt lat="45.90266" lon="4.8165">
        <ele>182</ele>
        <time>2018-04-08T09:45:32Z</time>
      </trkpt>
      <trkpt lat="45.9027" lon="4.81654">
        <ele>182</ele>
        <time>2018-04-08T09:45:33Z</time>
      </trkpt>
      <trkpt lat="45.90276" lon="4.81659">
        <ele>182</ele>
        <time>2018-04-08T09:45:34Z</time>
      </trkpt>
      <trkpt lat="45.90281" lon="4.81662">
        <ele>182</ele>
        <time>2018-04-08T09:45:35Z</time>
      </trkpt>
      <trkpt lat="45.90286" lon="4.81663">
        <ele>182</ele>
        <time>2018-04-08T09:45:36Z</time>
      </trkpt>
      <trkpt lat="45.9029" lon="4.81662">
        <ele>182</ele>
        <time>2018-04-08T09:45:37Z</time>
      </trkpt>
      <trkpt lat="45.90295" lon="4.81658">
        <ele>182</ele>
        <time>2018-04-08T09:45:38Z</time>
      </trkpt>
      <trkpt lat="45.903" lon="4.81654">
        <ele>182</ele>
        <time>2018-04-08T09:45:39Z</time>
      </trkpt>
      <trkpt lat="45.90303" lon="4.81648">
        <ele>182</ele>
        <time>2018-04-08T09:45:40Z</time>
      </trkpt>
      <trkpt lat="45.90307" lon="4.81643">
        <ele>182</ele>
        <time>2018-04-08T09:45:41Z</time>
      </trkpt>
      <trkpt lat="45.90311" lon="4.81638">
        <ele>182</ele>
        <time>2018-04-08T09:45:42Z</time>
      </trkpt>
      <trkpt lat="45.90315" lon="4.81635">
        <ele>182</ele>
        <time>2018-04-08T09:45:43Z</time>
      </trkpt>
      <trkpt lat="45.9032" lon="4.81631">
        <ele>182</ele>
        <time>2018-04-08T09:45:44Z</time>
      </trkpt>
      <trkpt lat="45.90325" lon="4.8163">
        <ele>182</ele>
        <time>2018-04-08T09:45:45Z</time>
      </trkpt>
      <trkpt lat="45.90331" lon="4.81629">
        <ele>182</ele>
        <time>2018-04-08T09:45:46Z</time>
      </trkpt>
      <trkpt lat="45.90337" lon="4.81628">
        <ele>183</ele>
        <time>2018-04-08T09:45:47Z</time>
      </trkpt>
      <trkpt lat="45.90342" lon="4.81627">
        <ele>183</ele>
        <time>2018-04-08T09:45:48Z</time>
      </trkpt>
      <trkpt lat="45.90348" lon="4.81626">
        <ele>183</ele>
        <time>2018-04-08T09:45:49Z</time>
      </trkpt>
      <trkpt lat="45.90354" lon="4.81624">
        <ele>182</ele>
        <time>2018-04-08T09:45:50Z</time>
      </trkpt>
      <trkpt lat="45.9036" lon="4.81621">
        <ele>182</ele>
        <time>2018-04-08T09:45:51Z</time>
      </trkpt>
      <trkpt lat="45.90366" lon="4.81619">
        <ele>182</ele>
        <time>2018-04-08T09:45:52Z</time>
      </trkpt>
      <trkpt lat="45.90372" lon="4.81617">
        <ele>182</ele>
        <time>2018-04-08T09:45:53Z</time>
      </trkpt>
      <trkpt lat="45.90378" lon="4.81616">
        <ele>182</ele>
        <time>2018-04-08T09:45:54Z</time>
      </trkpt>
      <trkpt lat="45.90384" lon="4.81615">
        <ele>182</ele>
        <time>2018-04-08T09:45:55Z</time>
      </trkpt>
      <trkpt lat="45.90389" lon="4.81614">
        <ele>182</ele>
        <time>2018-04-08T09:45:56Z</time>
      </trkpt>
      <trkpt lat="45.90395" lon="4.81613">
        <ele>182</ele>
        <time>2018-04-08T09:45:57Z</time>
      </trkpt>
      <trkpt lat="45.90401" lon="4.81611">
        <ele>182</ele>
        <time>2018-04-08T09:45:58Z</time>
      </trkpt>
      <trkpt lat="45.90407" lon="4.81609">
        <ele>182</ele>
        <time>2018-04-08T09:45:59Z</time>
      </trkpt>
      <trkpt lat="45.90413" lon="4.81609">
        <ele>182</ele>
        <time>2018-04-08T09:46:00Z</time>
      </trkpt>
      <trkpt lat="45.90419" lon="4.81608">
        <ele>182</ele>
        <time>2018-04-08T09:46:01Z</time>
      </trkpt>
      <trkpt lat="45.90425" lon="4.81608">
        <ele>182</ele>
        <time>2018-04-08T09:46:02Z</time>
      </trkpt>
      <trkpt lat="45.9043" lon="4.81608">
        <ele>182</ele>
        <time>2018-04-08T09:46:03Z</time>
      </trkpt>
      <trkpt lat="45.90435" lon="4.81608">
        <ele>182</ele>
        <time>2018-04-08T09:46:04Z</time>
      </trkpt>
      <trkpt lat="45.90441" lon="4.81607">
        <ele>182</ele>
        <time>2018-04-08T09:46:05Z</time>
      </trkpt>
      <trkpt lat="45.90446" lon="4.81607">
        <ele>182</ele>
        <time>2018-04-08T09:46:06Z</time>
      </trkpt>
      <trkpt lat="45.90452" lon="4.81606">
        <ele>182</ele>
        <time>2018-04-08T09:46:07Z</time>
      </trkpt>
      <trkpt lat="45.9046" lon="4.81606">
        <ele>182</ele>
        <time>2018-04-08T09:46:09Z</time>
      </trkpt>
      <trkpt lat="45.90464" lon="4.81606">
        <ele>182</ele>
        <time>2018-04-08T09:46:10Z</time>
      </trkpt>
      <trkpt lat="45.90471" lon="4.81605">
        <ele>182</ele>
        <time>2018-04-08T09:46:13Z</time>
      </trkpt>
      <trkpt lat="45.90473" lon="4.81604">
        <ele>182</ele>
        <time>2018-04-08T09:46:14Z</time>
      </trkpt>
      <trkpt lat="45.90482" lon="4.81602">
        <ele>182</ele>
        <time>2018-04-08T09:46:31Z</time>
      </trkpt>
      <trkpt lat="45.90482" lon="4.81602">
        <ele>182</ele>
        <time>2018-04-08T09:46:32Z</time>
      </trkpt>
      <trkpt lat="45.90491" lon="4.81603">
        <ele>182</ele>
        <time>2018-04-08T09:46:37Z</time>
      </trkpt>
      <trkpt lat="45.90493" lon="4.81603">
        <ele>182</ele>
        <time>2018-04-08T09:46:38Z</time>
      </trkpt>
      <trkpt lat="45.90499" lon="4.81604">
        <ele>182</ele>
        <time>2018-04-08T09:46:40Z</time>
      </trkpt>
      <trkpt lat="45.90507" lon="4.81603">
        <ele>182</ele>
        <time>2018-04-08T09:46:41Z</time>
      </trkpt>
      <trkpt lat="45.90515" lon="4.81601">
        <ele>182</ele>
        <time>2018-04-08T09:46:43Z</time>
      </trkpt>
      <trkpt lat="45.90519" lon="4.816">
        <ele>182</ele>
        <time>2018-04-08T09:46:44Z</time>
      </trkpt>
      <trkpt lat="45.90524" lon="4.816">
        <ele>182</ele>
        <time>2018-04-08T09:46:45Z</time>
      </trkpt>
      <trkpt lat="45.90529" lon="4.816">
        <ele>182</ele>
        <time>2018-04-08T09:46:46Z</time>
      </trkpt>
      <trkpt lat="45.90535" lon="4.81601">
        <ele>182</ele>
        <time>2018-04-08T09:46:47Z</time>
      </trkpt>
      <trkpt lat="45.9054" lon="4.81601">
        <ele>182</ele>
        <time>2018-04-08T09:46:48Z</time>
      </trkpt>
      <trkpt lat="45.90545" lon="4.816">
        <ele>182</ele>
        <time>2018-04-08T09:46:49Z</time>
      </trkpt>
      <trkpt lat="45.90551" lon="4.81599">
        <ele>182</ele>
        <time>2018-04-08T09:46:50Z</time>
      </trkpt>
      <trkpt lat="45.90557" lon="4.81598">
        <ele>182</ele>
        <time>2018-04-08T09:46:51Z</time>
      </trkpt>
      <trkpt lat="45.90562" lon="4.81598">
        <ele>182</ele>
        <time>2018-04-08T09:46:52Z</time>
      </trkpt>
      <trkpt lat="45.90568" lon="4.81597">
        <ele>182</ele>
        <time>2018-04-08T09:46:53Z</time>
      </trkpt>
      <trkpt lat="45.90574" lon="4.81596">
        <ele>182</ele>
        <time>2018-04-08T09:46:54Z</time>
      </trkpt>
      <trkpt lat="45.9058" lon="4.81595">
        <ele>182</ele>
        <time>2018-04-08T09:46:55Z</time>
      </trkpt>
      <trkpt lat="45.90587" lon="4.81595">
        <ele>182</ele>
        <time>2018-04-08T09:46:56Z</time>
      </trkpt>
      <trkpt lat="45.90594" lon="4.81595">
        <ele>182</ele>
        <time>2018-04-08T09:46:57Z</time>
      </trkpt>
      <trkpt lat="45.90601" lon="4.81594">
        <ele>182</ele>
        <time>2018-04-08T09:46:58Z</time>
      </trkpt>
      <trkpt lat="45.90608" lon="4.81594">
        <ele>182</ele>
        <time>2018-04-08T09:46:59Z</time>
      </trkpt>
      <trkpt lat="45.90616" lon="4.81594">
        <ele>182</ele>
        <time>2018-04-08T09:47:00Z</time>
      </trkpt>
      <trkpt lat="45.90623" lon="4.81594">
        <ele>181</ele>
        <time>2018-04-08T09:47:01Z</time>
      </trkpt>
      <trkpt lat="45.90632" lon="4.81594">
        <ele>181</ele>
        <time>2018-04-08T09:47:02Z</time>
      </trkpt>
      <trkpt lat="45.9064" lon="4.81594">
        <ele>181</ele>
        <time>2018-04-08T09:47:03Z</time>
      </trkpt>
      <trkpt lat="45.90648" lon="4.81592">
        <ele>181</ele>
        <time>2018-04-08T09:47:04Z</time>
      </trkpt>
      <trkpt lat="45.90657" lon="4.81593">
        <ele>180</ele>
        <time>2018-04-08T09:47:05Z</time>
      </trkpt>
      <trkpt lat="45.90665" lon="4.81592">
        <ele>180</ele>
        <time>2018-04-08T09:47:06Z</time>
      </trkpt>
      <trkpt lat="45.90674" lon="4.81592">
        <ele>179</ele>
        <time>2018-04-08T09:47:07Z</time>
      </trkpt>
      <trkpt lat="45.90683" lon="4.81591">
        <ele>179</ele>
        <time>2018-04-08T09:47:08Z</time>
      </trkpt>
      <trkpt lat="45.90692" lon="4.81591">
        <ele>178</ele>
        <time>2018-04-08T09:47:09Z</time>
      </trkpt>
      <trkpt lat="45.90701" lon="4.8159">
        <ele>178</ele>
        <time>2018-04-08T09:47:10Z</time>
      </trkpt>
      <trkpt lat="45.90711" lon="4.8159">
        <ele>178</ele>
        <time>2018-04-08T09:47:11Z</time>
      </trkpt>
      <trkpt lat="45.90721" lon="4.81589">
        <ele>177</ele>
        <time>2018-04-08T09:47:12Z</time>
      </trkpt>
      <trkpt lat="45.90731" lon="4.81589">
        <ele>177</ele>
        <time>2018-04-08T09:47:13Z</time>
      </trkpt>
      <trkpt lat="45.90741" lon="4.81589">
        <ele>176</ele>
        <time>2018-04-08T09:47:14Z</time>
      </trkpt>
      <trkpt lat="45.9075" lon="4.81588">
        <ele>175</ele>
        <time>2018-04-08T09:47:15Z</time>
      </trkpt>
      <trkpt lat="45.90759" lon="4.81588">
        <ele>174</ele>
        <time>2018-04-08T09:47:16Z</time>
      </trkpt>
      <trkpt lat="45.90767" lon="4.81588">
        <ele>175</ele>
        <time>2018-04-08T09:47:17Z</time>
      </trkpt>
      <trkpt lat="45.90775" lon="4.81587">
        <ele>175</ele>
        <time>2018-04-08T09:47:18Z</time>
      </trkpt>
      <trkpt lat="45.90783" lon="4.81588">
        <ele>175</ele>
        <time>2018-04-08T09:47:19Z</time>
      </trkpt>
      <trkpt lat="45.9079" lon="4.81588">
        <ele>175</ele>
        <time>2018-04-08T09:47:20Z</time>
      </trkpt>
      <trkpt lat="45.90796" lon="4.81588">
        <ele>175</ele>
        <time>2018-04-08T09:47:21Z</time>
      </trkpt>
      <trkpt lat="45.90802" lon="4.81588">
        <ele>174</ele>
        <time>2018-04-08T09:47:22Z</time>
      </trkpt>
      <trkpt lat="45.90807" lon="4.81589">
        <ele>174</ele>
        <time>2018-04-08T09:47:23Z</time>
      </trkpt>
      <trkpt lat="45.90811" lon="4.81589">
        <ele>174</ele>
        <time>2018-04-08T09:47:24Z</time>
      </trkpt>
      <trkpt lat="45.90816" lon="4.81589">
        <ele>174</ele>
        <time>2018-04-08T09:47:25Z</time>
      </trkpt>
      <trkpt lat="45.90823" lon="4.81588">
        <ele>174</ele>
        <time>2018-04-08T09:47:27Z</time>
      </trkpt>
      <trkpt lat="45.90828" lon="4.81589">
        <ele>174</ele>
        <time>2018-04-08T09:47:28Z</time>
      </trkpt>
      <trkpt lat="45.90835" lon="4.81589">
        <ele>173</ele>
        <time>2018-04-08T09:47:31Z</time>
      </trkpt>
      <trkpt lat="45.90842" lon="4.81589">
        <ele>173</ele>
        <time>2018-04-08T09:47:32Z</time>
      </trkpt>
      <trkpt lat="45.90851" lon="4.81588">
        <ele>172</ele>
        <time>2018-04-08T09:47:34Z</time>
      </trkpt>
      <trkpt lat="45.90855" lon="4.81588">
        <ele>172</ele>
        <time>2018-04-08T09:47:35Z</time>
      </trkpt>
      <trkpt lat="45.9086" lon="4.81588">
        <ele>172</ele>
        <time>2018-04-08T09:47:36Z</time>
      </trkpt>
      <trkpt lat="45.90865" lon="4.81588">
        <ele>172</ele>
        <time>2018-04-08T09:47:37Z</time>
      </trkpt>
      <trkpt lat="45.90871" lon="4.81588">
        <ele>172</ele>
        <time>2018-04-08T09:47:38Z</time>
      </trkpt>
      <trkpt lat="45.90877" lon="4.81588">
        <ele>172</ele>
        <time>2018-04-08T09:47:39Z</time>
      </trkpt>
      <trkpt lat="45.90883" lon="4.81589">
        <ele>172</ele>
        <time>2018-04-08T09:47:40Z</time>
      </trkpt>
      <trkpt lat="45.90889" lon="4.81588">
        <ele>171</ele>
        <time>2018-04-08T09:47:41Z</time>
      </trkpt>
      <trkpt lat="45.90895" lon="4.81588">
        <ele>171</ele>
        <time>2018-04-08T09:47:42Z</time>
      </trkpt>
      <trkpt lat="45.909" lon="4.81589">
        <ele>171</ele>
        <time>2018-04-08T09:47:43Z</time>
      </trkpt>
      <trkpt lat="45.90907" lon="4.8159">
        <ele>171</ele>
        <time>2018-04-08T09:47:44Z</time>
      </trkpt>
      <trkpt lat="45.90913" lon="4.81591">
        <ele>171</ele>
        <time>2018-04-08T09:47:45Z</time>
      </trkpt>
      <trkpt lat="45.90919" lon="4.81591">
        <ele>170</ele>
        <time>2018-04-08T09:47:46Z</time>
      </trkpt>
      <trkpt lat="45.90925" lon="4.81591">
        <ele>170</ele>
        <time>2018-04-08T09:47:47Z</time>
      </trkpt>
      <trkpt lat="45.90931" lon="4.81592">
        <ele>170</ele>
        <time>2018-04-08T09:47:48Z</time>
      </trkpt>
      <trkpt lat="45.90937" lon="4.81593">
        <ele>170</ele>
        <time>2018-04-08T09:47:49Z</time>
      </trkpt>
      <trkpt lat="45.90943" lon="4.81595">
        <ele>169</ele>
        <time>2018-04-08T09:47:50Z</time>
      </trkpt>
      <trkpt lat="45.90948" lon="4.81596">
        <ele>169</ele>
        <time>2018-04-08T09:47:51Z</time>
      </trkpt>
      <trkpt lat="45.90953" lon="4.81596">
        <ele>169</ele>
        <time>2018-04-08T09:47:52Z</time>
      </trkpt>
      <trkpt lat="45.90958" lon="4.81597">
        <ele>169</ele>
        <time>2018-04-08T09:47:53Z</time>
      </trkpt>
      <trkpt lat="45.90964" lon="4.81599">
        <ele>169</ele>
        <time>2018-04-08T09:47:54Z</time>
      </trkpt>
      <trkpt lat="45.90969" lon="4.816">
        <ele>169</ele>
        <time>2018-04-08T09:47:55Z</time>
      </trkpt>
      <trkpt lat="45.90975" lon="4.81602">
        <ele>169</ele>
        <time>2018-04-08T09:47:56Z</time>
      </trkpt>
      <trkpt lat="45.90981" lon="4.81603">
        <ele>169</ele>
        <time>2018-04-08T09:47:57Z</time>
      </trkpt>
      <trkpt lat="45.90987" lon="4.81604">
        <ele>169</ele>
        <time>2018-04-08T09:47:58Z</time>
      </trkpt>
      <trkpt lat="45.90993" lon="4.81605">
        <ele>169</ele>
        <time>2018-04-08T09:47:59Z</time>
      </trkpt>
      <trkpt lat="45.91" lon="4.81607">
        <ele>169</ele>
        <time>2018-04-08T09:48:00Z</time>
      </trkpt>
      <trkpt lat="45.91006" lon="4.81608">
        <ele>169</ele>
        <time>2018-04-08T09:48:01Z</time>
      </trkpt>
      <trkpt lat="45.91013" lon="4.8161">
        <ele>169</ele>
        <time>2018-04-08T09:48:02Z</time>
      </trkpt>
      <trkpt lat="45.91019" lon="4.81611">
        <ele>169</ele>
        <time>2018-04-08T09:48:03Z</time>
      </trkpt>
      <trkpt lat="45.91026" lon="4.81611">
        <ele>169</ele>
        <time>2018-04-08T09:48:04Z</time>
      </trkpt>
      <trkpt lat="45.91033" lon="4.81612">
        <ele>169</ele>
        <time>2018-04-08T09:48:05Z</time>
      </trkpt>
      <trkpt lat="45.91039" lon="4.81612">
        <ele>169</ele>
        <time>2018-04-08T09:48:06Z</time>
      </trkpt>
      <trkpt lat="45.91045" lon="4.81612">
        <ele>169</ele>
        <time>2018-04-08T09:48:07Z</time>
      </trkpt>
      <trkpt lat="45.91052" lon="4.81614">
        <ele>169</ele>
        <time>2018-04-08T09:48:08Z</time>
      </trkpt>
      <trkpt lat="45.91058" lon="4.81614">
        <ele>169</ele>
        <time>2018-04-08T09:48:09Z</time>
      </trkpt>
      <trkpt lat="45.91064" lon="4.81614">
        <ele>169</ele>
        <time>2018-04-08T09:48:10Z</time>
      </trkpt>
      <trkpt lat="45.91071" lon="4.81615">
        <ele>169</ele>
        <time>2018-04-08T09:48:11Z</time>
      </trkpt>
      <trkpt lat="45.91078" lon="4.81615">
        <ele>169</ele>
        <time>2018-04-08T09:48:12Z</time>
      </trkpt>
      <trkpt lat="45.91084" lon="4.81616">
        <ele>169</ele>
        <time>2018-04-08T09:48:13Z</time>
      </trkpt>
      <trkpt lat="45.91091" lon="4.81616">
        <ele>169</ele>
        <time>2018-04-08T09:48:14Z</time>
      </trkpt>
      <trkpt lat="45.91097" lon="4.81616">
        <ele>170</ele>
        <time>2018-04-08T09:48:15Z</time>
      </trkpt>
      <trkpt lat="45.91102" lon="4.81617">
        <ele>170</ele>
        <time>2018-04-08T09:48:16Z</time>
      </trkpt>
      <trkpt lat="45.91109" lon="4.81617">
        <ele>170</ele>
        <time>2018-04-08T09:48:17Z</time>
      </trkpt>
      <trkpt lat="45.91115" lon="4.81618">
        <ele>170</ele>
        <time>2018-04-08T09:48:18Z</time>
      </trkpt>
      <trkpt lat="45.91122" lon="4.81618">
        <ele>170</ele>
        <time>2018-04-08T09:48:19Z</time>
      </trkpt>
      <trkpt lat="45.91128" lon="4.81618">
        <ele>170</ele>
        <time>2018-04-08T09:48:20Z</time>
      </trkpt>
      <trkpt lat="45.91135" lon="4.81617">
        <ele>170</ele>
        <time>2018-04-08T09:48:21Z</time>
      </trkpt>
      <trkpt lat="45.91142" lon="4.81618">
        <ele>170</ele>
        <time>2018-04-08T09:48:22Z</time>
      </trkpt>
      <trkpt lat="45.91148" lon="4.81619">
        <ele>170</ele>
        <time>2018-04-08T09:48:23Z</time>
      </trkpt>
      <trkpt lat="45.91155" lon="4.8162">
        <ele>170</ele>
        <time>2018-04-08T09:48:24Z</time>
      </trkpt>
      <trkpt lat="45.91161" lon="4.8162">
        <ele>170</ele>
        <time>2018-04-08T09:48:25Z</time>
      </trkpt>
      <trkpt lat="45.91168" lon="4.8162">
        <ele>170</ele>
        <time>2018-04-08T09:48:26Z</time>
      </trkpt>
      <trkpt lat="45.91174" lon="4.81619">
        <ele>170</ele>
        <time>2018-04-08T09:48:27Z</time>
      </trkpt>
      <trkpt lat="45.9118" lon="4.81618">
        <ele>170</ele>
        <time>2018-04-08T09:48:28Z</time>
      </trkpt>
      <trkpt lat="45.91186" lon="4.81618">
        <ele>170</ele>
        <time>2018-04-08T09:48:29Z</time>
      </trkpt>
      <trkpt lat="45.91192" lon="4.81618">
        <ele>170</ele>
        <time>2018-04-08T09:48:30Z</time>
      </trkpt>
      <trkpt lat="45.91198" lon="4.81617">
        <ele>170</ele>
        <time>2018-04-08T09:48:31Z</time>
      </trkpt>
      <trkpt lat="45.91203" lon="4.81618">
        <ele>170</ele>
        <time>2018-04-08T09:48:32Z</time>
      </trkpt>
      <trkpt lat="45.91209" lon="4.81617">
        <ele>170</ele>
        <time>2018-04-08T09:48:33Z</time>
      </trkpt>
      <trkpt lat="45.91215" lon="4.81617">
        <ele>170</ele>
        <time>2018-04-08T09:48:34Z</time>
      </trkpt>
      <trkpt lat="45.91221" lon="4.81617">
        <ele>170</ele>
        <time>2018-04-08T09:48:35Z</time>
      </trkpt>
      <trkpt lat="45.91227" lon="4.81617">
        <ele>170</ele>
        <time>2018-04-08T09:48:36Z</time>
      </trkpt>
      <trkpt lat="45.91233" lon="4.81617">
        <ele>170</ele>
        <time>2018-04-08T09:48:37Z</time>
      </trkpt>
      <trkpt lat="45.91239" lon="4.81618">
        <ele>170</ele>
        <time>2018-04-08T09:48:38Z</time>
      </trkpt>
      <trkpt lat="45.91245" lon="4.81618">
        <ele>170</ele>
        <time>2018-04-08T09:48:39Z</time>
      </trkpt>
      <trkpt lat="45.91251" lon="4.81618">
        <ele>170</ele>
        <time>2018-04-08T09:48:40Z</time>
      </trkpt>
      <trkpt lat="45.91257" lon="4.81618">
        <ele>170</ele>
        <time>2018-04-08T09:48:41Z</time>
      </trkpt>
      <trkpt lat="45.91264" lon="4.81618">
        <ele>170</ele>
        <time>2018-04-08T09:48:42Z</time>
      </trkpt>
      <trkpt lat="45.9127" lon="4.81618">
        <ele>170</ele>
        <time>2018-04-08T09:48:43Z</time>
      </trkpt>
      <trkpt lat="45.91277" lon="4.81618">
        <ele>170</ele>
        <time>2018-04-08T09:48:44Z</time>
      </trkpt>
      <trkpt lat="45.91284" lon="4.81618">
        <ele>170</ele>
        <time>2018-04-08T09:48:45Z</time>
      </trkpt>
      <trkpt lat="45.91291" lon="4.81617">
        <ele>170</ele>
        <time>2018-04-08T09:48:46Z</time>
      </trkpt>
      <trkpt lat="45.91297" lon="4.81617">
        <ele>170</ele>
        <time>2018-04-08T09:48:47Z</time>
      </trkpt>
      <trkpt lat="45.91303" lon="4.81618">
        <ele>170</ele>
        <time>2018-04-08T09:48:48Z</time>
      </trkpt>
      <trkpt lat="45.9131" lon="4.81618">
        <ele>170</ele>
        <time>2018-04-08T09:48:49Z</time>
      </trkpt>
      <trkpt lat="45.91316" lon="4.81617">
        <ele>170</ele>
        <time>2018-04-08T09:48:50Z</time>
      </trkpt>
      <trkpt lat="45.91322" lon="4.81618">
        <ele>170</ele>
        <time>2018-04-08T09:48:51Z</time>
      </trkpt>
      <trkpt lat="45.91328" lon="4.81618">
        <ele>170</ele>
        <time>2018-04-08T09:48:52Z</time>
      </trkpt>
      <trkpt lat="45.91334" lon="4.81618">
        <ele>170</ele>
        <time>2018-04-08T09:48:53Z</time>
      </trkpt>
      <trkpt lat="45.9134" lon="4.81618">
        <ele>170</ele>
        <time>2018-04-08T09:48:54Z</time>
      </trkpt>
      <trkpt lat="45.91347" lon="4.81618">
        <ele>170</ele>
        <time>2018-04-08T09:48:55Z</time>
      </trkpt>
      <trkpt lat="45.91353" lon="4.81617">
        <ele>170</ele>
        <time>2018-04-08T09:48:56Z</time>
      </trkpt>
      <trkpt lat="45.9136" lon="4.81616">
        <ele>170</ele>
        <time>2018-04-08T09:48:57Z</time>
      </trkpt>
      <trkpt lat="45.91365" lon="4.81616">
        <ele>170</ele>
        <time>2018-04-08T09:48:58Z</time>
      </trkpt>
      <trkpt lat="45.9137" lon="4.81617">
        <ele>170</ele>
        <time>2018-04-08T09:48:59Z</time>
      </trkpt>
      <trkpt lat="45.91376" lon="4.81617">
        <ele>170</ele>
        <time>2018-04-08T09:49:00Z</time>
      </trkpt>
      <trkpt lat="45.91381" lon="4.81617">
        <ele>170</ele>
        <time>2018-04-08T09:49:01Z</time>
      </trkpt>
      <trkpt lat="45.91386" lon="4.81616">
        <ele>170</ele>
        <time>2018-04-08T09:49:02Z</time>
      </trkpt>
      <trkpt lat="45.91392" lon="4.81616">
        <ele>170</ele>
        <time>2018-04-08T09:49:03Z</time>
      </trkpt>
      <trkpt lat="45.91398" lon="4.81615">
        <ele>170</ele>
        <time>2018-04-08T09:49:04Z</time>
      </trkpt>
      <trkpt lat="45.91404" lon="4.81615">
        <ele>170</ele>
        <time>2018-04-08T09:49:05Z</time>
      </trkpt>
      <trkpt lat="45.9141" lon="4.81615">
        <ele>170</ele>
        <time>2018-04-08T09:49:06Z</time>
      </trkpt>
      <trkpt lat="45.91416" lon="4.81615">
        <ele>170</ele>
        <time>2018-04-08T09:49:07Z</time>
      </trkpt>
      <trkpt lat="45.91423" lon="4.81613">
        <ele>170</ele>
        <time>2018-04-08T09:49:08Z</time>
      </trkpt>
      <trkpt lat="45.91429" lon="4.81613">
        <ele>170</ele>
        <time>2018-04-08T09:49:09Z</time>
      </trkpt>
      <trkpt lat="45.91435" lon="4.81612">
        <ele>170</ele>
        <time>2018-04-08T09:49:10Z</time>
      </trkpt>
      <trkpt lat="45.9144" lon="4.81612">
        <ele>170</ele>
        <time>2018-04-08T09:49:11Z</time>
      </trkpt>
      <trkpt lat="45.91446" lon="4.81612">
        <ele>170</ele>
        <time>2018-04-08T09:49:12Z</time>
      </trkpt>
      <trkpt lat="45.91452" lon="4.81611">
        <ele>170</ele>
        <time>2018-04-08T09:49:13Z</time>
      </trkpt>
      <trkpt lat="45.91458" lon="4.8161">
        <ele>170</ele>
        <time>2018-04-08T09:49:14Z</time>
      </trkpt>
      <trkpt lat="45.91464" lon="4.8161">
        <ele>170</ele>
        <time>2018-04-08T09:49:15Z</time>
      </trkpt>
      <trkpt lat="45.91471" lon="4.81609">
        <ele>170</ele>
        <time>2018-04-08T09:49:16Z</time>
      </trkpt>
      <trkpt lat="45.91477" lon="4.81608">
        <ele>170</ele>
        <time>2018-04-08T09:49:17Z</time>
      </trkpt>
      <trkpt lat="45.91483" lon="4.81607">
        <ele>170</ele>
        <time>2018-04-08T09:49:18Z</time>
      </trkpt>
      <trkpt lat="45.91489" lon="4.81607">
        <ele>170</ele>
        <time>2018-04-08T09:49:19Z</time>
      </trkpt>
      <trkpt lat="45.91494" lon="4.81605">
        <ele>170</ele>
        <time>2018-04-08T09:49:20Z</time>
      </trkpt>
      <trkpt lat="45.915" lon="4.81604">
        <ele>170</ele>
        <time>2018-04-08T09:49:21Z</time>
      </trkpt>
      <trkpt lat="45.91506" lon="4.81603">
        <ele>170</ele>
        <time>2018-04-08T09:49:22Z</time>
      </trkpt>
      <trkpt lat="45.91512" lon="4.81602">
        <ele>170</ele>
        <time>2018-04-08T09:49:23Z</time>
      </trkpt>
      <trkpt lat="45.91518" lon="4.81601">
        <ele>170</ele>
        <time>2018-04-08T09:49:24Z</time>
      </trkpt>
      <trkpt lat="45.91523" lon="4.816">
        <ele>170</ele>
        <time>2018-04-08T09:49:25Z</time>
      </trkpt>
      <trkpt lat="45.91529" lon="4.81599">
        <ele>170</ele>
        <time>2018-04-08T09:49:26Z</time>
      </trkpt>
      <trkpt lat="45.91535" lon="4.81598">
        <ele>170</ele>
        <time>2018-04-08T09:49:27Z</time>
      </trkpt>
      <trkpt lat="45.91541" lon="4.81596">
        <ele>170</ele>
        <time>2018-04-08T09:49:28Z</time>
      </trkpt>
      <trkpt lat="45.91547" lon="4.81595">
        <ele>170</ele>
        <time>2018-04-08T09:49:29Z</time>
      </trkpt>
      <trkpt lat="45.91553" lon="4.81593">
        <ele>170</ele>
        <time>2018-04-08T09:49:30Z</time>
      </trkpt>
      <trkpt lat="45.91559" lon="4.81592">
        <ele>170</ele>
        <time>2018-04-08T09:49:31Z</time>
      </trkpt>
      <trkpt lat="45.91566" lon="4.81591">
        <ele>170</ele>
        <time>2018-04-08T09:49:32Z</time>
      </trkpt>
      <trkpt lat="45.91572" lon="4.81589">
        <ele>170</ele>
        <time>2018-04-08T09:49:33Z</time>
      </trkpt>
      <trkpt lat="45.91578" lon="4.81588">
        <ele>170</ele>
        <time>2018-04-08T09:49:34Z</time>
      </trkpt>
      <trkpt lat="45.91584" lon="4.81587">
        <ele>170</ele>
        <time>2018-04-08T09:49:35Z</time>
      </trkpt>
      <trkpt lat="45.91591" lon="4.81586">
        <ele>170</ele>
        <time>2018-04-08T09:49:36Z</time>
      </trkpt>
      <trkpt lat="45.91597" lon="4.81585">
        <ele>170</ele>
        <time>2018-04-08T09:49:37Z</time>
      </trkpt>
      <trkpt lat="45.91603" lon="4.81584">
        <ele>170</ele>
        <time>2018-04-08T09:49:38Z</time>
      </trkpt>
      <trkpt lat="45.91609" lon="4.81583">
        <ele>170</ele>
        <time>2018-04-08T09:49:39Z</time>
      </trkpt>
      <trkpt lat="45.91615" lon="4.81582">
        <ele>170</ele>
        <time>2018-04-08T09:49:40Z</time>
      </trkpt>
      <trkpt lat="45.91621" lon="4.81581">
        <ele>170</ele>
        <time>2018-04-08T09:49:41Z</time>
      </trkpt>
      <trkpt lat="45.91627" lon="4.8158">
        <ele>170</ele>
        <time>2018-04-08T09:49:42Z</time>
      </trkpt>
      <trkpt lat="45.91634" lon="4.81579">
        <ele>170</ele>
        <time>2018-04-08T09:49:43Z</time>
      </trkpt>
      <trkpt lat="45.9164" lon="4.81577">
        <ele>170</ele>
        <time>2018-04-08T09:49:44Z</time>
      </trkpt>
      <trkpt lat="45.91647" lon="4.81576">
        <ele>170</ele>
        <time>2018-04-08T09:49:45Z</time>
      </trkpt>
      <trkpt lat="45.91653" lon="4.81574">
        <ele>170</ele>
        <time>2018-04-08T09:49:46Z</time>
      </trkpt>
      <trkpt lat="45.9166" lon="4.81573">
        <ele>170</ele>
        <time>2018-04-08T09:49:47Z</time>
      </trkpt>
      <trkpt lat="45.91666" lon="4.81572">
        <ele>170</ele>
        <time>2018-04-08T09:49:48Z</time>
      </trkpt>
      <trkpt lat="45.91673" lon="4.8157">
        <ele>170</ele>
        <time>2018-04-08T09:49:49Z</time>
      </trkpt>
      <trkpt lat="45.9168" lon="4.81568">
        <ele>170</ele>
        <time>2018-04-08T09:49:50Z</time>
      </trkpt>
      <trkpt lat="45.91687" lon="4.81567">
        <ele>169</ele>
        <time>2018-04-08T09:49:51Z</time>
      </trkpt>
      <trkpt lat="45.91693" lon="4.81565">
        <ele>169</ele>
        <time>2018-04-08T09:49:52Z</time>
      </trkpt>
      <trkpt lat="45.917" lon="4.81563">
        <ele>169</ele>
        <time>2018-04-08T09:49:53Z</time>
      </trkpt>
      <trkpt lat="45.91706" lon="4.81561">
        <ele>169</ele>
        <time>2018-04-08T09:49:54Z</time>
      </trkpt>
      <trkpt lat="45.91712" lon="4.81559">
        <ele>169</ele>
        <time>2018-04-08T09:49:55Z</time>
      </trkpt>
      <trkpt lat="45.91719" lon="4.81558">
        <ele>169</ele>
        <time>2018-04-08T09:49:56Z</time>
      </trkpt>
      <trkpt lat="45.91725" lon="4.81555">
        <ele>169</ele>
        <time>2018-04-08T09:49:57Z</time>
      </trkpt>
      <trkpt lat="45.91731" lon="4.81554">
        <ele>169</ele>
        <time>2018-04-08T09:49:58Z</time>
      </trkpt>
      <trkpt lat="45.91737" lon="4.81553">
        <ele>169</ele>
        <time>2018-04-08T09:49:59Z</time>
      </trkpt>
      <trkpt lat="45.91743" lon="4.8155">
        <ele>169</ele>
        <time>2018-04-08T09:50:00Z</time>
      </trkpt>
      <trkpt lat="45.91749" lon="4.81548">
        <ele>169</ele>
        <time>2018-04-08T09:50:01Z</time>
      </trkpt>
      <trkpt lat="45.91755" lon="4.81546">
        <ele>168</ele>
        <time>2018-04-08T09:50:02Z</time>
      </trkpt>
      <trkpt lat="45.91761" lon="4.81544">
        <ele>168</ele>
        <time>2018-04-08T09:50:03Z</time>
      </trkpt>
      <trkpt lat="45.91767" lon="4.81542">
        <ele>168</ele>
        <time>2018-04-08T09:50:04Z</time>
      </trkpt>
      <trkpt lat="45.91774" lon="4.81539">
        <ele>169</ele>
        <time>2018-04-08T09:50:05Z</time>
      </trkpt>
      <trkpt lat="45.9178" lon="4.81537">
        <ele>169</ele>
        <time>2018-04-08T09:50:06Z</time>
      </trkpt>
      <trkpt lat="45.91786" lon="4.81535">
        <ele>169</ele>
        <time>2018-04-08T09:50:07Z</time>
      </trkpt>
      <trkpt lat="45.91792" lon="4.81532">
        <ele>168</ele>
        <time>2018-04-08T09:50:08Z</time>
      </trkpt>
      <trkpt lat="45.91798" lon="4.8153">
        <ele>168</ele>
        <time>2018-04-08T09:50:09Z</time>
      </trkpt>
      <trkpt lat="45.91804" lon="4.81528">
        <ele>168</ele>
        <time>2018-04-08T09:50:10Z</time>
      </trkpt>
      <trkpt lat="45.91809" lon="4.81526">
        <ele>168</ele>
        <time>2018-04-08T09:50:11Z</time>
      </trkpt>
      <trkpt lat="45.91815" lon="4.81523">
        <ele>168</ele>
        <time>2018-04-08T09:50:12Z</time>
      </trkpt>
      <trkpt lat="45.91821" lon="4.81521">
        <ele>168</ele>
        <time>2018-04-08T09:50:13Z</time>
      </trkpt>
      <trkpt lat="45.91828" lon="4.81519">
        <ele>168</ele>
        <time>2018-04-08T09:50:14Z</time>
      </trkpt>
      <trkpt lat="45.91834" lon="4.81516">
        <ele>168</ele>
        <time>2018-04-08T09:50:15Z</time>
      </trkpt>
      <trkpt lat="45.91841" lon="4.81513">
        <ele>168</ele>
        <time>2018-04-08T09:50:16Z</time>
      </trkpt>
      <trkpt lat="45.91847" lon="4.81512">
        <ele>169</ele>
        <time>2018-04-08T09:50:17Z</time>
      </trkpt>
      <trkpt lat="45.91853" lon="4.81509">
        <ele>169</ele>
        <time>2018-04-08T09:50:18Z</time>
      </trkpt>
      <trkpt lat="45.91859" lon="4.81508">
        <ele>169</ele>
        <time>2018-04-08T09:50:19Z</time>
      </trkpt>
      <trkpt lat="45.91866" lon="4.81506">
        <ele>169</ele>
        <time>2018-04-08T09:50:20Z</time>
      </trkpt>
      <trkpt lat="45.91872" lon="4.81505">
        <ele>169</ele>
        <time>2018-04-08T09:50:21Z</time>
      </trkpt>
      <trkpt lat="45.91877" lon="4.81503">
        <ele>169</ele>
        <time>2018-04-08T09:50:22Z</time>
      </trkpt>
      <trkpt lat="45.91884" lon="4.815">
        <ele>169</ele>
        <time>2018-04-08T09:50:23Z</time>
      </trkpt>
      <trkpt lat="45.91889" lon="4.81499">
        <ele>169</ele>
        <time>2018-04-08T09:50:24Z</time>
      </trkpt>
      <trkpt lat="45.91895" lon="4.81497">
        <ele>169</ele>
        <time>2018-04-08T09:50:25Z</time>
      </trkpt>
      <trkpt lat="45.91901" lon="4.81495">
        <ele>169</ele>
        <time>2018-04-08T09:50:26Z</time>
      </trkpt>
      <trkpt lat="45.91906" lon="4.81493">
        <ele>169</ele>
        <time>2018-04-08T09:50:27Z</time>
      </trkpt>
      <trkpt lat="45.91912" lon="4.81491">
        <ele>170</ele>
        <time>2018-04-08T09:50:28Z</time>
      </trkpt>
      <trkpt lat="45.91919" lon="4.81489">
        <ele>170</ele>
        <time>2018-04-08T09:50:29Z</time>
      </trkpt>
      <trkpt lat="45.91925" lon="4.81487">
        <ele>170</ele>
        <time>2018-04-08T09:50:30Z</time>
      </trkpt>
      <trkpt lat="45.91931" lon="4.81485">
        <ele>170</ele>
        <time>2018-04-08T09:50:31Z</time>
      </trkpt>
      <trkpt lat="45.91937" lon="4.81483">
        <ele>170</ele>
        <time>2018-04-08T09:50:32Z</time>
      </trkpt>
      <trkpt lat="45.91943" lon="4.81481">
        <ele>170</ele>
        <time>2018-04-08T09:50:33Z</time>
      </trkpt>
      <trkpt lat="45.91949" lon="4.81479">
        <ele>170</ele>
        <time>2018-04-08T09:50:34Z</time>
      </trkpt>
      <trkpt lat="45.91955" lon="4.81478">
        <ele>170</ele>
        <time>2018-04-08T09:50:35Z</time>
      </trkpt>
      <trkpt lat="45.9196" lon="4.81476">
        <ele>170</ele>
        <time>2018-04-08T09:50:36Z</time>
      </trkpt>
      <trkpt lat="45.91965" lon="4.81474">
        <ele>170</ele>
        <time>2018-04-08T09:50:37Z</time>
      </trkpt>
      <trkpt lat="45.91972" lon="4.8147">
        <ele>170</ele>
        <time>2018-04-08T09:50:38Z</time>
      </trkpt>
      <trkpt lat="45.91978" lon="4.81467">
        <ele>170</ele>
        <time>2018-04-08T09:50:39Z</time>
      </trkpt>
      <trkpt lat="45.91985" lon="4.81464">
        <ele>170</ele>
        <time>2018-04-08T09:50:40Z</time>
      </trkpt>
      <trkpt lat="45.91991" lon="4.81462">
        <ele>170</ele>
        <time>2018-04-08T09:50:41Z</time>
      </trkpt>
      <trkpt lat="45.91998" lon="4.81459">
        <ele>170</ele>
        <time>2018-04-08T09:50:42Z</time>
      </trkpt>
      <trkpt lat="45.92004" lon="4.81455">
        <ele>170</ele>
        <time>2018-04-08T09:50:43Z</time>
      </trkpt>
      <trkpt lat="45.9201" lon="4.81451">
        <ele>170</ele>
        <time>2018-04-08T09:50:44Z</time>
      </trkpt>
      <trkpt lat="45.92016" lon="4.81448">
        <ele>170</ele>
        <time>2018-04-08T09:50:45Z</time>
      </trkpt>
      <trkpt lat="45.92023" lon="4.81443">
        <ele>170</ele>
        <time>2018-04-08T09:50:46Z</time>
      </trkpt>
      <trkpt lat="45.9203" lon="4.8144">
        <ele>170</ele>
        <time>2018-04-08T09:50:47Z</time>
      </trkpt>
      <trkpt lat="45.92035" lon="4.81436">
        <ele>170</ele>
        <time>2018-04-08T09:50:48Z</time>
      </trkpt>
      <trkpt lat="45.92041" lon="4.81433">
        <ele>170</ele>
        <time>2018-04-08T09:50:49Z</time>
      </trkpt>
      <trkpt lat="45.92047" lon="4.81428">
        <ele>170</ele>
        <time>2018-04-08T09:50:50Z</time>
      </trkpt>
      <trkpt lat="45.92053" lon="4.81426">
        <ele>170</ele>
        <time>2018-04-08T09:50:51Z</time>
      </trkpt>
      <trkpt lat="45.92058" lon="4.81423">
        <ele>170</ele>
        <time>2018-04-08T09:50:52Z</time>
      </trkpt>
      <trkpt lat="45.92065" lon="4.81419">
        <ele>170</ele>
        <time>2018-04-08T09:50:53Z</time>
      </trkpt>
      <trkpt lat="45.92071" lon="4.81416">
        <ele>170</ele>
        <time>2018-04-08T09:50:54Z</time>
      </trkpt>
      <trkpt lat="45.92076" lon="4.81413">
        <ele>170</ele>
        <time>2018-04-08T09:50:55Z</time>
      </trkpt>
      <trkpt lat="45.92082" lon="4.8141">
        <ele>170</ele>
        <time>2018-04-08T09:50:56Z</time>
      </trkpt>
      <trkpt lat="45.92087" lon="4.81407">
        <ele>170</ele>
        <time>2018-04-08T09:50:57Z</time>
      </trkpt>
      <trkpt lat="45.92092" lon="4.81405">
        <ele>170</ele>
        <time>2018-04-08T09:50:58Z</time>
      </trkpt>
      <trkpt lat="45.92098" lon="4.81402">
        <ele>170</ele>
        <time>2018-04-08T09:50:59Z</time>
      </trkpt>
      <trkpt lat="45.92103" lon="4.81398">
        <ele>170</ele>
        <time>2018-04-08T09:51:00Z</time>
      </trkpt>
      <trkpt lat="45.92109" lon="4.81397">
        <ele>170</ele>
        <time>2018-04-08T09:51:01Z</time>
      </trkpt>
      <trkpt lat="45.92115" lon="4.81395">
        <ele>170</ele>
        <time>2018-04-08T09:51:02Z</time>
      </trkpt>
      <trkpt lat="45.9212" lon="4.81393">
        <ele>170</ele>
        <time>2018-04-08T09:51:03Z</time>
      </trkpt>
      <trkpt lat="45.92126" lon="4.81392">
        <ele>170</ele>
        <time>2018-04-08T09:51:04Z</time>
      </trkpt>
      <trkpt lat="45.92131" lon="4.8139">
        <ele>170</ele>
        <time>2018-04-08T09:51:05Z</time>
      </trkpt>
      <trkpt lat="45.92137" lon="4.81388">
        <ele>170</ele>
        <time>2018-04-08T09:51:06Z</time>
      </trkpt>
      <trkpt lat="45.92142" lon="4.81388">
        <ele>170</ele>
        <time>2018-04-08T09:51:07Z</time>
      </trkpt>
      <trkpt lat="45.92147" lon="4.81388">
        <ele>170</ele>
        <time>2018-04-08T09:51:08Z</time>
      </trkpt>
      <trkpt lat="45.92152" lon="4.81388">
        <ele>170</ele>
        <time>2018-04-08T09:51:09Z</time>
      </trkpt>
      <trkpt lat="45.92157" lon="4.8139">
        <ele>170</ele>
        <time>2018-04-08T09:51:10Z</time>
      </trkpt>
      <trkpt lat="45.92162" lon="4.81392">
        <ele>170</ele>
        <time>2018-04-08T09:51:11Z</time>
      </trkpt>
      <trkpt lat="45.92166" lon="4.81396">
        <ele>170</ele>
        <time>2018-04-08T09:51:12Z</time>
      </trkpt>
      <trkpt lat="45.92171" lon="4.81399">
        <ele>170</ele>
        <time>2018-04-08T09:51:13Z</time>
      </trkpt>
      <trkpt lat="45.92176" lon="4.81401">
        <ele>170</ele>
        <time>2018-04-08T09:51:14Z</time>
      </trkpt>
      <trkpt lat="45.92182" lon="4.814">
        <ele>170</ele>
        <time>2018-04-08T09:51:15Z</time>
      </trkpt>
      <trkpt lat="45.92186" lon="4.81398">
        <ele>170</ele>
        <time>2018-04-08T09:51:16Z</time>
      </trkpt>
      <trkpt lat="45.9219" lon="4.81393">
        <ele>170</ele>
        <time>2018-04-08T09:51:17Z</time>
      </trkpt>
      <trkpt lat="45.92193" lon="4.81386">
        <ele>170</ele>
        <time>2018-04-08T09:51:18Z</time>
      </trkpt>
      <trkpt lat="45.92196" lon="4.81379">
        <ele>170</ele>
        <time>2018-04-08T09:51:19Z</time>
      </trkpt>
      <trkpt lat="45.92199" lon="4.81371">
        <ele>170</ele>
        <time>2018-04-08T09:51:20Z</time>
      </trkpt>
      <trkpt lat="45.92202" lon="4.81362">
        <ele>170</ele>
        <time>2018-04-08T09:51:21Z</time>
      </trkpt>
      <trkpt lat="45.92206" lon="4.81354">
        <ele>170</ele>
        <time>2018-04-08T09:51:22Z</time>
      </trkpt>
      <trkpt lat="45.92211" lon="4.81348">
        <ele>171</ele>
        <time>2018-04-08T09:51:23Z</time>
      </trkpt>
      <trkpt lat="45.92215" lon="4.81342">
        <ele>171</ele>
        <time>2018-04-08T09:51:24Z</time>
      </trkpt>
      <trkpt lat="45.9222" lon="4.81336">
        <ele>171</ele>
        <time>2018-04-08T09:51:25Z</time>
      </trkpt>
      <trkpt lat="45.92225" lon="4.81331">
        <ele>171</ele>
        <time>2018-04-08T09:51:26Z</time>
      </trkpt>
      <trkpt lat="45.9223" lon="4.81326">
        <ele>171</ele>
        <time>2018-04-08T09:51:27Z</time>
      </trkpt>
      <trkpt lat="45.92235" lon="4.81321">
        <ele>171</ele>
        <time>2018-04-08T09:51:28Z</time>
      </trkpt>
      <trkpt lat="45.9224" lon="4.81316">
        <ele>171</ele>
        <time>2018-04-08T09:51:29Z</time>
      </trkpt>
      <trkpt lat="45.92246" lon="4.81312">
        <ele>171</ele>
        <time>2018-04-08T09:51:30Z</time>
      </trkpt>
      <trkpt lat="45.92251" lon="4.81309">
        <ele>171</ele>
        <time>2018-04-08T09:51:31Z</time>
      </trkpt>
      <trkpt lat="45.92257" lon="4.81301">
        <ele>171</ele>
        <time>2018-04-08T09:51:32Z</time>
      </trkpt>
      <trkpt lat="45.92261" lon="4.81297">
        <ele>170</ele>
        <time>2018-04-08T09:51:33Z</time>
      </trkpt>
      <trkpt lat="45.92266" lon="4.81294">
        <ele>170</ele>
        <time>2018-04-08T09:51:34Z</time>
      </trkpt>
      <trkpt lat="45.92271" lon="4.81292">
        <ele>170</ele>
        <time>2018-04-08T09:51:35Z</time>
      </trkpt>
      <trkpt lat="45.92277" lon="4.8129">
        <ele>170</ele>
        <time>2018-04-08T09:51:36Z</time>
      </trkpt>
      <trkpt lat="45.92282" lon="4.81286">
        <ele>170</ele>
        <time>2018-04-08T09:51:37Z</time>
      </trkpt>
      <trkpt lat="45.92287" lon="4.81283">
        <ele>170</ele>
        <time>2018-04-08T09:51:38Z</time>
      </trkpt>
      <trkpt lat="45.92293" lon="4.81279">
        <ele>170</ele>
        <time>2018-04-08T09:51:39Z</time>
      </trkpt>
      <trkpt lat="45.92298" lon="4.81276">
        <ele>170</ele>
        <time>2018-04-08T09:51:40Z</time>
      </trkpt>
      <trkpt lat="45.92304" lon="4.81272">
        <ele>170</ele>
        <time>2018-04-08T09:51:41Z</time>
      </trkpt>
      <trkpt lat="45.9231" lon="4.81268">
        <ele>170</ele>
        <time>2018-04-08T09:51:42Z</time>
      </trkpt>
      <trkpt lat="45.92316" lon="4.81264">
        <ele>170</ele>
        <time>2018-04-08T09:51:43Z</time>
      </trkpt>
      <trkpt lat="45.92322" lon="4.8126">
        <ele>170</ele>
        <time>2018-04-08T09:51:44Z</time>
      </trkpt>
      <trkpt lat="45.92329" lon="4.81255">
        <ele>169</ele>
        <time>2018-04-08T09:51:45Z</time>
      </trkpt>
      <trkpt lat="45.92335" lon="4.81252">
        <ele>169</ele>
        <time>2018-04-08T09:51:46Z</time>
      </trkpt>
      <trkpt lat="45.92341" lon="4.81248">
        <ele>169</ele>
        <time>2018-04-08T09:51:47Z</time>
      </trkpt>
      <trkpt lat="45.92346" lon="4.81245">
        <ele>169</ele>
        <time>2018-04-08T09:51:48Z</time>
      </trkpt>
      <trkpt lat="45.92352" lon="4.81241">
        <ele>169</ele>
        <time>2018-04-08T09:51:49Z</time>
      </trkpt>
      <trkpt lat="45.92359" lon="4.81237">
        <ele>170</ele>
        <time>2018-04-08T09:51:50Z</time>
      </trkpt>
      <trkpt lat="45.92365" lon="4.81234">
        <ele>170</ele>
        <time>2018-04-08T09:51:51Z</time>
      </trkpt>
      <trkpt lat="45.92371" lon="4.81229">
        <ele>170</ele>
        <time>2018-04-08T09:51:52Z</time>
      </trkpt>
      <trkpt lat="45.92377" lon="4.81225">
        <ele>170</ele>
        <time>2018-04-08T09:51:53Z</time>
      </trkpt>
      <trkpt lat="45.92383" lon="4.81222">
        <ele>170</ele>
        <time>2018-04-08T09:51:54Z</time>
      </trkpt>
      <trkpt lat="45.92388" lon="4.81219">
        <ele>170</ele>
        <time>2018-04-08T09:51:55Z</time>
      </trkpt>
      <trkpt lat="45.92393" lon="4.81217">
        <ele>170</ele>
        <time>2018-04-08T09:51:56Z</time>
      </trkpt>
      <trkpt lat="45.92399" lon="4.81215">
        <ele>170</ele>
        <time>2018-04-08T09:51:57Z</time>
      </trkpt>
      <trkpt lat="45.92405" lon="4.81211">
        <ele>170</ele>
        <time>2018-04-08T09:51:58Z</time>
      </trkpt>
      <trkpt lat="45.9241" lon="4.81208">
        <ele>170</ele>
        <time>2018-04-08T09:51:59Z</time>
      </trkpt>
      <trkpt lat="45.92415" lon="4.81207">
        <ele>170</ele>
        <time>2018-04-08T09:52:00Z</time>
      </trkpt>
      <trkpt lat="45.92421" lon="4.81205">
        <ele>171</ele>
        <time>2018-04-08T09:52:01Z</time>
      </trkpt>
      <trkpt lat="45.92426" lon="4.81203">
        <ele>171</ele>
        <time>2018-04-08T09:52:02Z</time>
      </trkpt>
      <trkpt lat="45.92432" lon="4.81202">
        <ele>171</ele>
        <time>2018-04-08T09:52:03Z</time>
      </trkpt>
      <trkpt lat="45.92437" lon="4.81202">
        <ele>171</ele>
        <time>2018-04-08T09:52:04Z</time>
      </trkpt>
      <trkpt lat="45.92443" lon="4.812">
        <ele>171</ele>
        <time>2018-04-08T09:52:05Z</time>
      </trkpt>
      <trkpt lat="45.9245" lon="4.812">
        <ele>171</ele>
        <time>2018-04-08T09:52:06Z</time>
      </trkpt>
      <trkpt lat="45.92456" lon="4.812">
        <ele>171</ele>
        <time>2018-04-08T09:52:07Z</time>
      </trkpt>
      <trkpt lat="45.92462" lon="4.812">
        <ele>171</ele>
        <time>2018-04-08T09:52:08Z</time>
      </trkpt>
      <trkpt lat="45.92468" lon="4.812">
        <ele>171</ele>
        <time>2018-04-08T09:52:09Z</time>
      </trkpt>
      <trkpt lat="45.92475" lon="4.81199">
        <ele>171</ele>
        <time>2018-04-08T09:52:10Z</time>
      </trkpt>
      <trkpt lat="45.92481" lon="4.81198">
        <ele>171</ele>
        <time>2018-04-08T09:52:11Z</time>
      </trkpt>
      <trkpt lat="45.92486" lon="4.81198">
        <ele>171</ele>
        <time>2018-04-08T09:52:12Z</time>
      </trkpt>
      <trkpt lat="45.92493" lon="4.81198">
        <ele>171</ele>
        <time>2018-04-08T09:52:13Z</time>
      </trkpt>
      <trkpt lat="45.92499" lon="4.81198">
        <ele>171</ele>
        <time>2018-04-08T09:52:14Z</time>
      </trkpt>
      <trkpt lat="45.92505" lon="4.81197">
        <ele>171</ele>
        <time>2018-04-08T09:52:15Z</time>
      </trkpt>
      <trkpt lat="45.92513" lon="4.81196">
        <ele>171</ele>
        <time>2018-04-08T09:52:16Z</time>
      </trkpt>
      <trkpt lat="45.9252" lon="4.81196">
        <ele>171</ele>
        <time>2018-04-08T09:52:17Z</time>
      </trkpt>
      <trkpt lat="45.92526" lon="4.81196">
        <ele>171</ele>
        <time>2018-04-08T09:52:18Z</time>
      </trkpt>
      <trkpt lat="45.92533" lon="4.81195">
        <ele>171</ele>
        <time>2018-04-08T09:52:19Z</time>
      </trkpt>
      <trkpt lat="45.92539" lon="4.81196">
        <ele>171</ele>
        <time>2018-04-08T09:52:20Z</time>
      </trkpt>
      <trkpt lat="45.92545" lon="4.81196">
        <ele>170</ele>
        <time>2018-04-08T09:52:21Z</time>
      </trkpt>
      <trkpt lat="45.92552" lon="4.81196">
        <ele>170</ele>
        <time>2018-04-08T09:52:22Z</time>
      </trkpt>
      <trkpt lat="45.92558" lon="4.81196">
        <ele>170</ele>
        <time>2018-04-08T09:52:23Z</time>
      </trkpt>
      <trkpt lat="45.92564" lon="4.81195">
        <ele>170</ele>
        <time>2018-04-08T09:52:24Z</time>
      </trkpt>
      <trkpt lat="45.9257" lon="4.81195">
        <ele>170</ele>
        <time>2018-04-08T09:52:25Z</time>
      </trkpt>
      <trkpt lat="45.92577" lon="4.81195">
        <ele>170</ele>
        <time>2018-04-08T09:52:26Z</time>
      </trkpt>
      <trkpt lat="45.92583" lon="4.81194">
        <ele>170</ele>
        <time>2018-04-08T09:52:27Z</time>
      </trkpt>
      <trkpt lat="45.9259" lon="4.81194">
        <ele>170</ele>
        <time>2018-04-08T09:52:28Z</time>
      </trkpt>
      <trkpt lat="45.92596" lon="4.81194">
        <ele>170</ele>
        <time>2018-04-08T09:52:29Z</time>
      </trkpt>
      <trkpt lat="45.92601" lon="4.81194">
        <ele>170</ele>
        <time>2018-04-08T09:52:30Z</time>
      </trkpt>
      <trkpt lat="45.92606" lon="4.81194">
        <ele>170</ele>
        <time>2018-04-08T09:52:31Z</time>
      </trkpt>
      <trkpt lat="45.92611" lon="4.81194">
        <ele>170</ele>
        <time>2018-04-08T09:52:32Z</time>
      </trkpt>
      <trkpt lat="45.92617" lon="4.81193">
        <ele>170</ele>
        <time>2018-04-08T09:52:33Z</time>
      </trkpt>
      <trkpt lat="45.92623" lon="4.81193">
        <ele>170</ele>
        <time>2018-04-08T09:52:34Z</time>
      </trkpt>
      <trkpt lat="45.92628" lon="4.81192">
        <ele>171</ele>
        <time>2018-04-08T09:52:35Z</time>
      </trkpt>
      <trkpt lat="45.92634" lon="4.81191">
        <ele>171</ele>
        <time>2018-04-08T09:52:36Z</time>
      </trkpt>
      <trkpt lat="45.9264" lon="4.81189">
        <ele>171</ele>
        <time>2018-04-08T09:52:37Z</time>
      </trkpt>
      <trkpt lat="45.92646" lon="4.81188">
        <ele>171</ele>
        <time>2018-04-08T09:52:38Z</time>
      </trkpt>
      <trkpt lat="45.92652" lon="4.81188">
        <ele>171</ele>
        <time>2018-04-08T09:52:39Z</time>
      </trkpt>
      <trkpt lat="45.92658" lon="4.81187">
        <ele>171</ele>
        <time>2018-04-08T09:52:40Z</time>
      </trkpt>
      <trkpt lat="45.92663" lon="4.81186">
        <ele>171</ele>
        <time>2018-04-08T09:52:41Z</time>
      </trkpt>
      <trkpt lat="45.92669" lon="4.81185">
        <ele>171</ele>
        <time>2018-04-08T09:52:42Z</time>
      </trkpt>
      <trkpt lat="45.92675" lon="4.81184">
        <ele>171</ele>
        <time>2018-04-08T09:52:43Z</time>
      </trkpt>
      <trkpt lat="45.92681" lon="4.81183">
        <ele>171</ele>
        <time>2018-04-08T09:52:44Z</time>
      </trkpt>
      <trkpt lat="45.92686" lon="4.81182">
        <ele>171</ele>
        <time>2018-04-08T09:52:45Z</time>
      </trkpt>
      <trkpt lat="45.92691" lon="4.81181">
        <ele>170</ele>
        <time>2018-04-08T09:52:46Z</time>
      </trkpt>
      <trkpt lat="45.92696" lon="4.81179">
        <ele>170</ele>
        <time>2018-04-08T09:52:47Z</time>
      </trkpt>
      <trkpt lat="45.92701" lon="4.81178">
        <ele>170</ele>
        <time>2018-04-08T09:52:48Z</time>
      </trkpt>
      <trkpt lat="45.92707" lon="4.81178">
        <ele>170</ele>
        <time>2018-04-08T09:52:49Z</time>
      </trkpt>
      <trkpt lat="45.92713" lon="4.81177">
        <ele>170</ele>
        <time>2018-04-08T09:52:50Z</time>
      </trkpt>
      <trkpt lat="45.9272" lon="4.81176">
        <ele>170</ele>
        <time>2018-04-08T09:52:51Z</time>
      </trkpt>
      <trkpt lat="45.92726" lon="4.81176">
        <ele>170</ele>
        <time>2018-04-08T09:52:52Z</time>
      </trkpt>
      <trkpt lat="45.92731" lon="4.81175">
        <ele>170</ele>
        <time>2018-04-08T09:52:53Z</time>
      </trkpt>
      <trkpt lat="45.92737" lon="4.81175">
        <ele>170</ele>
        <time>2018-04-08T09:52:54Z</time>
      </trkpt>
      <trkpt lat="45.92743" lon="4.81176">
        <ele>170</ele>
        <time>2018-04-08T09:52:55Z</time>
      </trkpt>
      <trkpt lat="45.92748" lon="4.81178">
        <ele>170</ele>
        <time>2018-04-08T09:52:56Z</time>
      </trkpt>
      <trkpt lat="45.92753" lon="4.81182">
        <ele>170</ele>
        <time>2018-04-08T09:52:57Z</time>
      </trkpt>
      <trkpt lat="45.92758" lon="4.81185">
        <ele>170</ele>
        <time>2018-04-08T09:52:58Z</time>
      </trkpt>
      <trkpt lat="45.92763" lon="4.81188">
        <ele>170</ele>
        <time>2018-04-08T09:52:59Z</time>
      </trkpt>
      <trkpt lat="45.92768" lon="4.81189">
        <ele>170</ele>
        <time>2018-04-08T09:53:00Z</time>
      </trkpt>
      <trkpt lat="45.92774" lon="4.81186">
        <ele>170</ele>
        <time>2018-04-08T09:53:01Z</time>
      </trkpt>
      <trkpt lat="45.92778" lon="4.81181">
        <ele>170</ele>
        <time>2018-04-08T09:53:02Z</time>
      </trkpt>
      <trkpt lat="45.92781" lon="4.81174">
        <ele>170</ele>
        <time>2018-04-08T09:53:03Z</time>
      </trkpt>
      <trkpt lat="45.92783" lon="4.81166">
        <ele>170</ele>
        <time>2018-04-08T09:53:04Z</time>
      </trkpt>
      <trkpt lat="45.92785" lon="4.81158">
        <ele>170</ele>
        <time>2018-04-08T09:53:05Z</time>
      </trkpt>
      <trkpt lat="45.92786" lon="4.81149">
        <ele>170</ele>
        <time>2018-04-08T09:53:06Z</time>
      </trkpt>
      <trkpt lat="45.92787" lon="4.81141">
        <ele>170</ele>
        <time>2018-04-08T09:53:07Z</time>
      </trkpt>
      <trkpt lat="45.9279" lon="4.81134">
        <ele>170</ele>
        <time>2018-04-08T09:53:08Z</time>
      </trkpt>
      <trkpt lat="45.92793" lon="4.81127">
        <ele>170</ele>
        <time>2018-04-08T09:53:09Z</time>
      </trkpt>
      <trkpt lat="45.92798" lon="4.8112">
        <ele>170</ele>
        <time>2018-04-08T09:53:10Z</time>
      </trkpt>
      <trkpt lat="45.92801" lon="4.81114">
        <ele>170</ele>
        <time>2018-04-08T09:53:11Z</time>
      </trkpt>
      <trkpt lat="45.92805" lon="4.81108">
        <ele>170</ele>
        <time>2018-04-08T09:53:12Z</time>
      </trkpt>
      <trkpt lat="45.92809" lon="4.81102">
        <ele>170</ele>
        <time>2018-04-08T09:53:13Z</time>
      </trkpt>
      <trkpt lat="45.92813" lon="4.81096">
        <ele>170</ele>
        <time>2018-04-08T09:53:14Z</time>
      </trkpt>
      <trkpt lat="45.92817" lon="4.8109">
        <ele>170</ele>
        <time>2018-04-08T09:53:15Z</time>
      </trkpt>
      <trkpt lat="45.92821" lon="4.81082">
        <ele>170</ele>
        <time>2018-04-08T09:53:16Z</time>
      </trkpt>
      <trkpt lat="45.92825" lon="4.81075">
        <ele>170</ele>
        <time>2018-04-08T09:53:17Z</time>
      </trkpt>
      <trkpt lat="45.92829" lon="4.81068">
        <ele>170</ele>
        <time>2018-04-08T09:53:18Z</time>
      </trkpt>
      <trkpt lat="45.92833" lon="4.8106">
        <ele>169</ele>
        <time>2018-04-08T09:53:19Z</time>
      </trkpt>
      <trkpt lat="45.92838" lon="4.81051">
        <ele>169</ele>
        <time>2018-04-08T09:53:20Z</time>
      </trkpt>
      <trkpt lat="45.92842" lon="4.81043">
        <ele>169</ele>
        <time>2018-04-08T09:53:21Z</time>
      </trkpt>
      <trkpt lat="45.92846" lon="4.81035">
        <ele>169</ele>
        <time>2018-04-08T09:53:22Z</time>
      </trkpt>
      <trkpt lat="45.9285" lon="4.81028">
        <ele>169</ele>
        <time>2018-04-08T09:53:23Z</time>
      </trkpt>
      <trkpt lat="45.92854" lon="4.81022">
        <ele>169</ele>
        <time>2018-04-08T09:53:24Z</time>
      </trkpt>
      <trkpt lat="45.92857" lon="4.81014">
        <ele>169</ele>
        <time>2018-04-08T09:53:25Z</time>
      </trkpt>
      <trkpt lat="45.9286" lon="4.81006">
        <ele>169</ele>
        <time>2018-04-08T09:53:26Z</time>
      </trkpt>
      <trkpt lat="45.92863" lon="4.80998">
        <ele>169</ele>
        <time>2018-04-08T09:53:27Z</time>
      </trkpt>
      <trkpt lat="45.92865" lon="4.8099">
        <ele>169</ele>
        <time>2018-04-08T09:53:28Z</time>
      </trkpt>
      <trkpt lat="45.92868" lon="4.80982">
        <ele>169</ele>
        <time>2018-04-08T09:53:29Z</time>
      </trkpt>
      <trkpt lat="45.92871" lon="4.80973">
        <ele>169</ele>
        <time>2018-04-08T09:53:30Z</time>
      </trkpt>
      <trkpt lat="45.92874" lon="4.80965">
        <ele>169</ele>
        <time>2018-04-08T09:53:31Z</time>
      </trkpt>
      <trkpt lat="45.92876" lon="4.80957">
        <ele>170</ele>
        <time>2018-04-08T09:53:32Z</time>
      </trkpt>
      <trkpt lat="45.9288" lon="4.80948">
        <ele>170</ele>
        <time>2018-04-08T09:53:33Z</time>
      </trkpt>
      <trkpt lat="45.92883" lon="4.8094">
        <ele>170</ele>
        <time>2018-04-08T09:53:34Z</time>
      </trkpt>
      <trkpt lat="45.92885" lon="4.80932">
        <ele>170</ele>
        <time>2018-04-08T09:53:35Z</time>
      </trkpt>
      <trkpt lat="45.92886" lon="4.80923">
        <ele>170</ele>
        <time>2018-04-08T09:53:36Z</time>
      </trkpt>
      <trkpt lat="45.92889" lon="4.80916">
        <ele>170</ele>
        <time>2018-04-08T09:53:37Z</time>
      </trkpt>
      <trkpt lat="45.92891" lon="4.80908">
        <ele>170</ele>
        <time>2018-04-08T09:53:38Z</time>
      </trkpt>
      <trkpt lat="45.92894" lon="4.80901">
        <ele>170</ele>
        <time>2018-04-08T09:53:39Z</time>
      </trkpt>
      <trkpt lat="45.92896" lon="4.80895">
        <ele>170</ele>
        <time>2018-04-08T09:53:40Z</time>
      </trkpt>
      <trkpt lat="45.92899" lon="4.80887">
        <ele>170</ele>
        <time>2018-04-08T09:53:41Z</time>
      </trkpt>
      <trkpt lat="45.92902" lon="4.80879">
        <ele>171</ele>
        <time>2018-04-08T09:53:42Z</time>
      </trkpt>
      <trkpt lat="45.92904" lon="4.80872">
        <ele>171</ele>
        <time>2018-04-08T09:53:43Z</time>
      </trkpt>
      <trkpt lat="45.92907" lon="4.80865">
        <ele>171</ele>
        <time>2018-04-08T09:53:44Z</time>
      </trkpt>
      <trkpt lat="45.9291" lon="4.80857">
        <ele>171</ele>
        <time>2018-04-08T09:53:45Z</time>
      </trkpt>
      <trkpt lat="45.92913" lon="4.8085">
        <ele>171</ele>
        <time>2018-04-08T09:53:46Z</time>
      </trkpt>
      <trkpt lat="45.92915" lon="4.80842">
        <ele>172</ele>
        <time>2018-04-08T09:53:47Z</time>
      </trkpt>
      <trkpt lat="45.92918" lon="4.80834">
        <ele>172</ele>
        <time>2018-04-08T09:53:48Z</time>
      </trkpt>
      <trkpt lat="45.9292" lon="4.80823">
        <ele>172</ele>
        <time>2018-04-08T09:53:49Z</time>
      </trkpt>
      <trkpt lat="45.92923" lon="4.80814">
        <ele>172</ele>
        <time>2018-04-08T09:53:50Z</time>
      </trkpt>
      <trkpt lat="45.92925" lon="4.80806">
        <ele>172</ele>
        <time>2018-04-08T09:53:51Z</time>
      </trkpt>
      <trkpt lat="45.92929" lon="4.80796">
        <ele>172</ele>
        <time>2018-04-08T09:53:52Z</time>
      </trkpt>
      <trkpt lat="45.92932" lon="4.80789">
        <ele>172</ele>
        <time>2018-04-08T09:53:53Z</time>
      </trkpt>
      <trkpt lat="45.92935" lon="4.8078">
        <ele>172</ele>
        <time>2018-04-08T09:53:54Z</time>
      </trkpt>
      <trkpt lat="45.92937" lon="4.80772">
        <ele>172</ele>
        <time>2018-04-08T09:53:55Z</time>
      </trkpt>
      <trkpt lat="45.9294" lon="4.80763">
        <ele>172</ele>
        <time>2018-04-08T09:53:56Z</time>
      </trkpt>
      <trkpt lat="45.92943" lon="4.80754">
        <ele>172</ele>
        <time>2018-04-08T09:53:57Z</time>
      </trkpt>
      <trkpt lat="45.92946" lon="4.80746">
        <ele>172</ele>
        <time>2018-04-08T09:53:58Z</time>
      </trkpt>
      <trkpt lat="45.92949" lon="4.80737">
        <ele>172</ele>
        <time>2018-04-08T09:53:59Z</time>
      </trkpt>
      <trkpt lat="45.92952" lon="4.80729">
        <ele>172</ele>
        <time>2018-04-08T09:54:00Z</time>
      </trkpt>
      <trkpt lat="45.92955" lon="4.8072">
        <ele>172</ele>
        <time>2018-04-08T09:54:01Z</time>
      </trkpt>
      <trkpt lat="45.92958" lon="4.80712">
        <ele>172</ele>
        <time>2018-04-08T09:54:02Z</time>
      </trkpt>
      <trkpt lat="45.9296" lon="4.80704">
        <ele>172</ele>
        <time>2018-04-08T09:54:03Z</time>
      </trkpt>
      <trkpt lat="45.92962" lon="4.80696">
        <ele>172</ele>
        <time>2018-04-08T09:54:04Z</time>
      </trkpt>
      <trkpt lat="45.92965" lon="4.80688">
        <ele>172</ele>
        <time>2018-04-08T09:54:05Z</time>
      </trkpt>
      <trkpt lat="45.92967" lon="4.8068">
        <ele>172</ele>
        <time>2018-04-08T09:54:06Z</time>
      </trkpt>
      <trkpt lat="45.92969" lon="4.80674">
        <ele>172</ele>
        <time>2018-04-08T09:54:07Z</time>
      </trkpt>
      <trkpt lat="45.92972" lon="4.80666">
        <ele>172</ele>
        <time>2018-04-08T09:54:08Z</time>
      </trkpt>
      <trkpt lat="45.92975" lon="4.80658">
        <ele>172</ele>
        <time>2018-04-08T09:54:09Z</time>
      </trkpt>
      <trkpt lat="45.92977" lon="4.80651">
        <ele>172</ele>
        <time>2018-04-08T09:54:10Z</time>
      </trkpt>
      <trkpt lat="45.92979" lon="4.80644">
        <ele>172</ele>
        <time>2018-04-08T09:54:11Z</time>
      </trkpt>
      <trkpt lat="45.92981" lon="4.80637">
        <ele>172</ele>
        <time>2018-04-08T09:54:12Z</time>
      </trkpt>
      <trkpt lat="45.92983" lon="4.80631">
        <ele>172</ele>
        <time>2018-04-08T09:54:13Z</time>
      </trkpt>
      <trkpt lat="45.92985" lon="4.80624">
        <ele>172</ele>
        <time>2018-04-08T09:54:14Z</time>
      </trkpt>
      <trkpt lat="45.92987" lon="4.80618">
        <ele>172</ele>
        <time>2018-04-08T09:54:15Z</time>
      </trkpt>
      <trkpt lat="45.9299" lon="4.80612">
        <ele>172</ele>
        <time>2018-04-08T09:54:16Z</time>
      </trkpt>
      <trkpt lat="45.92992" lon="4.80605">
        <ele>172</ele>
        <time>2018-04-08T09:54:17Z</time>
      </trkpt>
      <trkpt lat="45.92995" lon="4.80599">
        <ele>172</ele>
        <time>2018-04-08T09:54:18Z</time>
      </trkpt>
      <trkpt lat="45.92997" lon="4.80592">
        <ele>172</ele>
        <time>2018-04-08T09:54:19Z</time>
      </trkpt>
      <trkpt lat="45.92999" lon="4.80586">
        <ele>172</ele>
        <time>2018-04-08T09:54:20Z</time>
      </trkpt>
      <trkpt lat="45.93001" lon="4.80579">
        <ele>172</ele>
        <time>2018-04-08T09:54:21Z</time>
      </trkpt>
      <trkpt lat="45.93004" lon="4.80572">
        <ele>172</ele>
        <time>2018-04-08T09:54:22Z</time>
      </trkpt>
      <trkpt lat="45.93007" lon="4.80567">
        <ele>172</ele>
        <time>2018-04-08T09:54:23Z</time>
      </trkpt>
      <trkpt lat="45.9301" lon="4.8056">
        <ele>172</ele>
        <time>2018-04-08T09:54:24Z</time>
      </trkpt>
      <trkpt lat="45.93012" lon="4.80551">
        <ele>172</ele>
        <time>2018-04-08T09:54:25Z</time>
      </trkpt>
      <trkpt lat="45.93014" lon="4.80544">
        <ele>172</ele>
        <time>2018-04-08T09:54:26Z</time>
      </trkpt>
      <trkpt lat="45.93017" lon="4.80536">
        <ele>172</ele>
        <time>2018-04-08T09:54:27Z</time>
      </trkpt>
      <trkpt lat="45.93019" lon="4.80529">
        <ele>172</ele>
        <time>2018-04-08T09:54:28Z</time>
      </trkpt>
      <trkpt lat="45.93023" lon="4.80521">
        <ele>172</ele>
        <time>2018-04-08T09:54:29Z</time>
      </trkpt>
      <trkpt lat="45.93027" lon="4.80512">
        <ele>172</ele>
        <time>2018-04-08T09:54:30Z</time>
      </trkpt>
      <trkpt lat="45.93029" lon="4.80504">
        <ele>172</ele>
        <time>2018-04-08T09:54:31Z</time>
      </trkpt>
      <trkpt lat="45.93031" lon="4.80497">
        <ele>171</ele>
        <time>2018-04-08T09:54:32Z</time>
      </trkpt>
      <trkpt lat="45.93033" lon="4.80489">
        <ele>171</ele>
        <time>2018-04-08T09:54:33Z</time>
      </trkpt>
      <trkpt lat="45.93035" lon="4.80481">
        <ele>171</ele>
        <time>2018-04-08T09:54:34Z</time>
      </trkpt>
      <trkpt lat="45.93038" lon="4.80474">
        <ele>171</ele>
        <time>2018-04-08T09:54:35Z</time>
      </trkpt>
      <trkpt lat="45.9304" lon="4.80467">
        <ele>171</ele>
        <time>2018-04-08T09:54:36Z</time>
      </trkpt>
      <trkpt lat="45.93043" lon="4.8046">
        <ele>171</ele>
        <time>2018-04-08T09:54:37Z</time>
      </trkpt>
      <trkpt lat="45.93046" lon="4.80452">
        <ele>171</ele>
        <time>2018-04-08T09:54:38Z</time>
      </trkpt>
      <trkpt lat="45.93048" lon="4.80445">
        <ele>171</ele>
        <time>2018-04-08T09:54:39Z</time>
      </trkpt>
      <trkpt lat="45.93051" lon="4.80437">
        <ele>171</ele>
        <time>2018-04-08T09:54:40Z</time>
      </trkpt>
      <trkpt lat="45.93053" lon="4.8043">
        <ele>171</ele>
        <time>2018-04-08T09:54:41Z</time>
      </trkpt>
      <trkpt lat="45.93056" lon="4.80421">
        <ele>171</ele>
        <time>2018-04-08T09:54:42Z</time>
      </trkpt>
      <trkpt lat="45.93058" lon="4.80413">
        <ele>170</ele>
        <time>2018-04-08T09:54:43Z</time>
      </trkpt>
      <trkpt lat="45.93062" lon="4.80404">
        <ele>170</ele>
        <time>2018-04-08T09:54:44Z</time>
      </trkpt>
      <trkpt lat="45.93064" lon="4.80397">
        <ele>170</ele>
        <time>2018-04-08T09:54:45Z</time>
      </trkpt>
      <trkpt lat="45.93068" lon="4.80389">
        <ele>170</ele>
        <time>2018-04-08T09:54:46Z</time>
      </trkpt>
      <trkpt lat="45.93071" lon="4.80378">
        <ele>170</ele>
        <time>2018-04-08T09:54:47Z</time>
      </trkpt>
      <trkpt lat="45.93075" lon="4.80369">
        <ele>170</ele>
        <time>2018-04-08T09:54:48Z</time>
      </trkpt>
      <trkpt lat="45.93078" lon="4.80361">
        <ele>170</ele>
        <time>2018-04-08T09:54:49Z</time>
      </trkpt>
      <trkpt lat="45.93081" lon="4.80352">
        <ele>169</ele>
        <time>2018-04-08T09:54:50Z</time>
      </trkpt>
      <trkpt lat="45.93083" lon="4.80342">
        <ele>169</ele>
        <time>2018-04-08T09:54:51Z</time>
      </trkpt>
      <trkpt lat="45.93086" lon="4.80332">
        <ele>169</ele>
        <time>2018-04-08T09:54:52Z</time>
      </trkpt>
      <trkpt lat="45.93089" lon="4.80322">
        <ele>169</ele>
        <time>2018-04-08T09:54:53Z</time>
      </trkpt>
      <trkpt lat="45.93092" lon="4.80312">
        <ele>169</ele>
        <time>2018-04-08T09:54:54Z</time>
      </trkpt>
      <trkpt lat="45.93096" lon="4.80303">
        <ele>169</ele>
        <time>2018-04-08T09:54:55Z</time>
      </trkpt>
      <trkpt lat="45.93098" lon="4.80293">
        <ele>169</ele>
        <time>2018-04-08T09:54:56Z</time>
      </trkpt>
      <trkpt lat="45.93102" lon="4.80283">
        <ele>169</ele>
        <time>2018-04-08T09:54:57Z</time>
      </trkpt>
      <trkpt lat="45.93106" lon="4.80274">
        <ele>169</ele>
        <time>2018-04-08T09:54:58Z</time>
      </trkpt>
      <trkpt lat="45.93108" lon="4.80265">
        <ele>169</ele>
        <time>2018-04-08T09:54:59Z</time>
      </trkpt>
      <trkpt lat="45.93111" lon="4.80256">
        <ele>169</ele>
        <time>2018-04-08T09:55:00Z</time>
      </trkpt>
      <trkpt lat="45.93114" lon="4.80247">
        <ele>169</ele>
        <time>2018-04-08T09:55:01Z</time>
      </trkpt>
      <trkpt lat="45.93117" lon="4.80238">
        <ele>169</ele>
        <time>2018-04-08T09:55:02Z</time>
      </trkpt>
      <trkpt lat="45.9312" lon="4.8023">
        <ele>169</ele>
        <time>2018-04-08T09:55:03Z</time>
      </trkpt>
      <trkpt lat="45.93122" lon="4.80221">
        <ele>169</ele>
        <time>2018-04-08T09:55:04Z</time>
      </trkpt>
      <trkpt lat="45.93124" lon="4.80213">
        <ele>169</ele>
        <time>2018-04-08T09:55:05Z</time>
      </trkpt>
      <trkpt lat="45.93127" lon="4.80204">
        <ele>169</ele>
        <time>2018-04-08T09:55:06Z</time>
      </trkpt>
      <trkpt lat="45.93129" lon="4.80195">
        <ele>169</ele>
        <time>2018-04-08T09:55:07Z</time>
      </trkpt>
      <trkpt lat="45.93132" lon="4.80187">
        <ele>169</ele>
        <time>2018-04-08T09:55:08Z</time>
      </trkpt>
      <trkpt lat="45.93135" lon="4.8018">
        <ele>169</ele>
        <time>2018-04-08T09:55:09Z</time>
      </trkpt>
      <trkpt lat="45.93137" lon="4.80171">
        <ele>169</ele>
        <time>2018-04-08T09:55:10Z</time>
      </trkpt>
      <trkpt lat="45.93141" lon="4.80163">
        <ele>169</ele>
        <time>2018-04-08T09:55:11Z</time>
      </trkpt>
      <trkpt lat="45.93144" lon="4.80155">
        <ele>169</ele>
        <time>2018-04-08T09:55:12Z</time>
      </trkpt>
      <trkpt lat="45.93146" lon="4.80146">
        <ele>169</ele>
        <time>2018-04-08T09:55:13Z</time>
      </trkpt>
      <trkpt lat="45.93149" lon="4.80138">
        <ele>169</ele>
        <time>2018-04-08T09:55:14Z</time>
      </trkpt>
      <trkpt lat="45.93151" lon="4.80131">
        <ele>169</ele>
        <time>2018-04-08T09:55:15Z</time>
      </trkpt>
      <trkpt lat="45.93154" lon="4.80123">
        <ele>169</ele>
        <time>2018-04-08T09:55:16Z</time>
      </trkpt>
      <trkpt lat="45.93156" lon="4.80116">
        <ele>169</ele>
        <time>2018-04-08T09:55:17Z</time>
      </trkpt>
      <trkpt lat="45.93158" lon="4.80109">
        <ele>169</ele>
        <time>2018-04-08T09:55:18Z</time>
      </trkpt>
      <trkpt lat="45.9316" lon="4.80103">
        <ele>170</ele>
        <time>2018-04-08T09:55:19Z</time>
      </trkpt>
      <trkpt lat="45.93162" lon="4.80096">
        <ele>170</ele>
        <time>2018-04-08T09:55:20Z</time>
      </trkpt>
      <trkpt lat="45.93165" lon="4.8009">
        <ele>170</ele>
        <time>2018-04-08T09:55:21Z</time>
      </trkpt>
      <trkpt lat="45.93169" lon="4.80085">
        <ele>170</ele>
        <time>2018-04-08T09:55:22Z</time>
      </trkpt>
      <trkpt lat="45.93173" lon="4.80082">
        <ele>170</ele>
        <time>2018-04-08T09:55:23Z</time>
      </trkpt>
      <trkpt lat="45.93178" lon="4.8008">
        <ele>170</ele>
        <time>2018-04-08T09:55:24Z</time>
      </trkpt>
      <trkpt lat="45.93183" lon="4.80078">
        <ele>170</ele>
        <time>2018-04-08T09:55:25Z</time>
      </trkpt>
      <trkpt lat="45.93188" lon="4.80075">
        <ele>170</ele>
        <time>2018-04-08T09:55:26Z</time>
      </trkpt>
      <trkpt lat="45.93193" lon="4.80071">
        <ele>170</ele>
        <time>2018-04-08T09:55:27Z</time>
      </trkpt>
      <trkpt lat="45.93197" lon="4.80065">
        <ele>170</ele>
        <time>2018-04-08T09:55:28Z</time>
      </trkpt>
      <trkpt lat="45.93201" lon="4.80058">
        <ele>170</ele>
        <time>2018-04-08T09:55:29Z</time>
      </trkpt>
      <trkpt lat="45.93201" lon="4.80049">
        <ele>170</ele>
        <time>2018-04-08T09:55:30Z</time>
      </trkpt>
      <trkpt lat="45.93201" lon="4.8004">
        <ele>170</ele>
        <time>2018-04-08T09:55:31Z</time>
      </trkpt>
      <trkpt lat="45.93198" lon="4.80033">
        <ele>170</ele>
        <time>2018-04-08T09:55:32Z</time>
      </trkpt>
      <trkpt lat="45.93196" lon="4.80028">
        <ele>170</ele>
        <time>2018-04-08T09:55:33Z</time>
      </trkpt>
      <trkpt lat="45.93192" lon="4.80023">
        <ele>170</ele>
        <time>2018-04-08T09:55:34Z</time>
      </trkpt>
      <trkpt lat="45.93189" lon="4.80016">
        <ele>170</ele>
        <time>2018-04-08T09:55:35Z</time>
      </trkpt>
      <trkpt lat="45.93186" lon="4.80009">
        <ele>170</ele>
        <time>2018-04-08T09:55:36Z</time>
      </trkpt>
      <trkpt lat="45.93183" lon="4.80003">
        <ele>170</ele>
        <time>2018-04-08T09:55:37Z</time>
      </trkpt>
      <trkpt lat="45.93182" lon="4.79996">
        <ele>170</ele>
        <time>2018-04-08T09:55:38Z</time>
      </trkpt>
      <trkpt lat="45.93182" lon="4.79989">
        <ele>170</ele>
        <time>2018-04-08T09:55:39Z</time>
      </trkpt>
      <trkpt lat="45.93182" lon="4.79982">
        <ele>170</ele>
        <time>2018-04-08T09:55:40Z</time>
      </trkpt>
      <trkpt lat="45.93185" lon="4.79975">
        <ele>170</ele>
        <time>2018-04-08T09:55:41Z</time>
      </trkpt>
      <trkpt lat="45.93187" lon="4.79969">
        <ele>170</ele>
        <time>2018-04-08T09:55:42Z</time>
      </trkpt>
      <trkpt lat="45.93189" lon="4.79963">
        <ele>170</ele>
        <time>2018-04-08T09:55:43Z</time>
      </trkpt>
      <trkpt lat="45.93191" lon="4.79956">
        <ele>170</ele>
        <time>2018-04-08T09:55:44Z</time>
      </trkpt>
      <trkpt lat="45.93194" lon="4.7995">
        <ele>170</ele>
        <time>2018-04-08T09:55:45Z</time>
      </trkpt>
      <trkpt lat="45.93197" lon="4.79943">
        <ele>171</ele>
        <time>2018-04-08T09:55:46Z</time>
      </trkpt>
      <trkpt lat="45.93201" lon="4.79936">
        <ele>171</ele>
        <time>2018-04-08T09:55:47Z</time>
      </trkpt>
      <trkpt lat="45.93204" lon="4.79929">
        <ele>171</ele>
        <time>2018-04-08T09:55:48Z</time>
      </trkpt>
      <trkpt lat="45.93207" lon="4.79923">
        <ele>171</ele>
        <time>2018-04-08T09:55:49Z</time>
      </trkpt>
      <trkpt lat="45.9321" lon="4.79916">
        <ele>172</ele>
        <time>2018-04-08T09:55:50Z</time>
      </trkpt>
      <trkpt lat="45.93213" lon="4.7991">
        <ele>172</ele>
        <time>2018-04-08T09:55:51Z</time>
      </trkpt>
      <trkpt lat="45.93216" lon="4.79905">
        <ele>172</ele>
        <time>2018-04-08T09:55:52Z</time>
      </trkpt>
      <trkpt lat="45.9322" lon="4.79898">
        <ele>172</ele>
        <time>2018-04-08T09:55:53Z</time>
      </trkpt>
      <trkpt lat="45.93222" lon="4.79892">
        <ele>172</ele>
        <time>2018-04-08T09:55:54Z</time>
      </trkpt>
      <trkpt lat="45.93225" lon="4.79887">
        <ele>172</ele>
        <time>2018-04-08T09:55:55Z</time>
      </trkpt>
      <trkpt lat="45.93228" lon="4.7988">
        <ele>172</ele>
        <time>2018-04-08T09:55:56Z</time>
      </trkpt>
      <trkpt lat="45.93232" lon="4.79874">
        <ele>172</ele>
        <time>2018-04-08T09:55:57Z</time>
      </trkpt>
      <trkpt lat="45.93235" lon="4.79867">
        <ele>172</ele>
        <time>2018-04-08T09:55:58Z</time>
      </trkpt>
      <trkpt lat="45.93237" lon="4.79861">
        <ele>172</ele>
        <time>2018-04-08T09:55:59Z</time>
      </trkpt>
      <trkpt lat="45.9324" lon="4.79854">
        <ele>173</ele>
        <time>2018-04-08T09:56:00Z</time>
      </trkpt>
      <trkpt lat="45.93243" lon="4.79847">
        <ele>173</ele>
        <time>2018-04-08T09:56:01Z</time>
      </trkpt>
      <trkpt lat="45.93246" lon="4.79839">
        <ele>173</ele>
        <time>2018-04-08T09:56:02Z</time>
      </trkpt>
      <trkpt lat="45.93249" lon="4.79833">
        <ele>174</ele>
        <time>2018-04-08T09:56:03Z</time>
      </trkpt>
      <trkpt lat="45.93252" lon="4.79822">
        <ele>174</ele>
        <time>2018-04-08T09:56:05Z</time>
      </trkpt>
      <trkpt lat="45.93255" lon="4.79816">
        <ele>174</ele>
        <time>2018-04-08T09:56:06Z</time>
      </trkpt>
      <trkpt lat="45.93257" lon="4.79811">
        <ele>174</ele>
        <time>2018-04-08T09:56:07Z</time>
      </trkpt>
      <trkpt lat="45.93258" lon="4.79804">
        <ele>175</ele>
        <time>2018-04-08T09:56:08Z</time>
      </trkpt>
      <trkpt lat="45.93262" lon="4.79793">
        <ele>175</ele>
        <time>2018-04-08T09:56:10Z</time>
      </trkpt>
      <trkpt lat="45.93263" lon="4.79788">
        <ele>175</ele>
        <time>2018-04-08T09:56:11Z</time>
      </trkpt>
      <trkpt lat="45.93265" lon="4.7978">
        <ele>175</ele>
        <time>2018-04-08T09:56:12Z</time>
      </trkpt>
      <trkpt lat="45.93268" lon="4.79775">
        <ele>175</ele>
        <time>2018-04-08T09:56:13Z</time>
      </trkpt>
      <trkpt lat="45.9327" lon="4.7977">
        <ele>175</ele>
        <time>2018-04-08T09:56:14Z</time>
      </trkpt>
      <trkpt lat="45.93273" lon="4.79764">
        <ele>175</ele>
        <time>2018-04-08T09:56:15Z</time>
      </trkpt>
      <trkpt lat="45.93275" lon="4.79756">
        <ele>176</ele>
        <time>2018-04-08T09:56:16Z</time>
      </trkpt>
      <trkpt lat="45.93277" lon="4.7975">
        <ele>177</ele>
        <time>2018-04-08T09:56:17Z</time>
      </trkpt>
      <trkpt lat="45.9328" lon="4.79743">
        <ele>177</ele>
        <time>2018-04-08T09:56:18Z</time>
      </trkpt>
      <trkpt lat="45.93282" lon="4.79736">
        <ele>177</ele>
        <time>2018-04-08T09:56:19Z</time>
      </trkpt>
      <trkpt lat="45.93284" lon="4.7973">
        <ele>177</ele>
        <time>2018-04-08T09:56:20Z</time>
      </trkpt>
      <trkpt lat="45.93287" lon="4.79725">
        <ele>177</ele>
        <time>2018-04-08T09:56:21Z</time>
      </trkpt>
      <trkpt lat="45.93289" lon="4.79718">
        <ele>177</ele>
        <time>2018-04-08T09:56:22Z</time>
      </trkpt>
      <trkpt lat="45.93291" lon="4.7971">
        <ele>177</ele>
        <time>2018-04-08T09:56:23Z</time>
      </trkpt>
      <trkpt lat="45.93293" lon="4.79703">
        <ele>177</ele>
        <time>2018-04-08T09:56:24Z</time>
      </trkpt>
      <trkpt lat="45.93295" lon="4.79697">
        <ele>177</ele>
        <time>2018-04-08T09:56:25Z</time>
      </trkpt>
      <trkpt lat="45.93297" lon="4.7969">
        <ele>177</ele>
        <time>2018-04-08T09:56:26Z</time>
      </trkpt>
      <trkpt lat="45.93299" lon="4.79684">
        <ele>177</ele>
        <time>2018-04-08T09:56:27Z</time>
      </trkpt>
      <trkpt lat="45.93302" lon="4.79677">
        <ele>177</ele>
        <time>2018-04-08T09:56:28Z</time>
      </trkpt>
      <trkpt lat="45.93304" lon="4.7967">
        <ele>177</ele>
        <time>2018-04-08T09:56:29Z</time>
      </trkpt>
      <trkpt lat="45.93305" lon="4.79663">
        <ele>177</ele>
        <time>2018-04-08T09:56:30Z</time>
      </trkpt>
      <trkpt lat="45.93307" lon="4.79657">
        <ele>177</ele>
        <time>2018-04-08T09:56:31Z</time>
      </trkpt>
      <trkpt lat="45.93309" lon="4.7965">
        <ele>177</ele>
        <time>2018-04-08T09:56:32Z</time>
      </trkpt>
      <trkpt lat="45.93311" lon="4.79644">
        <ele>177</ele>
        <time>2018-04-08T09:56:33Z</time>
      </trkpt>
      <trkpt lat="45.93313" lon="4.79637">
        <ele>177</ele>
        <time>2018-04-08T09:56:34Z</time>
      </trkpt>
      <trkpt lat="45.93315" lon="4.79632">
        <ele>177</ele>
        <time>2018-04-08T09:56:35Z</time>
      </trkpt>
      <trkpt lat="45.93319" lon="4.79621">
        <ele>177</ele>
        <time>2018-04-08T09:56:37Z</time>
      </trkpt>
      <trkpt lat="45.93321" lon="4.79614">
        <ele>177</ele>
        <time>2018-04-08T09:56:38Z</time>
      </trkpt>
      <trkpt lat="45.93324" lon="4.79608">
        <ele>177</ele>
        <time>2018-04-08T09:56:39Z</time>
      </trkpt>
      <trkpt lat="45.93326" lon="4.79601">
        <ele>177</ele>
        <time>2018-04-08T09:56:40Z</time>
      </trkpt>
      <trkpt lat="45.93328" lon="4.79595">
        <ele>177</ele>
        <time>2018-04-08T09:56:41Z</time>
      </trkpt>
      <trkpt lat="45.9333" lon="4.79588">
        <ele>177</ele>
        <time>2018-04-08T09:56:42Z</time>
      </trkpt>
      <trkpt lat="45.93333" lon="4.79581">
        <ele>177</ele>
        <time>2018-04-08T09:56:43Z</time>
      </trkpt>
      <trkpt lat="45.93336" lon="4.79574">
        <ele>177</ele>
        <time>2018-04-08T09:56:44Z</time>
      </trkpt>
      <trkpt lat="45.93338" lon="4.79566">
        <ele>177</ele>
        <time>2018-04-08T09:56:45Z</time>
      </trkpt>
      <trkpt lat="45.93341" lon="4.79559">
        <ele>177</ele>
        <time>2018-04-08T09:56:46Z</time>
      </trkpt>
      <trkpt lat="45.93344" lon="4.79551">
        <ele>177</ele>
        <time>2018-04-08T09:56:47Z</time>
      </trkpt>
      <trkpt lat="45.93346" lon="4.79545">
        <ele>177</ele>
        <time>2018-04-08T09:56:48Z</time>
      </trkpt>
      <trkpt lat="45.93349" lon="4.79538">
        <ele>177</ele>
        <time>2018-04-08T09:56:49Z</time>
      </trkpt>
      <trkpt lat="45.93351" lon="4.7953">
        <ele>177</ele>
        <time>2018-04-08T09:56:50Z</time>
      </trkpt>
      <trkpt lat="45.93353" lon="4.79522">
        <ele>177</ele>
        <time>2018-04-08T09:56:51Z</time>
      </trkpt>
      <trkpt lat="45.93355" lon="4.79514">
        <ele>177</ele>
        <time>2018-04-08T09:56:52Z</time>
      </trkpt>
      <trkpt lat="45.93357" lon="4.79506">
        <ele>177</ele>
        <time>2018-04-08T09:56:53Z</time>
      </trkpt>
      <trkpt lat="45.93361" lon="4.79497">
        <ele>176</ele>
        <time>2018-04-08T09:56:54Z</time>
      </trkpt>
      <trkpt lat="45.93364" lon="4.7949">
        <ele>176</ele>
        <time>2018-04-08T09:56:55Z</time>
      </trkpt>
      <trkpt lat="45.93366" lon="4.7948">
        <ele>175</ele>
        <time>2018-04-08T09:56:56Z</time>
      </trkpt>
      <trkpt lat="45.93369" lon="4.79472">
        <ele>175</ele>
        <time>2018-04-08T09:56:57Z</time>
      </trkpt>
      <trkpt lat="45.93372" lon="4.79463">
        <ele>175</ele>
        <time>2018-04-08T09:56:58Z</time>
      </trkpt>
      <trkpt lat="45.93375" lon="4.79455">
        <ele>175</ele>
        <time>2018-04-08T09:56:59Z</time>
      </trkpt>
      <trkpt lat="45.93377" lon="4.79447">
        <ele>175</ele>
        <time>2018-04-08T09:57:00Z</time>
      </trkpt>
      <trkpt lat="45.93379" lon="4.79439">
        <ele>175</ele>
        <time>2018-04-08T09:57:01Z</time>
      </trkpt>
      <trkpt lat="45.93383" lon="4.79431">
        <ele>175</ele>
        <time>2018-04-08T09:57:02Z</time>
      </trkpt>
      <trkpt lat="45.93386" lon="4.79423">
        <ele>174</ele>
        <time>2018-04-08T09:57:03Z</time>
      </trkpt>
      <trkpt lat="45.93389" lon="4.79414">
        <ele>173</ele>
        <time>2018-04-08T09:57:04Z</time>
      </trkpt>
      <trkpt lat="45.93392" lon="4.79405">
        <ele>173</ele>
        <time>2018-04-08T09:57:05Z</time>
      </trkpt>
      <trkpt lat="45.93395" lon="4.79397">
        <ele>172</ele>
        <time>2018-04-08T09:57:06Z</time>
      </trkpt>
      <trkpt lat="45.93398" lon="4.79388">
        <ele>172</ele>
        <time>2018-04-08T09:57:07Z</time>
      </trkpt>
      <trkpt lat="45.93402" lon="4.79379">
        <ele>172</ele>
        <time>2018-04-08T09:57:08Z</time>
      </trkpt>
      <trkpt lat="45.93404" lon="4.7937">
        <ele>172</ele>
        <time>2018-04-08T09:57:09Z</time>
      </trkpt>
      <trkpt lat="45.93407" lon="4.79362">
        <ele>172</ele>
        <time>2018-04-08T09:57:10Z</time>
      </trkpt>
      <trkpt lat="45.9341" lon="4.79352">
        <ele>172</ele>
        <time>2018-04-08T09:57:11Z</time>
      </trkpt>
      <trkpt lat="45.93413" lon="4.79343">
        <ele>172</ele>
        <time>2018-04-08T09:57:12Z</time>
      </trkpt>
      <trkpt lat="45.93416" lon="4.79333">
        <ele>172</ele>
        <time>2018-04-08T09:57:13Z</time>
      </trkpt>
      <trkpt lat="45.93419" lon="4.79324">
        <ele>172</ele>
        <time>2018-04-08T09:57:14Z</time>
      </trkpt>
      <trkpt lat="45.93423" lon="4.79315">
        <ele>172</ele>
        <time>2018-04-08T09:57:15Z</time>
      </trkpt>
      <trkpt lat="45.93427" lon="4.79306">
        <ele>173</ele>
        <time>2018-04-08T09:57:16Z</time>
      </trkpt>
      <trkpt lat="45.9343" lon="4.79298">
        <ele>173</ele>
        <time>2018-04-08T09:57:17Z</time>
      </trkpt>
      <trkpt lat="45.93433" lon="4.7929">
        <ele>173</ele>
        <time>2018-04-08T09:57:18Z</time>
      </trkpt>
      <trkpt lat="45.93435" lon="4.79284">
        <ele>173</ele>
        <time>2018-04-08T09:57:19Z</time>
      </trkpt>
      <trkpt lat="45.93438" lon="4.79278">
        <ele>172</ele>
        <time>2018-04-08T09:57:20Z</time>
      </trkpt>
      <trkpt lat="45.9344" lon="4.79274">
        <ele>172</ele>
        <time>2018-04-08T09:57:21Z</time>
      </trkpt>
      <trkpt lat="45.93442" lon="4.79266">
        <ele>172</ele>
        <time>2018-04-08T09:57:22Z</time>
      </trkpt>
      <trkpt lat="45.93446" lon="4.79254">
        <ele>172</ele>
        <time>2018-04-08T09:57:23Z</time>
      </trkpt>
      <trkpt lat="45.93449" lon="4.79245">
        <ele>172</ele>
        <time>2018-04-08T09:57:24Z</time>
      </trkpt>
      <trkpt lat="45.93451" lon="4.79237">
        <ele>172</ele>
        <time>2018-04-08T09:57:25Z</time>
      </trkpt>
      <trkpt lat="45.93453" lon="4.79229">
        <ele>172</ele>
        <time>2018-04-08T09:57:26Z</time>
      </trkpt>
      <trkpt lat="45.93454" lon="4.79222">
        <ele>172</ele>
        <time>2018-04-08T09:57:27Z</time>
      </trkpt>
      <trkpt lat="45.93458" lon="4.79214">
        <ele>172</ele>
        <time>2018-04-08T09:57:28Z</time>
      </trkpt>
      <trkpt lat="45.93459" lon="4.79207">
        <ele>172</ele>
        <time>2018-04-08T09:57:29Z</time>
      </trkpt>
      <trkpt lat="45.93463" lon="4.79199">
        <ele>172</ele>
        <time>2018-04-08T09:57:30Z</time>
      </trkpt>
      <trkpt lat="45.93466" lon="4.79191">
        <ele>172</ele>
        <time>2018-04-08T09:57:31Z</time>
      </trkpt>
      <trkpt lat="45.93469" lon="4.79182">
        <ele>172</ele>
        <time>2018-04-08T09:57:32Z</time>
      </trkpt>
      <trkpt lat="45.93471" lon="4.79174">
        <ele>172</ele>
        <time>2018-04-08T09:57:33Z</time>
      </trkpt>
      <trkpt lat="45.93474" lon="4.79166">
        <ele>172</ele>
        <time>2018-04-08T09:57:34Z</time>
      </trkpt>
      <trkpt lat="45.93477" lon="4.79158">
        <ele>172</ele>
        <time>2018-04-08T09:57:35Z</time>
      </trkpt>
      <trkpt lat="45.93481" lon="4.79148">
        <ele>172</ele>
        <time>2018-04-08T09:57:36Z</time>
      </trkpt>
      <trkpt lat="45.93483" lon="4.79142">
        <ele>172</ele>
        <time>2018-04-08T09:57:37Z</time>
      </trkpt>
      <trkpt lat="45.93486" lon="4.79134">
        <ele>172</ele>
        <time>2018-04-08T09:57:38Z</time>
      </trkpt>
      <trkpt lat="45.93489" lon="4.79128">
        <ele>172</ele>
        <time>2018-04-08T09:57:39Z</time>
      </trkpt>
      <trkpt lat="45.93491" lon="4.79121">
        <ele>172</ele>
        <time>2018-04-08T09:57:40Z</time>
      </trkpt>
      <trkpt lat="45.93493" lon="4.79115">
        <ele>172</ele>
        <time>2018-04-08T09:57:41Z</time>
      </trkpt>
      <trkpt lat="45.93497" lon="4.79109">
        <ele>172</ele>
        <time>2018-04-08T09:57:42Z</time>
      </trkpt>
      <trkpt lat="45.935" lon="4.79102">
        <ele>173</ele>
        <time>2018-04-08T09:57:43Z</time>
      </trkpt>
      <trkpt lat="45.93503" lon="4.79095">
        <ele>173</ele>
        <time>2018-04-08T09:57:44Z</time>
      </trkpt>
      <trkpt lat="45.93506" lon="4.79088">
        <ele>173</ele>
        <time>2018-04-08T09:57:45Z</time>
      </trkpt>
      <trkpt lat="45.93509" lon="4.7908">
        <ele>173</ele>
        <time>2018-04-08T09:57:46Z</time>
      </trkpt>
      <trkpt lat="45.93512" lon="4.79073">
        <ele>173</ele>
        <time>2018-04-08T09:57:47Z</time>
      </trkpt>
      <trkpt lat="45.93515" lon="4.79064">
        <ele>173</ele>
        <time>2018-04-08T09:57:48Z</time>
      </trkpt>
      <trkpt lat="45.93518" lon="4.79058">
        <ele>173</ele>
        <time>2018-04-08T09:57:49Z</time>
      </trkpt>
      <trkpt lat="45.93522" lon="4.79046">
        <ele>173</ele>
        <time>2018-04-08T09:57:51Z</time>
      </trkpt>
      <trkpt lat="45.93524" lon="4.79041">
        <ele>173</ele>
        <time>2018-04-08T09:57:52Z</time>
      </trkpt>
      <trkpt lat="45.93527" lon="4.79034">
        <ele>173</ele>
        <time>2018-04-08T09:57:53Z</time>
      </trkpt>
      <trkpt lat="45.93531" lon="4.79027">
        <ele>173</ele>
        <time>2018-04-08T09:57:54Z</time>
      </trkpt>
      <trkpt lat="45.93534" lon="4.79021">
        <ele>173</ele>
        <time>2018-04-08T09:57:55Z</time>
      </trkpt>
      <trkpt lat="45.93537" lon="4.79015">
        <ele>173</ele>
        <time>2018-04-08T09:57:56Z</time>
      </trkpt>
      <trkpt lat="45.9354" lon="4.7901">
        <ele>173</ele>
        <time>2018-04-08T09:57:57Z</time>
      </trkpt>
      <trkpt lat="45.93546" lon="4.79003">
        <ele>173</ele>
        <time>2018-04-08T09:57:58Z</time>
      </trkpt>
      <trkpt lat="45.93549" lon="4.78997">
        <ele>172</ele>
        <time>2018-04-08T09:57:59Z</time>
      </trkpt>
      <trkpt lat="45.93552" lon="4.7899">
        <ele>172</ele>
        <time>2018-04-08T09:58:00Z</time>
      </trkpt>
      <trkpt lat="45.93554" lon="4.78983">
        <ele>172</ele>
        <time>2018-04-08T09:58:01Z</time>
      </trkpt>
      <trkpt lat="45.93557" lon="4.78975">
        <ele>172</ele>
        <time>2018-04-08T09:58:02Z</time>
      </trkpt>
      <trkpt lat="45.93558" lon="4.78968">
        <ele>172</ele>
        <time>2018-04-08T09:58:03Z</time>
      </trkpt>
      <trkpt lat="45.93561" lon="4.78961">
        <ele>172</ele>
        <time>2018-04-08T09:58:04Z</time>
      </trkpt>
      <trkpt lat="45.93563" lon="4.78953">
        <ele>172</ele>
        <time>2018-04-08T09:58:05Z</time>
      </trkpt>
      <trkpt lat="45.93566" lon="4.78946">
        <ele>172</ele>
        <time>2018-04-08T09:58:06Z</time>
      </trkpt>
      <trkpt lat="45.93569" lon="4.78939">
        <ele>172</ele>
        <time>2018-04-08T09:58:07Z</time>
      </trkpt>
      <trkpt lat="45.93572" lon="4.78932">
        <ele>172</ele>
        <time>2018-04-08T09:58:08Z</time>
      </trkpt>
      <trkpt lat="45.93575" lon="4.78926">
        <ele>172</ele>
        <time>2018-04-08T09:58:09Z</time>
      </trkpt>
      <trkpt lat="45.93577" lon="4.7892">
        <ele>172</ele>
        <time>2018-04-08T09:58:10Z</time>
      </trkpt>
      <trkpt lat="45.93581" lon="4.78913">
        <ele>172</ele>
        <time>2018-04-08T09:58:11Z</time>
      </trkpt>
      <trkpt lat="45.93584" lon="4.78906">
        <ele>173</ele>
        <time>2018-04-08T09:58:12Z</time>
      </trkpt>
      <trkpt lat="45.93587" lon="4.78899">
        <ele>173</ele>
        <time>2018-04-08T09:58:13Z</time>
      </trkpt>
      <trkpt lat="45.9359" lon="4.78892">
        <ele>173</ele>
        <time>2018-04-08T09:58:14Z</time>
      </trkpt>
      <trkpt lat="45.93593" lon="4.78885">
        <ele>173</ele>
        <time>2018-04-08T09:58:15Z</time>
      </trkpt>
      <trkpt lat="45.93596" lon="4.78878">
        <ele>174</ele>
        <time>2018-04-08T09:58:16Z</time>
      </trkpt>
      <trkpt lat="45.93599" lon="4.78871">
        <ele>174</ele>
        <time>2018-04-08T09:58:17Z</time>
      </trkpt>
      <trkpt lat="45.93602" lon="4.78863">
        <ele>174</ele>
        <time>2018-04-08T09:58:18Z</time>
      </trkpt>
      <trkpt lat="45.93606" lon="4.78855">
        <ele>174</ele>
        <time>2018-04-08T09:58:19Z</time>
      </trkpt>
      <trkpt lat="45.93609" lon="4.78849">
        <ele>174</ele>
        <time>2018-04-08T09:58:20Z</time>
      </trkpt>
      <trkpt lat="45.93612" lon="4.78843">
        <ele>174</ele>
        <time>2018-04-08T09:58:21Z</time>
      </trkpt>
      <trkpt lat="45.93615" lon="4.78836">
        <ele>174</ele>
        <time>2018-04-08T09:58:22Z</time>
      </trkpt>
      <trkpt lat="45.93619" lon="4.78828">
        <ele>174</ele>
        <time>2018-04-08T09:58:23Z</time>
      </trkpt>
      <trkpt lat="45.93622" lon="4.7882">
        <ele>174</ele>
        <time>2018-04-08T09:58:24Z</time>
      </trkpt>
      <trkpt lat="45.93625" lon="4.78813">
        <ele>174</ele>
        <time>2018-04-08T09:58:25Z</time>
      </trkpt>
      <trkpt lat="45.93627" lon="4.78803">
        <ele>174</ele>
        <time>2018-04-08T09:58:26Z</time>
      </trkpt>
      <trkpt lat="45.93629" lon="4.78793">
        <ele>174</ele>
        <time>2018-04-08T09:58:27Z</time>
      </trkpt>
      <trkpt lat="45.93633" lon="4.78787">
        <ele>174</ele>
        <time>2018-04-08T09:58:28Z</time>
      </trkpt>
      <trkpt lat="45.93636" lon="4.7878">
        <ele>174</ele>
        <time>2018-04-08T09:58:29Z</time>
      </trkpt>
      <trkpt lat="45.93641" lon="4.78771">
        <ele>174</ele>
        <time>2018-04-08T09:58:30Z</time>
      </trkpt>
      <trkpt lat="45.93645" lon="4.78766">
        <ele>174</ele>
        <time>2018-04-08T09:58:31Z</time>
      </trkpt>
      <trkpt lat="45.93649" lon="4.78759">
        <ele>174</ele>
        <time>2018-04-08T09:58:32Z</time>
      </trkpt>
      <trkpt lat="45.93653" lon="4.78752">
        <ele>174</ele>
        <time>2018-04-08T09:58:33Z</time>
      </trkpt>
      <trkpt lat="45.93657" lon="4.78746">
        <ele>174</ele>
        <time>2018-04-08T09:58:34Z</time>
      </trkpt>
      <trkpt lat="45.9366" lon="4.78739">
        <ele>174</ele>
        <time>2018-04-08T09:58:35Z</time>
      </trkpt>
      <trkpt lat="45.93664" lon="4.78731">
        <ele>174</ele>
        <time>2018-04-08T09:58:36Z</time>
      </trkpt>
      <trkpt lat="45.93668" lon="4.78723">
        <ele>175</ele>
        <time>2018-04-08T09:58:37Z</time>
      </trkpt>
      <trkpt lat="45.93671" lon="4.78716">
        <ele>175</ele>
        <time>2018-04-08T09:58:38Z</time>
      </trkpt>
      <trkpt lat="45.93675" lon="4.7871">
        <ele>175</ele>
        <time>2018-04-08T09:58:39Z</time>
      </trkpt>
      <trkpt lat="45.93678" lon="4.78703">
        <ele>175</ele>
        <time>2018-04-08T09:58:40Z</time>
      </trkpt>
      <trkpt lat="45.93682" lon="4.78695">
        <ele>175</ele>
        <time>2018-04-08T09:58:41Z</time>
      </trkpt>
      <trkpt lat="45.93685" lon="4.78686">
        <ele>175</ele>
        <time>2018-04-08T09:58:42Z</time>
      </trkpt>
      <trkpt lat="45.93688" lon="4.78678">
        <ele>175</ele>
        <time>2018-04-08T09:58:43Z</time>
      </trkpt>
      <trkpt lat="45.93691" lon="4.7867">
        <ele>175</ele>
        <time>2018-04-08T09:58:44Z</time>
      </trkpt>
      <trkpt lat="45.93694" lon="4.78662">
        <ele>176</ele>
        <time>2018-04-08T09:58:45Z</time>
      </trkpt>
      <trkpt lat="45.93697" lon="4.78655">
        <ele>176</ele>
        <time>2018-04-08T09:58:46Z</time>
      </trkpt>
      <trkpt lat="45.93701" lon="4.78648">
        <ele>176</ele>
        <time>2018-04-08T09:58:47Z</time>
      </trkpt>
      <trkpt lat="45.93705" lon="4.78643">
        <ele>176</ele>
        <time>2018-04-08T09:58:48Z</time>
      </trkpt>
      <trkpt lat="45.93708" lon="4.78637">
        <ele>176</ele>
        <time>2018-04-08T09:58:49Z</time>
      </trkpt>
      <trkpt lat="45.93711" lon="4.7863">
        <ele>176</ele>
        <time>2018-04-08T09:58:50Z</time>
      </trkpt>
      <trkpt lat="45.93712" lon="4.78624">
        <ele>176</ele>
        <time>2018-04-08T09:58:51Z</time>
      </trkpt>
      <trkpt lat="45.93712" lon="4.78617">
        <ele>176</ele>
        <time>2018-04-08T09:58:52Z</time>
      </trkpt>
      <trkpt lat="45.93712" lon="4.78604">
        <ele>176</ele>
        <time>2018-04-08T09:58:55Z</time>
      </trkpt>
      <trkpt lat="45.93713" lon="4.78602">
        <ele>176</ele>
        <time>2018-04-08T09:58:56Z</time>
      </trkpt>
      <trkpt lat="45.93717" lon="4.78591">
        <ele>177</ele>
        <time>2018-04-08T09:58:57Z</time>
      </trkpt>
      <trkpt lat="45.93718" lon="4.78585">
        <ele>177</ele>
        <time>2018-04-08T09:58:58Z</time>
      </trkpt>
      <trkpt lat="45.9372" lon="4.78579">
        <ele>178</ele>
        <time>2018-04-08T09:58:59Z</time>
      </trkpt>
      <trkpt lat="45.93721" lon="4.78573">
        <ele>178</ele>
        <time>2018-04-08T09:59:00Z</time>
      </trkpt>
      <trkpt lat="45.93723" lon="4.78565">
        <ele>178</ele>
        <time>2018-04-08T09:59:01Z</time>
      </trkpt>
      <trkpt lat="45.93724" lon="4.78558">
        <ele>178</ele>
        <time>2018-04-08T09:59:02Z</time>
      </trkpt>
      <trkpt lat="45.93725" lon="4.78551">
        <ele>178</ele>
        <time>2018-04-08T09:59:03Z</time>
      </trkpt>
      <trkpt lat="45.93727" lon="4.78546">
        <ele>178</ele>
        <time>2018-04-08T09:59:04Z</time>
      </trkpt>
      <trkpt lat="45.93729" lon="4.78537">
        <ele>178</ele>
        <time>2018-04-08T09:59:05Z</time>
      </trkpt>
      <trkpt lat="45.9373" lon="4.78531">
        <ele>179</ele>
        <time>2018-04-08T09:59:06Z</time>
      </trkpt>
      <trkpt lat="45.93733" lon="4.78519">
        <ele>179</ele>
        <time>2018-04-08T09:59:08Z</time>
      </trkpt>
      <trkpt lat="45.93735" lon="4.78513">
        <ele>179</ele>
        <time>2018-04-08T09:59:09Z</time>
      </trkpt>
      <trkpt lat="45.93738" lon="4.78502">
        <ele>180</ele>
        <time>2018-04-08T09:59:11Z</time>
      </trkpt>
      <trkpt lat="45.9374" lon="4.78494">
        <ele>180</ele>
        <time>2018-04-08T09:59:12Z</time>
      </trkpt>
      <trkpt lat="45.93742" lon="4.78489">
        <ele>180</ele>
        <time>2018-04-08T09:59:14Z</time>
      </trkpt>
      <trkpt lat="45.93744" lon="4.78478">
        <ele>180</ele>
        <time>2018-04-08T09:59:15Z</time>
      </trkpt>
      <trkpt lat="45.93746" lon="4.78467">
        <ele>180</ele>
        <time>2018-04-08T09:59:16Z</time>
      </trkpt>
      <trkpt lat="45.93747" lon="4.78461">
        <ele>180</ele>
        <time>2018-04-08T09:59:17Z</time>
      </trkpt>
      <trkpt lat="45.93749" lon="4.78453">
        <ele>180</ele>
        <time>2018-04-08T09:59:18Z</time>
      </trkpt>
      <trkpt lat="45.93751" lon="4.78446">
        <ele>183</ele>
        <time>2018-04-08T09:59:19Z</time>
      </trkpt>
      <trkpt lat="45.93753" lon="4.78436">
        <ele>183</ele>
        <time>2018-04-08T09:59:21Z</time>
      </trkpt>
      <trkpt lat="45.93755" lon="4.78428">
        <ele>183</ele>
        <time>2018-04-08T09:59:22Z</time>
      </trkpt>
      <trkpt lat="45.93758" lon="4.78419">
        <ele>182</ele>
        <time>2018-04-08T09:59:24Z</time>
      </trkpt>
      <trkpt lat="45.9376" lon="4.78414">
        <ele>182</ele>
        <time>2018-04-08T09:59:25Z</time>
      </trkpt>
      <trkpt lat="45.93761" lon="4.78408">
        <ele>182</ele>
        <time>2018-04-08T09:59:26Z</time>
      </trkpt>
      <trkpt lat="45.93763" lon="4.78401">
        <ele>183</ele>
        <time>2018-04-08T09:59:27Z</time>
      </trkpt>
      <trkpt lat="45.93765" lon="4.78392">
        <ele>183</ele>
        <time>2018-04-08T09:59:28Z</time>
      </trkpt>
      <trkpt lat="45.93766" lon="4.78385">
        <ele>183</ele>
        <time>2018-04-08T09:59:29Z</time>
      </trkpt>
      <trkpt lat="45.93768" lon="4.78379">
        <ele>183</ele>
        <time>2018-04-08T09:59:30Z</time>
      </trkpt>
      <trkpt lat="45.93769" lon="4.7837">
        <ele>183</ele>
        <time>2018-04-08T09:59:31Z</time>
      </trkpt>
      <trkpt lat="45.93771" lon="4.78362">
        <ele>183</ele>
        <time>2018-04-08T09:59:32Z</time>
      </trkpt>
      <trkpt lat="45.93773" lon="4.78355">
        <ele>183</ele>
        <time>2018-04-08T09:59:33Z</time>
      </trkpt>
      <trkpt lat="45.93776" lon="4.78344">
        <ele>183</ele>
        <time>2018-04-08T09:59:35Z</time>
      </trkpt>
      <trkpt lat="45.93779" lon="4.78336">
        <ele>183</ele>
        <time>2018-04-08T09:59:36Z</time>
      </trkpt>
      <trkpt lat="45.9378" lon="4.78329">
        <ele>183</ele>
        <time>2018-04-08T09:59:37Z</time>
      </trkpt>
      <trkpt lat="45.93781" lon="4.78324">
        <ele>183</ele>
        <time>2018-04-08T09:59:38Z</time>
      </trkpt>
      <trkpt lat="45.93784" lon="4.78317">
        <ele>183</ele>
        <time>2018-04-08T09:59:39Z</time>
      </trkpt>
      <trkpt lat="45.93787" lon="4.78309">
        <ele>183</ele>
        <time>2018-04-08T09:59:40Z</time>
      </trkpt>
      <trkpt lat="45.9379" lon="4.78303">
        <ele>183</ele>
        <time>2018-04-08T09:59:41Z</time>
      </trkpt>
      <trkpt lat="45.93792" lon="4.78297">
        <ele>183</ele>
        <time>2018-04-08T09:59:42Z</time>
      </trkpt>
      <trkpt lat="45.93796" lon="4.78292">
        <ele>183</ele>
        <time>2018-04-08T09:59:43Z</time>
      </trkpt>
      <trkpt lat="45.93798" lon="4.78286">
        <ele>183</ele>
        <time>2018-04-08T09:59:44Z</time>
      </trkpt>
      <trkpt lat="45.93801" lon="4.78281">
        <ele>183</ele>
        <time>2018-04-08T09:59:45Z</time>
      </trkpt>
      <trkpt lat="45.93804" lon="4.78276">
        <ele>183</ele>
        <time>2018-04-08T09:59:46Z</time>
      </trkpt>
      <trkpt lat="45.93807" lon="4.78269">
        <ele>183</ele>
        <time>2018-04-08T09:59:47Z</time>
      </trkpt>
      <trkpt lat="45.9381" lon="4.78262">
        <ele>183</ele>
        <time>2018-04-08T09:59:48Z</time>
      </trkpt>
      <trkpt lat="45.93812" lon="4.78256">
        <ele>184</ele>
        <time>2018-04-08T09:59:49Z</time>
      </trkpt>
      <trkpt lat="45.93815" lon="4.78249">
        <ele>183</ele>
        <time>2018-04-08T09:59:50Z</time>
      </trkpt>
      <trkpt lat="45.93816" lon="4.7824">
        <ele>183</ele>
        <time>2018-04-08T09:59:51Z</time>
      </trkpt>
      <trkpt lat="45.93818" lon="4.78232">
        <ele>183</ele>
        <time>2018-04-08T09:59:52Z</time>
      </trkpt>
      <trkpt lat="45.93819" lon="4.78224">
        <ele>182</ele>
        <time>2018-04-08T09:59:53Z</time>
      </trkpt>
      <trkpt lat="45.93821" lon="4.78217">
        <ele>182</ele>
        <time>2018-04-08T09:59:54Z</time>
      </trkpt>
      <trkpt lat="45.93822" lon="4.7821">
        <ele>182</ele>
        <time>2018-04-08T09:59:55Z</time>
      </trkpt>
      <trkpt lat="45.93824" lon="4.78202">
        <ele>182</ele>
        <time>2018-04-08T09:59:56Z</time>
      </trkpt>
      <trkpt lat="45.93825" lon="4.78195">
        <ele>182</ele>
        <time>2018-04-08T09:59:57Z</time>
      </trkpt>
      <trkpt lat="45.93828" lon="4.78187">
        <ele>182</ele>
        <time>2018-04-08T09:59:58Z</time>
      </trkpt>
      <trkpt lat="45.93829" lon="4.7818">
        <ele>182</ele>
        <time>2018-04-08T09:59:59Z</time>
      </trkpt>
      <trkpt lat="45.93832" lon="4.78172">
        <ele>182</ele>
        <time>2018-04-08T10:00:00Z</time>
      </trkpt>
      <trkpt lat="45.93834" lon="4.78164">
        <ele>182</ele>
        <time>2018-04-08T10:00:01Z</time>
      </trkpt>
      <trkpt lat="45.93836" lon="4.78156">
        <ele>183</ele>
        <time>2018-04-08T10:00:02Z</time>
      </trkpt>
      <trkpt lat="45.93838" lon="4.78145">
        <ele>184</ele>
        <time>2018-04-08T10:00:03Z</time>
      </trkpt>
      <trkpt lat="45.9384" lon="4.78138">
        <ele>184</ele>
        <time>2018-04-08T10:00:04Z</time>
      </trkpt>
      <trkpt lat="45.93842" lon="4.78129">
        <ele>185</ele>
        <time>2018-04-08T10:00:05Z</time>
      </trkpt>
      <trkpt lat="45.93844" lon="4.78121">
        <ele>184</ele>
        <time>2018-04-08T10:00:06Z</time>
      </trkpt>
      <trkpt lat="45.93846" lon="4.78113">
        <ele>184</ele>
        <time>2018-04-08T10:00:07Z</time>
      </trkpt>
      <trkpt lat="45.93848" lon="4.78104">
        <ele>184</ele>
        <time>2018-04-08T10:00:08Z</time>
      </trkpt>
      <trkpt lat="45.93849" lon="4.78096">
        <ele>183</ele>
        <time>2018-04-08T10:00:09Z</time>
      </trkpt>
      <trkpt lat="45.93851" lon="4.78086">
        <ele>183</ele>
        <time>2018-04-08T10:00:10Z</time>
      </trkpt>
      <trkpt lat="45.93852" lon="4.78078">
        <ele>182</ele>
        <time>2018-04-08T10:00:11Z</time>
      </trkpt>
      <trkpt lat="45.93853" lon="4.78069">
        <ele>182</ele>
        <time>2018-04-08T10:00:12Z</time>
      </trkpt>
      <trkpt lat="45.93855" lon="4.78061">
        <ele>183</ele>
        <time>2018-04-08T10:00:13Z</time>
      </trkpt>
      <trkpt lat="45.93856" lon="4.78054">
        <ele>183</ele>
        <time>2018-04-08T10:00:14Z</time>
      </trkpt>
      <trkpt lat="45.93858" lon="4.78048">
        <ele>183</ele>
        <time>2018-04-08T10:00:15Z</time>
      </trkpt>
      <trkpt lat="45.9386" lon="4.78041">
        <ele>183</ele>
        <time>2018-04-08T10:00:16Z</time>
      </trkpt>
      <trkpt lat="45.93863" lon="4.78031">
        <ele>183</ele>
        <time>2018-04-08T10:00:17Z</time>
      </trkpt>
      <trkpt lat="45.93863" lon="4.78021">
        <ele>183</ele>
        <time>2018-04-08T10:00:18Z</time>
      </trkpt>
      <trkpt lat="45.93864" lon="4.78011">
        <ele>183</ele>
        <time>2018-04-08T10:00:19Z</time>
      </trkpt>
      <trkpt lat="45.93865" lon="4.78003">
        <ele>183</ele>
        <time>2018-04-08T10:00:20Z</time>
      </trkpt>
      <trkpt lat="45.93867" lon="4.77994">
        <ele>180</ele>
        <time>2018-04-08T10:00:21Z</time>
      </trkpt>
      <trkpt lat="45.9387" lon="4.77984">
        <ele>179</ele>
        <time>2018-04-08T10:00:22Z</time>
      </trkpt>
      <trkpt lat="45.93873" lon="4.77974">
        <ele>179</ele>
        <time>2018-04-08T10:00:23Z</time>
      </trkpt>
      <trkpt lat="45.93876" lon="4.77963">
        <ele>179</ele>
        <time>2018-04-08T10:00:24Z</time>
      </trkpt>
      <trkpt lat="45.93879" lon="4.77953">
        <ele>179</ele>
        <time>2018-04-08T10:00:25Z</time>
      </trkpt>
      <trkpt lat="45.93881" lon="4.77943">
        <ele>179</ele>
        <time>2018-04-08T10:00:26Z</time>
      </trkpt>
      <trkpt lat="45.93882" lon="4.77933">
        <ele>179</ele>
        <time>2018-04-08T10:00:27Z</time>
      </trkpt>
      <trkpt lat="45.93884" lon="4.77923">
        <ele>179</ele>
        <time>2018-04-08T10:00:28Z</time>
      </trkpt>
      <trkpt lat="45.93887" lon="4.77913">
        <ele>176</ele>
        <time>2018-04-08T10:00:29Z</time>
      </trkpt>
      <trkpt lat="45.93891" lon="4.77903">
        <ele>176</ele>
        <time>2018-04-08T10:00:30Z</time>
      </trkpt>
      <trkpt lat="45.93894" lon="4.77893">
        <ele>176</ele>
        <time>2018-04-08T10:00:31Z</time>
      </trkpt>
      <trkpt lat="45.93898" lon="4.77882">
        <ele>176</ele>
        <time>2018-04-08T10:00:32Z</time>
      </trkpt>
      <trkpt lat="45.93901" lon="4.77873">
        <ele>176</ele>
        <time>2018-04-08T10:00:33Z</time>
      </trkpt>
      <trkpt lat="45.93905" lon="4.77861">
        <ele>176</ele>
        <time>2018-04-08T10:00:34Z</time>
      </trkpt>
      <trkpt lat="45.93908" lon="4.77851">
        <ele>176</ele>
        <time>2018-04-08T10:00:35Z</time>
      </trkpt>
      <trkpt lat="45.9391" lon="4.7784">
        <ele>177</ele>
        <time>2018-04-08T10:00:36Z</time>
      </trkpt>
      <trkpt lat="45.93913" lon="4.77829">
        <ele>176</ele>
        <time>2018-04-08T10:00:37Z</time>
      </trkpt>
      <trkpt lat="45.93915" lon="4.77818">
        <ele>174</ele>
        <time>2018-04-08T10:00:38Z</time>
      </trkpt>
      <trkpt lat="45.93918" lon="4.77807">
        <ele>179</ele>
        <time>2018-04-08T10:00:39Z</time>
      </trkpt>
      <trkpt lat="45.93921" lon="4.77796">
        <ele>179</ele>
        <time>2018-04-08T10:00:40Z</time>
      </trkpt>
      <trkpt lat="45.93923" lon="4.77785">
        <ele>178</ele>
        <time>2018-04-08T10:00:41Z</time>
      </trkpt>
      <trkpt lat="45.93928" lon="4.77774">
        <ele>177</ele>
        <time>2018-04-08T10:00:42Z</time>
      </trkpt>
      <trkpt lat="45.93932" lon="4.77764">
        <ele>176</ele>
        <time>2018-04-08T10:00:43Z</time>
      </trkpt>
      <trkpt lat="45.93936" lon="4.77755">
        <ele>175</ele>
        <time>2018-04-08T10:00:44Z</time>
      </trkpt>
      <trkpt lat="45.93941" lon="4.77745">
        <ele>174</ele>
        <time>2018-04-08T10:00:45Z</time>
      </trkpt>
      <trkpt lat="45.93944" lon="4.77736">
        <ele>175</ele>
        <time>2018-04-08T10:00:46Z</time>
      </trkpt>
      <trkpt lat="45.93948" lon="4.77728">
        <ele>176</ele>
        <time>2018-04-08T10:00:47Z</time>
      </trkpt>
      <trkpt lat="45.93952" lon="4.77719">
        <ele>177</ele>
        <time>2018-04-08T10:00:48Z</time>
      </trkpt>
      <trkpt lat="45.93955" lon="4.7771">
        <ele>178</ele>
        <time>2018-04-08T10:00:49Z</time>
      </trkpt>
      <trkpt lat="45.93959" lon="4.77701">
        <ele>178</ele>
        <time>2018-04-08T10:00:50Z</time>
      </trkpt>
      <trkpt lat="45.93962" lon="4.77693">
        <ele>178</ele>
        <time>2018-04-08T10:00:51Z</time>
      </trkpt>
      <trkpt lat="45.93964" lon="4.77685">
        <ele>179</ele>
        <time>2018-04-08T10:00:52Z</time>
      </trkpt>
      <trkpt lat="45.93966" lon="4.77677">
        <ele>179</ele>
        <time>2018-04-08T10:00:53Z</time>
      </trkpt>
      <trkpt lat="45.93968" lon="4.77669">
        <ele>180</ele>
        <time>2018-04-08T10:00:54Z</time>
      </trkpt>
      <trkpt lat="45.93969" lon="4.7766">
        <ele>179</ele>
        <time>2018-04-08T10:00:55Z</time>
      </trkpt>
      <trkpt lat="45.93971" lon="4.77652">
        <ele>180</ele>
        <time>2018-04-08T10:00:56Z</time>
      </trkpt>
      <trkpt lat="45.93973" lon="4.77643">
        <ele>179</ele>
        <time>2018-04-08T10:00:57Z</time>
      </trkpt>
      <trkpt lat="45.93974" lon="4.77635">
        <ele>179</ele>
        <time>2018-04-08T10:00:58Z</time>
      </trkpt>
      <trkpt lat="45.93976" lon="4.77627">
        <ele>179</ele>
        <time>2018-04-08T10:00:59Z</time>
      </trkpt>
      <trkpt lat="45.93977" lon="4.77619">
        <ele>179</ele>
        <time>2018-04-08T10:01:00Z</time>
      </trkpt>
      <trkpt lat="45.93979" lon="4.77611">
        <ele>180</ele>
        <time>2018-04-08T10:01:01Z</time>
      </trkpt>
      <trkpt lat="45.9398" lon="4.77604">
        <ele>180</ele>
        <time>2018-04-08T10:01:02Z</time>
      </trkpt>
      <trkpt lat="45.93981" lon="4.77596">
        <ele>181</ele>
        <time>2018-04-08T10:01:03Z</time>
      </trkpt>
      <trkpt lat="45.93983" lon="4.77589">
        <ele>182</ele>
        <time>2018-04-08T10:01:04Z</time>
      </trkpt>
      <trkpt lat="45.93984" lon="4.77582">
        <ele>181</ele>
        <time>2018-04-08T10:01:05Z</time>
      </trkpt>
      <trkpt lat="45.93985" lon="4.77576">
        <ele>181</ele>
        <time>2018-04-08T10:01:06Z</time>
      </trkpt>
      <trkpt lat="45.93989" lon="4.77565">
        <ele>180</ele>
        <time>2018-04-08T10:01:13Z</time>
      </trkpt>
      <trkpt lat="45.93989" lon="4.77564">
        <ele>180</ele>
        <time>2018-04-08T10:01:14Z</time>
      </trkpt>
      <trkpt lat="45.93997" lon="4.77558">
        <ele>180</ele>
        <time>2018-04-08T10:01:41Z</time>
      </trkpt>
      <trkpt lat="45.93997" lon="4.77557">
        <ele>180</ele>
        <time>2018-04-08T10:01:42Z</time>
      </trkpt>
      <trkpt lat="45.94001" lon="4.77554">
        <ele>190</ele>
        <time>2018-04-08T10:03:41Z</time>
      </trkpt>
      <trkpt lat="45.94001" lon="4.77554">
        <ele>190</ele>
        <time>2018-04-08T10:03:42Z</time>
      </trkpt>
      <trkpt lat="45.94008" lon="4.77556">
        <ele>191</ele>
        <time>2018-04-08T10:05:35Z</time>
      </trkpt>
      <trkpt lat="45.94008" lon="4.77556">
        <ele>191</ele>
        <time>2018-04-08T10:05:36Z</time>
      </trkpt>
      <trkpt lat="45.94003" lon="4.77557">
        <ele>190</ele>
        <time>2018-04-08T10:05:48Z</time>
      </trkpt>
      <trkpt lat="45.94003" lon="4.77557">
        <ele>190</ele>
        <time>2018-04-08T10:05:49Z</time>
      </trkpt>
      <trkpt lat="45.94002" lon="4.77556">
        <ele>190</ele>
        <time>2018-04-08T10:08:19Z</time>
      </trkpt>
      <trkpt lat="45.94002" lon="4.77556">
        <ele>190</ele>
        <time>2018-04-08T10:08:20Z</time>
      </trkpt>
      <trkpt lat="45.93997" lon="4.77552">
        <ele>180</ele>
        <time>2018-04-08T10:13:21Z</time>
      </trkpt>
      <trkpt lat="45.93997" lon="4.77552">
        <ele>180</ele>
        <time>2018-04-08T10:13:22Z</time>
      </trkpt>
      <trkpt lat="45.93997" lon="4.77552">
        <ele>180</ele>
        <time>2018-04-08T10:13:23Z</time>
      </trkpt>
      <trkpt lat="45.93997" lon="4.77552">
        <ele>180</ele>
        <time>2018-04-08T10:13:24Z</time>
      </trkpt>
      <trkpt lat="45.93999" lon="4.77553">
        <ele>180</ele>
        <time>2018-04-08T10:13:32Z</time>
      </trkpt>
      <trkpt lat="45.93999" lon="4.77553">
        <ele>180</ele>
        <time>2018-04-08T10:13:33Z</time>
      </trkpt>
      <trkpt lat="45.93999" lon="4.77554">
        <ele>180</ele>
        <time>2018-04-08T10:13:34Z</time>
      </trkpt>
      <trkpt lat="45.93999" lon="4.77554">
        <ele>180</ele>
        <time>2018-04-08T10:13:35Z</time>
      </trkpt>
      <trkpt lat="45.93996" lon="4.77542">
        <ele>179</ele>
        <time>2018-04-08T10:14:11Z</time>
      </trkpt>
      <trkpt lat="45.93996" lon="4.77539">
        <ele>179</ele>
        <time>2018-04-08T10:14:12Z</time>
      </trkpt>
      <trkpt lat="45.93997" lon="4.77528">
        <ele>179</ele>
        <time>2018-04-08T10:14:15Z</time>
      </trkpt>
      <trkpt lat="45.93998" lon="4.77524">
        <ele>179</ele>
        <time>2018-04-08T10:14:16Z</time>
      </trkpt>
      <trkpt lat="45.93999" lon="4.77515">
        <ele>180</ele>
        <time>2018-04-08T10:14:18Z</time>
      </trkpt>
      <trkpt lat="45.94" lon="4.77501">
        <ele>183</ele>
        <time>2018-04-08T10:14:19Z</time>
      </trkpt>
      <trkpt lat="45.94003" lon="4.7749">
        <ele>184</ele>
        <time>2018-04-08T10:14:21Z</time>
      </trkpt>
      <trkpt lat="45.94004" lon="4.77485">
        <ele>185</ele>
        <time>2018-04-08T10:14:22Z</time>
      </trkpt>
      <trkpt lat="45.94004" lon="4.77476">
        <ele>185</ele>
        <time>2018-04-08T10:14:24Z</time>
      </trkpt>
      <trkpt lat="45.94005" lon="4.77466">
        <ele>185</ele>
        <time>2018-04-08T10:14:25Z</time>
      </trkpt>
      <trkpt lat="45.94005" lon="4.77454">
        <ele>185</ele>
        <time>2018-04-08T10:14:30Z</time>
      </trkpt>
      <trkpt lat="45.94006" lon="4.77442">
        <ele>183</ele>
        <time>2018-04-08T10:14:31Z</time>
      </trkpt>
      <trkpt lat="45.94007" lon="4.77435">
        <ele>182</ele>
        <time>2018-04-08T10:14:32Z</time>
      </trkpt>
      <trkpt lat="45.94008" lon="4.77428">
        <ele>181</ele>
        <time>2018-04-08T10:14:33Z</time>
      </trkpt>
      <trkpt lat="45.9401" lon="4.77415">
        <ele>178</ele>
        <time>2018-04-08T10:14:35Z</time>
      </trkpt>
      <trkpt lat="45.9401" lon="4.77409">
        <ele>178</ele>
        <time>2018-04-08T10:14:36Z</time>
      </trkpt>
      <trkpt lat="45.9401" lon="4.77403">
        <ele>179</ele>
        <time>2018-04-08T10:14:37Z</time>
      </trkpt>
      <trkpt lat="45.94011" lon="4.77394">
        <ele>179</ele>
        <time>2018-04-08T10:14:38Z</time>
      </trkpt>
      <trkpt lat="45.94013" lon="4.77388">
        <ele>179</ele>
        <time>2018-04-08T10:14:39Z</time>
      </trkpt>
      <trkpt lat="45.94014" lon="4.77381">
        <ele>179</ele>
        <time>2018-04-08T10:14:40Z</time>
      </trkpt>
      <trkpt lat="45.94016" lon="4.77368">
        <ele>179</ele>
        <time>2018-04-08T10:14:42Z</time>
      </trkpt>
      <trkpt lat="45.94017" lon="4.77362">
        <ele>179</ele>
        <time>2018-04-08T10:14:43Z</time>
      </trkpt>
      <trkpt lat="45.94016" lon="4.77354">
        <ele>178</ele>
        <time>2018-04-08T10:14:44Z</time>
      </trkpt>
      <trkpt lat="45.94016" lon="4.77347">
        <ele>177</ele>
        <time>2018-04-08T10:14:45Z</time>
      </trkpt>
      <trkpt lat="45.94017" lon="4.77341">
        <ele>177</ele>
        <time>2018-04-08T10:14:46Z</time>
      </trkpt>
      <trkpt lat="45.94017" lon="4.77334">
        <ele>177</ele>
        <time>2018-04-08T10:14:47Z</time>
      </trkpt>
      <trkpt lat="45.94017" lon="4.77326">
        <ele>175</ele>
        <time>2018-04-08T10:14:48Z</time>
      </trkpt>
      <trkpt lat="45.94017" lon="4.77319">
        <ele>175</ele>
        <time>2018-04-08T10:14:49Z</time>
      </trkpt>
      <trkpt lat="45.94017" lon="4.77312">
        <ele>175</ele>
        <time>2018-04-08T10:14:50Z</time>
      </trkpt>
      <trkpt lat="45.94018" lon="4.77306">
        <ele>176</ele>
        <time>2018-04-08T10:14:51Z</time>
      </trkpt>
      <trkpt lat="45.94018" lon="4.77299">
        <ele>176</ele>
        <time>2018-04-08T10:14:52Z</time>
      </trkpt>
      <trkpt lat="45.94019" lon="4.77292">
        <ele>176</ele>
        <time>2018-04-08T10:14:53Z</time>
      </trkpt>
      <trkpt lat="45.9402" lon="4.77286">
        <ele>176</ele>
        <time>2018-04-08T10:14:54Z</time>
      </trkpt>
      <trkpt lat="45.94021" lon="4.77278">
        <ele>175</ele>
        <time>2018-04-08T10:14:55Z</time>
      </trkpt>
      <trkpt lat="45.94022" lon="4.77271">
        <ele>175</ele>
        <time>2018-04-08T10:14:56Z</time>
      </trkpt>
      <trkpt lat="45.94023" lon="4.77265">
        <ele>175</ele>
        <time>2018-04-08T10:14:57Z</time>
      </trkpt>
      <trkpt lat="45.94025" lon="4.77253">
        <ele>175</ele>
        <time>2018-04-08T10:14:59Z</time>
      </trkpt>
      <trkpt lat="45.94025" lon="4.77246">
        <ele>174</ele>
        <time>2018-04-08T10:15:00Z</time>
      </trkpt>
      <trkpt lat="45.94026" lon="4.77239">
        <ele>174</ele>
        <time>2018-04-08T10:15:01Z</time>
      </trkpt>
      <trkpt lat="45.94027" lon="4.77231">
        <ele>174</ele>
        <time>2018-04-08T10:15:02Z</time>
      </trkpt>
      <trkpt lat="45.94027" lon="4.77223">
        <ele>174</ele>
        <time>2018-04-08T10:15:03Z</time>
      </trkpt>
      <trkpt lat="45.94028" lon="4.77215">
        <ele>175</ele>
        <time>2018-04-08T10:15:04Z</time>
      </trkpt>
      <trkpt lat="45.9403" lon="4.77207">
        <ele>175</ele>
        <time>2018-04-08T10:15:05Z</time>
      </trkpt>
      <trkpt lat="45.94031" lon="4.77199">
        <ele>175</ele>
        <time>2018-04-08T10:15:06Z</time>
      </trkpt>
      <trkpt lat="45.94032" lon="4.77191">
        <ele>175</ele>
        <time>2018-04-08T10:15:07Z</time>
      </trkpt>
      <trkpt lat="45.94032" lon="4.77183">
        <ele>175</ele>
        <time>2018-04-08T10:15:08Z</time>
      </trkpt>
      <trkpt lat="45.94032" lon="4.77174">
        <ele>175</ele>
        <time>2018-04-08T10:15:09Z</time>
      </trkpt>
      <trkpt lat="45.94033" lon="4.77165">
        <ele>174</ele>
        <time>2018-04-08T10:15:10Z</time>
      </trkpt>
      <trkpt lat="45.94034" lon="4.77157">
        <ele>174</ele>
        <time>2018-04-08T10:15:11Z</time>
      </trkpt>
      <trkpt lat="45.94036" lon="4.77147">
        <ele>175</ele>
        <time>2018-04-08T10:15:12Z</time>
      </trkpt>
      <trkpt lat="45.94037" lon="4.77138">
        <ele>175</ele>
        <time>2018-04-08T10:15:13Z</time>
      </trkpt>
      <trkpt lat="45.94038" lon="4.77129">
        <ele>175</ele>
        <time>2018-04-08T10:15:14Z</time>
      </trkpt>
      <trkpt lat="45.94039" lon="4.77121">
        <ele>175</ele>
        <time>2018-04-08T10:15:15Z</time>
      </trkpt>
      <trkpt lat="45.9404" lon="4.77113">
        <ele>175</ele>
        <time>2018-04-08T10:15:16Z</time>
      </trkpt>
      <trkpt lat="45.9404" lon="4.77105">
        <ele>175</ele>
        <time>2018-04-08T10:15:17Z</time>
      </trkpt>
      <trkpt lat="45.94041" lon="4.77098">
        <ele>175</ele>
        <time>2018-04-08T10:15:18Z</time>
      </trkpt>
      <trkpt lat="45.94043" lon="4.7709">
        <ele>175</ele>
        <time>2018-04-08T10:15:19Z</time>
      </trkpt>
      <trkpt lat="45.94043" lon="4.77083">
        <ele>174</ele>
        <time>2018-04-08T10:15:20Z</time>
      </trkpt>
      <trkpt lat="45.94044" lon="4.77075">
        <ele>174</ele>
        <time>2018-04-08T10:15:21Z</time>
      </trkpt>
      <trkpt lat="45.94045" lon="4.77066">
        <ele>174</ele>
        <time>2018-04-08T10:15:22Z</time>
      </trkpt>
      <trkpt lat="45.94046" lon="4.77057">
        <ele>174</ele>
        <time>2018-04-08T10:15:23Z</time>
      </trkpt>
      <trkpt lat="45.94047" lon="4.77049">
        <ele>174</ele>
        <time>2018-04-08T10:15:24Z</time>
      </trkpt>
      <trkpt lat="45.94048" lon="4.77039">
        <ele>174</ele>
        <time>2018-04-08T10:15:25Z</time>
      </trkpt>
      <trkpt lat="45.94049" lon="4.77031">
        <ele>174</ele>
        <time>2018-04-08T10:15:26Z</time>
      </trkpt>
      <trkpt lat="45.94049" lon="4.77023">
        <ele>175</ele>
        <time>2018-04-08T10:15:27Z</time>
      </trkpt>
      <trkpt lat="45.94051" lon="4.77015">
        <ele>175</ele>
        <time>2018-04-08T10:15:28Z</time>
      </trkpt>
      <trkpt lat="45.94052" lon="4.77007">
        <ele>175</ele>
        <time>2018-04-08T10:15:29Z</time>
      </trkpt>
      <trkpt lat="45.94054" lon="4.77">
        <ele>175</ele>
        <time>2018-04-08T10:15:30Z</time>
      </trkpt>
      <trkpt lat="45.94056" lon="4.76993">
        <ele>175</ele>
        <time>2018-04-08T10:15:31Z</time>
      </trkpt>
      <trkpt lat="45.94059" lon="4.76987">
        <ele>175</ele>
        <time>2018-04-08T10:15:32Z</time>
      </trkpt>
      <trkpt lat="45.94061" lon="4.76981">
        <ele>175</ele>
        <time>2018-04-08T10:15:33Z</time>
      </trkpt>
      <trkpt lat="45.9406" lon="4.76974">
        <ele>174</ele>
        <time>2018-04-08T10:15:34Z</time>
      </trkpt>
      <trkpt lat="45.94058" lon="4.76966">
        <ele>174</ele>
        <time>2018-04-08T10:15:35Z</time>
      </trkpt>
      <trkpt lat="45.94054" lon="4.7696">
        <ele>174</ele>
        <time>2018-04-08T10:15:36Z</time>
      </trkpt>
      <trkpt lat="45.9405" lon="4.76956">
        <ele>174</ele>
        <time>2018-04-08T10:15:37Z</time>
      </trkpt>
      <trkpt lat="45.94046" lon="4.76951">
        <ele>174</ele>
        <time>2018-04-08T10:15:38Z</time>
      </trkpt>
      <trkpt lat="45.94041" lon="4.76947">
        <ele>174</ele>
        <time>2018-04-08T10:15:39Z</time>
      </trkpt>
      <trkpt lat="45.94038" lon="4.7694">
        <ele>174</ele>
        <time>2018-04-08T10:15:40Z</time>
      </trkpt>
      <trkpt lat="45.94036" lon="4.76933">
        <ele>174</ele>
        <time>2018-04-08T10:15:41Z</time>
      </trkpt>
      <trkpt lat="45.94034" lon="4.76926">
        <ele>173</ele>
        <time>2018-04-08T10:15:42Z</time>
      </trkpt>
      <trkpt lat="45.94032" lon="4.76919">
        <ele>173</ele>
        <time>2018-04-08T10:15:43Z</time>
      </trkpt>
      <trkpt lat="45.9403" lon="4.76912">
        <ele>173</ele>
        <time>2018-04-08T10:15:44Z</time>
      </trkpt>
      <trkpt lat="45.9403" lon="4.76904">
        <ele>173</ele>
        <time>2018-04-08T10:15:45Z</time>
      </trkpt>
      <trkpt lat="45.94027" lon="4.76896">
        <ele>173</ele>
        <time>2018-04-08T10:15:46Z</time>
      </trkpt>
      <trkpt lat="45.94024" lon="4.76889">
        <ele>173</ele>
        <time>2018-04-08T10:15:47Z</time>
      </trkpt>
      <trkpt lat="45.94021" lon="4.7688">
        <ele>173</ele>
        <time>2018-04-08T10:15:48Z</time>
      </trkpt>
      <trkpt lat="45.94018" lon="4.76873">
        <ele>173</ele>
        <time>2018-04-08T10:15:49Z</time>
      </trkpt>
      <trkpt lat="45.94014" lon="4.76865">
        <ele>172</ele>
        <time>2018-04-08T10:15:50Z</time>
      </trkpt>
      <trkpt lat="45.9401" lon="4.76859">
        <ele>172</ele>
        <time>2018-04-08T10:15:51Z</time>
      </trkpt>
      <trkpt lat="45.94008" lon="4.76853">
        <ele>172</ele>
        <time>2018-04-08T10:15:52Z</time>
      </trkpt>
      <trkpt lat="45.94005" lon="4.76845">
        <ele>172</ele>
        <time>2018-04-08T10:15:53Z</time>
      </trkpt>
      <trkpt lat="45.94003" lon="4.76836">
        <ele>171</ele>
        <time>2018-04-08T10:15:54Z</time>
      </trkpt>
      <trkpt lat="45.94" lon="4.76829">
        <ele>171</ele>
        <time>2018-04-08T10:15:55Z</time>
      </trkpt>
      <trkpt lat="45.93998" lon="4.76822">
        <ele>171</ele>
        <time>2018-04-08T10:15:56Z</time>
      </trkpt>
      <trkpt lat="45.93997" lon="4.76815">
        <ele>172</ele>
        <time>2018-04-08T10:15:57Z</time>
      </trkpt>
      <trkpt lat="45.93997" lon="4.76807">
        <ele>172</ele>
        <time>2018-04-08T10:15:58Z</time>
      </trkpt>
      <trkpt lat="45.93997" lon="4.76799">
        <ele>172</ele>
        <time>2018-04-08T10:15:59Z</time>
      </trkpt>
      <trkpt lat="45.93997" lon="4.76791">
        <ele>172</ele>
        <time>2018-04-08T10:16:00Z</time>
      </trkpt>
      <trkpt lat="45.93998" lon="4.76781">
        <ele>172</ele>
        <time>2018-04-08T10:16:01Z</time>
      </trkpt>
      <trkpt lat="45.93998" lon="4.76773">
        <ele>172</ele>
        <time>2018-04-08T10:16:02Z</time>
      </trkpt>
      <trkpt lat="45.94" lon="4.76765">
        <ele>173</ele>
        <time>2018-04-08T10:16:03Z</time>
      </trkpt>
      <trkpt lat="45.94002" lon="4.76758">
        <ele>173</ele>
        <time>2018-04-08T10:16:04Z</time>
      </trkpt>
      <trkpt lat="45.94004" lon="4.7675">
        <ele>173</ele>
        <time>2018-04-08T10:16:05Z</time>
      </trkpt>
      <trkpt lat="45.94005" lon="4.76741">
        <ele>173</ele>
        <time>2018-04-08T10:16:06Z</time>
      </trkpt>
      <trkpt lat="45.94008" lon="4.76733">
        <ele>173</ele>
        <time>2018-04-08T10:16:07Z</time>
      </trkpt>
      <trkpt lat="45.9401" lon="4.76725">
        <ele>173</ele>
        <time>2018-04-08T10:16:08Z</time>
      </trkpt>
      <trkpt lat="45.94013" lon="4.76717">
        <ele>173</ele>
        <time>2018-04-08T10:16:09Z</time>
      </trkpt>
      <trkpt lat="45.94015" lon="4.76709">
        <ele>173</ele>
        <time>2018-04-08T10:16:10Z</time>
      </trkpt>
      <trkpt lat="45.94017" lon="4.76701">
        <ele>173</ele>
        <time>2018-04-08T10:16:11Z</time>
      </trkpt>
      <trkpt lat="45.94019" lon="4.76693">
        <ele>173</ele>
        <time>2018-04-08T10:16:12Z</time>
      </trkpt>
      <trkpt lat="45.9402" lon="4.76685">
        <ele>173</ele>
        <time>2018-04-08T10:16:13Z</time>
      </trkpt>
      <trkpt lat="45.94021" lon="4.76677">
        <ele>173</ele>
        <time>2018-04-08T10:16:14Z</time>
      </trkpt>
      <trkpt lat="45.9402" lon="4.76669">
        <ele>173</ele>
        <time>2018-04-08T10:16:15Z</time>
      </trkpt>
      <trkpt lat="45.94019" lon="4.7666">
        <ele>172</ele>
        <time>2018-04-08T10:16:16Z</time>
      </trkpt>
      <trkpt lat="45.94017" lon="4.7665">
        <ele>172</ele>
        <time>2018-04-08T10:16:17Z</time>
      </trkpt>
      <trkpt lat="45.94015" lon="4.76642">
        <ele>172</ele>
        <time>2018-04-08T10:16:18Z</time>
      </trkpt>
      <trkpt lat="45.94013" lon="4.76635">
        <ele>172</ele>
        <time>2018-04-08T10:16:19Z</time>
      </trkpt>
      <trkpt lat="45.9401" lon="4.76628">
        <ele>172</ele>
        <time>2018-04-08T10:16:20Z</time>
      </trkpt>
      <trkpt lat="45.94007" lon="4.7662">
        <ele>172</ele>
        <time>2018-04-08T10:16:21Z</time>
      </trkpt>
      <trkpt lat="45.94003" lon="4.76612">
        <ele>172</ele>
        <time>2018-04-08T10:16:22Z</time>
      </trkpt>
      <trkpt lat="45.94001" lon="4.76602">
        <ele>172</ele>
        <time>2018-04-08T10:16:23Z</time>
      </trkpt>
      <trkpt lat="45.93998" lon="4.76594">
        <ele>172</ele>
        <time>2018-04-08T10:16:24Z</time>
      </trkpt>
      <trkpt lat="45.93996" lon="4.76584">
        <ele>172</ele>
        <time>2018-04-08T10:16:25Z</time>
      </trkpt>
      <trkpt lat="45.93995" lon="4.76574">
        <ele>172</ele>
        <time>2018-04-08T10:16:26Z</time>
      </trkpt>
      <trkpt lat="45.93994" lon="4.76564">
        <ele>172</ele>
        <time>2018-04-08T10:16:27Z</time>
      </trkpt>
      <trkpt lat="45.93994" lon="4.76554">
        <ele>172</ele>
        <time>2018-04-08T10:16:28Z</time>
      </trkpt>
      <trkpt lat="45.93993" lon="4.76543">
        <ele>172</ele>
        <time>2018-04-08T10:16:29Z</time>
      </trkpt>
      <trkpt lat="45.93993" lon="4.76533">
        <ele>171</ele>
        <time>2018-04-08T10:16:30Z</time>
      </trkpt>
      <trkpt lat="45.93992" lon="4.76523">
        <ele>171</ele>
        <time>2018-04-08T10:16:31Z</time>
      </trkpt>
      <trkpt lat="45.93991" lon="4.76513">
        <ele>171</ele>
        <time>2018-04-08T10:16:32Z</time>
      </trkpt>
      <trkpt lat="45.93991" lon="4.76503">
        <ele>171</ele>
        <time>2018-04-08T10:16:33Z</time>
      </trkpt>
      <trkpt lat="45.9399" lon="4.76494">
        <ele>171</ele>
        <time>2018-04-08T10:16:34Z</time>
      </trkpt>
      <trkpt lat="45.9399" lon="4.76484">
        <ele>170</ele>
        <time>2018-04-08T10:16:35Z</time>
      </trkpt>
      <trkpt lat="45.9399" lon="4.76475">
        <ele>170</ele>
        <time>2018-04-08T10:16:36Z</time>
      </trkpt>
      <trkpt lat="45.93989" lon="4.76466">
        <ele>170</ele>
        <time>2018-04-08T10:16:37Z</time>
      </trkpt>
      <trkpt lat="45.93989" lon="4.76458">
        <ele>170</ele>
        <time>2018-04-08T10:16:38Z</time>
      </trkpt>
      <trkpt lat="45.9399" lon="4.7645">
        <ele>170</ele>
        <time>2018-04-08T10:16:39Z</time>
      </trkpt>
      <trkpt lat="45.93991" lon="4.76442">
        <ele>169</ele>
        <time>2018-04-08T10:16:40Z</time>
      </trkpt>
      <trkpt lat="45.93993" lon="4.76435">
        <ele>169</ele>
        <time>2018-04-08T10:16:41Z</time>
      </trkpt>
      <trkpt lat="45.93996" lon="4.76428">
        <ele>169</ele>
        <time>2018-04-08T10:16:42Z</time>
      </trkpt>
      <trkpt lat="45.93998" lon="4.76421">
        <ele>168</ele>
        <time>2018-04-08T10:16:43Z</time>
      </trkpt>
      <trkpt lat="45.94001" lon="4.76414">
        <ele>168</ele>
        <time>2018-04-08T10:16:44Z</time>
      </trkpt>
      <trkpt lat="45.94005" lon="4.76406">
        <ele>169</ele>
        <time>2018-04-08T10:16:45Z</time>
      </trkpt>
      <trkpt lat="45.94009" lon="4.76401">
        <ele>169</ele>
        <time>2018-04-08T10:16:46Z</time>
      </trkpt>
      <trkpt lat="45.94014" lon="4.76396">
        <ele>169</ele>
        <time>2018-04-08T10:16:47Z</time>
      </trkpt>
      <trkpt lat="45.94019" lon="4.7639">
        <ele>169</ele>
        <time>2018-04-08T10:16:48Z</time>
      </trkpt>
      <trkpt lat="45.94023" lon="4.76385">
        <ele>170</ele>
        <time>2018-04-08T10:16:49Z</time>
      </trkpt>
      <trkpt lat="45.94027" lon="4.76382">
        <ele>170</ele>
        <time>2018-04-08T10:16:50Z</time>
      </trkpt>
      <trkpt lat="45.94033" lon="4.76376">
        <ele>170</ele>
        <time>2018-04-08T10:16:51Z</time>
      </trkpt>
      <trkpt lat="45.94036" lon="4.76371">
        <ele>170</ele>
        <time>2018-04-08T10:16:52Z</time>
      </trkpt>
      <trkpt lat="45.94041" lon="4.76363">
        <ele>170</ele>
        <time>2018-04-08T10:16:53Z</time>
      </trkpt>
      <trkpt lat="45.94043" lon="4.76358">
        <ele>170</ele>
        <time>2018-04-08T10:16:54Z</time>
      </trkpt>
      <trkpt lat="45.94047" lon="4.76348">
        <ele>170</ele>
        <time>2018-04-08T10:16:56Z</time>
      </trkpt>
      <trkpt lat="45.94048" lon="4.76343">
        <ele>170</ele>
        <time>2018-04-08T10:16:57Z</time>
      </trkpt>
      <trkpt lat="45.94049" lon="4.76339">
        <ele>170</ele>
        <time>2018-04-08T10:16:59Z</time>
      </trkpt>
      <trkpt lat="45.94053" lon="4.7633">
        <ele>171</ele>
        <time>2018-04-08T10:17:00Z</time>
      </trkpt>
      <trkpt lat="45.94055" lon="4.76324">
        <ele>171</ele>
        <time>2018-04-08T10:17:01Z</time>
      </trkpt>
      <trkpt lat="45.94058" lon="4.76319">
        <ele>171</ele>
        <time>2018-04-08T10:17:02Z</time>
      </trkpt>
      <trkpt lat="45.94061" lon="4.76313">
        <ele>171</ele>
        <time>2018-04-08T10:17:03Z</time>
      </trkpt>
      <trkpt lat="45.94064" lon="4.76309">
        <ele>171</ele>
        <time>2018-04-08T10:17:04Z</time>
      </trkpt>
      <trkpt lat="45.94071" lon="4.76302">
        <ele>171</ele>
        <time>2018-04-08T10:17:06Z</time>
      </trkpt>
      <trkpt lat="45.94074" lon="4.76298">
        <ele>171</ele>
        <time>2018-04-08T10:17:07Z</time>
      </trkpt>
      <trkpt lat="45.94077" lon="4.7629">
        <ele>172</ele>
        <time>2018-04-08T10:17:08Z</time>
      </trkpt>
      <trkpt lat="45.9408" lon="4.76285">
        <ele>172</ele>
        <time>2018-04-08T10:17:09Z</time>
      </trkpt>
      <trkpt lat="45.94086" lon="4.76277">
        <ele>176</ele>
        <time>2018-04-08T10:17:11Z</time>
      </trkpt>
      <trkpt lat="45.94091" lon="4.76273">
        <ele>176</ele>
        <time>2018-04-08T10:17:12Z</time>
      </trkpt>
      <trkpt lat="45.94095" lon="4.7627">
        <ele>176</ele>
        <time>2018-04-08T10:17:13Z</time>
      </trkpt>
      <trkpt lat="45.941" lon="4.76269">
        <ele>176</ele>
        <time>2018-04-08T10:17:14Z</time>
      </trkpt>
      <trkpt lat="45.94105" lon="4.76268">
        <ele>176</ele>
        <time>2018-04-08T10:17:15Z</time>
      </trkpt>
      <trkpt lat="45.94109" lon="4.76267">
        <ele>177</ele>
        <time>2018-04-08T10:17:16Z</time>
      </trkpt>
      <trkpt lat="45.94114" lon="4.76266">
        <ele>177</ele>
        <time>2018-04-08T10:17:17Z</time>
      </trkpt>
      <trkpt lat="45.94119" lon="4.76265">
        <ele>177</ele>
        <time>2018-04-08T10:17:18Z</time>
      </trkpt>
      <trkpt lat="45.94125" lon="4.76265">
        <ele>177</ele>
        <time>2018-04-08T10:17:20Z</time>
      </trkpt>
      <trkpt lat="45.9413" lon="4.76264">
        <ele>178</ele>
        <time>2018-04-08T10:17:21Z</time>
      </trkpt>
      <trkpt lat="45.94139" lon="4.76262">
        <ele>178</ele>
        <time>2018-04-08T10:17:23Z</time>
      </trkpt>
      <trkpt lat="45.94142" lon="4.76261">
        <ele>178</ele>
        <time>2018-04-08T10:17:24Z</time>
      </trkpt>
      <trkpt lat="45.94147" lon="4.76261">
        <ele>179</ele>
        <time>2018-04-08T10:17:25Z</time>
      </trkpt>
      <trkpt lat="45.94151" lon="4.76261">
        <ele>179</ele>
        <time>2018-04-08T10:17:26Z</time>
      </trkpt>
      <trkpt lat="45.9416" lon="4.7626">
        <ele>180</ele>
        <time>2018-04-08T10:17:28Z</time>
      </trkpt>
      <trkpt lat="45.94164" lon="4.76259">
        <ele>180</ele>
        <time>2018-04-08T10:17:29Z</time>
      </trkpt>
      <trkpt lat="45.94169" lon="4.76252">
        <ele>181</ele>
        <time>2018-04-08T10:17:31Z</time>
      </trkpt>
      <trkpt lat="45.94171" lon="4.76246">
        <ele>181</ele>
        <time>2018-04-08T10:17:32Z</time>
      </trkpt>
      <trkpt lat="45.94171" lon="4.76239">
        <ele>182</ele>
        <time>2018-04-08T10:17:33Z</time>
      </trkpt>
      <trkpt lat="45.94173" lon="4.76231">
        <ele>182</ele>
        <time>2018-04-08T10:17:34Z</time>
      </trkpt>
      <trkpt lat="45.94173" lon="4.76224">
        <ele>182</ele>
        <time>2018-04-08T10:17:35Z</time>
      </trkpt>
      <trkpt lat="45.94174" lon="4.76217">
        <ele>182</ele>
        <time>2018-04-08T10:17:36Z</time>
      </trkpt>
      <trkpt lat="45.94174" lon="4.76209">
        <ele>182</ele>
        <time>2018-04-08T10:17:37Z</time>
      </trkpt>
      <trkpt lat="45.94174" lon="4.76201">
        <ele>182</ele>
        <time>2018-04-08T10:17:38Z</time>
      </trkpt>
      <trkpt lat="45.94177" lon="4.76193">
        <ele>182</ele>
        <time>2018-04-08T10:17:39Z</time>
      </trkpt>
      <trkpt lat="45.94178" lon="4.76187">
        <ele>182</ele>
        <time>2018-04-08T10:17:40Z</time>
      </trkpt>
      <trkpt lat="45.94179" lon="4.76177">
        <ele>181</ele>
        <time>2018-04-08T10:17:41Z</time>
      </trkpt>
      <trkpt lat="45.9418" lon="4.76168">
        <ele>181</ele>
        <time>2018-04-08T10:17:42Z</time>
      </trkpt>
      <trkpt lat="45.94182" lon="4.76161">
        <ele>181</ele>
        <time>2018-04-08T10:17:43Z</time>
      </trkpt>
      <trkpt lat="45.94183" lon="4.76153">
        <ele>181</ele>
        <time>2018-04-08T10:17:44Z</time>
      </trkpt>
      <trkpt lat="45.94183" lon="4.76145">
        <ele>181</ele>
        <time>2018-04-08T10:17:45Z</time>
      </trkpt>
      <trkpt lat="45.94183" lon="4.76135">
        <ele>181</ele>
        <time>2018-04-08T10:17:46Z</time>
      </trkpt>
      <trkpt lat="45.94183" lon="4.76125">
        <ele>180</ele>
        <time>2018-04-08T10:17:47Z</time>
      </trkpt>
      <trkpt lat="45.94183" lon="4.7612">
        <ele>180</ele>
        <time>2018-04-08T10:17:48Z</time>
      </trkpt>
      <trkpt lat="45.94182" lon="4.76112">
        <ele>180</ele>
        <time>2018-04-08T10:17:49Z</time>
      </trkpt>
      <trkpt lat="45.94182" lon="4.76104">
        <ele>180</ele>
        <time>2018-04-08T10:17:50Z</time>
      </trkpt>
      <trkpt lat="45.9418" lon="4.76093">
        <ele>179</ele>
        <time>2018-04-08T10:17:52Z</time>
      </trkpt>
      <trkpt lat="45.9418" lon="4.7608">
        <ele>179</ele>
        <time>2018-04-08T10:17:53Z</time>
      </trkpt>
      <trkpt lat="45.94178" lon="4.76068">
        <ele>179</ele>
        <time>2018-04-08T10:17:54Z</time>
      </trkpt>
      <trkpt lat="45.94178" lon="4.76058">
        <ele>179</ele>
        <time>2018-04-08T10:17:55Z</time>
      </trkpt>
      <trkpt lat="45.94177" lon="4.76049">
        <ele>179</ele>
        <time>2018-04-08T10:17:56Z</time>
      </trkpt>
      <trkpt lat="45.94177" lon="4.76038">
        <ele>179</ele>
        <time>2018-04-08T10:17:57Z</time>
      </trkpt>
      <trkpt lat="45.94177" lon="4.76029">
        <ele>179</ele>
        <time>2018-04-08T10:17:58Z</time>
      </trkpt>
      <trkpt lat="45.94176" lon="4.76019">
        <ele>179</ele>
        <time>2018-04-08T10:17:59Z</time>
      </trkpt>
      <trkpt lat="45.94176" lon="4.76009">
        <ele>179</ele>
        <time>2018-04-08T10:18:00Z</time>
      </trkpt>
      <trkpt lat="45.94176" lon="4.75999">
        <ele>178</ele>
        <time>2018-04-08T10:18:01Z</time>
      </trkpt>
      <trkpt lat="45.94174" lon="4.7599">
        <ele>178</ele>
        <time>2018-04-08T10:18:02Z</time>
      </trkpt>
      <trkpt lat="45.94174" lon="4.7598">
        <ele>178</ele>
        <time>2018-04-08T10:18:03Z</time>
      </trkpt>
      <trkpt lat="45.94173" lon="4.7597">
        <ele>177</ele>
        <time>2018-04-08T10:18:04Z</time>
      </trkpt>
      <trkpt lat="45.94173" lon="4.7596">
        <ele>177</ele>
        <time>2018-04-08T10:18:05Z</time>
      </trkpt>
      <trkpt lat="45.94173" lon="4.7595">
        <ele>177</ele>
        <time>2018-04-08T10:18:06Z</time>
      </trkpt>
      <trkpt lat="45.94173" lon="4.7594">
        <ele>176</ele>
        <time>2018-04-08T10:18:07Z</time>
      </trkpt>
      <trkpt lat="45.94173" lon="4.7593">
        <ele>176</ele>
        <time>2018-04-08T10:18:08Z</time>
      </trkpt>
      <trkpt lat="45.94172" lon="4.75921">
        <ele>176</ele>
        <time>2018-04-08T10:18:09Z</time>
      </trkpt>
      <trkpt lat="45.94171" lon="4.75911">
        <ele>175</ele>
        <time>2018-04-08T10:18:10Z</time>
      </trkpt>
      <trkpt lat="45.9417" lon="4.75902">
        <ele>175</ele>
        <time>2018-04-08T10:18:11Z</time>
      </trkpt>
      <trkpt lat="45.9417" lon="4.75894">
        <ele>175</ele>
        <time>2018-04-08T10:18:12Z</time>
      </trkpt>
      <trkpt lat="45.9417" lon="4.75885">
        <ele>175</ele>
        <time>2018-04-08T10:18:13Z</time>
      </trkpt>
      <trkpt lat="45.9417" lon="4.75877">
        <ele>175</ele>
        <time>2018-04-08T10:18:14Z</time>
      </trkpt>
      <trkpt lat="45.94169" lon="4.7587">
        <ele>175</ele>
        <time>2018-04-08T10:18:15Z</time>
      </trkpt>
      <trkpt lat="45.94169" lon="4.75861">
        <ele>174</ele>
        <time>2018-04-08T10:18:16Z</time>
      </trkpt>
      <trkpt lat="45.9417" lon="4.75853">
        <ele>174</ele>
        <time>2018-04-08T10:18:17Z</time>
      </trkpt>
      <trkpt lat="45.9417" lon="4.75844">
        <ele>174</ele>
        <time>2018-04-08T10:18:18Z</time>
      </trkpt>
      <trkpt lat="45.9417" lon="4.75835">
        <ele>174</ele>
        <time>2018-04-08T10:18:19Z</time>
      </trkpt>
      <trkpt lat="45.94169" lon="4.75826">
        <ele>174</ele>
        <time>2018-04-08T10:18:20Z</time>
      </trkpt>
      <trkpt lat="45.94169" lon="4.75817">
        <ele>174</ele>
        <time>2018-04-08T10:18:21Z</time>
      </trkpt>
      <trkpt lat="45.94168" lon="4.75808">
        <ele>174</ele>
        <time>2018-04-08T10:18:22Z</time>
      </trkpt>
      <trkpt lat="45.94168" lon="4.758">
        <ele>174</ele>
        <time>2018-04-08T10:18:23Z</time>
      </trkpt>
      <trkpt lat="45.94167" lon="4.75791">
        <ele>174</ele>
        <time>2018-04-08T10:18:24Z</time>
      </trkpt>
      <trkpt lat="45.94167" lon="4.75783">
        <ele>174</ele>
        <time>2018-04-08T10:18:25Z</time>
      </trkpt>
      <trkpt lat="45.94167" lon="4.75774">
        <ele>174</ele>
        <time>2018-04-08T10:18:26Z</time>
      </trkpt>
      <trkpt lat="45.94167" lon="4.75765">
        <ele>174</ele>
        <time>2018-04-08T10:18:27Z</time>
      </trkpt>
      <trkpt lat="45.94167" lon="4.75757">
        <ele>174</ele>
        <time>2018-04-08T10:18:28Z</time>
      </trkpt>
      <trkpt lat="45.94167" lon="4.75748">
        <ele>174</ele>
        <time>2018-04-08T10:18:29Z</time>
      </trkpt>
      <trkpt lat="45.94167" lon="4.7574">
        <ele>174</ele>
        <time>2018-04-08T10:18:30Z</time>
      </trkpt>
      <trkpt lat="45.94167" lon="4.75731">
        <ele>173</ele>
        <time>2018-04-08T10:18:31Z</time>
      </trkpt>
      <trkpt lat="45.94167" lon="4.75723">
        <ele>173</ele>
        <time>2018-04-08T10:18:32Z</time>
      </trkpt>
      <trkpt lat="45.94166" lon="4.75715">
        <ele>173</ele>
        <time>2018-04-08T10:18:33Z</time>
      </trkpt>
      <trkpt lat="45.94167" lon="4.75706">
        <ele>173</ele>
        <time>2018-04-08T10:18:34Z</time>
      </trkpt>
      <trkpt lat="45.94167" lon="4.75698">
        <ele>173</ele>
        <time>2018-04-08T10:18:35Z</time>
      </trkpt>
      <trkpt lat="45.94167" lon="4.75691">
        <ele>173</ele>
        <time>2018-04-08T10:18:36Z</time>
      </trkpt>
      <trkpt lat="45.94167" lon="4.75683">
        <ele>173</ele>
        <time>2018-04-08T10:18:37Z</time>
      </trkpt>
      <trkpt lat="45.94167" lon="4.75677">
        <ele>173</ele>
        <time>2018-04-08T10:18:38Z</time>
      </trkpt>
      <trkpt lat="45.94167" lon="4.75669">
        <ele>173</ele>
        <time>2018-04-08T10:18:39Z</time>
      </trkpt>
      <trkpt lat="45.94168" lon="4.75659">
        <ele>173</ele>
        <time>2018-04-08T10:18:40Z</time>
      </trkpt>
      <trkpt lat="45.94168" lon="4.7565">
        <ele>173</ele>
        <time>2018-04-08T10:18:41Z</time>
      </trkpt>
      <trkpt lat="45.94168" lon="4.7564">
        <ele>173</ele>
        <time>2018-04-08T10:18:42Z</time>
      </trkpt>
      <trkpt lat="45.94168" lon="4.75631">
        <ele>173</ele>
        <time>2018-04-08T10:18:43Z</time>
      </trkpt>
      <trkpt lat="45.94169" lon="4.75623">
        <ele>173</ele>
        <time>2018-04-08T10:18:44Z</time>
      </trkpt>
      <trkpt lat="45.9417" lon="4.75614">
        <ele>173</ele>
        <time>2018-04-08T10:18:45Z</time>
      </trkpt>
      <trkpt lat="45.94171" lon="4.75605">
        <ele>173</ele>
        <time>2018-04-08T10:18:46Z</time>
      </trkpt>
      <trkpt lat="45.94171" lon="4.75597">
        <ele>173</ele>
        <time>2018-04-08T10:18:47Z</time>
      </trkpt>
      <trkpt lat="45.94172" lon="4.75589">
        <ele>173</ele>
        <time>2018-04-08T10:18:48Z</time>
      </trkpt>
      <trkpt lat="45.94172" lon="4.7558">
        <ele>173</ele>
        <time>2018-04-08T10:18:49Z</time>
      </trkpt>
      <trkpt lat="45.94172" lon="4.75572">
        <ele>173</ele>
        <time>2018-04-08T10:18:50Z</time>
      </trkpt>
      <trkpt lat="45.94174" lon="4.75562">
        <ele>173</ele>
        <time>2018-04-08T10:18:51Z</time>
      </trkpt>
      <trkpt lat="45.94174" lon="4.75553">
        <ele>173</ele>
        <time>2018-04-08T10:18:52Z</time>
      </trkpt>
      <trkpt lat="45.94174" lon="4.75544">
        <ele>173</ele>
        <time>2018-04-08T10:18:53Z</time>
      </trkpt>
      <trkpt lat="45.94176" lon="4.75535">
        <ele>173</ele>
        <time>2018-04-08T10:18:54Z</time>
      </trkpt>
      <trkpt lat="45.94176" lon="4.75527">
        <ele>173</ele>
        <time>2018-04-08T10:18:55Z</time>
      </trkpt>
      <trkpt lat="45.94176" lon="4.75519">
        <ele>173</ele>
        <time>2018-04-08T10:18:56Z</time>
      </trkpt>
      <trkpt lat="45.94177" lon="4.75511">
        <ele>173</ele>
        <time>2018-04-08T10:18:57Z</time>
      </trkpt>
      <trkpt lat="45.94177" lon="4.75503">
        <ele>173</ele>
        <time>2018-04-08T10:18:58Z</time>
      </trkpt>
      <trkpt lat="45.94178" lon="4.75495">
        <ele>173</ele>
        <time>2018-04-08T10:18:59Z</time>
      </trkpt>
      <trkpt lat="45.94179" lon="4.75487">
        <ele>172</ele>
        <time>2018-04-08T10:19:00Z</time>
      </trkpt>
      <trkpt lat="45.94181" lon="4.7548">
        <ele>172</ele>
        <time>2018-04-08T10:19:01Z</time>
      </trkpt>
      <trkpt lat="45.94183" lon="4.75472">
        <ele>172</ele>
        <time>2018-04-08T10:19:02Z</time>
      </trkpt>
      <trkpt lat="45.94186" lon="4.75465">
        <ele>172</ele>
        <time>2018-04-08T10:19:03Z</time>
      </trkpt>
      <trkpt lat="45.94188" lon="4.75457">
        <ele>172</ele>
        <time>2018-04-08T10:19:04Z</time>
      </trkpt>
      <trkpt lat="45.94189" lon="4.75449">
        <ele>171</ele>
        <time>2018-04-08T10:19:05Z</time>
      </trkpt>
      <trkpt lat="45.94189" lon="4.75439">
        <ele>171</ele>
        <time>2018-04-08T10:19:06Z</time>
      </trkpt>
      <trkpt lat="45.94188" lon="4.75431">
        <ele>171</ele>
        <time>2018-04-08T10:19:07Z</time>
      </trkpt>
      <trkpt lat="45.94187" lon="4.75422">
        <ele>171</ele>
        <time>2018-04-08T10:19:08Z</time>
      </trkpt>
      <trkpt lat="45.94186" lon="4.75414">
        <ele>171</ele>
        <time>2018-04-08T10:19:09Z</time>
      </trkpt>
      <trkpt lat="45.94186" lon="4.75406">
        <ele>171</ele>
        <time>2018-04-08T10:19:10Z</time>
      </trkpt>
      <trkpt lat="45.94187" lon="4.75397">
        <ele>171</ele>
        <time>2018-04-08T10:19:11Z</time>
      </trkpt>
      <trkpt lat="45.94188" lon="4.75389">
        <ele>171</ele>
        <time>2018-04-08T10:19:12Z</time>
      </trkpt>
      <trkpt lat="45.9419" lon="4.75382">
        <ele>171</ele>
        <time>2018-04-08T10:19:13Z</time>
      </trkpt>
      <trkpt lat="45.94191" lon="4.75374">
        <ele>171</ele>
        <time>2018-04-08T10:19:14Z</time>
      </trkpt>
      <trkpt lat="45.94193" lon="4.75366">
        <ele>171</ele>
        <time>2018-04-08T10:19:15Z</time>
      </trkpt>
      <trkpt lat="45.94194" lon="4.75358">
        <ele>171</ele>
        <time>2018-04-08T10:19:16Z</time>
      </trkpt>
      <trkpt lat="45.94195" lon="4.75351">
        <ele>171</ele>
        <time>2018-04-08T10:19:17Z</time>
      </trkpt>
      <trkpt lat="45.94195" lon="4.75343">
        <ele>171</ele>
        <time>2018-04-08T10:19:18Z</time>
      </trkpt>
      <trkpt lat="45.94197" lon="4.75335">
        <ele>171</ele>
        <time>2018-04-08T10:19:19Z</time>
      </trkpt>
      <trkpt lat="45.94198" lon="4.75327">
        <ele>171</ele>
        <time>2018-04-08T10:19:20Z</time>
      </trkpt>
      <trkpt lat="45.94199" lon="4.7532">
        <ele>171</ele>
        <time>2018-04-08T10:19:21Z</time>
      </trkpt>
      <trkpt lat="45.94201" lon="4.75312">
        <ele>171</ele>
        <time>2018-04-08T10:19:22Z</time>
      </trkpt>
      <trkpt lat="45.94203" lon="4.75305">
        <ele>171</ele>
        <time>2018-04-08T10:19:23Z</time>
      </trkpt>
      <trkpt lat="45.94204" lon="4.75295">
        <ele>171</ele>
        <time>2018-04-08T10:19:24Z</time>
      </trkpt>
      <trkpt lat="45.94205" lon="4.75287">
        <ele>171</ele>
        <time>2018-04-08T10:19:25Z</time>
      </trkpt>
      <trkpt lat="45.94206" lon="4.75279">
        <ele>171</ele>
        <time>2018-04-08T10:19:26Z</time>
      </trkpt>
      <trkpt lat="45.94208" lon="4.75271">
        <ele>171</ele>
        <time>2018-04-08T10:19:27Z</time>
      </trkpt>
      <trkpt lat="45.94209" lon="4.75261">
        <ele>172</ele>
        <time>2018-04-08T10:19:28Z</time>
      </trkpt>
      <trkpt lat="45.9421" lon="4.75254">
        <ele>172</ele>
        <time>2018-04-08T10:19:29Z</time>
      </trkpt>
      <trkpt lat="45.94211" lon="4.75247">
        <ele>171</ele>
        <time>2018-04-08T10:19:30Z</time>
      </trkpt>
      <trkpt lat="45.94213" lon="4.75239">
        <ele>171</ele>
        <time>2018-04-08T10:19:31Z</time>
      </trkpt>
      <trkpt lat="45.94215" lon="4.75231">
        <ele>171</ele>
        <time>2018-04-08T10:19:32Z</time>
      </trkpt>
      <trkpt lat="45.94218" lon="4.75222">
        <ele>171</ele>
        <time>2018-04-08T10:19:33Z</time>
      </trkpt>
      <trkpt lat="45.94219" lon="4.75213">
        <ele>171</ele>
        <time>2018-04-08T10:19:34Z</time>
      </trkpt>
      <trkpt lat="45.94221" lon="4.75202">
        <ele>171</ele>
        <time>2018-04-08T10:19:35Z</time>
      </trkpt>
      <trkpt lat="45.94223" lon="4.75193">
        <ele>171</ele>
        <time>2018-04-08T10:19:36Z</time>
      </trkpt>
      <trkpt lat="45.94224" lon="4.75186">
        <ele>171</ele>
        <time>2018-04-08T10:19:37Z</time>
      </trkpt>
      <trkpt lat="45.94226" lon="4.75176">
        <ele>171</ele>
        <time>2018-04-08T10:19:38Z</time>
      </trkpt>
      <trkpt lat="45.94228" lon="4.75168">
        <ele>171</ele>
        <time>2018-04-08T10:19:39Z</time>
      </trkpt>
      <trkpt lat="45.94231" lon="4.7516">
        <ele>171</ele>
        <time>2018-04-08T10:19:40Z</time>
      </trkpt>
      <trkpt lat="45.94234" lon="4.75151">
        <ele>171</ele>
        <time>2018-04-08T10:19:41Z</time>
      </trkpt>
      <trkpt lat="45.94236" lon="4.75144">
        <ele>171</ele>
        <time>2018-04-08T10:19:42Z</time>
      </trkpt>
      <trkpt lat="45.94237" lon="4.75136">
        <ele>171</ele>
        <time>2018-04-08T10:19:43Z</time>
      </trkpt>
      <trkpt lat="45.94239" lon="4.75128">
        <ele>171</ele>
        <time>2018-04-08T10:19:44Z</time>
      </trkpt>
      <trkpt lat="45.9424" lon="4.75121">
        <ele>172</ele>
        <time>2018-04-08T10:19:45Z</time>
      </trkpt>
      <trkpt lat="45.94242" lon="4.75114">
        <ele>172</ele>
        <time>2018-04-08T10:19:46Z</time>
      </trkpt>
      <trkpt lat="45.94244" lon="4.75107">
        <ele>172</ele>
        <time>2018-04-08T10:19:47Z</time>
      </trkpt>
      <trkpt lat="45.94246" lon="4.75099">
        <ele>172</ele>
        <time>2018-04-08T10:19:48Z</time>
      </trkpt>
      <trkpt lat="45.94248" lon="4.75092">
        <ele>172</ele>
        <time>2018-04-08T10:19:49Z</time>
      </trkpt>
      <trkpt lat="45.94251" lon="4.75085">
        <ele>173</ele>
        <time>2018-04-08T10:19:50Z</time>
      </trkpt>
      <trkpt lat="45.94252" lon="4.75076">
        <ele>173</ele>
        <time>2018-04-08T10:19:51Z</time>
      </trkpt>
      <trkpt lat="45.94254" lon="4.75068">
        <ele>174</ele>
        <time>2018-04-08T10:19:52Z</time>
      </trkpt>
      <trkpt lat="45.94256" lon="4.75061">
        <ele>174</ele>
        <time>2018-04-08T10:19:53Z</time>
      </trkpt>
      <trkpt lat="45.94259" lon="4.75053">
        <ele>174</ele>
        <time>2018-04-08T10:19:54Z</time>
      </trkpt>
      <trkpt lat="45.94261" lon="4.75046">
        <ele>174</ele>
        <time>2018-04-08T10:19:55Z</time>
      </trkpt>
      <trkpt lat="45.94263" lon="4.75038">
        <ele>174</ele>
        <time>2018-04-08T10:19:56Z</time>
      </trkpt>
      <trkpt lat="45.94265" lon="4.75031">
        <ele>174</ele>
        <time>2018-04-08T10:19:57Z</time>
      </trkpt>
      <trkpt lat="45.94266" lon="4.75024">
        <ele>174</ele>
        <time>2018-04-08T10:19:58Z</time>
      </trkpt>
      <trkpt lat="45.94268" lon="4.75017">
        <ele>174</ele>
        <time>2018-04-08T10:19:59Z</time>
      </trkpt>
      <trkpt lat="45.94271" lon="4.7501">
        <ele>174</ele>
        <time>2018-04-08T10:20:00Z</time>
      </trkpt>
      <trkpt lat="45.94272" lon="4.75003">
        <ele>174</ele>
        <time>2018-04-08T10:20:01Z</time>
      </trkpt>
      <trkpt lat="45.94274" lon="4.74992">
        <ele>175</ele>
        <time>2018-04-08T10:20:03Z</time>
      </trkpt>
      <trkpt lat="45.94274" lon="4.74989">
        <ele>175</ele>
        <time>2018-04-08T10:20:04Z</time>
      </trkpt>
      <trkpt lat="45.94279" lon="4.74977">
        <ele>175</ele>
        <time>2018-04-08T10:20:05Z</time>
      </trkpt>
      <trkpt lat="45.94282" lon="4.74969">
        <ele>175</ele>
        <time>2018-04-08T10:20:06Z</time>
      </trkpt>
      <trkpt lat="45.94283" lon="4.7496">
        <ele>175</ele>
        <time>2018-04-08T10:20:07Z</time>
      </trkpt>
      <trkpt lat="45.94287" lon="4.7495">
        <ele>175</ele>
        <time>2018-04-08T10:20:08Z</time>
      </trkpt>
      <trkpt lat="45.94289" lon="4.74941">
        <ele>175</ele>
        <time>2018-04-08T10:20:09Z</time>
      </trkpt>
      <trkpt lat="45.94291" lon="4.74931">
        <ele>175</ele>
        <time>2018-04-08T10:20:10Z</time>
      </trkpt>
      <trkpt lat="45.94293" lon="4.74922">
        <ele>175</ele>
        <time>2018-04-08T10:20:11Z</time>
      </trkpt>
      <trkpt lat="45.94295" lon="4.74912">
        <ele>174</ele>
        <time>2018-04-08T10:20:12Z</time>
      </trkpt>
      <trkpt lat="45.94298" lon="4.74903">
        <ele>174</ele>
        <time>2018-04-08T10:20:13Z</time>
      </trkpt>
      <trkpt lat="45.94301" lon="4.74895">
        <ele>174</ele>
        <time>2018-04-08T10:20:14Z</time>
      </trkpt>
      <trkpt lat="45.94303" lon="4.74887">
        <ele>174</ele>
        <time>2018-04-08T10:20:15Z</time>
      </trkpt>
      <trkpt lat="45.94305" lon="4.74879">
        <ele>174</ele>
        <time>2018-04-08T10:20:16Z</time>
      </trkpt>
      <trkpt lat="45.94308" lon="4.7487">
        <ele>174</ele>
        <time>2018-04-08T10:20:17Z</time>
      </trkpt>
      <trkpt lat="45.94309" lon="4.74863">
        <ele>174</ele>
        <time>2018-04-08T10:20:18Z</time>
      </trkpt>
      <trkpt lat="45.94311" lon="4.74855">
        <ele>174</ele>
        <time>2018-04-08T10:20:19Z</time>
      </trkpt>
      <trkpt lat="45.94313" lon="4.74849">
        <ele>174</ele>
        <time>2018-04-08T10:20:20Z</time>
      </trkpt>
      <trkpt lat="45.94315" lon="4.74842">
        <ele>174</ele>
        <time>2018-04-08T10:20:21Z</time>
      </trkpt>
      <trkpt lat="45.94317" lon="4.74834">
        <ele>174</ele>
        <time>2018-04-08T10:20:22Z</time>
      </trkpt>
      <trkpt lat="45.94319" lon="4.74827">
        <ele>173</ele>
        <time>2018-04-08T10:20:23Z</time>
      </trkpt>
      <trkpt lat="45.94321" lon="4.74819">
        <ele>172</ele>
        <time>2018-04-08T10:20:24Z</time>
      </trkpt>
      <trkpt lat="45.94323" lon="4.74811">
        <ele>172</ele>
        <time>2018-04-08T10:20:25Z</time>
      </trkpt>
      <trkpt lat="45.94324" lon="4.74803">
        <ele>172</ele>
        <time>2018-04-08T10:20:26Z</time>
      </trkpt>
      <trkpt lat="45.94327" lon="4.74795">
        <ele>172</ele>
        <time>2018-04-08T10:20:27Z</time>
      </trkpt>
      <trkpt lat="45.94328" lon="4.74787">
        <ele>172</ele>
        <time>2018-04-08T10:20:28Z</time>
      </trkpt>
      <trkpt lat="45.9433" lon="4.74779">
        <ele>171</ele>
        <time>2018-04-08T10:20:29Z</time>
      </trkpt>
      <trkpt lat="45.94332" lon="4.74771">
        <ele>171</ele>
        <time>2018-04-08T10:20:30Z</time>
      </trkpt>
      <trkpt lat="45.94334" lon="4.74763">
        <ele>172</ele>
        <time>2018-04-08T10:20:31Z</time>
      </trkpt>
      <trkpt lat="45.94335" lon="4.74756">
        <ele>172</ele>
        <time>2018-04-08T10:20:32Z</time>
      </trkpt>
      <trkpt lat="45.94337" lon="4.74748">
        <ele>171</ele>
        <time>2018-04-08T10:20:33Z</time>
      </trkpt>
      <trkpt lat="45.94338" lon="4.7474">
        <ele>171</ele>
        <time>2018-04-08T10:20:34Z</time>
      </trkpt>
      <trkpt lat="45.94339" lon="4.74731">
        <ele>171</ele>
        <time>2018-04-08T10:20:35Z</time>
      </trkpt>
      <trkpt lat="45.9434" lon="4.74724">
        <ele>171</ele>
        <time>2018-04-08T10:20:36Z</time>
      </trkpt>
      <trkpt lat="45.94341" lon="4.74717">
        <ele>171</ele>
        <time>2018-04-08T10:20:37Z</time>
      </trkpt>
      <trkpt lat="45.94342" lon="4.74709">
        <ele>171</ele>
        <time>2018-04-08T10:20:38Z</time>
      </trkpt>
      <trkpt lat="45.94343" lon="4.74702">
        <ele>172</ele>
        <time>2018-04-08T10:20:39Z</time>
      </trkpt>
      <trkpt lat="45.94344" lon="4.74694">
        <ele>172</ele>
        <time>2018-04-08T10:20:40Z</time>
      </trkpt>
      <trkpt lat="45.94345" lon="4.74686">
        <ele>172</ele>
        <time>2018-04-08T10:20:41Z</time>
      </trkpt>
      <trkpt lat="45.94346" lon="4.74677">
        <ele>172</ele>
        <time>2018-04-08T10:20:42Z</time>
      </trkpt>
      <trkpt lat="45.94347" lon="4.74668">
        <ele>172</ele>
        <time>2018-04-08T10:20:43Z</time>
      </trkpt>
      <trkpt lat="45.94348" lon="4.74662">
        <ele>172</ele>
        <time>2018-04-08T10:20:44Z</time>
      </trkpt>
      <trkpt lat="45.94349" lon="4.74655">
        <ele>172</ele>
        <time>2018-04-08T10:20:45Z</time>
      </trkpt>
      <trkpt lat="45.94349" lon="4.74647">
        <ele>171</ele>
        <time>2018-04-08T10:20:46Z</time>
      </trkpt>
      <trkpt lat="45.94349" lon="4.74639">
        <ele>171</ele>
        <time>2018-04-08T10:20:47Z</time>
      </trkpt>
      <trkpt lat="45.9435" lon="4.7463">
        <ele>171</ele>
        <time>2018-04-08T10:20:48Z</time>
      </trkpt>
      <trkpt lat="45.94351" lon="4.74622">
        <ele>171</ele>
        <time>2018-04-08T10:20:49Z</time>
      </trkpt>
      <trkpt lat="45.94353" lon="4.74616">
        <ele>171</ele>
        <time>2018-04-08T10:20:50Z</time>
      </trkpt>
      <trkpt lat="45.94354" lon="4.74609">
        <ele>171</ele>
        <time>2018-04-08T10:20:51Z</time>
      </trkpt>
      <trkpt lat="45.94355" lon="4.74601">
        <ele>171</ele>
        <time>2018-04-08T10:20:52Z</time>
      </trkpt>
      <trkpt lat="45.94355" lon="4.74593">
        <ele>171</ele>
        <time>2018-04-08T10:20:53Z</time>
      </trkpt>
      <trkpt lat="45.94356" lon="4.74583">
        <ele>171</ele>
        <time>2018-04-08T10:20:54Z</time>
      </trkpt>
      <trkpt lat="45.94357" lon="4.74575">
        <ele>171</ele>
        <time>2018-04-08T10:20:55Z</time>
      </trkpt>
      <trkpt lat="45.94358" lon="4.74569">
        <ele>171</ele>
        <time>2018-04-08T10:20:56Z</time>
      </trkpt>
      <trkpt lat="45.94358" lon="4.74561">
        <ele>171</ele>
        <time>2018-04-08T10:20:57Z</time>
      </trkpt>
      <trkpt lat="45.94359" lon="4.74555">
        <ele>171</ele>
        <time>2018-04-08T10:20:58Z</time>
      </trkpt>
      <trkpt lat="45.9436" lon="4.74547">
        <ele>171</ele>
        <time>2018-04-08T10:20:59Z</time>
      </trkpt>
      <trkpt lat="45.94361" lon="4.74538">
        <ele>171</ele>
        <time>2018-04-08T10:21:00Z</time>
      </trkpt>
      <trkpt lat="45.94361" lon="4.74529">
        <ele>171</ele>
        <time>2018-04-08T10:21:01Z</time>
      </trkpt>
      <trkpt lat="45.94361" lon="4.74522">
        <ele>171</ele>
        <time>2018-04-08T10:21:02Z</time>
      </trkpt>
      <trkpt lat="45.94362" lon="4.74513">
        <ele>171</ele>
        <time>2018-04-08T10:21:03Z</time>
      </trkpt>
      <trkpt lat="45.94362" lon="4.74506">
        <ele>171</ele>
        <time>2018-04-08T10:21:04Z</time>
      </trkpt>
      <trkpt lat="45.94363" lon="4.74496">
        <ele>170</ele>
        <time>2018-04-08T10:21:05Z</time>
      </trkpt>
      <trkpt lat="45.94364" lon="4.74488">
        <ele>170</ele>
        <time>2018-04-08T10:21:06Z</time>
      </trkpt>
      <trkpt lat="45.94364" lon="4.74479">
        <ele>171</ele>
        <time>2018-04-08T10:21:07Z</time>
      </trkpt>
      <trkpt lat="45.94365" lon="4.74472">
        <ele>171</ele>
        <time>2018-04-08T10:21:08Z</time>
      </trkpt>
      <trkpt lat="45.94366" lon="4.74464">
        <ele>171</ele>
        <time>2018-04-08T10:21:09Z</time>
      </trkpt>
      <trkpt lat="45.94367" lon="4.74457">
        <ele>171</ele>
        <time>2018-04-08T10:21:10Z</time>
      </trkpt>
      <trkpt lat="45.94368" lon="4.74449">
        <ele>171</ele>
        <time>2018-04-08T10:21:11Z</time>
      </trkpt>
      <trkpt lat="45.94369" lon="4.74439">
        <ele>171</ele>
        <time>2018-04-08T10:21:12Z</time>
      </trkpt>
      <trkpt lat="45.9437" lon="4.74429">
        <ele>171</ele>
        <time>2018-04-08T10:21:13Z</time>
      </trkpt>
      <trkpt lat="45.9437" lon="4.74421">
        <ele>171</ele>
        <time>2018-04-08T10:21:14Z</time>
      </trkpt>
      <trkpt lat="45.94371" lon="4.74413">
        <ele>170</ele>
        <time>2018-04-08T10:21:15Z</time>
      </trkpt>
      <trkpt lat="45.94372" lon="4.74405">
        <ele>170</ele>
        <time>2018-04-08T10:21:16Z</time>
      </trkpt>
      <trkpt lat="45.94373" lon="4.74397">
        <ele>170</ele>
        <time>2018-04-08T10:21:17Z</time>
      </trkpt>
      <trkpt lat="45.94374" lon="4.74389">
        <ele>170</ele>
        <time>2018-04-08T10:21:18Z</time>
      </trkpt>
      <trkpt lat="45.94375" lon="4.74381">
        <ele>171</ele>
        <time>2018-04-08T10:21:19Z</time>
      </trkpt>
      <trkpt lat="45.94376" lon="4.74373">
        <ele>171</ele>
        <time>2018-04-08T10:21:20Z</time>
      </trkpt>
      <trkpt lat="45.94376" lon="4.74365">
        <ele>171</ele>
        <time>2018-04-08T10:21:21Z</time>
      </trkpt>
      <trkpt lat="45.94377" lon="4.74357">
        <ele>171</ele>
        <time>2018-04-08T10:21:22Z</time>
      </trkpt>
      <trkpt lat="45.94379" lon="4.74348">
        <ele>171</ele>
        <time>2018-04-08T10:21:23Z</time>
      </trkpt>
      <trkpt lat="45.9438" lon="4.7434">
        <ele>171</ele>
        <time>2018-04-08T10:21:24Z</time>
      </trkpt>
      <trkpt lat="45.9438" lon="4.74332">
        <ele>170</ele>
        <time>2018-04-08T10:21:25Z</time>
      </trkpt>
      <trkpt lat="45.94381" lon="4.74323">
        <ele>170</ele>
        <time>2018-04-08T10:21:26Z</time>
      </trkpt>
      <trkpt lat="45.94381" lon="4.74316">
        <ele>170</ele>
        <time>2018-04-08T10:21:27Z</time>
      </trkpt>
      <trkpt lat="45.94382" lon="4.74309">
        <ele>170</ele>
        <time>2018-04-08T10:21:28Z</time>
      </trkpt>
      <trkpt lat="45.94383" lon="4.74302">
        <ele>170</ele>
        <time>2018-04-08T10:21:29Z</time>
      </trkpt>
      <trkpt lat="45.94384" lon="4.74294">
        <ele>170</ele>
        <time>2018-04-08T10:21:30Z</time>
      </trkpt>
      <trkpt lat="45.94385" lon="4.74287">
        <ele>170</ele>
        <time>2018-04-08T10:21:31Z</time>
      </trkpt>
      <trkpt lat="45.94387" lon="4.74279">
        <ele>170</ele>
        <time>2018-04-08T10:21:32Z</time>
      </trkpt>
      <trkpt lat="45.94389" lon="4.74272">
        <ele>170</ele>
        <time>2018-04-08T10:21:33Z</time>
      </trkpt>
      <trkpt lat="45.94391" lon="4.74265">
        <ele>170</ele>
        <time>2018-04-08T10:21:34Z</time>
      </trkpt>
      <trkpt lat="45.94392" lon="4.74258">
        <ele>170</ele>
        <time>2018-04-08T10:21:35Z</time>
      </trkpt>
      <trkpt lat="45.94394" lon="4.7425">
        <ele>171</ele>
        <time>2018-04-08T10:21:36Z</time>
      </trkpt>
      <trkpt lat="45.94395" lon="4.74243">
        <ele>171</ele>
        <time>2018-04-08T10:21:37Z</time>
      </trkpt>
      <trkpt lat="45.94397" lon="4.74236">
        <ele>171</ele>
        <time>2018-04-08T10:21:38Z</time>
      </trkpt>
      <trkpt lat="45.94397" lon="4.7423">
        <ele>171</ele>
        <time>2018-04-08T10:21:39Z</time>
      </trkpt>
      <trkpt lat="45.94399" lon="4.74223">
        <ele>171</ele>
        <time>2018-04-08T10:21:40Z</time>
      </trkpt>
      <trkpt lat="45.944" lon="4.74217">
        <ele>171</ele>
        <time>2018-04-08T10:21:41Z</time>
      </trkpt>
      <trkpt lat="45.94401" lon="4.74209">
        <ele>171</ele>
        <time>2018-04-08T10:21:42Z</time>
      </trkpt>
      <trkpt lat="45.94402" lon="4.74201">
        <ele>171</ele>
        <time>2018-04-08T10:21:43Z</time>
      </trkpt>
      <trkpt lat="45.94403" lon="4.74193">
        <ele>172</ele>
        <time>2018-04-08T10:21:44Z</time>
      </trkpt>
      <trkpt lat="45.94403" lon="4.74186">
        <ele>172</ele>
        <time>2018-04-08T10:21:45Z</time>
      </trkpt>
      <trkpt lat="45.94404" lon="4.74179">
        <ele>172</ele>
        <time>2018-04-08T10:21:46Z</time>
      </trkpt>
      <trkpt lat="45.94404" lon="4.74172">
        <ele>173</ele>
        <time>2018-04-08T10:21:47Z</time>
      </trkpt>
      <trkpt lat="45.94405" lon="4.74165">
        <ele>174</ele>
        <time>2018-04-08T10:21:48Z</time>
      </trkpt>
      <trkpt lat="45.94406" lon="4.74158">
        <ele>174</ele>
        <time>2018-04-08T10:21:49Z</time>
      </trkpt>
      <trkpt lat="45.94406" lon="4.74151">
        <ele>174</ele>
        <time>2018-04-08T10:21:50Z</time>
      </trkpt>
      <trkpt lat="45.94407" lon="4.74144">
        <ele>174</ele>
        <time>2018-04-08T10:21:51Z</time>
      </trkpt>
      <trkpt lat="45.94408" lon="4.74132">
        <ele>174</ele>
        <time>2018-04-08T10:21:53Z</time>
      </trkpt>
      <trkpt lat="45.94408" lon="4.7413">
        <ele>174</ele>
        <time>2018-04-08T10:21:54Z</time>
      </trkpt>
      <trkpt lat="45.9441" lon="4.7412">
        <ele>174</ele>
        <time>2018-04-08T10:21:56Z</time>
      </trkpt>
      <trkpt lat="45.94412" lon="4.74112">
        <ele>175</ele>
        <time>2018-04-08T10:21:57Z</time>
      </trkpt>
      <trkpt lat="45.94414" lon="4.74101">
        <ele>175</ele>
        <time>2018-04-08T10:21:59Z</time>
      </trkpt>
      <trkpt lat="45.94415" lon="4.74096">
        <ele>176</ele>
        <time>2018-04-08T10:22:00Z</time>
      </trkpt>
      <trkpt lat="45.94417" lon="4.74088">
        <ele>176</ele>
        <time>2018-04-08T10:22:02Z</time>
      </trkpt>
      <trkpt lat="45.94418" lon="4.74081">
        <ele>177</ele>
        <time>2018-04-08T10:22:03Z</time>
      </trkpt>
      <trkpt lat="45.9442" lon="4.74069">
        <ele>178</ele>
        <time>2018-04-08T10:22:05Z</time>
      </trkpt>
      <trkpt lat="45.94421" lon="4.74067">
        <ele>178</ele>
        <time>2018-04-08T10:22:06Z</time>
      </trkpt>
      <trkpt lat="45.94422" lon="4.74063">
        <ele>178</ele>
        <time>2018-04-08T10:22:07Z</time>
      </trkpt>
      <trkpt lat="45.94423" lon="4.74054">
        <ele>179</ele>
        <time>2018-04-08T10:22:08Z</time>
      </trkpt>
      <trkpt lat="45.94425" lon="4.74046">
        <ele>179</ele>
        <time>2018-04-08T10:22:10Z</time>
      </trkpt>
      <trkpt lat="45.94426" lon="4.74039">
        <ele>179</ele>
        <time>2018-04-08T10:22:11Z</time>
      </trkpt>
      <trkpt lat="45.94427" lon="4.74033">
        <ele>179</ele>
        <time>2018-04-08T10:22:13Z</time>
      </trkpt>
      <trkpt lat="45.94429" lon="4.74023">
        <ele>179</ele>
        <time>2018-04-08T10:22:14Z</time>
      </trkpt>
      <trkpt lat="45.94431" lon="4.74011">
        <ele>179</ele>
        <time>2018-04-08T10:22:17Z</time>
      </trkpt>
      <trkpt lat="45.94433" lon="4.74004">
        <ele>179</ele>
        <time>2018-04-08T10:22:18Z</time>
      </trkpt>
      <trkpt lat="45.94435" lon="4.73993">
        <ele>180</ele>
        <time>2018-04-08T10:22:21Z</time>
      </trkpt>
      <trkpt lat="45.94437" lon="4.73984">
        <ele>180</ele>
        <time>2018-04-08T10:22:22Z</time>
      </trkpt>
      <trkpt lat="45.94439" lon="4.73976">
        <ele>180</ele>
        <time>2018-04-08T10:22:24Z</time>
      </trkpt>
      <trkpt lat="45.9444" lon="4.73968">
        <ele>180</ele>
        <time>2018-04-08T10:22:25Z</time>
      </trkpt>
      <trkpt lat="45.94442" lon="4.73958">
        <ele>181</ele>
        <time>2018-04-08T10:22:27Z</time>
      </trkpt>
      <trkpt lat="45.94443" lon="4.73955">
        <ele>181</ele>
        <time>2018-04-08T10:22:28Z</time>
      </trkpt>
      <trkpt lat="45.94445" lon="4.73948">
        <ele>181</ele>
        <time>2018-04-08T10:22:29Z</time>
      </trkpt>
      <trkpt lat="45.94446" lon="4.73943">
        <ele>181</ele>
        <time>2018-04-08T10:22:30Z</time>
      </trkpt>
      <trkpt lat="45.94448" lon="4.73933">
        <ele>181</ele>
        <time>2018-04-08T10:22:32Z</time>
      </trkpt>
      <trkpt lat="45.94449" lon="4.73928">
        <ele>181</ele>
        <time>2018-04-08T10:22:33Z</time>
      </trkpt>
      <trkpt lat="45.9445" lon="4.73918">
        <ele>181</ele>
        <time>2018-04-08T10:22:35Z</time>
      </trkpt>
      <trkpt lat="45.94451" lon="4.73912">
        <ele>183</ele>
        <time>2018-04-08T10:22:36Z</time>
      </trkpt>
      <trkpt lat="45.94453" lon="4.73905">
        <ele>183</ele>
        <time>2018-04-08T10:22:38Z</time>
      </trkpt>
      <trkpt lat="45.94454" lon="4.73897">
        <ele>183</ele>
        <time>2018-04-08T10:22:39Z</time>
      </trkpt>
      <trkpt lat="45.94457" lon="4.73886">
        <ele>183</ele>
        <time>2018-04-08T10:22:41Z</time>
      </trkpt>
      <trkpt lat="45.94457" lon="4.73883">
        <ele>183</ele>
        <time>2018-04-08T10:22:42Z</time>
      </trkpt>
      <trkpt lat="45.94458" lon="4.73875">
        <ele>184</ele>
        <time>2018-04-08T10:22:43Z</time>
      </trkpt>
      <trkpt lat="45.94459" lon="4.73869">
        <ele>184</ele>
        <time>2018-04-08T10:22:44Z</time>
      </trkpt>
      <trkpt lat="45.9446" lon="4.73862">
        <ele>184</ele>
        <time>2018-04-08T10:22:45Z</time>
      </trkpt>
      <trkpt lat="45.94461" lon="4.73855">
        <ele>184</ele>
        <time>2018-04-08T10:22:46Z</time>
      </trkpt>
      <trkpt lat="45.94462" lon="4.73847">
        <ele>184</ele>
        <time>2018-04-08T10:22:47Z</time>
      </trkpt>
      <trkpt lat="45.94462" lon="4.7384">
        <ele>184</ele>
        <time>2018-04-08T10:22:48Z</time>
      </trkpt>
      <trkpt lat="45.94462" lon="4.73828">
        <ele>185</ele>
        <time>2018-04-08T10:22:50Z</time>
      </trkpt>
      <trkpt lat="45.94462" lon="4.73822">
        <ele>185</ele>
        <time>2018-04-08T10:22:51Z</time>
      </trkpt>
      <trkpt lat="45.94462" lon="4.73816">
        <ele>185</ele>
        <time>2018-04-08T10:22:52Z</time>
      </trkpt>
      <trkpt lat="45.94463" lon="4.73809">
        <ele>185</ele>
        <time>2018-04-08T10:22:53Z</time>
      </trkpt>
      <trkpt lat="45.94464" lon="4.73797">
        <ele>185</ele>
        <time>2018-04-08T10:22:55Z</time>
      </trkpt>
      <trkpt lat="45.94466" lon="4.73793">
        <ele>185</ele>
        <time>2018-04-08T10:22:56Z</time>
      </trkpt>
      <trkpt lat="45.94471" lon="4.73785">
        <ele>186</ele>
        <time>2018-04-08T10:22:58Z</time>
      </trkpt>
      <trkpt lat="45.94474" lon="4.73783">
        <ele>186</ele>
        <time>2018-04-08T10:22:59Z</time>
      </trkpt>
      <trkpt lat="45.94482" lon="4.73779">
        <ele>186</ele>
        <time>2018-04-08T10:23:01Z</time>
      </trkpt>
      <trkpt lat="45.94483" lon="4.73778">
        <ele>186</ele>
        <time>2018-04-08T10:23:02Z</time>
      </trkpt>
      <trkpt lat="45.94488" lon="4.73773">
        <ele>186</ele>
        <time>2018-04-08T10:23:03Z</time>
      </trkpt>
      <trkpt lat="45.94488" lon="4.73763">
        <ele>186</ele>
        <time>2018-04-08T10:23:04Z</time>
      </trkpt>
      <trkpt lat="45.94488" lon="4.73756">
        <ele>186</ele>
        <time>2018-04-08T10:23:05Z</time>
      </trkpt>
      <trkpt lat="45.94487" lon="4.73749">
        <ele>186</ele>
        <time>2018-04-08T10:23:06Z</time>
      </trkpt>
      <trkpt lat="45.94487" lon="4.73736">
        <ele>186</ele>
        <time>2018-04-08T10:23:08Z</time>
      </trkpt>
      <trkpt lat="45.94488" lon="4.7373">
        <ele>186</ele>
        <time>2018-04-08T10:23:09Z</time>
      </trkpt>
      <trkpt lat="45.94489" lon="4.73724">
        <ele>186</ele>
        <time>2018-04-08T10:23:10Z</time>
      </trkpt>
      <trkpt lat="45.9449" lon="4.73717">
        <ele>186</ele>
        <time>2018-04-08T10:23:11Z</time>
      </trkpt>
      <trkpt lat="45.94491" lon="4.73705">
        <ele>186</ele>
        <time>2018-04-08T10:23:13Z</time>
      </trkpt>
      <trkpt lat="45.94492" lon="4.73699">
        <ele>186</ele>
        <time>2018-04-08T10:23:14Z</time>
      </trkpt>
      <trkpt lat="45.94493" lon="4.73687">
        <ele>186</ele>
        <time>2018-04-08T10:23:16Z</time>
      </trkpt>
      <trkpt lat="45.94493" lon="4.7368">
        <ele>185</ele>
        <time>2018-04-08T10:23:17Z</time>
      </trkpt>
      <trkpt lat="45.94495" lon="4.73674">
        <ele>185</ele>
        <time>2018-04-08T10:23:18Z</time>
      </trkpt>
      <trkpt lat="45.94496" lon="4.73667">
        <ele>185</ele>
        <time>2018-04-08T10:23:19Z</time>
      </trkpt>
      <trkpt lat="45.94497" lon="4.73659">
        <ele>185</ele>
        <time>2018-04-08T10:23:20Z</time>
      </trkpt>
      <trkpt lat="45.94498" lon="4.73652">
        <ele>185</ele>
        <time>2018-04-08T10:23:21Z</time>
      </trkpt>
      <trkpt lat="45.94499" lon="4.73645">
        <ele>186</ele>
        <time>2018-04-08T10:23:22Z</time>
      </trkpt>
      <trkpt lat="45.945" lon="4.73638">
        <ele>186</ele>
        <time>2018-04-08T10:23:23Z</time>
      </trkpt>
      <trkpt lat="45.94501" lon="4.73631">
        <ele>184</ele>
        <time>2018-04-08T10:23:24Z</time>
      </trkpt>
      <trkpt lat="45.94502" lon="4.73624">
        <ele>184</ele>
        <time>2018-04-08T10:23:25Z</time>
      </trkpt>
      <trkpt lat="45.94502" lon="4.73617">
        <ele>184</ele>
        <time>2018-04-08T10:23:26Z</time>
      </trkpt>
      <trkpt lat="45.94503" lon="4.7361">
        <ele>184</ele>
        <time>2018-04-08T10:23:27Z</time>
      </trkpt>
      <trkpt lat="45.94503" lon="4.73602">
        <ele>184</ele>
        <time>2018-04-08T10:23:28Z</time>
      </trkpt>
      <trkpt lat="45.94504" lon="4.73594">
        <ele>184</ele>
        <time>2018-04-08T10:23:29Z</time>
      </trkpt>
      <trkpt lat="45.94505" lon="4.73587">
        <ele>185</ele>
        <time>2018-04-08T10:23:30Z</time>
      </trkpt>
      <trkpt lat="45.94505" lon="4.73578">
        <ele>184</ele>
        <time>2018-04-08T10:23:31Z</time>
      </trkpt>
      <trkpt lat="45.94505" lon="4.7357">
        <ele>184</ele>
        <time>2018-04-08T10:23:32Z</time>
      </trkpt>
      <trkpt lat="45.94505" lon="4.73562">
        <ele>184</ele>
        <time>2018-04-08T10:23:33Z</time>
      </trkpt>
      <trkpt lat="45.94505" lon="4.73553">
        <ele>183</ele>
        <time>2018-04-08T10:23:34Z</time>
      </trkpt>
      <trkpt lat="45.94506" lon="4.73542">
        <ele>183</ele>
        <time>2018-04-08T10:23:35Z</time>
      </trkpt>
      <trkpt lat="45.94505" lon="4.73532">
        <ele>183</ele>
        <time>2018-04-08T10:23:36Z</time>
      </trkpt>
      <trkpt lat="45.94506" lon="4.73523">
        <ele>183</ele>
        <time>2018-04-08T10:23:37Z</time>
      </trkpt>
      <trkpt lat="45.94505" lon="4.73513">
        <ele>183</ele>
        <time>2018-04-08T10:23:38Z</time>
      </trkpt>
      <trkpt lat="45.94505" lon="4.73504">
        <ele>183</ele>
        <time>2018-04-08T10:23:39Z</time>
      </trkpt>
      <trkpt lat="45.94505" lon="4.73494">
        <ele>182</ele>
        <time>2018-04-08T10:23:40Z</time>
      </trkpt>
      <trkpt lat="45.94506" lon="4.73484">
        <ele>182</ele>
        <time>2018-04-08T10:23:41Z</time>
      </trkpt>
      <trkpt lat="45.94506" lon="4.73473">
        <ele>182</ele>
        <time>2018-04-08T10:23:42Z</time>
      </trkpt>
      <trkpt lat="45.94506" lon="4.73463">
        <ele>181</ele>
        <time>2018-04-08T10:23:43Z</time>
      </trkpt>
      <trkpt lat="45.94506" lon="4.73453">
        <ele>181</ele>
        <time>2018-04-08T10:23:44Z</time>
      </trkpt>
      <trkpt lat="45.94505" lon="4.73443">
        <ele>181</ele>
        <time>2018-04-08T10:23:45Z</time>
      </trkpt>
      <trkpt lat="45.94504" lon="4.73433">
        <ele>181</ele>
        <time>2018-04-08T10:23:46Z</time>
      </trkpt>
      <trkpt lat="45.94504" lon="4.73423">
        <ele>180</ele>
        <time>2018-04-08T10:23:47Z</time>
      </trkpt>
      <trkpt lat="45.94503" lon="4.73412">
        <ele>180</ele>
        <time>2018-04-08T10:23:48Z</time>
      </trkpt>
      <trkpt lat="45.94502" lon="4.73402">
        <ele>179</ele>
        <time>2018-04-08T10:23:49Z</time>
      </trkpt>
      <trkpt lat="45.94502" lon="4.73392">
        <ele>179</ele>
        <time>2018-04-08T10:23:50Z</time>
      </trkpt>
      <trkpt lat="45.94501" lon="4.73381">
        <ele>179</ele>
        <time>2018-04-08T10:23:51Z</time>
      </trkpt>
      <trkpt lat="45.945" lon="4.73371">
        <ele>178</ele>
        <time>2018-04-08T10:23:52Z</time>
      </trkpt>
      <trkpt lat="45.94499" lon="4.73359">
        <ele>178</ele>
        <time>2018-04-08T10:23:53Z</time>
      </trkpt>
      <trkpt lat="45.94497" lon="4.73349">
        <ele>178</ele>
        <time>2018-04-08T10:23:54Z</time>
      </trkpt>
      <trkpt lat="45.94496" lon="4.73339">
        <ele>178</ele>
        <time>2018-04-08T10:23:55Z</time>
      </trkpt>
      <trkpt lat="45.94495" lon="4.73329">
        <ele>177</ele>
        <time>2018-04-08T10:23:56Z</time>
      </trkpt>
      <trkpt lat="45.94495" lon="4.73318">
        <ele>177</ele>
        <time>2018-04-08T10:23:57Z</time>
      </trkpt>
      <trkpt lat="45.94494" lon="4.73308">
        <ele>177</ele>
        <time>2018-04-08T10:23:58Z</time>
      </trkpt>
      <trkpt lat="45.94492" lon="4.73298">
        <ele>177</ele>
        <time>2018-04-08T10:23:59Z</time>
      </trkpt>
      <trkpt lat="45.94491" lon="4.73286">
        <ele>177</ele>
        <time>2018-04-08T10:24:00Z</time>
      </trkpt>
      <trkpt lat="45.94489" lon="4.73276">
        <ele>177</ele>
        <time>2018-04-08T10:24:01Z</time>
      </trkpt>
      <trkpt lat="45.94487" lon="4.73266">
        <ele>177</ele>
        <time>2018-04-08T10:24:02Z</time>
      </trkpt>
      <trkpt lat="45.94485" lon="4.73255">
        <ele>176</ele>
        <time>2018-04-08T10:24:03Z</time>
      </trkpt>
      <trkpt lat="45.94484" lon="4.73245">
        <ele>175</ele>
        <time>2018-04-08T10:24:04Z</time>
      </trkpt>
      <trkpt lat="45.94483" lon="4.73234">
        <ele>175</ele>
        <time>2018-04-08T10:24:05Z</time>
      </trkpt>
      <trkpt lat="45.94482" lon="4.73223">
        <ele>175</ele>
        <time>2018-04-08T10:24:06Z</time>
      </trkpt>
      <trkpt lat="45.94481" lon="4.73214">
        <ele>175</ele>
        <time>2018-04-08T10:24:07Z</time>
      </trkpt>
      <trkpt lat="45.94479" lon="4.73203">
        <ele>175</ele>
        <time>2018-04-08T10:24:08Z</time>
      </trkpt>
      <trkpt lat="45.94478" lon="4.73193">
        <ele>174</ele>
        <time>2018-04-08T10:24:09Z</time>
      </trkpt>
      <trkpt lat="45.94476" lon="4.73182">
        <ele>174</ele>
        <time>2018-04-08T10:24:10Z</time>
      </trkpt>
      <trkpt lat="45.94475" lon="4.73171">
        <ele>174</ele>
        <time>2018-04-08T10:24:11Z</time>
      </trkpt>
      <trkpt lat="45.94473" lon="4.73159">
        <ele>173</ele>
        <time>2018-04-08T10:24:12Z</time>
      </trkpt>
      <trkpt lat="45.94471" lon="4.73149">
        <ele>172</ele>
        <time>2018-04-08T10:24:13Z</time>
      </trkpt>
      <trkpt lat="45.9447" lon="4.73138">
        <ele>172</ele>
        <time>2018-04-08T10:24:14Z</time>
      </trkpt>
      <trkpt lat="45.94469" lon="4.73127">
        <ele>172</ele>
        <time>2018-04-08T10:24:15Z</time>
      </trkpt>
      <trkpt lat="45.94468" lon="4.73118">
        <ele>172</ele>
        <time>2018-04-08T10:24:16Z</time>
      </trkpt>
      <trkpt lat="45.94467" lon="4.73108">
        <ele>172</ele>
        <time>2018-04-08T10:24:17Z</time>
      </trkpt>
      <trkpt lat="45.94466" lon="4.73098">
        <ele>172</ele>
        <time>2018-04-08T10:24:18Z</time>
      </trkpt>
      <trkpt lat="45.94464" lon="4.73087">
        <ele>171</ele>
        <time>2018-04-08T10:24:19Z</time>
      </trkpt>
      <trkpt lat="45.94463" lon="4.73076">
        <ele>170</ele>
        <time>2018-04-08T10:24:20Z</time>
      </trkpt>
      <trkpt lat="45.94462" lon="4.73067">
        <ele>170</ele>
        <time>2018-04-08T10:24:21Z</time>
      </trkpt>
      <trkpt lat="45.9446" lon="4.73057">
        <ele>170</ele>
        <time>2018-04-08T10:24:22Z</time>
      </trkpt>
      <trkpt lat="45.94459" lon="4.73049">
        <ele>170</ele>
        <time>2018-04-08T10:24:23Z</time>
      </trkpt>
      <trkpt lat="45.94458" lon="4.7304">
        <ele>169</ele>
        <time>2018-04-08T10:24:24Z</time>
      </trkpt>
      <trkpt lat="45.94456" lon="4.73032">
        <ele>169</ele>
        <time>2018-04-08T10:24:25Z</time>
      </trkpt>
      <trkpt lat="45.94455" lon="4.73022">
        <ele>169</ele>
        <time>2018-04-08T10:24:26Z</time>
      </trkpt>
      <trkpt lat="45.94454" lon="4.73015">
        <ele>169</ele>
        <time>2018-04-08T10:24:27Z</time>
      </trkpt>
      <trkpt lat="45.94452" lon="4.73007">
        <ele>169</ele>
        <time>2018-04-08T10:24:28Z</time>
      </trkpt>
      <trkpt lat="45.94451" lon="4.73">
        <ele>167</ele>
        <time>2018-04-08T10:24:29Z</time>
      </trkpt>
      <trkpt lat="45.9445" lon="4.72992">
        <ele>167</ele>
        <time>2018-04-08T10:24:30Z</time>
      </trkpt>
      <trkpt lat="45.94449" lon="4.72984">
        <ele>167</ele>
        <time>2018-04-08T10:24:31Z</time>
      </trkpt>
      <trkpt lat="45.94448" lon="4.72978">
        <ele>167</ele>
        <time>2018-04-08T10:24:32Z</time>
      </trkpt>
      <trkpt lat="45.94447" lon="4.7297">
        <ele>167</ele>
        <time>2018-04-08T10:24:33Z</time>
      </trkpt>
      <trkpt lat="45.94447" lon="4.72963">
        <ele>167</ele>
        <time>2018-04-08T10:24:34Z</time>
      </trkpt>
      <trkpt lat="45.94446" lon="4.72955">
        <ele>167</ele>
        <time>2018-04-08T10:24:35Z</time>
      </trkpt>
      <trkpt lat="45.94444" lon="4.72948">
        <ele>167</ele>
        <time>2018-04-08T10:24:36Z</time>
      </trkpt>
      <trkpt lat="45.94443" lon="4.72941">
        <ele>167</ele>
        <time>2018-04-08T10:24:37Z</time>
      </trkpt>
      <trkpt lat="45.94443" lon="4.72934">
        <ele>167</ele>
        <time>2018-04-08T10:24:38Z</time>
      </trkpt>
      <trkpt lat="45.94442" lon="4.72927">
        <ele>167</ele>
        <time>2018-04-08T10:24:39Z</time>
      </trkpt>
      <trkpt lat="45.94441" lon="4.7292">
        <ele>167</ele>
        <time>2018-04-08T10:24:40Z</time>
      </trkpt>
      <trkpt lat="45.9444" lon="4.72913">
        <ele>166</ele>
        <time>2018-04-08T10:24:41Z</time>
      </trkpt>
      <trkpt lat="45.94439" lon="4.72905">
        <ele>166</ele>
        <time>2018-04-08T10:24:42Z</time>
      </trkpt>
      <trkpt lat="45.94438" lon="4.72897">
        <ele>166</ele>
        <time>2018-04-08T10:24:43Z</time>
      </trkpt>
      <trkpt lat="45.94437" lon="4.72889">
        <ele>166</ele>
        <time>2018-04-08T10:24:44Z</time>
      </trkpt>
      <trkpt lat="45.94436" lon="4.72881">
        <ele>166</ele>
        <time>2018-04-08T10:24:45Z</time>
      </trkpt>
      <trkpt lat="45.94435" lon="4.72874">
        <ele>166</ele>
        <time>2018-04-08T10:24:46Z</time>
      </trkpt>
      <trkpt lat="45.94434" lon="4.72865">
        <ele>166</ele>
        <time>2018-04-08T10:24:47Z</time>
      </trkpt>
      <trkpt lat="45.94433" lon="4.72857">
        <ele>166</ele>
        <time>2018-04-08T10:24:48Z</time>
      </trkpt>
      <trkpt lat="45.94432" lon="4.72849">
        <ele>166</ele>
        <time>2018-04-08T10:24:49Z</time>
      </trkpt>
      <trkpt lat="45.9443" lon="4.7284">
        <ele>166</ele>
        <time>2018-04-08T10:24:50Z</time>
      </trkpt>
      <trkpt lat="45.94429" lon="4.72831">
        <ele>167</ele>
        <time>2018-04-08T10:24:51Z</time>
      </trkpt>
      <trkpt lat="45.94428" lon="4.72823">
        <ele>167</ele>
        <time>2018-04-08T10:24:52Z</time>
      </trkpt>
      <trkpt lat="45.94427" lon="4.72814">
        <ele>167</ele>
        <time>2018-04-08T10:24:53Z</time>
      </trkpt>
      <trkpt lat="45.94426" lon="4.72804">
        <ele>167</ele>
        <time>2018-04-08T10:24:54Z</time>
      </trkpt>
      <trkpt lat="45.94425" lon="4.72794">
        <ele>168</ele>
        <time>2018-04-08T10:24:55Z</time>
      </trkpt>
      <trkpt lat="45.94423" lon="4.72785">
        <ele>168</ele>
        <time>2018-04-08T10:24:56Z</time>
      </trkpt>
      <trkpt lat="45.94421" lon="4.72775">
        <ele>169</ele>
        <time>2018-04-08T10:24:57Z</time>
      </trkpt>
      <trkpt lat="45.94421" lon="4.72765">
        <ele>169</ele>
        <time>2018-04-08T10:24:58Z</time>
      </trkpt>
      <trkpt lat="45.94419" lon="4.72755">
        <ele>170</ele>
        <time>2018-04-08T10:24:59Z</time>
      </trkpt>
      <trkpt lat="45.94417" lon="4.72746">
        <ele>171</ele>
        <time>2018-04-08T10:25:00Z</time>
      </trkpt>
      <trkpt lat="45.94416" lon="4.72737">
        <ele>171</ele>
        <time>2018-04-08T10:25:01Z</time>
      </trkpt>
      <trkpt lat="45.94415" lon="4.72728">
        <ele>172</ele>
        <time>2018-04-08T10:25:02Z</time>
      </trkpt>
      <trkpt lat="45.94413" lon="4.72718">
        <ele>172</ele>
        <time>2018-04-08T10:25:03Z</time>
      </trkpt>
      <trkpt lat="45.94413" lon="4.72708">
        <ele>172</ele>
        <time>2018-04-08T10:25:04Z</time>
      </trkpt>
      <trkpt lat="45.94411" lon="4.72699">
        <ele>172</ele>
        <time>2018-04-08T10:25:05Z</time>
      </trkpt>
      <trkpt lat="45.94411" lon="4.72692">
        <ele>173</ele>
        <time>2018-04-08T10:25:06Z</time>
      </trkpt>
      <trkpt lat="45.9441" lon="4.72683">
        <ele>173</ele>
        <time>2018-04-08T10:25:07Z</time>
      </trkpt>
      <trkpt lat="45.9441" lon="4.72674">
        <ele>173</ele>
        <time>2018-04-08T10:25:08Z</time>
      </trkpt>
      <trkpt lat="45.94408" lon="4.72666">
        <ele>174</ele>
        <time>2018-04-08T10:25:09Z</time>
      </trkpt>
      <trkpt lat="45.94408" lon="4.72655">
        <ele>174</ele>
        <time>2018-04-08T10:25:10Z</time>
      </trkpt>
      <trkpt lat="45.94407" lon="4.72645">
        <ele>174</ele>
        <time>2018-04-08T10:25:11Z</time>
      </trkpt>
      <trkpt lat="45.94406" lon="4.72636">
        <ele>174</ele>
        <time>2018-04-08T10:25:12Z</time>
      </trkpt>
      <trkpt lat="45.94405" lon="4.72626">
        <ele>174</ele>
        <time>2018-04-08T10:25:13Z</time>
      </trkpt>
      <trkpt lat="45.94404" lon="4.72618">
        <ele>173</ele>
        <time>2018-04-08T10:25:14Z</time>
      </trkpt>
      <trkpt lat="45.94403" lon="4.7261">
        <ele>173</ele>
        <time>2018-04-08T10:25:15Z</time>
      </trkpt>
      <trkpt lat="45.94402" lon="4.72601">
        <ele>173</ele>
        <time>2018-04-08T10:25:16Z</time>
      </trkpt>
      <trkpt lat="45.944" lon="4.72593">
        <ele>173</ele>
        <time>2018-04-08T10:25:17Z</time>
      </trkpt>
      <trkpt lat="45.94398" lon="4.72585">
        <ele>173</ele>
        <time>2018-04-08T10:25:18Z</time>
      </trkpt>
      <trkpt lat="45.94397" lon="4.72578">
        <ele>173</ele>
        <time>2018-04-08T10:25:19Z</time>
      </trkpt>
      <trkpt lat="45.94396" lon="4.7257">
        <ele>173</ele>
        <time>2018-04-08T10:25:20Z</time>
      </trkpt>
      <trkpt lat="45.94394" lon="4.72562">
        <ele>173</ele>
        <time>2018-04-08T10:25:21Z</time>
      </trkpt>
      <trkpt lat="45.94392" lon="4.72555">
        <ele>173</ele>
        <time>2018-04-08T10:25:22Z</time>
      </trkpt>
      <trkpt lat="45.9439" lon="4.72547">
        <ele>173</ele>
        <time>2018-04-08T10:25:23Z</time>
      </trkpt>
      <trkpt lat="45.94388" lon="4.7254">
        <ele>174</ele>
        <time>2018-04-08T10:25:24Z</time>
      </trkpt>
      <trkpt lat="45.94386" lon="4.72531">
        <ele>174</ele>
        <time>2018-04-08T10:25:25Z</time>
      </trkpt>
      <trkpt lat="45.94384" lon="4.72523">
        <ele>174</ele>
        <time>2018-04-08T10:25:26Z</time>
      </trkpt>
      <trkpt lat="45.94381" lon="4.72514">
        <ele>174</ele>
        <time>2018-04-08T10:25:27Z</time>
      </trkpt>
      <trkpt lat="45.94379" lon="4.72506">
        <ele>174</ele>
        <time>2018-04-08T10:25:28Z</time>
      </trkpt>
      <trkpt lat="45.94376" lon="4.72498">
        <ele>173</ele>
        <time>2018-04-08T10:25:29Z</time>
      </trkpt>
      <trkpt lat="45.94372" lon="4.72487">
        <ele>173</ele>
        <time>2018-04-08T10:25:30Z</time>
      </trkpt>
      <trkpt lat="45.94369" lon="4.7248">
        <ele>173</ele>
        <time>2018-04-08T10:25:31Z</time>
      </trkpt>
      <trkpt lat="45.94366" lon="4.72473">
        <ele>173</ele>
        <time>2018-04-08T10:25:32Z</time>
      </trkpt>
      <trkpt lat="45.94363" lon="4.72465">
        <ele>173</ele>
        <time>2018-04-08T10:25:33Z</time>
      </trkpt>
      <trkpt lat="45.9436" lon="4.72457">
        <ele>173</ele>
        <time>2018-04-08T10:25:34Z</time>
      </trkpt>
      <trkpt lat="45.94357" lon="4.72449">
        <ele>173</ele>
        <time>2018-04-08T10:25:35Z</time>
      </trkpt>
      <trkpt lat="45.94353" lon="4.7244">
        <ele>173</ele>
        <time>2018-04-08T10:25:36Z</time>
      </trkpt>
      <trkpt lat="45.94349" lon="4.72432">
        <ele>173</ele>
        <time>2018-04-08T10:25:37Z</time>
      </trkpt>
      <trkpt lat="45.94345" lon="4.72424">
        <ele>173</ele>
        <time>2018-04-08T10:25:38Z</time>
      </trkpt>
      <trkpt lat="45.94342" lon="4.72416">
        <ele>173</ele>
        <time>2018-04-08T10:25:39Z</time>
      </trkpt>
      <trkpt lat="45.94338" lon="4.72409">
        <ele>173</ele>
        <time>2018-04-08T10:25:40Z</time>
      </trkpt>
      <trkpt lat="45.94335" lon="4.72402">
        <ele>173</ele>
        <time>2018-04-08T10:25:41Z</time>
      </trkpt>
      <trkpt lat="45.94331" lon="4.72394">
        <ele>172</ele>
        <time>2018-04-08T10:25:42Z</time>
      </trkpt>
      <trkpt lat="45.94328" lon="4.72386">
        <ele>172</ele>
        <time>2018-04-08T10:25:43Z</time>
      </trkpt>
      <trkpt lat="45.94324" lon="4.72378">
        <ele>172</ele>
        <time>2018-04-08T10:25:44Z</time>
      </trkpt>
      <trkpt lat="45.9432" lon="4.7237">
        <ele>172</ele>
        <time>2018-04-08T10:25:45Z</time>
      </trkpt>
      <trkpt lat="45.94316" lon="4.72363">
        <ele>172</ele>
        <time>2018-04-08T10:25:46Z</time>
      </trkpt>
      <trkpt lat="45.94312" lon="4.72355">
        <ele>172</ele>
        <time>2018-04-08T10:25:47Z</time>
      </trkpt>
      <trkpt lat="45.94309" lon="4.72347">
        <ele>172</ele>
        <time>2018-04-08T10:25:48Z</time>
      </trkpt>
      <trkpt lat="45.94305" lon="4.72339">
        <ele>172</ele>
        <time>2018-04-08T10:25:49Z</time>
      </trkpt>
      <trkpt lat="45.94302" lon="4.72332">
        <ele>171</ele>
        <time>2018-04-08T10:25:50Z</time>
      </trkpt>
      <trkpt lat="45.94298" lon="4.72323">
        <ele>171</ele>
        <time>2018-04-08T10:25:51Z</time>
      </trkpt>
      <trkpt lat="45.94295" lon="4.72315">
        <ele>171</ele>
        <time>2018-04-08T10:25:52Z</time>
      </trkpt>
      <trkpt lat="45.94292" lon="4.72308">
        <ele>171</ele>
        <time>2018-04-08T10:25:53Z</time>
      </trkpt>
      <trkpt lat="45.94289" lon="4.723">
        <ele>171</ele>
        <time>2018-04-08T10:25:54Z</time>
      </trkpt>
      <trkpt lat="45.94286" lon="4.72293">
        <ele>171</ele>
        <time>2018-04-08T10:25:55Z</time>
      </trkpt>
      <trkpt lat="45.94283" lon="4.72286">
        <ele>171</ele>
        <time>2018-04-08T10:25:56Z</time>
      </trkpt>
      <trkpt lat="45.9428" lon="4.7228">
        <ele>171</ele>
        <time>2018-04-08T10:25:57Z</time>
      </trkpt>
      <trkpt lat="45.94273" lon="4.72274">
        <ele>171</ele>
        <time>2018-04-08T10:25:59Z</time>
      </trkpt>
      <trkpt lat="45.94267" lon="4.72274">
        <ele>171</ele>
        <time>2018-04-08T10:26:00Z</time>
      </trkpt>
      <trkpt lat="45.94262" lon="4.72275">
        <ele>171</ele>
        <time>2018-04-08T10:26:01Z</time>
      </trkpt>
      <trkpt lat="45.94258" lon="4.72277">
        <ele>171</ele>
        <time>2018-04-08T10:26:02Z</time>
      </trkpt>
      <trkpt lat="45.94253" lon="4.72279">
        <ele>171</ele>
        <time>2018-04-08T10:26:03Z</time>
      </trkpt>
      <trkpt lat="45.94248" lon="4.7228">
        <ele>171</ele>
        <time>2018-04-08T10:26:04Z</time>
      </trkpt>
      <trkpt lat="45.94243" lon="4.72282">
        <ele>171</ele>
        <time>2018-04-08T10:26:05Z</time>
      </trkpt>
      <trkpt lat="45.94238" lon="4.72281">
        <ele>171</ele>
        <time>2018-04-08T10:26:06Z</time>
      </trkpt>
      <trkpt lat="45.94233" lon="4.72283">
        <ele>171</ele>
        <time>2018-04-08T10:26:07Z</time>
      </trkpt>
      <trkpt lat="45.94228" lon="4.72285">
        <ele>171</ele>
        <time>2018-04-08T10:26:08Z</time>
      </trkpt>
      <trkpt lat="45.94221" lon="4.72285">
        <ele>171</ele>
        <time>2018-04-08T10:26:09Z</time>
      </trkpt>
      <trkpt lat="45.94216" lon="4.72288">
        <ele>171</ele>
        <time>2018-04-08T10:26:10Z</time>
      </trkpt>
      <trkpt lat="45.9421" lon="4.72289">
        <ele>171</ele>
        <time>2018-04-08T10:26:11Z</time>
      </trkpt>
      <trkpt lat="45.94205" lon="4.72289">
        <ele>171</ele>
        <time>2018-04-08T10:26:12Z</time>
      </trkpt>
      <trkpt lat="45.942" lon="4.72289">
        <ele>171</ele>
        <time>2018-04-08T10:26:13Z</time>
      </trkpt>
      <trkpt lat="45.94195" lon="4.7229">
        <ele>171</ele>
        <time>2018-04-08T10:26:14Z</time>
      </trkpt>
      <trkpt lat="45.9419" lon="4.7229">
        <ele>171</ele>
        <time>2018-04-08T10:26:15Z</time>
      </trkpt>
      <trkpt lat="45.94184" lon="4.72289">
        <ele>171</ele>
        <time>2018-04-08T10:26:16Z</time>
      </trkpt>
      <trkpt lat="45.94178" lon="4.72289">
        <ele>171</ele>
        <time>2018-04-08T10:26:17Z</time>
      </trkpt>
      <trkpt lat="45.94172" lon="4.72289">
        <ele>171</ele>
        <time>2018-04-08T10:26:18Z</time>
      </trkpt>
      <trkpt lat="45.94166" lon="4.7229">
        <ele>171</ele>
        <time>2018-04-08T10:26:19Z</time>
      </trkpt>
      <trkpt lat="45.94161" lon="4.72289">
        <ele>171</ele>
        <time>2018-04-08T10:26:20Z</time>
      </trkpt>
      <trkpt lat="45.94156" lon="4.72289">
        <ele>171</ele>
        <time>2018-04-08T10:26:21Z</time>
      </trkpt>
      <trkpt lat="45.94151" lon="4.72288">
        <ele>171</ele>
        <time>2018-04-08T10:26:22Z</time>
      </trkpt>
      <trkpt lat="45.94145" lon="4.72286">
        <ele>171</ele>
        <time>2018-04-08T10:26:23Z</time>
      </trkpt>
      <trkpt lat="45.9414" lon="4.72283">
        <ele>171</ele>
        <time>2018-04-08T10:26:24Z</time>
      </trkpt>
      <trkpt lat="45.94135" lon="4.7228">
        <ele>171</ele>
        <time>2018-04-08T10:26:25Z</time>
      </trkpt>
      <trkpt lat="45.9413" lon="4.72277">
        <ele>171</ele>
        <time>2018-04-08T10:26:26Z</time>
      </trkpt>
      <trkpt lat="45.94125" lon="4.72275">
        <ele>171</ele>
        <time>2018-04-08T10:26:27Z</time>
      </trkpt>
      <trkpt lat="45.94119" lon="4.72271">
        <ele>171</ele>
        <time>2018-04-08T10:26:28Z</time>
      </trkpt>
      <trkpt lat="45.94114" lon="4.7227">
        <ele>171</ele>
        <time>2018-04-08T10:26:29Z</time>
      </trkpt>
      <trkpt lat="45.94109" lon="4.72268">
        <ele>171</ele>
        <time>2018-04-08T10:26:30Z</time>
      </trkpt>
      <trkpt lat="45.94104" lon="4.72267">
        <ele>171</ele>
        <time>2018-04-08T10:26:31Z</time>
      </trkpt>
      <trkpt lat="45.94099" lon="4.72267">
        <ele>171</ele>
        <time>2018-04-08T10:26:32Z</time>
      </trkpt>
      <trkpt lat="45.94094" lon="4.72266">
        <ele>171</ele>
        <time>2018-04-08T10:26:33Z</time>
      </trkpt>
      <trkpt lat="45.94089" lon="4.72268">
        <ele>171</ele>
        <time>2018-04-08T10:26:34Z</time>
      </trkpt>
      <trkpt lat="45.94083" lon="4.72268">
        <ele>171</ele>
        <time>2018-04-08T10:26:35Z</time>
      </trkpt>
      <trkpt lat="45.94078" lon="4.7227">
        <ele>171</ele>
        <time>2018-04-08T10:26:36Z</time>
      </trkpt>
      <trkpt lat="45.94073" lon="4.72273">
        <ele>171</ele>
        <time>2018-04-08T10:26:37Z</time>
      </trkpt>
      <trkpt lat="45.94068" lon="4.72277">
        <ele>171</ele>
        <time>2018-04-08T10:26:38Z</time>
      </trkpt>
      <trkpt lat="45.94063" lon="4.72281">
        <ele>171</ele>
        <time>2018-04-08T10:26:39Z</time>
      </trkpt>
      <trkpt lat="45.94057" lon="4.72288">
        <ele>171</ele>
        <time>2018-04-08T10:26:40Z</time>
      </trkpt>
      <trkpt lat="45.94052" lon="4.72293">
        <ele>171</ele>
        <time>2018-04-08T10:26:41Z</time>
      </trkpt>
      <trkpt lat="45.94048" lon="4.72299">
        <ele>171</ele>
        <time>2018-04-08T10:26:42Z</time>
      </trkpt>
      <trkpt lat="45.94045" lon="4.72306">
        <ele>171</ele>
        <time>2018-04-08T10:26:43Z</time>
      </trkpt>
      <trkpt lat="45.94041" lon="4.72311">
        <ele>171</ele>
        <time>2018-04-08T10:26:44Z</time>
      </trkpt>
      <trkpt lat="45.94036" lon="4.72316">
        <ele>171</ele>
        <time>2018-04-08T10:26:45Z</time>
      </trkpt>
      <trkpt lat="45.94032" lon="4.72322">
        <ele>171</ele>
        <time>2018-04-08T10:26:46Z</time>
      </trkpt>
      <trkpt lat="45.94029" lon="4.72327">
        <ele>171</ele>
        <time>2018-04-08T10:26:47Z</time>
      </trkpt>
      <trkpt lat="45.94024" lon="4.72333">
        <ele>171</ele>
        <time>2018-04-08T10:26:48Z</time>
      </trkpt>
      <trkpt lat="45.9402" lon="4.72337">
        <ele>171</ele>
        <time>2018-04-08T10:26:49Z</time>
      </trkpt>
      <trkpt lat="45.94016" lon="4.72342">
        <ele>171</ele>
        <time>2018-04-08T10:26:50Z</time>
      </trkpt>
      <trkpt lat="45.94011" lon="4.72346">
        <ele>171</ele>
        <time>2018-04-08T10:26:51Z</time>
      </trkpt>
      <trkpt lat="45.94007" lon="4.72351">
        <ele>171</ele>
        <time>2018-04-08T10:26:52Z</time>
      </trkpt>
      <trkpt lat="45.94003" lon="4.72357">
        <ele>171</ele>
        <time>2018-04-08T10:26:53Z</time>
      </trkpt>
      <trkpt lat="45.93999" lon="4.72363">
        <ele>171</ele>
        <time>2018-04-08T10:26:54Z</time>
      </trkpt>
      <trkpt lat="45.93994" lon="4.72369">
        <ele>171</ele>
        <time>2018-04-08T10:26:55Z</time>
      </trkpt>
      <trkpt lat="45.9399" lon="4.72376">
        <ele>171</ele>
        <time>2018-04-08T10:26:56Z</time>
      </trkpt>
      <trkpt lat="45.93985" lon="4.72382">
        <ele>171</ele>
        <time>2018-04-08T10:26:57Z</time>
      </trkpt>
      <trkpt lat="45.9398" lon="4.72387">
        <ele>171</ele>
        <time>2018-04-08T10:26:58Z</time>
      </trkpt>
      <trkpt lat="45.93976" lon="4.72392">
        <ele>171</ele>
        <time>2018-04-08T10:26:59Z</time>
      </trkpt>
      <trkpt lat="45.93971" lon="4.72397">
        <ele>171</ele>
        <time>2018-04-08T10:27:00Z</time>
      </trkpt>
      <trkpt lat="45.93966" lon="4.72403">
        <ele>171</ele>
        <time>2018-04-08T10:27:01Z</time>
      </trkpt>
      <trkpt lat="45.93962" lon="4.72409">
        <ele>171</ele>
        <time>2018-04-08T10:27:02Z</time>
      </trkpt>
      <trkpt lat="45.93959" lon="4.72415">
        <ele>171</ele>
        <time>2018-04-08T10:27:03Z</time>
      </trkpt>
      <trkpt lat="45.93954" lon="4.7242">
        <ele>171</ele>
        <time>2018-04-08T10:27:04Z</time>
      </trkpt>
      <trkpt lat="45.9395" lon="4.72426">
        <ele>171</ele>
        <time>2018-04-08T10:27:05Z</time>
      </trkpt>
      <trkpt lat="45.93946" lon="4.72432">
        <ele>171</ele>
        <time>2018-04-08T10:27:06Z</time>
      </trkpt>
      <trkpt lat="45.93942" lon="4.72438">
        <ele>171</ele>
        <time>2018-04-08T10:27:07Z</time>
      </trkpt>
      <trkpt lat="45.93938" lon="4.72443">
        <ele>171</ele>
        <time>2018-04-08T10:27:08Z</time>
      </trkpt>
      <trkpt lat="45.93934" lon="4.72448">
        <ele>171</ele>
        <time>2018-04-08T10:27:09Z</time>
      </trkpt>
      <trkpt lat="45.9393" lon="4.72453">
        <ele>171</ele>
        <time>2018-04-08T10:27:10Z</time>
      </trkpt>
      <trkpt lat="45.93926" lon="4.72458">
        <ele>171</ele>
        <time>2018-04-08T10:27:11Z</time>
      </trkpt>
      <trkpt lat="45.93922" lon="4.72462">
        <ele>171</ele>
        <time>2018-04-08T10:27:12Z</time>
      </trkpt>
      <trkpt lat="45.93918" lon="4.72466">
        <ele>171</ele>
        <time>2018-04-08T10:27:13Z</time>
      </trkpt>
      <trkpt lat="45.93914" lon="4.7247">
        <ele>172</ele>
        <time>2018-04-08T10:27:14Z</time>
      </trkpt>
      <trkpt lat="45.93911" lon="4.72475">
        <ele>172</ele>
        <time>2018-04-08T10:27:15Z</time>
      </trkpt>
      <trkpt lat="45.93907" lon="4.72479">
        <ele>172</ele>
        <time>2018-04-08T10:27:16Z</time>
      </trkpt>
      <trkpt lat="45.93903" lon="4.72485">
        <ele>172</ele>
        <time>2018-04-08T10:27:17Z</time>
      </trkpt>
      <trkpt lat="45.93899" lon="4.72491">
        <ele>172</ele>
        <time>2018-04-08T10:27:18Z</time>
      </trkpt>
      <trkpt lat="45.93895" lon="4.72495">
        <ele>172</ele>
        <time>2018-04-08T10:27:19Z</time>
      </trkpt>
      <trkpt lat="45.9389" lon="4.725">
        <ele>172</ele>
        <time>2018-04-08T10:27:20Z</time>
      </trkpt>
      <trkpt lat="45.93887" lon="4.72504">
        <ele>173</ele>
        <time>2018-04-08T10:27:21Z</time>
      </trkpt>
      <trkpt lat="45.93882" lon="4.72508">
        <ele>173</ele>
        <time>2018-04-08T10:27:22Z</time>
      </trkpt>
      <trkpt lat="45.93879" lon="4.72512">
        <ele>173</ele>
        <time>2018-04-08T10:27:23Z</time>
      </trkpt>
      <trkpt lat="45.93874" lon="4.72514">
        <ele>173</ele>
        <time>2018-04-08T10:27:24Z</time>
      </trkpt>
      <trkpt lat="45.93866" lon="4.72516">
        <ele>173</ele>
        <time>2018-04-08T10:27:26Z</time>
      </trkpt>
      <trkpt lat="45.93862" lon="4.72514">
        <ele>173</ele>
        <time>2018-04-08T10:27:27Z</time>
      </trkpt>
      <trkpt lat="45.93854" lon="4.72508">
        <ele>173</ele>
        <time>2018-04-08T10:27:29Z</time>
      </trkpt>
      <trkpt lat="45.93851" lon="4.72506">
        <ele>174</ele>
        <time>2018-04-08T10:27:30Z</time>
      </trkpt>
      <trkpt lat="45.93847" lon="4.72502">
        <ele>174</ele>
        <time>2018-04-08T10:27:32Z</time>
      </trkpt>
      <trkpt lat="45.93841" lon="4.72499">
        <ele>173</ele>
        <time>2018-04-08T10:27:33Z</time>
      </trkpt>
      <trkpt lat="45.9384" lon="4.72499">
        <ele>174</ele>
        <time>2018-04-08T10:27:34Z</time>
      </trkpt>
      <trkpt lat="45.93831" lon="4.72476">
        <ele>173</ele>
        <time>2018-04-08T10:27:35Z</time>
      </trkpt>
      <trkpt lat="45.93826" lon="4.72471">
        <ele>172</ele>
        <time>2018-04-08T10:27:36Z</time>
      </trkpt>
      <trkpt lat="45.9382" lon="4.72472">
        <ele>172</ele>
        <time>2018-04-08T10:27:37Z</time>
      </trkpt>
      <trkpt lat="45.93815" lon="4.7247">
        <ele>172</ele>
        <time>2018-04-08T10:27:38Z</time>
      </trkpt>
      <trkpt lat="45.93808" lon="4.72467">
        <ele>172</ele>
        <time>2018-04-08T10:27:39Z</time>
      </trkpt>
      <trkpt lat="45.93804" lon="4.72462">
        <ele>172</ele>
        <time>2018-04-08T10:27:40Z</time>
      </trkpt>
      <trkpt lat="45.93798" lon="4.72461">
        <ele>172</ele>
        <time>2018-04-08T10:27:41Z</time>
      </trkpt>
      <trkpt lat="45.93791" lon="4.72454">
        <ele>172</ele>
        <time>2018-04-08T10:27:43Z</time>
      </trkpt>
      <trkpt lat="45.93787" lon="4.72448">
        <ele>172</ele>
        <time>2018-04-08T10:27:44Z</time>
      </trkpt>
      <trkpt lat="45.93783" lon="4.72443">
        <ele>172</ele>
        <time>2018-04-08T10:27:45Z</time>
      </trkpt>
      <trkpt lat="45.93779" lon="4.72439">
        <ele>172</ele>
        <time>2018-04-08T10:27:46Z</time>
      </trkpt>
      <trkpt lat="45.93773" lon="4.72431">
        <ele>171</ele>
        <time>2018-04-08T10:27:48Z</time>
      </trkpt>
      <trkpt lat="45.93768" lon="4.72425">
        <ele>171</ele>
        <time>2018-04-08T10:27:49Z</time>
      </trkpt>
      <trkpt lat="45.93762" lon="4.7242">
        <ele>171</ele>
        <time>2018-04-08T10:27:50Z</time>
      </trkpt>
      <trkpt lat="45.93759" lon="4.72415">
        <ele>171</ele>
        <time>2018-04-08T10:27:51Z</time>
      </trkpt>
      <trkpt lat="45.93754" lon="4.7241">
        <ele>171</ele>
        <time>2018-04-08T10:27:52Z</time>
      </trkpt>
      <trkpt lat="45.9375" lon="4.72405">
        <ele>171</ele>
        <time>2018-04-08T10:27:53Z</time>
      </trkpt>
      <trkpt lat="45.93743" lon="4.72398">
        <ele>171</ele>
        <time>2018-04-08T10:27:55Z</time>
      </trkpt>
      <trkpt lat="45.93738" lon="4.72394">
        <ele>171</ele>
        <time>2018-04-08T10:27:56Z</time>
      </trkpt>
      <trkpt lat="45.93734" lon="4.7239">
        <ele>171</ele>
        <time>2018-04-08T10:27:57Z</time>
      </trkpt>
      <trkpt lat="45.9373" lon="4.72386">
        <ele>171</ele>
        <time>2018-04-08T10:27:58Z</time>
      </trkpt>
      <trkpt lat="45.93726" lon="4.72383">
        <ele>171</ele>
        <time>2018-04-08T10:27:59Z</time>
      </trkpt>
      <trkpt lat="45.93722" lon="4.72378">
        <ele>171</ele>
        <time>2018-04-08T10:28:00Z</time>
      </trkpt>
      <trkpt lat="45.93718" lon="4.72375">
        <ele>172</ele>
        <time>2018-04-08T10:28:01Z</time>
      </trkpt>
      <trkpt lat="45.93714" lon="4.72372">
        <ele>172</ele>
        <time>2018-04-08T10:28:02Z</time>
      </trkpt>
      <trkpt lat="45.93709" lon="4.72368">
        <ele>172</ele>
        <time>2018-04-08T10:28:03Z</time>
      </trkpt>
      <trkpt lat="45.93705" lon="4.72364">
        <ele>171</ele>
        <time>2018-04-08T10:28:04Z</time>
      </trkpt>
      <trkpt lat="45.93701" lon="4.7236">
        <ele>171</ele>
        <time>2018-04-08T10:28:05Z</time>
      </trkpt>
      <trkpt lat="45.93697" lon="4.72356">
        <ele>171</ele>
        <time>2018-04-08T10:28:06Z</time>
      </trkpt>
      <trkpt lat="45.93693" lon="4.72351">
        <ele>171</ele>
        <time>2018-04-08T10:28:07Z</time>
      </trkpt>
      <trkpt lat="45.93689" lon="4.72349">
        <ele>171</ele>
        <time>2018-04-08T10:28:08Z</time>
      </trkpt>
      <trkpt lat="45.93684" lon="4.72342">
        <ele>171</ele>
        <time>2018-04-08T10:28:10Z</time>
      </trkpt>
      <trkpt lat="45.93679" lon="4.72339">
        <ele>171</ele>
        <time>2018-04-08T10:28:11Z</time>
      </trkpt>
      <trkpt lat="45.93675" lon="4.72336">
        <ele>171</ele>
        <time>2018-04-08T10:28:12Z</time>
      </trkpt>
      <trkpt lat="45.93671" lon="4.72332">
        <ele>171</ele>
        <time>2018-04-08T10:28:13Z</time>
      </trkpt>
      <trkpt lat="45.93663" lon="4.72325">
        <ele>171</ele>
        <time>2018-04-08T10:28:15Z</time>
      </trkpt>
      <trkpt lat="45.93659" lon="4.7232">
        <ele>172</ele>
        <time>2018-04-08T10:28:16Z</time>
      </trkpt>
      <trkpt lat="45.93655" lon="4.72317">
        <ele>172</ele>
        <time>2018-04-08T10:28:17Z</time>
      </trkpt>
      <trkpt lat="45.93651" lon="4.72313">
        <ele>172</ele>
        <time>2018-04-08T10:28:18Z</time>
      </trkpt>
      <trkpt lat="45.93646" lon="4.72309">
        <ele>172</ele>
        <time>2018-04-08T10:28:19Z</time>
      </trkpt>
      <trkpt lat="45.93643" lon="4.72304">
        <ele>172</ele>
        <time>2018-04-08T10:28:20Z</time>
      </trkpt>
      <trkpt lat="45.93639" lon="4.72299">
        <ele>172</ele>
        <time>2018-04-08T10:28:21Z</time>
      </trkpt>
      <trkpt lat="45.93636" lon="4.72293">
        <ele>172</ele>
        <time>2018-04-08T10:28:22Z</time>
      </trkpt>
      <trkpt lat="45.93633" lon="4.72289">
        <ele>172</ele>
        <time>2018-04-08T10:28:23Z</time>
      </trkpt>
      <trkpt lat="45.93629" lon="4.72285">
        <ele>172</ele>
        <time>2018-04-08T10:28:24Z</time>
      </trkpt>
      <trkpt lat="45.93622" lon="4.72278">
        <ele>172</ele>
        <time>2018-04-08T10:28:26Z</time>
      </trkpt>
      <trkpt lat="45.93618" lon="4.72275">
        <ele>172</ele>
        <time>2018-04-08T10:28:27Z</time>
      </trkpt>
      <trkpt lat="45.9361" lon="4.72267">
        <ele>172</ele>
        <time>2018-04-08T10:28:29Z</time>
      </trkpt>
      <trkpt lat="45.93607" lon="4.72264">
        <ele>173</ele>
        <time>2018-04-08T10:28:30Z</time>
      </trkpt>
      <trkpt lat="45.93601" lon="4.72256">
        <ele>173</ele>
        <time>2018-04-08T10:28:32Z</time>
      </trkpt>
      <trkpt lat="45.93598" lon="4.72252">
        <ele>173</ele>
        <time>2018-04-08T10:28:33Z</time>
      </trkpt>
      <trkpt lat="45.93592" lon="4.72244">
        <ele>173</ele>
        <time>2018-04-08T10:28:35Z</time>
      </trkpt>
      <trkpt lat="45.93588" lon="4.72241">
        <ele>173</ele>
        <time>2018-04-08T10:28:36Z</time>
      </trkpt>
      <trkpt lat="45.9358" lon="4.72236">
        <ele>173</ele>
        <time>2018-04-08T10:28:38Z</time>
      </trkpt>
      <trkpt lat="45.93575" lon="4.72232">
        <ele>173</ele>
        <time>2018-04-08T10:28:39Z</time>
      </trkpt>
      <trkpt lat="45.93567" lon="4.72227">
        <ele>173</ele>
        <time>2018-04-08T10:28:41Z</time>
      </trkpt>
      <trkpt lat="45.93564" lon="4.72225">
        <ele>173</ele>
        <time>2018-04-08T10:28:42Z</time>
      </trkpt>
      <trkpt lat="45.93558" lon="4.72222">
        <ele>173</ele>
        <time>2018-04-08T10:28:44Z</time>
      </trkpt>
      <trkpt lat="45.93551" lon="4.72222">
        <ele>172</ele>
        <time>2018-04-08T10:28:45Z</time>
      </trkpt>
      <trkpt lat="45.93544" lon="4.7223">
        <ele>172</ele>
        <time>2018-04-08T10:28:47Z</time>
      </trkpt>
      <trkpt lat="45.93542" lon="4.72234">
        <ele>172</ele>
        <time>2018-04-08T10:28:48Z</time>
      </trkpt>
      <trkpt lat="45.93538" lon="4.72243">
        <ele>172</ele>
        <time>2018-04-08T10:28:50Z</time>
      </trkpt>
      <trkpt lat="45.93537" lon="4.72248">
        <ele>172</ele>
        <time>2018-04-08T10:28:51Z</time>
      </trkpt>
      <trkpt lat="45.93532" lon="4.72259">
        <ele>172</ele>
        <time>2018-04-08T10:28:53Z</time>
      </trkpt>
      <trkpt lat="45.9353" lon="4.72264">
        <ele>172</ele>
        <time>2018-04-08T10:28:54Z</time>
      </trkpt>
      <trkpt lat="45.93528" lon="4.72269">
        <ele>172</ele>
        <time>2018-04-08T10:28:55Z</time>
      </trkpt>
      <trkpt lat="45.93525" lon="4.72276">
        <ele>172</ele>
        <time>2018-04-08T10:28:56Z</time>
      </trkpt>
      <trkpt lat="45.93523" lon="4.72281">
        <ele>172</ele>
        <time>2018-04-08T10:28:57Z</time>
      </trkpt>
      <trkpt lat="45.9352" lon="4.72287">
        <ele>172</ele>
        <time>2018-04-08T10:28:58Z</time>
      </trkpt>
      <trkpt lat="45.93518" lon="4.72294">
        <ele>172</ele>
        <time>2018-04-08T10:28:59Z</time>
      </trkpt>
      <trkpt lat="45.93514" lon="4.723">
        <ele>172</ele>
        <time>2018-04-08T10:29:00Z</time>
      </trkpt>
      <trkpt lat="45.93511" lon="4.72305">
        <ele>173</ele>
        <time>2018-04-08T10:29:01Z</time>
      </trkpt>
      <trkpt lat="45.93506" lon="4.72311">
        <ele>173</ele>
        <time>2018-04-08T10:29:02Z</time>
      </trkpt>
      <trkpt lat="45.93502" lon="4.72316">
        <ele>173</ele>
        <time>2018-04-08T10:29:03Z</time>
      </trkpt>
      <trkpt lat="45.93497" lon="4.72321">
        <ele>173</ele>
        <time>2018-04-08T10:29:04Z</time>
      </trkpt>
      <trkpt lat="45.93493" lon="4.72327">
        <ele>173</ele>
        <time>2018-04-08T10:29:05Z</time>
      </trkpt>
      <trkpt lat="45.93489" lon="4.72333">
        <ele>173</ele>
        <time>2018-04-08T10:29:06Z</time>
      </trkpt>
      <trkpt lat="45.93485" lon="4.7234">
        <ele>173</ele>
        <time>2018-04-08T10:29:07Z</time>
      </trkpt>
      <trkpt lat="45.9348" lon="4.72346">
        <ele>173</ele>
        <time>2018-04-08T10:29:08Z</time>
      </trkpt>
      <trkpt lat="45.93476" lon="4.72351">
        <ele>173</ele>
        <time>2018-04-08T10:29:09Z</time>
      </trkpt>
      <trkpt lat="45.93472" lon="4.72356">
        <ele>173</ele>
        <time>2018-04-08T10:29:10Z</time>
      </trkpt>
      <trkpt lat="45.93468" lon="4.72362">
        <ele>173</ele>
        <time>2018-04-08T10:29:11Z</time>
      </trkpt>
      <trkpt lat="45.93463" lon="4.72369">
        <ele>173</ele>
        <time>2018-04-08T10:29:12Z</time>
      </trkpt>
      <trkpt lat="45.93458" lon="4.72376">
        <ele>173</ele>
        <time>2018-04-08T10:29:13Z</time>
      </trkpt>
      <trkpt lat="45.93454" lon="4.72382">
        <ele>173</ele>
        <time>2018-04-08T10:29:14Z</time>
      </trkpt>
      <trkpt lat="45.9345" lon="4.72387">
        <ele>173</ele>
        <time>2018-04-08T10:29:15Z</time>
      </trkpt>
      <trkpt lat="45.93444" lon="4.72391">
        <ele>173</ele>
        <time>2018-04-08T10:29:16Z</time>
      </trkpt>
      <trkpt lat="45.93439" lon="4.72395">
        <ele>173</ele>
        <time>2018-04-08T10:29:17Z</time>
      </trkpt>
      <trkpt lat="45.93434" lon="4.72398">
        <ele>173</ele>
        <time>2018-04-08T10:29:18Z</time>
      </trkpt>
      <trkpt lat="45.93427" lon="4.724">
        <ele>174</ele>
        <time>2018-04-08T10:29:19Z</time>
      </trkpt>
      <trkpt lat="45.93423" lon="4.72402">
        <ele>174</ele>
        <time>2018-04-08T10:29:20Z</time>
      </trkpt>
      <trkpt lat="45.93417" lon="4.72405">
        <ele>174</ele>
        <time>2018-04-08T10:29:21Z</time>
      </trkpt>
      <trkpt lat="45.93414" lon="4.72407">
        <ele>174</ele>
        <time>2018-04-08T10:29:22Z</time>
      </trkpt>
      <trkpt lat="45.93406" lon="4.72411">
        <ele>174</ele>
        <time>2018-04-08T10:29:26Z</time>
      </trkpt>
      <trkpt lat="45.93403" lon="4.72411">
        <ele>174</ele>
        <time>2018-04-08T10:29:27Z</time>
      </trkpt>
      <trkpt lat="45.93399" lon="4.72409">
        <ele>174</ele>
        <time>2018-04-08T10:29:29Z</time>
      </trkpt>
      <trkpt lat="45.93389" lon="4.72407">
        <ele>174</ele>
        <time>2018-04-08T10:29:30Z</time>
      </trkpt>
      <trkpt lat="45.93383" lon="4.72413">
        <ele>174</ele>
        <time>2018-04-08T10:29:32Z</time>
      </trkpt>
      <trkpt lat="45.93381" lon="4.72418">
        <ele>173</ele>
        <time>2018-04-08T10:29:33Z</time>
      </trkpt>
      <trkpt lat="45.9338" lon="4.72425">
        <ele>173</ele>
        <time>2018-04-08T10:29:34Z</time>
      </trkpt>
      <trkpt lat="45.93382" lon="4.72431">
        <ele>173</ele>
        <time>2018-04-08T10:29:35Z</time>
      </trkpt>
      <trkpt lat="45.93384" lon="4.72437">
        <ele>173</ele>
        <time>2018-04-08T10:29:36Z</time>
      </trkpt>
      <trkpt lat="45.93385" lon="4.72443">
        <ele>173</ele>
        <time>2018-04-08T10:29:37Z</time>
      </trkpt>
      <trkpt lat="45.93387" lon="4.7245">
        <ele>173</ele>
        <time>2018-04-08T10:29:38Z</time>
      </trkpt>
      <trkpt lat="45.93388" lon="4.72457">
        <ele>173</ele>
        <time>2018-04-08T10:29:39Z</time>
      </trkpt>
      <trkpt lat="45.93386" lon="4.72464">
        <ele>173</ele>
        <time>2018-04-08T10:29:40Z</time>
      </trkpt>
      <trkpt lat="45.93384" lon="4.7247">
        <ele>173</ele>
        <time>2018-04-08T10:29:41Z</time>
      </trkpt>
      <trkpt lat="45.9338" lon="4.72475">
        <ele>173</ele>
        <time>2018-04-08T10:29:42Z</time>
      </trkpt>
      <trkpt lat="45.93377" lon="4.72479">
        <ele>173</ele>
        <time>2018-04-08T10:29:43Z</time>
      </trkpt>
      <trkpt lat="45.93372" lon="4.72483">
        <ele>173</ele>
        <time>2018-04-08T10:29:44Z</time>
      </trkpt>
      <trkpt lat="45.93369" lon="4.72486">
        <ele>173</ele>
        <time>2018-04-08T10:29:45Z</time>
      </trkpt>
      <trkpt lat="45.93365" lon="4.72492">
        <ele>173</ele>
        <time>2018-04-08T10:29:46Z</time>
      </trkpt>
      <trkpt lat="45.93361" lon="4.72496">
        <ele>173</ele>
        <time>2018-04-08T10:29:47Z</time>
      </trkpt>
      <trkpt lat="45.93358" lon="4.725">
        <ele>172</ele>
        <time>2018-04-08T10:29:48Z</time>
      </trkpt>
      <trkpt lat="45.93354" lon="4.72505">
        <ele>172</ele>
        <time>2018-04-08T10:29:49Z</time>
      </trkpt>
      <trkpt lat="45.9335" lon="4.7251">
        <ele>172</ele>
        <time>2018-04-08T10:29:50Z</time>
      </trkpt>
      <trkpt lat="45.93346" lon="4.72514">
        <ele>172</ele>
        <time>2018-04-08T10:29:51Z</time>
      </trkpt>
      <trkpt lat="45.93341" lon="4.7252">
        <ele>172</ele>
        <time>2018-04-08T10:29:52Z</time>
      </trkpt>
      <trkpt lat="45.93337" lon="4.72525">
        <ele>172</ele>
        <time>2018-04-08T10:29:53Z</time>
      </trkpt>
      <trkpt lat="45.93333" lon="4.72529">
        <ele>172</ele>
        <time>2018-04-08T10:29:54Z</time>
      </trkpt>
      <trkpt lat="45.93329" lon="4.72534">
        <ele>172</ele>
        <time>2018-04-08T10:29:55Z</time>
      </trkpt>
      <trkpt lat="45.93325" lon="4.72539">
        <ele>172</ele>
        <time>2018-04-08T10:29:56Z</time>
      </trkpt>
      <trkpt lat="45.93322" lon="4.72543">
        <ele>172</ele>
        <time>2018-04-08T10:29:57Z</time>
      </trkpt>
      <trkpt lat="45.93317" lon="4.72548">
        <ele>172</ele>
        <time>2018-04-08T10:29:58Z</time>
      </trkpt>
      <trkpt lat="45.93313" lon="4.72553">
        <ele>172</ele>
        <time>2018-04-08T10:29:59Z</time>
      </trkpt>
      <trkpt lat="45.93308" lon="4.72558">
        <ele>172</ele>
        <time>2018-04-08T10:30:00Z</time>
      </trkpt>
      <trkpt lat="45.93305" lon="4.72564">
        <ele>171</ele>
        <time>2018-04-08T10:30:01Z</time>
      </trkpt>
      <trkpt lat="45.93301" lon="4.72569">
        <ele>171</ele>
        <time>2018-04-08T10:30:02Z</time>
      </trkpt>
      <trkpt lat="45.93297" lon="4.72574">
        <ele>171</ele>
        <time>2018-04-08T10:30:03Z</time>
      </trkpt>
      <trkpt lat="45.93293" lon="4.72578">
        <ele>171</ele>
        <time>2018-04-08T10:30:04Z</time>
      </trkpt>
      <trkpt lat="45.93289" lon="4.72583">
        <ele>171</ele>
        <time>2018-04-08T10:30:05Z</time>
      </trkpt>
      <trkpt lat="45.93285" lon="4.72587">
        <ele>170</ele>
        <time>2018-04-08T10:30:06Z</time>
      </trkpt>
      <trkpt lat="45.9328" lon="4.72592">
        <ele>170</ele>
        <time>2018-04-08T10:30:07Z</time>
      </trkpt>
      <trkpt lat="45.93276" lon="4.72598">
        <ele>170</ele>
        <time>2018-04-08T10:30:08Z</time>
      </trkpt>
      <trkpt lat="45.93272" lon="4.72601">
        <ele>170</ele>
        <time>2018-04-08T10:30:09Z</time>
      </trkpt>
      <trkpt lat="45.93267" lon="4.72606">
        <ele>170</ele>
        <time>2018-04-08T10:30:10Z</time>
      </trkpt>
      <trkpt lat="45.93262" lon="4.72612">
        <ele>170</ele>
        <time>2018-04-08T10:30:11Z</time>
      </trkpt>
      <trkpt lat="45.93257" lon="4.72617">
        <ele>170</ele>
        <time>2018-04-08T10:30:12Z</time>
      </trkpt>
      <trkpt lat="45.93254" lon="4.72622">
        <ele>170</ele>
        <time>2018-04-08T10:30:13Z</time>
      </trkpt>
      <trkpt lat="45.9325" lon="4.72627">
        <ele>170</ele>
        <time>2018-04-08T10:30:14Z</time>
      </trkpt>
      <trkpt lat="45.93245" lon="4.72632">
        <ele>170</ele>
        <time>2018-04-08T10:30:15Z</time>
      </trkpt>
      <trkpt lat="45.93242" lon="4.72637">
        <ele>170</ele>
        <time>2018-04-08T10:30:16Z</time>
      </trkpt>
      <trkpt lat="45.93239" lon="4.72644">
        <ele>170</ele>
        <time>2018-04-08T10:30:17Z</time>
      </trkpt>
      <trkpt lat="45.93235" lon="4.72649">
        <ele>170</ele>
        <time>2018-04-08T10:30:18Z</time>
      </trkpt>
      <trkpt lat="45.9323" lon="4.72653">
        <ele>170</ele>
        <time>2018-04-08T10:30:19Z</time>
      </trkpt>
      <trkpt lat="45.93225" lon="4.72658">
        <ele>170</ele>
        <time>2018-04-08T10:30:20Z</time>
      </trkpt>
      <trkpt lat="45.9322" lon="4.72662">
        <ele>170</ele>
        <time>2018-04-08T10:30:21Z</time>
      </trkpt>
      <trkpt lat="45.93216" lon="4.72668">
        <ele>169</ele>
        <time>2018-04-08T10:30:22Z</time>
      </trkpt>
      <trkpt lat="45.93212" lon="4.72672">
        <ele>169</ele>
        <time>2018-04-08T10:30:23Z</time>
      </trkpt>
      <trkpt lat="45.93208" lon="4.72677">
        <ele>169</ele>
        <time>2018-04-08T10:30:24Z</time>
      </trkpt>
      <trkpt lat="45.93204" lon="4.72681">
        <ele>169</ele>
        <time>2018-04-08T10:30:25Z</time>
      </trkpt>
      <trkpt lat="45.93199" lon="4.72686">
        <ele>169</ele>
        <time>2018-04-08T10:30:26Z</time>
      </trkpt>
      <trkpt lat="45.93194" lon="4.72692">
        <ele>169</ele>
        <time>2018-04-08T10:30:27Z</time>
      </trkpt>
      <trkpt lat="45.93189" lon="4.72697">
        <ele>169</ele>
        <time>2018-04-08T10:30:28Z</time>
      </trkpt>
      <trkpt lat="45.93185" lon="4.72703">
        <ele>169</ele>
        <time>2018-04-08T10:30:29Z</time>
      </trkpt>
      <trkpt lat="45.9318" lon="4.72708">
        <ele>169</ele>
        <time>2018-04-08T10:30:30Z</time>
      </trkpt>
      <trkpt lat="45.93176" lon="4.72713">
        <ele>169</ele>
        <time>2018-04-08T10:30:31Z</time>
      </trkpt>
      <trkpt lat="45.93171" lon="4.72719">
        <ele>170</ele>
        <time>2018-04-08T10:30:32Z</time>
      </trkpt>
      <trkpt lat="45.93166" lon="4.72725">
        <ele>170</ele>
        <time>2018-04-08T10:30:33Z</time>
      </trkpt>
      <trkpt lat="45.9316" lon="4.72732">
        <ele>170</ele>
        <time>2018-04-08T10:30:34Z</time>
      </trkpt>
      <trkpt lat="45.93154" lon="4.72738">
        <ele>170</ele>
        <time>2018-04-08T10:30:35Z</time>
      </trkpt>
      <trkpt lat="45.93149" lon="4.72744">
        <ele>170</ele>
        <time>2018-04-08T10:30:36Z</time>
      </trkpt>
      <trkpt lat="45.93144" lon="4.72751">
        <ele>170</ele>
        <time>2018-04-08T10:30:37Z</time>
      </trkpt>
      <trkpt lat="45.93139" lon="4.72757">
        <ele>171</ele>
        <time>2018-04-08T10:30:38Z</time>
      </trkpt>
      <trkpt lat="45.93133" lon="4.72764">
        <ele>171</ele>
        <time>2018-04-08T10:30:39Z</time>
      </trkpt>
      <trkpt lat="45.93128" lon="4.7277">
        <ele>171</ele>
        <time>2018-04-08T10:30:40Z</time>
      </trkpt>
      <trkpt lat="45.93123" lon="4.72776">
        <ele>171</ele>
        <time>2018-04-08T10:30:41Z</time>
      </trkpt>
      <trkpt lat="45.93118" lon="4.72783">
        <ele>171</ele>
        <time>2018-04-08T10:30:42Z</time>
      </trkpt>
      <trkpt lat="45.93113" lon="4.72789">
        <ele>171</ele>
        <time>2018-04-08T10:30:43Z</time>
      </trkpt>
      <trkpt lat="45.93108" lon="4.72794">
        <ele>171</ele>
        <time>2018-04-08T10:30:44Z</time>
      </trkpt>
      <trkpt lat="45.93103" lon="4.72801">
        <ele>171</ele>
        <time>2018-04-08T10:30:45Z</time>
      </trkpt>
      <trkpt lat="45.93099" lon="4.72807">
        <ele>171</ele>
        <time>2018-04-08T10:30:46Z</time>
      </trkpt>
      <trkpt lat="45.93094" lon="4.72812">
        <ele>172</ele>
        <time>2018-04-08T10:30:47Z</time>
      </trkpt>
      <trkpt lat="45.9309" lon="4.72817">
        <ele>172</ele>
        <time>2018-04-08T10:30:48Z</time>
      </trkpt>
      <trkpt lat="45.93085" lon="4.72823">
        <ele>172</ele>
        <time>2018-04-08T10:30:49Z</time>
      </trkpt>
      <trkpt lat="45.9308" lon="4.72828">
        <ele>173</ele>
        <time>2018-04-08T10:30:50Z</time>
      </trkpt>
      <trkpt lat="45.93077" lon="4.72834">
        <ele>173</ele>
        <time>2018-04-08T10:30:51Z</time>
      </trkpt>
      <trkpt lat="45.93076" lon="4.72835">
        <ele>173</ele>
        <time>2018-04-08T10:30:52Z</time>
      </trkpt>
      <trkpt lat="45.9307" lon="4.72855">
        <ele>172</ele>
        <time>2018-04-08T10:30:54Z</time>
      </trkpt>
      <trkpt lat="45.93067" lon="4.72862">
        <ele>172</ele>
        <time>2018-04-08T10:30:55Z</time>
      </trkpt>
      <trkpt lat="45.93056" lon="4.72865">
        <ele>172</ele>
        <time>2018-04-08T10:30:56Z</time>
      </trkpt>
      <trkpt lat="45.93052" lon="4.72872">
        <ele>172</ele>
        <time>2018-04-08T10:30:57Z</time>
      </trkpt>
      <trkpt lat="45.93045" lon="4.72872">
        <ele>172</ele>
        <time>2018-04-08T10:30:58Z</time>
      </trkpt>
      <trkpt lat="45.93039" lon="4.72875">
        <ele>172</ele>
        <time>2018-04-08T10:30:59Z</time>
      </trkpt>
      <trkpt lat="45.93034" lon="4.72879">
        <ele>172</ele>
        <time>2018-04-08T10:31:00Z</time>
      </trkpt>
      <trkpt lat="45.9303" lon="4.72885">
        <ele>172</ele>
        <time>2018-04-08T10:31:01Z</time>
      </trkpt>
      <trkpt lat="45.93026" lon="4.7289">
        <ele>172</ele>
        <time>2018-04-08T10:31:02Z</time>
      </trkpt>
      <trkpt lat="45.93022" lon="4.72895">
        <ele>172</ele>
        <time>2018-04-08T10:31:03Z</time>
      </trkpt>
      <trkpt lat="45.93017" lon="4.72899">
        <ele>172</ele>
        <time>2018-04-08T10:31:04Z</time>
      </trkpt>
      <trkpt lat="45.93013" lon="4.72904">
        <ele>172</ele>
        <time>2018-04-08T10:31:05Z</time>
      </trkpt>
      <trkpt lat="45.93008" lon="4.72909">
        <ele>171</ele>
        <time>2018-04-08T10:31:06Z</time>
      </trkpt>
      <trkpt lat="45.93004" lon="4.72914">
        <ele>171</ele>
        <time>2018-04-08T10:31:07Z</time>
      </trkpt>
      <trkpt lat="45.93" lon="4.72919">
        <ele>171</ele>
        <time>2018-04-08T10:31:08Z</time>
      </trkpt>
      <trkpt lat="45.92995" lon="4.72923">
        <ele>171</ele>
        <time>2018-04-08T10:31:09Z</time>
      </trkpt>
      <trkpt lat="45.92992" lon="4.72929">
        <ele>171</ele>
        <time>2018-04-08T10:31:10Z</time>
      </trkpt>
      <trkpt lat="45.92988" lon="4.72933">
        <ele>171</ele>
        <time>2018-04-08T10:31:11Z</time>
      </trkpt>
      <trkpt lat="45.92984" lon="4.72938">
        <ele>171</ele>
        <time>2018-04-08T10:31:12Z</time>
      </trkpt>
      <trkpt lat="45.92981" lon="4.72942">
        <ele>171</ele>
        <time>2018-04-08T10:31:13Z</time>
      </trkpt>
      <trkpt lat="45.92977" lon="4.72946">
        <ele>171</ele>
        <time>2018-04-08T10:31:14Z</time>
      </trkpt>
      <trkpt lat="45.92972" lon="4.72951">
        <ele>171</ele>
        <time>2018-04-08T10:31:15Z</time>
      </trkpt>
      <trkpt lat="45.92969" lon="4.72955">
        <ele>171</ele>
        <time>2018-04-08T10:31:16Z</time>
      </trkpt>
      <trkpt lat="45.92965" lon="4.72961">
        <ele>171</ele>
        <time>2018-04-08T10:31:17Z</time>
      </trkpt>
      <trkpt lat="45.92962" lon="4.72965">
        <ele>171</ele>
        <time>2018-04-08T10:31:18Z</time>
      </trkpt>
      <trkpt lat="45.92958" lon="4.72971">
        <ele>171</ele>
        <time>2018-04-08T10:31:19Z</time>
      </trkpt>
      <trkpt lat="45.92954" lon="4.72976">
        <ele>171</ele>
        <time>2018-04-08T10:31:20Z</time>
      </trkpt>
      <trkpt lat="45.9295" lon="4.7298">
        <ele>171</ele>
        <time>2018-04-08T10:31:21Z</time>
      </trkpt>
      <trkpt lat="45.92946" lon="4.72984">
        <ele>171</ele>
        <time>2018-04-08T10:31:22Z</time>
      </trkpt>
      <trkpt lat="45.92941" lon="4.72989">
        <ele>171</ele>
        <time>2018-04-08T10:31:23Z</time>
      </trkpt>
      <trkpt lat="45.92938" lon="4.72994">
        <ele>171</ele>
        <time>2018-04-08T10:31:24Z</time>
      </trkpt>
      <trkpt lat="45.92934" lon="4.73">
        <ele>172</ele>
        <time>2018-04-08T10:31:25Z</time>
      </trkpt>
      <trkpt lat="45.92931" lon="4.73006">
        <ele>172</ele>
        <time>2018-04-08T10:31:26Z</time>
      </trkpt>
      <trkpt lat="45.92927" lon="4.73011">
        <ele>172</ele>
        <time>2018-04-08T10:31:27Z</time>
      </trkpt>
      <trkpt lat="45.92923" lon="4.73015">
        <ele>172</ele>
        <time>2018-04-08T10:31:28Z</time>
      </trkpt>
      <trkpt lat="45.92919" lon="4.7302">
        <ele>172</ele>
        <time>2018-04-08T10:31:29Z</time>
      </trkpt>
      <trkpt lat="45.92915" lon="4.73024">
        <ele>172</ele>
        <time>2018-04-08T10:31:30Z</time>
      </trkpt>
      <trkpt lat="45.92911" lon="4.7303">
        <ele>172</ele>
        <time>2018-04-08T10:31:31Z</time>
      </trkpt>
      <trkpt lat="45.92909" lon="4.73035">
        <ele>172</ele>
        <time>2018-04-08T10:31:32Z</time>
      </trkpt>
      <trkpt lat="45.92905" lon="4.73039">
        <ele>172</ele>
        <time>2018-04-08T10:31:33Z</time>
      </trkpt>
      <trkpt lat="45.92902" lon="4.73044">
        <ele>172</ele>
        <time>2018-04-08T10:31:34Z</time>
      </trkpt>
      <trkpt lat="45.92896" lon="4.73054">
        <ele>172</ele>
        <time>2018-04-08T10:31:36Z</time>
      </trkpt>
      <trkpt lat="45.92893" lon="4.73058">
        <ele>172</ele>
        <time>2018-04-08T10:31:37Z</time>
      </trkpt>
      <trkpt lat="45.92889" lon="4.73063">
        <ele>172</ele>
        <time>2018-04-08T10:31:38Z</time>
      </trkpt>
      <trkpt lat="45.92886" lon="4.73067">
        <ele>172</ele>
        <time>2018-04-08T10:31:39Z</time>
      </trkpt>
      <trkpt lat="45.9288" lon="4.73077">
        <ele>172</ele>
        <time>2018-04-08T10:31:41Z</time>
      </trkpt>
      <trkpt lat="45.92877" lon="4.73081">
        <ele>172</ele>
        <time>2018-04-08T10:31:42Z</time>
      </trkpt>
      <trkpt lat="45.92872" lon="4.7309">
        <ele>172</ele>
        <time>2018-04-08T10:31:44Z</time>
      </trkpt>
      <trkpt lat="45.92868" lon="4.73093">
        <ele>172</ele>
        <time>2018-04-08T10:31:45Z</time>
      </trkpt>
      <trkpt lat="45.9286" lon="4.73099">
        <ele>171</ele>
        <time>2018-04-08T10:31:47Z</time>
      </trkpt>
      <trkpt lat="45.92857" lon="4.73104">
        <ele>171</ele>
        <time>2018-04-08T10:31:48Z</time>
      </trkpt>
      <trkpt lat="45.92849" lon="4.73104">
        <ele>171</ele>
        <time>2018-04-08T10:31:52Z</time>
      </trkpt>
      <trkpt lat="45.92845" lon="4.73096">
        <ele>171</ele>
        <time>2018-04-08T10:31:53Z</time>
      </trkpt>
      <trkpt lat="45.92844" lon="4.7309">
        <ele>171</ele>
        <time>2018-04-08T10:31:54Z</time>
      </trkpt>
      <trkpt lat="45.92844" lon="4.73083">
        <ele>171</ele>
        <time>2018-04-08T10:31:55Z</time>
      </trkpt>
      <trkpt lat="45.92843" lon="4.73076">
        <ele>171</ele>
        <time>2018-04-08T10:31:56Z</time>
      </trkpt>
      <trkpt lat="45.92841" lon="4.73069">
        <ele>171</ele>
        <time>2018-04-08T10:31:57Z</time>
      </trkpt>
      <trkpt lat="45.9284" lon="4.73063">
        <ele>171</ele>
        <time>2018-04-08T10:31:58Z</time>
      </trkpt>
      <trkpt lat="45.92839" lon="4.73056">
        <ele>171</ele>
        <time>2018-04-08T10:31:59Z</time>
      </trkpt>
      <trkpt lat="45.92838" lon="4.73049">
        <ele>171</ele>
        <time>2018-04-08T10:32:00Z</time>
      </trkpt>
      <trkpt lat="45.92836" lon="4.73043">
        <ele>171</ele>
        <time>2018-04-08T10:32:01Z</time>
      </trkpt>
      <trkpt lat="45.92835" lon="4.73037">
        <ele>171</ele>
        <time>2018-04-08T10:32:02Z</time>
      </trkpt>
      <trkpt lat="45.92834" lon="4.7303">
        <ele>171</ele>
        <time>2018-04-08T10:32:03Z</time>
      </trkpt>
      <trkpt lat="45.92831" lon="4.73018">
        <ele>170</ele>
        <time>2018-04-08T10:32:05Z</time>
      </trkpt>
      <trkpt lat="45.92831" lon="4.73011">
        <ele>170</ele>
        <time>2018-04-08T10:32:06Z</time>
      </trkpt>
      <trkpt lat="45.9283" lon="4.73">
        <ele>170</ele>
        <time>2018-04-08T10:32:08Z</time>
      </trkpt>
      <trkpt lat="45.9283" lon="4.72994">
        <ele>170</ele>
        <time>2018-04-08T10:32:09Z</time>
      </trkpt>
      <trkpt lat="45.92829" lon="4.72987">
        <ele>170</ele>
        <time>2018-04-08T10:32:10Z</time>
      </trkpt>
      <trkpt lat="45.92829" lon="4.7298">
        <ele>170</ele>
        <time>2018-04-08T10:32:11Z</time>
      </trkpt>
      <trkpt lat="45.92827" lon="4.72968">
        <ele>170</ele>
        <time>2018-04-08T10:32:13Z</time>
      </trkpt>
      <trkpt lat="45.92826" lon="4.72961">
        <ele>170</ele>
        <time>2018-04-08T10:32:14Z</time>
      </trkpt>
      <trkpt lat="45.92825" lon="4.72949">
        <ele>170</ele>
        <time>2018-04-08T10:32:16Z</time>
      </trkpt>
      <trkpt lat="45.92825" lon="4.72943">
        <ele>170</ele>
        <time>2018-04-08T10:32:17Z</time>
      </trkpt>
      <trkpt lat="45.92824" lon="4.72936">
        <ele>170</ele>
        <time>2018-04-08T10:32:18Z</time>
      </trkpt>
      <trkpt lat="45.92824" lon="4.72929">
        <ele>170</ele>
        <time>2018-04-08T10:32:19Z</time>
      </trkpt>
      <trkpt lat="45.92823" lon="4.72916">
        <ele>170</ele>
        <time>2018-04-08T10:32:21Z</time>
      </trkpt>
      <trkpt lat="45.92823" lon="4.72909">
        <ele>170</ele>
        <time>2018-04-08T10:32:22Z</time>
      </trkpt>
      <trkpt lat="45.92821" lon="4.72897">
        <ele>170</ele>
        <time>2018-04-08T10:32:24Z</time>
      </trkpt>
      <trkpt lat="45.9282" lon="4.72891">
        <ele>170</ele>
        <time>2018-04-08T10:32:25Z</time>
      </trkpt>
      <trkpt lat="45.92818" lon="4.72879">
        <ele>170</ele>
        <time>2018-04-08T10:32:27Z</time>
      </trkpt>
      <trkpt lat="45.92816" lon="4.72872">
        <ele>170</ele>
        <time>2018-04-08T10:32:28Z</time>
      </trkpt>
      <trkpt lat="45.92815" lon="4.72866">
        <ele>170</ele>
        <time>2018-04-08T10:32:29Z</time>
      </trkpt>
      <trkpt lat="45.92813" lon="4.7286">
        <ele>170</ele>
        <time>2018-04-08T10:32:30Z</time>
      </trkpt>
      <trkpt lat="45.92812" lon="4.72853">
        <ele>170</ele>
        <time>2018-04-08T10:32:31Z</time>
      </trkpt>
      <trkpt lat="45.92811" lon="4.72846">
        <ele>170</ele>
        <time>2018-04-08T10:32:32Z</time>
      </trkpt>
      <trkpt lat="45.9281" lon="4.7284">
        <ele>170</ele>
        <time>2018-04-08T10:32:33Z</time>
      </trkpt>
      <trkpt lat="45.92808" lon="4.72834">
        <ele>170</ele>
        <time>2018-04-08T10:32:34Z</time>
      </trkpt>
      <trkpt lat="45.92807" lon="4.72826">
        <ele>171</ele>
        <time>2018-04-08T10:32:35Z</time>
      </trkpt>
      <trkpt lat="45.92805" lon="4.7282">
        <ele>171</ele>
        <time>2018-04-08T10:32:36Z</time>
      </trkpt>
      <trkpt lat="45.92803" lon="4.72808">
        <ele>171</ele>
        <time>2018-04-08T10:32:38Z</time>
      </trkpt>
      <trkpt lat="45.92801" lon="4.72802">
        <ele>171</ele>
        <time>2018-04-08T10:32:39Z</time>
      </trkpt>
      <trkpt lat="45.92797" lon="4.72793">
        <ele>171</ele>
        <time>2018-04-08T10:32:41Z</time>
      </trkpt>
      <trkpt lat="45.92793" lon="4.72793">
        <ele>171</ele>
        <time>2018-04-08T10:32:42Z</time>
      </trkpt>
      <trkpt lat="45.92785" lon="4.72795">
        <ele>170</ele>
        <time>2018-04-08T10:32:44Z</time>
      </trkpt>
      <trkpt lat="45.92781" lon="4.72797">
        <ele>170</ele>
        <time>2018-04-08T10:32:45Z</time>
      </trkpt>
      <trkpt lat="45.92774" lon="4.72803">
        <ele>170</ele>
        <time>2018-04-08T10:32:47Z</time>
      </trkpt>
      <trkpt lat="45.92769" lon="4.72806">
        <ele>170</ele>
        <time>2018-04-08T10:32:48Z</time>
      </trkpt>
      <trkpt lat="45.92765" lon="4.72809">
        <ele>170</ele>
        <time>2018-04-08T10:32:49Z</time>
      </trkpt>
      <trkpt lat="45.92762" lon="4.72813">
        <ele>170</ele>
        <time>2018-04-08T10:32:50Z</time>
      </trkpt>
      <trkpt lat="45.92754" lon="4.72819">
        <ele>170</ele>
        <time>2018-04-08T10:32:52Z</time>
      </trkpt>
      <trkpt lat="45.9275" lon="4.72823">
        <ele>170</ele>
        <time>2018-04-08T10:32:53Z</time>
      </trkpt>
      <trkpt lat="45.92742" lon="4.72828">
        <ele>169</ele>
        <time>2018-04-08T10:32:55Z</time>
      </trkpt>
      <trkpt lat="45.92738" lon="4.72831">
        <ele>169</ele>
        <time>2018-04-08T10:32:56Z</time>
      </trkpt>
      <trkpt lat="45.92731" lon="4.72837">
        <ele>169</ele>
        <time>2018-04-08T10:32:58Z</time>
      </trkpt>
      <trkpt lat="45.92726" lon="4.7284">
        <ele>169</ele>
        <time>2018-04-08T10:32:59Z</time>
      </trkpt>
      <trkpt lat="45.92722" lon="4.72844">
        <ele>169</ele>
        <time>2018-04-08T10:33:00Z</time>
      </trkpt>
      <trkpt lat="45.92718" lon="4.72848">
        <ele>169</ele>
        <time>2018-04-08T10:33:01Z</time>
      </trkpt>
      <trkpt lat="45.92713" lon="4.72852">
        <ele>169</ele>
        <time>2018-04-08T10:33:02Z</time>
      </trkpt>
      <trkpt lat="45.9271" lon="4.72856">
        <ele>169</ele>
        <time>2018-04-08T10:33:03Z</time>
      </trkpt>
      <trkpt lat="45.92705" lon="4.72858">
        <ele>169</ele>
        <time>2018-04-08T10:33:04Z</time>
      </trkpt>
      <trkpt lat="45.92701" lon="4.72861">
        <ele>169</ele>
        <time>2018-04-08T10:33:05Z</time>
      </trkpt>
      <trkpt lat="45.92697" lon="4.72863">
        <ele>169</ele>
        <time>2018-04-08T10:33:06Z</time>
      </trkpt>
      <trkpt lat="45.92692" lon="4.72866">
        <ele>169</ele>
        <time>2018-04-08T10:33:07Z</time>
      </trkpt>
      <trkpt lat="45.92688" lon="4.7287">
        <ele>169</ele>
        <time>2018-04-08T10:33:08Z</time>
      </trkpt>
      <trkpt lat="45.92683" lon="4.72874">
        <ele>169</ele>
        <time>2018-04-08T10:33:09Z</time>
      </trkpt>
      <trkpt lat="45.92676" lon="4.72881">
        <ele>170</ele>
        <time>2018-04-08T10:33:11Z</time>
      </trkpt>
      <trkpt lat="45.92672" lon="4.72885">
        <ele>170</ele>
        <time>2018-04-08T10:33:12Z</time>
      </trkpt>
      <trkpt lat="45.92667" lon="4.7289">
        <ele>170</ele>
        <time>2018-04-08T10:33:13Z</time>
      </trkpt>
      <trkpt lat="45.92663" lon="4.72893">
        <ele>170</ele>
        <time>2018-04-08T10:33:14Z</time>
      </trkpt>
      <trkpt lat="45.92659" lon="4.72897">
        <ele>170</ele>
        <time>2018-04-08T10:33:15Z</time>
      </trkpt>
      <trkpt lat="45.92654" lon="4.729">
        <ele>170</ele>
        <time>2018-04-08T10:33:16Z</time>
      </trkpt>
      <trkpt lat="45.9265" lon="4.72903">
        <ele>170</ele>
        <time>2018-04-08T10:33:17Z</time>
      </trkpt>
      <trkpt lat="45.92645" lon="4.72907">
        <ele>170</ele>
        <time>2018-04-08T10:33:18Z</time>
      </trkpt>
      <trkpt lat="45.92641" lon="4.72911">
        <ele>169</ele>
        <time>2018-04-08T10:33:19Z</time>
      </trkpt>
      <trkpt lat="45.92636" lon="4.72914">
        <ele>169</ele>
        <time>2018-04-08T10:33:20Z</time>
      </trkpt>
      <trkpt lat="45.9263" lon="4.72918">
        <ele>170</ele>
        <time>2018-04-08T10:33:21Z</time>
      </trkpt>
      <trkpt lat="45.92625" lon="4.72921">
        <ele>169</ele>
        <time>2018-04-08T10:33:22Z</time>
      </trkpt>
      <trkpt lat="45.9262" lon="4.72925">
        <ele>169</ele>
        <time>2018-04-08T10:33:23Z</time>
      </trkpt>
      <trkpt lat="45.92615" lon="4.72929">
        <ele>169</ele>
        <time>2018-04-08T10:33:24Z</time>
      </trkpt>
      <trkpt lat="45.9261" lon="4.72934">
        <ele>169</ele>
        <time>2018-04-08T10:33:25Z</time>
      </trkpt>
      <trkpt lat="45.92605" lon="4.72938">
        <ele>169</ele>
        <time>2018-04-08T10:33:26Z</time>
      </trkpt>
      <trkpt lat="45.926" lon="4.72943">
        <ele>169</ele>
        <time>2018-04-08T10:33:27Z</time>
      </trkpt>
      <trkpt lat="45.92595" lon="4.72947">
        <ele>169</ele>
        <time>2018-04-08T10:33:28Z</time>
      </trkpt>
      <trkpt lat="45.92591" lon="4.72952">
        <ele>169</ele>
        <time>2018-04-08T10:33:29Z</time>
      </trkpt>
      <trkpt lat="45.92587" lon="4.72956">
        <ele>169</ele>
        <time>2018-04-08T10:33:30Z</time>
      </trkpt>
      <trkpt lat="45.92583" lon="4.72962">
        <ele>169</ele>
        <time>2018-04-08T10:33:31Z</time>
      </trkpt>
      <trkpt lat="45.92578" lon="4.72967">
        <ele>169</ele>
        <time>2018-04-08T10:33:32Z</time>
      </trkpt>
      <trkpt lat="45.92575" lon="4.72972">
        <ele>169</ele>
        <time>2018-04-08T10:33:33Z</time>
      </trkpt>
      <trkpt lat="45.92571" lon="4.72976">
        <ele>169</ele>
        <time>2018-04-08T10:33:34Z</time>
      </trkpt>
      <trkpt lat="45.92566" lon="4.72982">
        <ele>169</ele>
        <time>2018-04-08T10:33:35Z</time>
      </trkpt>
      <trkpt lat="45.92563" lon="4.72987">
        <ele>169</ele>
        <time>2018-04-08T10:33:36Z</time>
      </trkpt>
      <trkpt lat="45.92559" lon="4.72991">
        <ele>169</ele>
        <time>2018-04-08T10:33:37Z</time>
      </trkpt>
      <trkpt lat="45.92554" lon="4.72995">
        <ele>169</ele>
        <time>2018-04-08T10:33:38Z</time>
      </trkpt>
      <trkpt lat="45.92549" lon="4.73">
        <ele>169</ele>
        <time>2018-04-08T10:33:39Z</time>
      </trkpt>
      <trkpt lat="45.92545" lon="4.73005">
        <ele>169</ele>
        <time>2018-04-08T10:33:40Z</time>
      </trkpt>
      <trkpt lat="45.92542" lon="4.7301">
        <ele>169</ele>
        <time>2018-04-08T10:33:41Z</time>
      </trkpt>
      <trkpt lat="45.92537" lon="4.73014">
        <ele>169</ele>
        <time>2018-04-08T10:33:42Z</time>
      </trkpt>
      <trkpt lat="45.92532" lon="4.73018">
        <ele>169</ele>
        <time>2018-04-08T10:33:43Z</time>
      </trkpt>
      <trkpt lat="45.92527" lon="4.73022">
        <ele>169</ele>
        <time>2018-04-08T10:33:44Z</time>
      </trkpt>
      <trkpt lat="45.92522" lon="4.73026">
        <ele>169</ele>
        <time>2018-04-08T10:33:45Z</time>
      </trkpt>
      <trkpt lat="45.92518" lon="4.73031">
        <ele>169</ele>
        <time>2018-04-08T10:33:46Z</time>
      </trkpt>
      <trkpt lat="45.92513" lon="4.73033">
        <ele>169</ele>
        <time>2018-04-08T10:33:47Z</time>
      </trkpt>
      <trkpt lat="45.92509" lon="4.73038">
        <ele>169</ele>
        <time>2018-04-08T10:33:48Z</time>
      </trkpt>
      <trkpt lat="45.92501" lon="4.73044">
        <ele>170</ele>
        <time>2018-04-08T10:33:50Z</time>
      </trkpt>
      <trkpt lat="45.92497" lon="4.73049">
        <ele>170</ele>
        <time>2018-04-08T10:33:51Z</time>
      </trkpt>
      <trkpt lat="45.92494" lon="4.73054">
        <ele>170</ele>
        <time>2018-04-08T10:33:52Z</time>
      </trkpt>
      <trkpt lat="45.92489" lon="4.73058">
        <ele>170</ele>
        <time>2018-04-08T10:33:53Z</time>
      </trkpt>
      <trkpt lat="45.92485" lon="4.73061">
        <ele>170</ele>
        <time>2018-04-08T10:33:54Z</time>
      </trkpt>
      <trkpt lat="45.92481" lon="4.73064">
        <ele>170</ele>
        <time>2018-04-08T10:33:55Z</time>
      </trkpt>
      <trkpt lat="45.92476" lon="4.73067">
        <ele>170</ele>
        <time>2018-04-08T10:33:56Z</time>
      </trkpt>
      <trkpt lat="45.92472" lon="4.7307">
        <ele>170</ele>
        <time>2018-04-08T10:33:57Z</time>
      </trkpt>
      <trkpt lat="45.92468" lon="4.73075">
        <ele>170</ele>
        <time>2018-04-08T10:33:58Z</time>
      </trkpt>
      <trkpt lat="45.92464" lon="4.73079">
        <ele>170</ele>
        <time>2018-04-08T10:33:59Z</time>
      </trkpt>
      <trkpt lat="45.9246" lon="4.73082">
        <ele>170</ele>
        <time>2018-04-08T10:34:00Z</time>
      </trkpt>
      <trkpt lat="45.92455" lon="4.73085">
        <ele>170</ele>
        <time>2018-04-08T10:34:01Z</time>
      </trkpt>
      <trkpt lat="45.92451" lon="4.73089">
        <ele>170</ele>
        <time>2018-04-08T10:34:02Z</time>
      </trkpt>
      <trkpt lat="45.92447" lon="4.73093">
        <ele>170</ele>
        <time>2018-04-08T10:34:03Z</time>
      </trkpt>
      <trkpt lat="45.92443" lon="4.73097">
        <ele>170</ele>
        <time>2018-04-08T10:34:04Z</time>
      </trkpt>
      <trkpt lat="45.92438" lon="4.73099">
        <ele>170</ele>
        <time>2018-04-08T10:34:05Z</time>
      </trkpt>
      <trkpt lat="45.9243" lon="4.73104">
        <ele>171</ele>
        <time>2018-04-08T10:34:07Z</time>
      </trkpt>
      <trkpt lat="45.92427" lon="4.73109">
        <ele>170</ele>
        <time>2018-04-08T10:34:08Z</time>
      </trkpt>
      <trkpt lat="45.9242" lon="4.73114">
        <ele>170</ele>
        <time>2018-04-08T10:34:10Z</time>
      </trkpt>
      <trkpt lat="45.92415" lon="4.73118">
        <ele>171</ele>
        <time>2018-04-08T10:34:11Z</time>
      </trkpt>
      <trkpt lat="45.92412" lon="4.73124">
        <ele>171</ele>
        <time>2018-04-08T10:34:12Z</time>
      </trkpt>
      <trkpt lat="45.92409" lon="4.7313">
        <ele>171</ele>
        <time>2018-04-08T10:34:13Z</time>
      </trkpt>
      <trkpt lat="45.92408" lon="4.73137">
        <ele>171</ele>
        <time>2018-04-08T10:34:14Z</time>
      </trkpt>
      <trkpt lat="45.92408" lon="4.73145">
        <ele>171</ele>
        <time>2018-04-08T10:34:15Z</time>
      </trkpt>
      <trkpt lat="45.92407" lon="4.73154">
        <ele>171</ele>
        <time>2018-04-08T10:34:16Z</time>
      </trkpt>
      <trkpt lat="45.92407" lon="4.7316">
        <ele>170</ele>
        <time>2018-04-08T10:34:17Z</time>
      </trkpt>
      <trkpt lat="45.92407" lon="4.73173">
        <ele>170</ele>
        <time>2018-04-08T10:34:19Z</time>
      </trkpt>
      <trkpt lat="45.92407" lon="4.7318">
        <ele>171</ele>
        <time>2018-04-08T10:34:20Z</time>
      </trkpt>
      <trkpt lat="45.92408" lon="4.73187">
        <ele>171</ele>
        <time>2018-04-08T10:34:21Z</time>
      </trkpt>
      <trkpt lat="45.92408" lon="4.73194">
        <ele>171</ele>
        <time>2018-04-08T10:34:22Z</time>
      </trkpt>
      <trkpt lat="45.92408" lon="4.73201">
        <ele>171</ele>
        <time>2018-04-08T10:34:23Z</time>
      </trkpt>
      <trkpt lat="45.92407" lon="4.73208">
        <ele>171</ele>
        <time>2018-04-08T10:34:24Z</time>
      </trkpt>
      <trkpt lat="45.92407" lon="4.73214">
        <ele>171</ele>
        <time>2018-04-08T10:34:25Z</time>
      </trkpt>
      <trkpt lat="45.92408" lon="4.73221">
        <ele>171</ele>
        <time>2018-04-08T10:34:26Z</time>
      </trkpt>
      <trkpt lat="45.92408" lon="4.73228">
        <ele>171</ele>
        <time>2018-04-08T10:34:27Z</time>
      </trkpt>
      <trkpt lat="45.92409" lon="4.73235">
        <ele>171</ele>
        <time>2018-04-08T10:34:28Z</time>
      </trkpt>
      <trkpt lat="45.92409" lon="4.73242">
        <ele>171</ele>
        <time>2018-04-08T10:34:29Z</time>
      </trkpt>
      <trkpt lat="45.9241" lon="4.73248">
        <ele>171</ele>
        <time>2018-04-08T10:34:30Z</time>
      </trkpt>
      <trkpt lat="45.9241" lon="4.73255">
        <ele>171</ele>
        <time>2018-04-08T10:34:31Z</time>
      </trkpt>
      <trkpt lat="45.9241" lon="4.73263">
        <ele>171</ele>
        <time>2018-04-08T10:34:32Z</time>
      </trkpt>
      <trkpt lat="45.9241" lon="4.7327">
        <ele>171</ele>
        <time>2018-04-08T10:34:33Z</time>
      </trkpt>
      <trkpt lat="45.9241" lon="4.73277">
        <ele>171</ele>
        <time>2018-04-08T10:34:34Z</time>
      </trkpt>
      <trkpt lat="45.92411" lon="4.73284">
        <ele>171</ele>
        <time>2018-04-08T10:34:35Z</time>
      </trkpt>
      <trkpt lat="45.92411" lon="4.73292">
        <ele>171</ele>
        <time>2018-04-08T10:34:36Z</time>
      </trkpt>
      <trkpt lat="45.92413" lon="4.73304">
        <ele>171</ele>
        <time>2018-04-08T10:34:38Z</time>
      </trkpt>
      <trkpt lat="45.92413" lon="4.73309">
        <ele>171</ele>
        <time>2018-04-08T10:34:39Z</time>
      </trkpt>
      <trkpt lat="45.92413" lon="4.73316">
        <ele>171</ele>
        <time>2018-04-08T10:34:40Z</time>
      </trkpt>
      <trkpt lat="45.92413" lon="4.73322">
        <ele>171</ele>
        <time>2018-04-08T10:34:41Z</time>
      </trkpt>
      <trkpt lat="45.92414" lon="4.73329">
        <ele>171</ele>
        <time>2018-04-08T10:34:42Z</time>
      </trkpt>
      <trkpt lat="45.92414" lon="4.73335">
        <ele>171</ele>
        <time>2018-04-08T10:34:43Z</time>
      </trkpt>
      <trkpt lat="45.92414" lon="4.73342">
        <ele>171</ele>
        <time>2018-04-08T10:34:44Z</time>
      </trkpt>
      <trkpt lat="45.92415" lon="4.73348">
        <ele>171</ele>
        <time>2018-04-08T10:34:45Z</time>
      </trkpt>
      <trkpt lat="45.92417" lon="4.73356">
        <ele>171</ele>
        <time>2018-04-08T10:34:46Z</time>
      </trkpt>
      <trkpt lat="45.92418" lon="4.73364">
        <ele>172</ele>
        <time>2018-04-08T10:34:47Z</time>
      </trkpt>
      <trkpt lat="45.9242" lon="4.73371">
        <ele>172</ele>
        <time>2018-04-08T10:34:48Z</time>
      </trkpt>
      <trkpt lat="45.9242" lon="4.73378">
        <ele>172</ele>
        <time>2018-04-08T10:34:49Z</time>
      </trkpt>
      <trkpt lat="45.92422" lon="4.73385">
        <ele>172</ele>
        <time>2018-04-08T10:34:50Z</time>
      </trkpt>
      <trkpt lat="45.92424" lon="4.73393">
        <ele>172</ele>
        <time>2018-04-08T10:34:51Z</time>
      </trkpt>
      <trkpt lat="45.92425" lon="4.73399">
        <ele>172</ele>
        <time>2018-04-08T10:34:52Z</time>
      </trkpt>
      <trkpt lat="45.92428" lon="4.73406">
        <ele>172</ele>
        <time>2018-04-08T10:34:53Z</time>
      </trkpt>
      <trkpt lat="45.92431" lon="4.73411">
        <ele>172</ele>
        <time>2018-04-08T10:34:54Z</time>
      </trkpt>
      <trkpt lat="45.92434" lon="4.73415">
        <ele>172</ele>
        <time>2018-04-08T10:34:55Z</time>
      </trkpt>
      <trkpt lat="45.92442" lon="4.73421">
        <ele>173</ele>
        <time>2018-04-08T10:34:57Z</time>
      </trkpt>
      <trkpt lat="45.92445" lon="4.73423">
        <ele>173</ele>
        <time>2018-04-08T10:34:58Z</time>
      </trkpt>
      <trkpt lat="45.92452" lon="4.7343">
        <ele>173</ele>
        <time>2018-04-08T10:35:00Z</time>
      </trkpt>
      <trkpt lat="45.92456" lon="4.73435">
        <ele>173</ele>
        <time>2018-04-08T10:35:01Z</time>
      </trkpt>
      <trkpt lat="45.9246" lon="4.73439">
        <ele>173</ele>
        <time>2018-04-08T10:35:02Z</time>
      </trkpt>
      <trkpt lat="45.92463" lon="4.73444">
        <ele>173</ele>
        <time>2018-04-08T10:35:03Z</time>
      </trkpt>
      <trkpt lat="45.92465" lon="4.73452">
        <ele>173</ele>
        <time>2018-04-08T10:35:04Z</time>
      </trkpt>
      <trkpt lat="45.92466" lon="4.73459">
        <ele>173</ele>
        <time>2018-04-08T10:35:05Z</time>
      </trkpt>
      <trkpt lat="45.92467" lon="4.73466">
        <ele>173</ele>
        <time>2018-04-08T10:35:06Z</time>
      </trkpt>
      <trkpt lat="45.92467" lon="4.73475">
        <ele>173</ele>
        <time>2018-04-08T10:35:07Z</time>
      </trkpt>
      <trkpt lat="45.92467" lon="4.73484">
        <ele>173</ele>
        <time>2018-04-08T10:35:08Z</time>
      </trkpt>
      <trkpt lat="45.92467" lon="4.73492">
        <ele>173</ele>
        <time>2018-04-08T10:35:09Z</time>
      </trkpt>
      <trkpt lat="45.92467" lon="4.73501">
        <ele>174</ele>
        <time>2018-04-08T10:35:10Z</time>
      </trkpt>
      <trkpt lat="45.92467" lon="4.7351">
        <ele>174</ele>
        <time>2018-04-08T10:35:11Z</time>
      </trkpt>
      <trkpt lat="45.92466" lon="4.73518">
        <ele>174</ele>
        <time>2018-04-08T10:35:12Z</time>
      </trkpt>
      <trkpt lat="45.92466" lon="4.73526">
        <ele>174</ele>
        <time>2018-04-08T10:35:13Z</time>
      </trkpt>
      <trkpt lat="45.92466" lon="4.73533">
        <ele>174</ele>
        <time>2018-04-08T10:35:14Z</time>
      </trkpt>
      <trkpt lat="45.92465" lon="4.7354">
        <ele>174</ele>
        <time>2018-04-08T10:35:15Z</time>
      </trkpt>
      <trkpt lat="45.92465" lon="4.73552">
        <ele>173</ele>
        <time>2018-04-08T10:35:17Z</time>
      </trkpt>
      <trkpt lat="45.92464" lon="4.73559">
        <ele>173</ele>
        <time>2018-04-08T10:35:18Z</time>
      </trkpt>
      <trkpt lat="45.92464" lon="4.73567">
        <ele>173</ele>
        <time>2018-04-08T10:35:19Z</time>
      </trkpt>
      <trkpt lat="45.92465" lon="4.73575">
        <ele>173</ele>
        <time>2018-04-08T10:35:20Z</time>
      </trkpt>
      <trkpt lat="45.92466" lon="4.73585">
        <ele>174</ele>
        <time>2018-04-08T10:35:21Z</time>
      </trkpt>
      <trkpt lat="45.92466" lon="4.73594">
        <ele>174</ele>
        <time>2018-04-08T10:35:22Z</time>
      </trkpt>
      <trkpt lat="45.92467" lon="4.73603">
        <ele>174</ele>
        <time>2018-04-08T10:35:23Z</time>
      </trkpt>
      <trkpt lat="45.92467" lon="4.7361">
        <ele>174</ele>
        <time>2018-04-08T10:35:24Z</time>
      </trkpt>
      <trkpt lat="45.92467" lon="4.7362">
        <ele>174</ele>
        <time>2018-04-08T10:35:25Z</time>
      </trkpt>
      <trkpt lat="45.92468" lon="4.73629">
        <ele>174</ele>
        <time>2018-04-08T10:35:26Z</time>
      </trkpt>
      <trkpt lat="45.92469" lon="4.73636">
        <ele>174</ele>
        <time>2018-04-08T10:35:27Z</time>
      </trkpt>
      <trkpt lat="45.9247" lon="4.73643">
        <ele>174</ele>
        <time>2018-04-08T10:35:28Z</time>
      </trkpt>
      <trkpt lat="45.92468" lon="4.7365">
        <ele>174</ele>
        <time>2018-04-08T10:35:29Z</time>
      </trkpt>
      <trkpt lat="45.92468" lon="4.73659">
        <ele>174</ele>
        <time>2018-04-08T10:35:30Z</time>
      </trkpt>
      <trkpt lat="45.92467" lon="4.7367">
        <ele>174</ele>
        <time>2018-04-08T10:35:32Z</time>
      </trkpt>
      <trkpt lat="45.92466" lon="4.73677">
        <ele>174</ele>
        <time>2018-04-08T10:35:33Z</time>
      </trkpt>
      <trkpt lat="45.92464" lon="4.73688">
        <ele>174</ele>
        <time>2018-04-08T10:35:35Z</time>
      </trkpt>
      <trkpt lat="45.92464" lon="4.7369">
        <ele>174</ele>
        <time>2018-04-08T10:35:36Z</time>
      </trkpt>
      <trkpt lat="45.92464" lon="4.73703">
        <ele>174</ele>
        <time>2018-04-08T10:35:40Z</time>
      </trkpt>
      <trkpt lat="45.92463" lon="4.73704">
        <ele>174</ele>
        <time>2018-04-08T10:35:41Z</time>
      </trkpt>
      <trkpt lat="45.92464" lon="4.73708">
        <ele>174</ele>
        <time>2018-04-08T10:36:06Z</time>
      </trkpt>
      <trkpt lat="45.92464" lon="4.73708">
        <ele>174</ele>
        <time>2018-04-08T10:36:07Z</time>
      </trkpt>
      <trkpt lat="45.92464" lon="4.73708">
        <ele>174</ele>
        <time>2018-04-08T10:36:08Z</time>
      </trkpt>
      <trkpt lat="45.92462" lon="4.73709">
        <ele>174</ele>
        <time>2018-04-08T10:36:23.801Z</time>
      </trkpt>
    </trkseg>
  </trk>
</gpx>